<?xml version="1.0" encoding="UTF-8" standalone="no" ?>
<gpx xmlns="http://www.topografix.com/GPX/1/1" xmlns:xsi="http://www.w3.org/2001/XMLSchema-instance" xsi:schemaLocation="http://www.topografix.com/GPX/1/1 http://www.topografix.com/GPX/1/1/gpx.xsd" version="1.1" creator="VisuGPX - https://www.visugpx.com">
  <metadata>
    <name>Jour 24 - Le Chemin Sauvage</name>
  </metadata>
  <trk>
    <name><![CDATA[2026-05-25 14:19:11]]></name>
    <trkseg>
      <trkpt lat="43.82323" lon="1.72608">
        <ele>134.72</ele>
        <time>2026-05-25T04:14:23Z</time>
      </trkpt>
      <trkpt lat="43.82323" lon="1.72608">
        <ele>136.16</ele>
        <time>2026-05-25T04:14:25Z</time>
      </trkpt>
      <trkpt lat="43.82323" lon="1.72602">
        <ele>134.72</ele>
        <time>2026-05-25T04:14:40Z</time>
      </trkpt>
      <trkpt lat="43.82323" lon="1.72602">
        <ele>136.16</ele>
        <time>2026-05-25T04:14:42Z</time>
      </trkpt>
      <trkpt lat="43.82323" lon="1.72604">
        <ele>136.16</ele>
        <time>2026-05-25T04:14:50Z</time>
      </trkpt>
      <trkpt lat="43.82324" lon="1.7261">
        <ele>134.72</ele>
        <time>2026-05-25T04:14:59Z</time>
      </trkpt>
      <trkpt lat="43.82321" lon="1.72616">
        <ele>134.72</ele>
        <time>2026-05-25T04:15:22Z</time>
      </trkpt>
      <trkpt lat="43.8232" lon="1.72616">
        <ele>135.2</ele>
        <time>2026-05-25T04:15:37Z</time>
      </trkpt>
      <trkpt lat="43.82315" lon="1.72612">
        <ele>135.2</ele>
        <time>2026-05-25T04:15:41Z</time>
      </trkpt>
      <trkpt lat="43.82303" lon="1.72603">
        <ele>135.2</ele>
        <time>2026-05-25T04:15:55Z</time>
      </trkpt>
      <trkpt lat="43.82295" lon="1.72598">
        <ele>135.2</ele>
        <time>2026-05-25T04:16:12Z</time>
      </trkpt>
      <trkpt lat="43.82286" lon="1.7259">
        <ele>134.24</ele>
        <time>2026-05-25T04:16:26Z</time>
      </trkpt>
      <trkpt lat="43.82275" lon="1.72574">
        <ele>134.24</ele>
        <time>2026-05-25T04:16:38Z</time>
      </trkpt>
      <trkpt lat="43.82271" lon="1.72568">
        <ele>134.24</ele>
        <time>2026-05-25T04:16:43Z</time>
      </trkpt>
      <trkpt lat="43.82259" lon="1.72547">
        <ele>133.76</ele>
        <time>2026-05-25T04:17:00Z</time>
      </trkpt>
      <trkpt lat="43.8225" lon="1.72532">
        <ele>133.76</ele>
        <time>2026-05-25T04:17:13Z</time>
      </trkpt>
      <trkpt lat="43.82241" lon="1.72519">
        <ele>133.28</ele>
        <time>2026-05-25T04:17:25Z</time>
      </trkpt>
      <trkpt lat="43.82232" lon="1.72503">
        <ele>133.28</ele>
        <time>2026-05-25T04:17:37Z</time>
      </trkpt>
      <trkpt lat="43.82231" lon="1.72496">
        <ele>133.76</ele>
        <time>2026-05-25T04:17:49Z</time>
      </trkpt>
      <trkpt lat="43.8223" lon="1.72494">
        <ele>133.28</ele>
        <time>2026-05-25T04:17:58Z</time>
      </trkpt>
      <trkpt lat="43.82224" lon="1.72468">
        <ele>133.28</ele>
        <time>2026-05-25T04:18:12Z</time>
      </trkpt>
      <trkpt lat="43.82209" lon="1.72446">
        <ele>133.76</ele>
        <time>2026-05-25T04:18:27Z</time>
      </trkpt>
      <trkpt lat="43.82188" lon="1.72429">
        <ele>133.28</ele>
        <time>2026-05-25T04:18:44Z</time>
      </trkpt>
      <trkpt lat="43.82168" lon="1.72413">
        <ele>132.8</ele>
        <time>2026-05-25T04:19:01Z</time>
      </trkpt>
      <trkpt lat="43.8216" lon="1.72398">
        <ele>133.76</ele>
        <time>2026-05-25T04:19:10Z</time>
      </trkpt>
      <trkpt lat="43.82159" lon="1.72397">
        <ele>133.76</ele>
        <time>2026-05-25T04:19:11Z</time>
      </trkpt>
      <trkpt lat="43.82146" lon="1.72388">
        <ele>132.8</ele>
        <time>2026-05-25T04:19:18Z</time>
      </trkpt>
      <trkpt lat="43.82133" lon="1.72372">
        <ele>134.72</ele>
        <time>2026-05-25T04:19:34Z</time>
      </trkpt>
      <trkpt lat="43.82122" lon="1.72383">
        <ele>133.28</ele>
        <time>2026-05-25T04:19:44Z</time>
      </trkpt>
      <trkpt lat="43.82116" lon="1.72389">
        <ele>133.28</ele>
        <time>2026-05-25T04:19:49Z</time>
      </trkpt>
      <trkpt lat="43.82109" lon="1.72386">
        <ele>133.28</ele>
        <time>2026-05-25T04:19:56Z</time>
      </trkpt>
      <trkpt lat="43.82109" lon="1.72388">
        <ele>133.28</ele>
        <time>2026-05-25T04:20:09Z</time>
      </trkpt>
      <trkpt lat="43.82114" lon="1.72371">
        <ele>133.28</ele>
        <time>2026-05-25T04:20:20Z</time>
      </trkpt>
      <trkpt lat="43.82103" lon="1.72359">
        <ele>133.28</ele>
        <time>2026-05-25T04:20:32Z</time>
      </trkpt>
      <trkpt lat="43.82097" lon="1.72352">
        <ele>133.28</ele>
        <time>2026-05-25T04:20:38Z</time>
      </trkpt>
      <trkpt lat="43.82092" lon="1.7234">
        <ele>133.28</ele>
        <time>2026-05-25T04:20:45Z</time>
      </trkpt>
      <trkpt lat="43.8209" lon="1.72336">
        <ele>133.28</ele>
        <time>2026-05-25T04:20:47Z</time>
      </trkpt>
      <trkpt lat="43.82089" lon="1.72324">
        <ele>133.28</ele>
        <time>2026-05-25T04:20:55Z</time>
      </trkpt>
      <trkpt lat="43.82088" lon="1.72322">
        <ele>133.28</ele>
        <time>2026-05-25T04:20:56Z</time>
      </trkpt>
      <trkpt lat="43.82087" lon="1.72321">
        <ele>133.28</ele>
        <time>2026-05-25T04:20:57Z</time>
      </trkpt>
      <trkpt lat="43.82085" lon="1.72319">
        <ele>133.28</ele>
        <time>2026-05-25T04:20:58Z</time>
      </trkpt>
      <trkpt lat="43.82084" lon="1.72317">
        <ele>133.28</ele>
        <time>2026-05-25T04:20:59Z</time>
      </trkpt>
      <trkpt lat="43.82073" lon="1.723">
        <ele>132.8</ele>
        <time>2026-05-25T04:21:12Z</time>
      </trkpt>
      <trkpt lat="43.82072" lon="1.72298">
        <ele>132.8</ele>
        <time>2026-05-25T04:21:13Z</time>
      </trkpt>
      <trkpt lat="43.82071" lon="1.72297">
        <ele>132.8</ele>
        <time>2026-05-25T04:21:14Z</time>
      </trkpt>
      <trkpt lat="43.8207" lon="1.72295">
        <ele>132.8</ele>
        <time>2026-05-25T04:21:15Z</time>
      </trkpt>
      <trkpt lat="43.82069" lon="1.72292">
        <ele>132.8</ele>
        <time>2026-05-25T04:21:16Z</time>
      </trkpt>
      <trkpt lat="43.82059" lon="1.72276">
        <ele>130.88</ele>
        <time>2026-05-25T04:21:29Z</time>
      </trkpt>
      <trkpt lat="43.82049" lon="1.72261">
        <ele>129.43</ele>
        <time>2026-05-25T04:21:41Z</time>
      </trkpt>
      <trkpt lat="43.82044" lon="1.72257">
        <ele>128.47</ele>
        <time>2026-05-25T04:21:47Z</time>
      </trkpt>
      <trkpt lat="43.82043" lon="1.72256">
        <ele>128.47</ele>
        <time>2026-05-25T04:21:48Z</time>
      </trkpt>
      <trkpt lat="43.82031" lon="1.72243">
        <ele>125.59</ele>
        <time>2026-05-25T04:22:01Z</time>
      </trkpt>
      <trkpt lat="43.82015" lon="1.72224">
        <ele>123.67</ele>
        <time>2026-05-25T04:22:15Z</time>
      </trkpt>
      <trkpt lat="43.82002" lon="1.72197">
        <ele>123.67</ele>
        <time>2026-05-25T04:22:30Z</time>
      </trkpt>
      <trkpt lat="43.81996" lon="1.72184">
        <ele>123.67</ele>
        <time>2026-05-25T04:22:43Z</time>
      </trkpt>
      <trkpt lat="43.81989" lon="1.72169">
        <ele>123.67</ele>
        <time>2026-05-25T04:23:00Z</time>
      </trkpt>
      <trkpt lat="43.81984" lon="1.72163">
        <ele>125.11</ele>
        <time>2026-05-25T04:23:06Z</time>
      </trkpt>
      <trkpt lat="43.81983" lon="1.72162">
        <ele>125.11</ele>
        <time>2026-05-25T04:23:07Z</time>
      </trkpt>
      <trkpt lat="43.81971" lon="1.72146">
        <ele>126.55</ele>
        <time>2026-05-25T04:23:22Z</time>
      </trkpt>
      <trkpt lat="43.81961" lon="1.72126">
        <ele>129.92</ele>
        <time>2026-05-25T04:23:40Z</time>
      </trkpt>
      <trkpt lat="43.8196" lon="1.72112">
        <ele>130.88</ele>
        <time>2026-05-25T04:23:49Z</time>
      </trkpt>
      <trkpt lat="43.81957" lon="1.72095">
        <ele>131.84</ele>
        <time>2026-05-25T04:24:01Z</time>
      </trkpt>
      <trkpt lat="43.81956" lon="1.72093">
        <ele>131.84</ele>
        <time>2026-05-25T04:24:02Z</time>
      </trkpt>
      <trkpt lat="43.81956" lon="1.7209">
        <ele>131.84</ele>
        <time>2026-05-25T04:24:03Z</time>
      </trkpt>
      <trkpt lat="43.81956" lon="1.72088">
        <ele>131.84</ele>
        <time>2026-05-25T04:24:04Z</time>
      </trkpt>
      <trkpt lat="43.81956" lon="1.72086">
        <ele>131.84</ele>
        <time>2026-05-25T04:24:05Z</time>
      </trkpt>
      <trkpt lat="43.8195" lon="1.72065">
        <ele>132.8</ele>
        <time>2026-05-25T04:24:19Z</time>
      </trkpt>
      <trkpt lat="43.8195" lon="1.72042">
        <ele>132.8</ele>
        <time>2026-05-25T04:24:34Z</time>
      </trkpt>
      <trkpt lat="43.8195" lon="1.72008">
        <ele>133.76</ele>
        <time>2026-05-25T04:24:49Z</time>
      </trkpt>
      <trkpt lat="43.8195" lon="1.71986">
        <ele>133.76</ele>
        <time>2026-05-25T04:25:04Z</time>
      </trkpt>
      <trkpt lat="43.81949" lon="1.71979">
        <ele>134.24</ele>
        <time>2026-05-25T04:25:07Z</time>
      </trkpt>
      <trkpt lat="43.81945" lon="1.71954">
        <ele>135.2</ele>
        <time>2026-05-25T04:25:21Z</time>
      </trkpt>
      <trkpt lat="43.81941" lon="1.71931">
        <ele>135.68</ele>
        <time>2026-05-25T04:25:33Z</time>
      </trkpt>
      <trkpt lat="43.81944" lon="1.71921">
        <ele>135.68</ele>
        <time>2026-05-25T04:25:40Z</time>
      </trkpt>
      <trkpt lat="43.81944" lon="1.7192">
        <ele>135.68</ele>
        <time>2026-05-25T04:25:41Z</time>
      </trkpt>
      <trkpt lat="43.81944" lon="1.71917">
        <ele>136.16</ele>
        <time>2026-05-25T04:25:42Z</time>
      </trkpt>
      <trkpt lat="43.81944" lon="1.71915">
        <ele>136.16</ele>
        <time>2026-05-25T04:25:43Z</time>
      </trkpt>
      <trkpt lat="43.81945" lon="1.71913">
        <ele>136.16</ele>
        <time>2026-05-25T04:25:44Z</time>
      </trkpt>
      <trkpt lat="43.81947" lon="1.71888">
        <ele>136.64</ele>
        <time>2026-05-25T04:25:57Z</time>
      </trkpt>
      <trkpt lat="43.81945" lon="1.71885">
        <ele>137.61</ele>
        <time>2026-05-25T04:26:00Z</time>
      </trkpt>
      <trkpt lat="43.81945" lon="1.71884">
        <ele>137.61</ele>
        <time>2026-05-25T04:26:01Z</time>
      </trkpt>
      <trkpt lat="43.81945" lon="1.71882">
        <ele>137.61</ele>
        <time>2026-05-25T04:26:02Z</time>
      </trkpt>
      <trkpt lat="43.81945" lon="1.71879">
        <ele>138.09</ele>
        <time>2026-05-25T04:26:03Z</time>
      </trkpt>
      <trkpt lat="43.81945" lon="1.71876">
        <ele>138.09</ele>
        <time>2026-05-25T04:26:04Z</time>
      </trkpt>
      <trkpt lat="43.81945" lon="1.71874">
        <ele>138.09</ele>
        <time>2026-05-25T04:26:05Z</time>
      </trkpt>
      <trkpt lat="43.81945" lon="1.71855">
        <ele>138.09</ele>
        <time>2026-05-25T04:26:17Z</time>
      </trkpt>
      <trkpt lat="43.81948" lon="1.71833">
        <ele>138.09</ele>
        <time>2026-05-25T04:26:29Z</time>
      </trkpt>
      <trkpt lat="43.81947" lon="1.71808">
        <ele>138.09</ele>
        <time>2026-05-25T04:26:42Z</time>
      </trkpt>
      <trkpt lat="43.81943" lon="1.71782">
        <ele>138.09</ele>
        <time>2026-05-25T04:26:56Z</time>
      </trkpt>
      <trkpt lat="43.81938" lon="1.71753">
        <ele>138.57</ele>
        <time>2026-05-25T04:27:11Z</time>
      </trkpt>
      <trkpt lat="43.81935" lon="1.71723">
        <ele>138.57</ele>
        <time>2026-05-25T04:27:26Z</time>
      </trkpt>
      <trkpt lat="43.81932" lon="1.71701">
        <ele>139.05</ele>
        <time>2026-05-25T04:27:41Z</time>
      </trkpt>
      <trkpt lat="43.81932" lon="1.71669">
        <ele>139.53</ele>
        <time>2026-05-25T04:27:58Z</time>
      </trkpt>
      <trkpt lat="43.81938" lon="1.71641">
        <ele>140.01</ele>
        <time>2026-05-25T04:28:14Z</time>
      </trkpt>
      <trkpt lat="43.81944" lon="1.71621">
        <ele>140.49</ele>
        <time>2026-05-25T04:28:26Z</time>
      </trkpt>
      <trkpt lat="43.81948" lon="1.716">
        <ele>140.97</ele>
        <time>2026-05-25T04:28:39Z</time>
      </trkpt>
      <trkpt lat="43.81949" lon="1.71596">
        <ele>141.45</ele>
        <time>2026-05-25T04:28:42Z</time>
      </trkpt>
      <trkpt lat="43.81949" lon="1.71594">
        <ele>141.45</ele>
        <time>2026-05-25T04:28:43Z</time>
      </trkpt>
      <trkpt lat="43.8195" lon="1.71592">
        <ele>141.45</ele>
        <time>2026-05-25T04:28:44Z</time>
      </trkpt>
      <trkpt lat="43.81956" lon="1.71568">
        <ele>142.41</ele>
        <time>2026-05-25T04:28:58Z</time>
      </trkpt>
      <trkpt lat="43.81957" lon="1.71546">
        <ele>143.37</ele>
        <time>2026-05-25T04:29:11Z</time>
      </trkpt>
      <trkpt lat="43.81959" lon="1.71533">
        <ele>144.34</ele>
        <time>2026-05-25T04:29:20Z</time>
      </trkpt>
      <trkpt lat="43.81959" lon="1.71531">
        <ele>144.34</ele>
        <time>2026-05-25T04:29:21Z</time>
      </trkpt>
      <trkpt lat="43.81959" lon="1.71529">
        <ele>144.34</ele>
        <time>2026-05-25T04:29:22Z</time>
      </trkpt>
      <trkpt lat="43.81957" lon="1.71513">
        <ele>145.78</ele>
        <time>2026-05-25T04:29:33Z</time>
      </trkpt>
      <trkpt lat="43.81956" lon="1.71511">
        <ele>146.26</ele>
        <time>2026-05-25T04:29:34Z</time>
      </trkpt>
      <trkpt lat="43.81956" lon="1.71509">
        <ele>146.26</ele>
        <time>2026-05-25T04:29:35Z</time>
      </trkpt>
      <trkpt lat="43.81955" lon="1.71507">
        <ele>146.26</ele>
        <time>2026-05-25T04:29:36Z</time>
      </trkpt>
      <trkpt lat="43.81954" lon="1.71505">
        <ele>146.26</ele>
        <time>2026-05-25T04:29:37Z</time>
      </trkpt>
      <trkpt lat="43.81954" lon="1.71504">
        <ele>146.74</ele>
        <time>2026-05-25T04:29:38Z</time>
      </trkpt>
      <trkpt lat="43.81952" lon="1.71499">
        <ele>147.22</ele>
        <time>2026-05-25T04:29:44Z</time>
      </trkpt>
      <trkpt lat="43.81951" lon="1.71498">
        <ele>147.7</ele>
        <time>2026-05-25T04:29:45Z</time>
      </trkpt>
      <trkpt lat="43.8195" lon="1.71496">
        <ele>147.7</ele>
        <time>2026-05-25T04:29:46Z</time>
      </trkpt>
      <trkpt lat="43.81949" lon="1.71495">
        <ele>148.18</ele>
        <time>2026-05-25T04:29:47Z</time>
      </trkpt>
      <trkpt lat="43.81949" lon="1.71493">
        <ele>148.18</ele>
        <time>2026-05-25T04:29:48Z</time>
      </trkpt>
      <trkpt lat="43.81947" lon="1.71487">
        <ele>148.66</ele>
        <time>2026-05-25T04:29:53Z</time>
      </trkpt>
      <trkpt lat="43.81942" lon="1.71485">
        <ele>149.14</ele>
        <time>2026-05-25T04:30:10Z</time>
      </trkpt>
      <trkpt lat="43.81938" lon="1.71476">
        <ele>149.62</ele>
        <time>2026-05-25T04:30:35Z</time>
      </trkpt>
      <trkpt lat="43.81938" lon="1.71468">
        <ele>150.58</ele>
        <time>2026-05-25T04:30:41Z</time>
      </trkpt>
      <trkpt lat="43.81937" lon="1.71466">
        <ele>150.58</ele>
        <time>2026-05-25T04:30:42Z</time>
      </trkpt>
      <trkpt lat="43.81937" lon="1.71464">
        <ele>150.58</ele>
        <time>2026-05-25T04:30:43Z</time>
      </trkpt>
      <trkpt lat="43.81934" lon="1.71444">
        <ele>152.51</ele>
        <time>2026-05-25T04:30:56Z</time>
      </trkpt>
      <trkpt lat="43.81923" lon="1.71428">
        <ele>154.43</ele>
        <time>2026-05-25T04:31:09Z</time>
      </trkpt>
      <trkpt lat="43.81914" lon="1.71418">
        <ele>155.87</ele>
        <time>2026-05-25T04:31:22Z</time>
      </trkpt>
      <trkpt lat="43.81902" lon="1.71407">
        <ele>157.31</ele>
        <time>2026-05-25T04:31:34Z</time>
      </trkpt>
      <trkpt lat="43.81898" lon="1.71402">
        <ele>157.79</ele>
        <time>2026-05-25T04:31:40Z</time>
      </trkpt>
      <trkpt lat="43.81897" lon="1.71401">
        <ele>158.27</ele>
        <time>2026-05-25T04:31:41Z</time>
      </trkpt>
      <trkpt lat="43.81895" lon="1.714">
        <ele>158.27</ele>
        <time>2026-05-25T04:31:42Z</time>
      </trkpt>
      <trkpt lat="43.81894" lon="1.71398">
        <ele>158.75</ele>
        <time>2026-05-25T04:31:43Z</time>
      </trkpt>
      <trkpt lat="43.81893" lon="1.71397">
        <ele>158.75</ele>
        <time>2026-05-25T04:31:44Z</time>
      </trkpt>
      <trkpt lat="43.81892" lon="1.71395">
        <ele>158.75</ele>
        <time>2026-05-25T04:31:45Z</time>
      </trkpt>
      <trkpt lat="43.81889" lon="1.7139">
        <ele>160.2</ele>
        <time>2026-05-25T04:31:51Z</time>
      </trkpt>
      <trkpt lat="43.81889" lon="1.71388">
        <ele>159.72</ele>
        <time>2026-05-25T04:31:52Z</time>
      </trkpt>
      <trkpt lat="43.81888" lon="1.71386">
        <ele>160.2</ele>
        <time>2026-05-25T04:31:53Z</time>
      </trkpt>
      <trkpt lat="43.81888" lon="1.71384">
        <ele>159.72</ele>
        <time>2026-05-25T04:31:54Z</time>
      </trkpt>
      <trkpt lat="43.81888" lon="1.71383">
        <ele>160.2</ele>
        <time>2026-05-25T04:31:55Z</time>
      </trkpt>
      <trkpt lat="43.81887" lon="1.71376">
        <ele>161.16</ele>
        <time>2026-05-25T04:32:02Z</time>
      </trkpt>
      <trkpt lat="43.81887" lon="1.71374">
        <ele>161.16</ele>
        <time>2026-05-25T04:32:03Z</time>
      </trkpt>
      <trkpt lat="43.81888" lon="1.71372">
        <ele>161.64</ele>
        <time>2026-05-25T04:32:04Z</time>
      </trkpt>
      <trkpt lat="43.8189" lon="1.71365">
        <ele>162.6</ele>
        <time>2026-05-25T04:32:11Z</time>
      </trkpt>
      <trkpt lat="43.8189" lon="1.71363">
        <ele>162.6</ele>
        <time>2026-05-25T04:32:12Z</time>
      </trkpt>
      <trkpt lat="43.81891" lon="1.71362">
        <ele>163.08</ele>
        <time>2026-05-25T04:32:13Z</time>
      </trkpt>
      <trkpt lat="43.81892" lon="1.71356">
        <ele>163.56</ele>
        <time>2026-05-25T04:32:19Z</time>
      </trkpt>
      <trkpt lat="43.81893" lon="1.71354">
        <ele>164.52</ele>
        <time>2026-05-25T04:32:20Z</time>
      </trkpt>
      <trkpt lat="43.81893" lon="1.71353">
        <ele>164.52</ele>
        <time>2026-05-25T04:32:21Z</time>
      </trkpt>
      <trkpt lat="43.81901" lon="1.71341">
        <ele>166.45</ele>
        <time>2026-05-25T04:32:32Z</time>
      </trkpt>
      <trkpt lat="43.81902" lon="1.71332">
        <ele>166.93</ele>
        <time>2026-05-25T04:32:39Z</time>
      </trkpt>
      <trkpt lat="43.81902" lon="1.71329">
        <ele>166.93</ele>
        <time>2026-05-25T04:32:40Z</time>
      </trkpt>
      <trkpt lat="43.81902" lon="1.71328">
        <ele>167.41</ele>
        <time>2026-05-25T04:32:41Z</time>
      </trkpt>
      <trkpt lat="43.81902" lon="1.71325">
        <ele>167.41</ele>
        <time>2026-05-25T04:32:42Z</time>
      </trkpt>
      <trkpt lat="43.81902" lon="1.71323">
        <ele>167.41</ele>
        <time>2026-05-25T04:32:43Z</time>
      </trkpt>
      <trkpt lat="43.81903" lon="1.71304">
        <ele>168.85</ele>
        <time>2026-05-25T04:32:55Z</time>
      </trkpt>
      <trkpt lat="43.81905" lon="1.7128">
        <ele>169.33</ele>
        <time>2026-05-25T04:33:09Z</time>
      </trkpt>
      <trkpt lat="43.81905" lon="1.7127">
        <ele>169.81</ele>
        <time>2026-05-25T04:33:15Z</time>
      </trkpt>
      <trkpt lat="43.81906" lon="1.71268">
        <ele>169.81</ele>
        <time>2026-05-25T04:33:16Z</time>
      </trkpt>
      <trkpt lat="43.81907" lon="1.71243">
        <ele>170.77</ele>
        <time>2026-05-25T04:33:29Z</time>
      </trkpt>
      <trkpt lat="43.81908" lon="1.7122">
        <ele>171.25</ele>
        <time>2026-05-25T04:33:41Z</time>
      </trkpt>
      <trkpt lat="43.81908" lon="1.71217">
        <ele>171.25</ele>
        <time>2026-05-25T04:33:44Z</time>
      </trkpt>
      <trkpt lat="43.81908" lon="1.71215">
        <ele>171.25</ele>
        <time>2026-05-25T04:33:45Z</time>
      </trkpt>
      <trkpt lat="43.81908" lon="1.71213">
        <ele>171.25</ele>
        <time>2026-05-25T04:33:46Z</time>
      </trkpt>
      <trkpt lat="43.81908" lon="1.71211">
        <ele>171.25</ele>
        <time>2026-05-25T04:33:47Z</time>
      </trkpt>
      <trkpt lat="43.81908" lon="1.71209">
        <ele>171.25</ele>
        <time>2026-05-25T04:33:48Z</time>
      </trkpt>
      <trkpt lat="43.81908" lon="1.71206">
        <ele>171.25</ele>
        <time>2026-05-25T04:33:49Z</time>
      </trkpt>
      <trkpt lat="43.81907" lon="1.71183">
        <ele>170.29</ele>
        <time>2026-05-25T04:34:01Z</time>
      </trkpt>
      <trkpt lat="43.81906" lon="1.71161">
        <ele>169.81</ele>
        <time>2026-05-25T04:34:13Z</time>
      </trkpt>
      <trkpt lat="43.81906" lon="1.71138">
        <ele>168.85</ele>
        <time>2026-05-25T04:34:25Z</time>
      </trkpt>
      <trkpt lat="43.81905" lon="1.71116">
        <ele>168.85</ele>
        <time>2026-05-25T04:34:37Z</time>
      </trkpt>
      <trkpt lat="43.81905" lon="1.71093">
        <ele>168.37</ele>
        <time>2026-05-25T04:34:49Z</time>
      </trkpt>
      <trkpt lat="43.81904" lon="1.71069">
        <ele>167.89</ele>
        <time>2026-05-25T04:35:02Z</time>
      </trkpt>
      <trkpt lat="43.81904" lon="1.71049">
        <ele>167.89</ele>
        <time>2026-05-25T04:35:11Z</time>
      </trkpt>
      <trkpt lat="43.81905" lon="1.71044">
        <ele>167.89</ele>
        <time>2026-05-25T04:35:16Z</time>
      </trkpt>
      <trkpt lat="43.81905" lon="1.71042">
        <ele>167.89</ele>
        <time>2026-05-25T04:35:17Z</time>
      </trkpt>
      <trkpt lat="43.81905" lon="1.7104">
        <ele>167.89</ele>
        <time>2026-05-25T04:35:18Z</time>
      </trkpt>
      <trkpt lat="43.81905" lon="1.71038">
        <ele>167.89</ele>
        <time>2026-05-25T04:35:19Z</time>
      </trkpt>
      <trkpt lat="43.81905" lon="1.71036">
        <ele>167.89</ele>
        <time>2026-05-25T04:35:20Z</time>
      </trkpt>
      <trkpt lat="43.81904" lon="1.71034">
        <ele>167.41</ele>
        <time>2026-05-25T04:35:21Z</time>
      </trkpt>
      <trkpt lat="43.81904" lon="1.71015">
        <ele>167.41</ele>
        <time>2026-05-25T04:35:32Z</time>
      </trkpt>
      <trkpt lat="43.81905" lon="1.7099">
        <ele>167.41</ele>
        <time>2026-05-25T04:35:45Z</time>
      </trkpt>
      <trkpt lat="43.81902" lon="1.70963">
        <ele>167.41</ele>
        <time>2026-05-25T04:35:59Z</time>
      </trkpt>
      <trkpt lat="43.81898" lon="1.7094">
        <ele>167.41</ele>
        <time>2026-05-25T04:36:12Z</time>
      </trkpt>
      <trkpt lat="43.81897" lon="1.70923">
        <ele>167.41</ele>
        <time>2026-05-25T04:36:23Z</time>
      </trkpt>
      <trkpt lat="43.81898" lon="1.70921">
        <ele>167.41</ele>
        <time>2026-05-25T04:36:24Z</time>
      </trkpt>
      <trkpt lat="43.81904" lon="1.70901">
        <ele>167.41</ele>
        <time>2026-05-25T04:36:36Z</time>
      </trkpt>
      <trkpt lat="43.81909" lon="1.70881">
        <ele>166.93</ele>
        <time>2026-05-25T04:36:47Z</time>
      </trkpt>
      <trkpt lat="43.81915" lon="1.70857">
        <ele>165.96</ele>
        <time>2026-05-25T04:37:01Z</time>
      </trkpt>
      <trkpt lat="43.81917" lon="1.70848">
        <ele>165.48</ele>
        <time>2026-05-25T04:37:05Z</time>
      </trkpt>
      <trkpt lat="43.81922" lon="1.70826">
        <ele>165.48</ele>
        <time>2026-05-25T04:37:18Z</time>
      </trkpt>
      <trkpt lat="43.81925" lon="1.70805">
        <ele>165</ele>
        <time>2026-05-25T04:37:29Z</time>
      </trkpt>
      <trkpt lat="43.81925" lon="1.70803">
        <ele>165</ele>
        <time>2026-05-25T04:37:30Z</time>
      </trkpt>
      <trkpt lat="43.81925" lon="1.70791">
        <ele>164.04</ele>
        <time>2026-05-25T04:37:38Z</time>
      </trkpt>
      <trkpt lat="43.81925" lon="1.70789">
        <ele>164.04</ele>
        <time>2026-05-25T04:37:39Z</time>
      </trkpt>
      <trkpt lat="43.81925" lon="1.70787">
        <ele>164.04</ele>
        <time>2026-05-25T04:37:40Z</time>
      </trkpt>
      <trkpt lat="43.81925" lon="1.70785">
        <ele>164.04</ele>
        <time>2026-05-25T04:37:41Z</time>
      </trkpt>
      <trkpt lat="43.81925" lon="1.70783">
        <ele>164.04</ele>
        <time>2026-05-25T04:37:42Z</time>
      </trkpt>
      <trkpt lat="43.81925" lon="1.7078">
        <ele>164.04</ele>
        <time>2026-05-25T04:37:43Z</time>
      </trkpt>
      <trkpt lat="43.81925" lon="1.70778">
        <ele>164.04</ele>
        <time>2026-05-25T04:37:44Z</time>
      </trkpt>
      <trkpt lat="43.81925" lon="1.70776">
        <ele>163.56</ele>
        <time>2026-05-25T04:37:45Z</time>
      </trkpt>
      <trkpt lat="43.81923" lon="1.70748">
        <ele>162.6</ele>
        <time>2026-05-25T04:37:59Z</time>
      </trkpt>
      <trkpt lat="43.81923" lon="1.70721">
        <ele>161.64</ele>
        <time>2026-05-25T04:38:13Z</time>
      </trkpt>
      <trkpt lat="43.81923" lon="1.70697">
        <ele>160.2</ele>
        <time>2026-05-25T04:38:25Z</time>
      </trkpt>
      <trkpt lat="43.81924" lon="1.70662">
        <ele>159.24</ele>
        <time>2026-05-25T04:38:43Z</time>
      </trkpt>
      <trkpt lat="43.81927" lon="1.70627">
        <ele>158.27</ele>
        <time>2026-05-25T04:39:01Z</time>
      </trkpt>
      <trkpt lat="43.81926" lon="1.70624">
        <ele>158.27</ele>
        <time>2026-05-25T04:39:04Z</time>
      </trkpt>
      <trkpt lat="43.81926" lon="1.70622">
        <ele>158.27</ele>
        <time>2026-05-25T04:39:05Z</time>
      </trkpt>
      <trkpt lat="43.81926" lon="1.7062">
        <ele>158.27</ele>
        <time>2026-05-25T04:39:06Z</time>
      </trkpt>
      <trkpt lat="43.81926" lon="1.70587">
        <ele>157.31</ele>
        <time>2026-05-25T04:39:23Z</time>
      </trkpt>
      <trkpt lat="43.81928" lon="1.70559">
        <ele>156.35</ele>
        <time>2026-05-25T04:39:38Z</time>
      </trkpt>
      <trkpt lat="43.81927" lon="1.70553">
        <ele>156.35</ele>
        <time>2026-05-25T04:39:42Z</time>
      </trkpt>
      <trkpt lat="43.81927" lon="1.70551">
        <ele>156.35</ele>
        <time>2026-05-25T04:39:43Z</time>
      </trkpt>
      <trkpt lat="43.81927" lon="1.70549">
        <ele>156.35</ele>
        <time>2026-05-25T04:39:44Z</time>
      </trkpt>
      <trkpt lat="43.81929" lon="1.70518">
        <ele>155.39</ele>
        <time>2026-05-25T04:40:00Z</time>
      </trkpt>
      <trkpt lat="43.81929" lon="1.70488">
        <ele>154.43</ele>
        <time>2026-05-25T04:40:16Z</time>
      </trkpt>
      <trkpt lat="43.81929" lon="1.70486">
        <ele>154.43</ele>
        <time>2026-05-25T04:40:18Z</time>
      </trkpt>
      <trkpt lat="43.81931" lon="1.7048">
        <ele>154.43</ele>
        <time>2026-05-25T04:40:22Z</time>
      </trkpt>
      <trkpt lat="43.81931" lon="1.70478">
        <ele>154.43</ele>
        <time>2026-05-25T04:40:23Z</time>
      </trkpt>
      <trkpt lat="43.81925" lon="1.70456">
        <ele>153.95</ele>
        <time>2026-05-25T04:40:36Z</time>
      </trkpt>
      <trkpt lat="43.81922" lon="1.70457">
        <ele>153.95</ele>
        <time>2026-05-25T04:40:38Z</time>
      </trkpt>
      <trkpt lat="43.81906" lon="1.70459">
        <ele>153.95</ele>
        <time>2026-05-25T04:40:49Z</time>
      </trkpt>
      <trkpt lat="43.8188" lon="1.70454">
        <ele>153.95</ele>
        <time>2026-05-25T04:41:07Z</time>
      </trkpt>
      <trkpt lat="43.81863" lon="1.70451">
        <ele>153.95</ele>
        <time>2026-05-25T04:41:20Z</time>
      </trkpt>
      <trkpt lat="43.81844" lon="1.70445">
        <ele>153.95</ele>
        <time>2026-05-25T04:41:36Z</time>
      </trkpt>
      <trkpt lat="43.81836" lon="1.70443">
        <ele>153.47</ele>
        <time>2026-05-25T04:41:42Z</time>
      </trkpt>
      <trkpt lat="43.81835" lon="1.70442">
        <ele>153.47</ele>
        <time>2026-05-25T04:41:43Z</time>
      </trkpt>
      <trkpt lat="43.81821" lon="1.70434">
        <ele>153.47</ele>
        <time>2026-05-25T04:41:58Z</time>
      </trkpt>
      <trkpt lat="43.81804" lon="1.70426">
        <ele>153.47</ele>
        <time>2026-05-25T04:42:15Z</time>
      </trkpt>
      <trkpt lat="43.81772" lon="1.70415">
        <ele>153.47</ele>
        <time>2026-05-25T04:42:33Z</time>
      </trkpt>
      <trkpt lat="43.81751" lon="1.70412">
        <ele>152.99</ele>
        <time>2026-05-25T04:42:49Z</time>
      </trkpt>
      <trkpt lat="43.81721" lon="1.70412">
        <ele>152.99</ele>
        <time>2026-05-25T04:43:09Z</time>
      </trkpt>
      <trkpt lat="43.8169" lon="1.7041">
        <ele>152.99</ele>
        <time>2026-05-25T04:43:29Z</time>
      </trkpt>
      <trkpt lat="43.81671" lon="1.70412">
        <ele>152.99</ele>
        <time>2026-05-25T04:43:44Z</time>
      </trkpt>
      <trkpt lat="43.81663" lon="1.70409">
        <ele>152.99</ele>
        <time>2026-05-25T04:43:58Z</time>
      </trkpt>
      <trkpt lat="43.81664" lon="1.70411">
        <ele>152.99</ele>
        <time>2026-05-25T04:44:12Z</time>
      </trkpt>
      <trkpt lat="43.81658" lon="1.70412">
        <ele>152.99</ele>
        <time>2026-05-25T04:44:17Z</time>
      </trkpt>
      <trkpt lat="43.81656" lon="1.70411">
        <ele>152.99</ele>
        <time>2026-05-25T04:44:18Z</time>
      </trkpt>
      <trkpt lat="43.81655" lon="1.70411">
        <ele>152.99</ele>
        <time>2026-05-25T04:44:19Z</time>
      </trkpt>
      <trkpt lat="43.81644" lon="1.7041">
        <ele>154.43</ele>
        <time>2026-05-25T04:44:27Z</time>
      </trkpt>
      <trkpt lat="43.81643" lon="1.70411">
        <ele>154.43</ele>
        <time>2026-05-25T04:44:28Z</time>
      </trkpt>
      <trkpt lat="43.81636" lon="1.70421">
        <ele>154.91</ele>
        <time>2026-05-25T04:44:45Z</time>
      </trkpt>
      <trkpt lat="43.81628" lon="1.70419">
        <ele>154.91</ele>
        <time>2026-05-25T04:45:05Z</time>
      </trkpt>
      <trkpt lat="43.81621" lon="1.70411">
        <ele>155.87</ele>
        <time>2026-05-25T04:45:14Z</time>
      </trkpt>
      <trkpt lat="43.81598" lon="1.70392">
        <ele>157.79</ele>
        <time>2026-05-25T04:45:32Z</time>
      </trkpt>
      <trkpt lat="43.81579" lon="1.7037">
        <ele>157.31</ele>
        <time>2026-05-25T04:45:51Z</time>
      </trkpt>
      <trkpt lat="43.81563" lon="1.70353">
        <ele>158.27</ele>
        <time>2026-05-25T04:46:07Z</time>
      </trkpt>
      <trkpt lat="43.81561" lon="1.70354">
        <ele>158.27</ele>
        <time>2026-05-25T04:46:21Z</time>
      </trkpt>
      <trkpt lat="43.8156" lon="1.70352">
        <ele>158.27</ele>
        <time>2026-05-25T04:46:31Z</time>
      </trkpt>
      <trkpt lat="43.81559" lon="1.70351">
        <ele>158.75</ele>
        <time>2026-05-25T04:46:32Z</time>
      </trkpt>
      <trkpt lat="43.81558" lon="1.7035">
        <ele>158.75</ele>
        <time>2026-05-25T04:46:33Z</time>
      </trkpt>
      <trkpt lat="43.81545" lon="1.70333">
        <ele>159.24</ele>
        <time>2026-05-25T04:46:48Z</time>
      </trkpt>
      <trkpt lat="43.81537" lon="1.70318">
        <ele>161.16</ele>
        <time>2026-05-25T04:47:03Z</time>
      </trkpt>
      <trkpt lat="43.81531" lon="1.70315">
        <ele>163.08</ele>
        <time>2026-05-25T04:47:16Z</time>
      </trkpt>
      <trkpt lat="43.81534" lon="1.70316">
        <ele>163.08</ele>
        <time>2026-05-25T04:47:21Z</time>
      </trkpt>
      <trkpt lat="43.81535" lon="1.70315">
        <ele>163.08</ele>
        <time>2026-05-25T04:47:22Z</time>
      </trkpt>
      <trkpt lat="43.81546" lon="1.70298">
        <ele>161.16</ele>
        <time>2026-05-25T04:47:37Z</time>
      </trkpt>
      <trkpt lat="43.81555" lon="1.70274">
        <ele>161.16</ele>
        <time>2026-05-25T04:47:51Z</time>
      </trkpt>
      <trkpt lat="43.81561" lon="1.70252">
        <ele>160.68</ele>
        <time>2026-05-25T04:48:04Z</time>
      </trkpt>
      <trkpt lat="43.81562" lon="1.7025">
        <ele>160.68</ele>
        <time>2026-05-25T04:48:05Z</time>
      </trkpt>
      <trkpt lat="43.81562" lon="1.70248">
        <ele>160.68</ele>
        <time>2026-05-25T04:48:06Z</time>
      </trkpt>
      <trkpt lat="43.81563" lon="1.70246">
        <ele>160.68</ele>
        <time>2026-05-25T04:48:07Z</time>
      </trkpt>
      <trkpt lat="43.81563" lon="1.70244">
        <ele>160.68</ele>
        <time>2026-05-25T04:48:08Z</time>
      </trkpt>
      <trkpt lat="43.81564" lon="1.70242">
        <ele>160.68</ele>
        <time>2026-05-25T04:48:09Z</time>
      </trkpt>
      <trkpt lat="43.81565" lon="1.70227">
        <ele>160.68</ele>
        <time>2026-05-25T04:48:22Z</time>
      </trkpt>
      <trkpt lat="43.81565" lon="1.70225">
        <ele>160.68</ele>
        <time>2026-05-25T04:48:46Z</time>
      </trkpt>
      <trkpt lat="43.81565" lon="1.70223">
        <ele>160.68</ele>
        <time>2026-05-25T04:48:47Z</time>
      </trkpt>
      <trkpt lat="43.81565" lon="1.7022">
        <ele>160.68</ele>
        <time>2026-05-25T04:48:48Z</time>
      </trkpt>
      <trkpt lat="43.81565" lon="1.70218">
        <ele>160.68</ele>
        <time>2026-05-25T04:48:49Z</time>
      </trkpt>
      <trkpt lat="43.81565" lon="1.70216">
        <ele>160.68</ele>
        <time>2026-05-25T04:48:50Z</time>
      </trkpt>
      <trkpt lat="43.81565" lon="1.70214">
        <ele>160.68</ele>
        <time>2026-05-25T04:48:51Z</time>
      </trkpt>
      <trkpt lat="43.81565" lon="1.70213">
        <ele>160.68</ele>
        <time>2026-05-25T04:48:52Z</time>
      </trkpt>
      <trkpt lat="43.81563" lon="1.70183">
        <ele>160.68</ele>
        <time>2026-05-25T04:49:09Z</time>
      </trkpt>
      <trkpt lat="43.81561" lon="1.70152">
        <ele>160.2</ele>
        <time>2026-05-25T04:49:24Z</time>
      </trkpt>
      <trkpt lat="43.81557" lon="1.70128">
        <ele>159.72</ele>
        <time>2026-05-25T04:49:38Z</time>
      </trkpt>
      <trkpt lat="43.81555" lon="1.70105">
        <ele>159.24</ele>
        <time>2026-05-25T04:49:51Z</time>
      </trkpt>
      <trkpt lat="43.81553" lon="1.70077">
        <ele>158.27</ele>
        <time>2026-05-25T04:50:06Z</time>
      </trkpt>
      <trkpt lat="43.8155" lon="1.70048">
        <ele>157.31</ele>
        <time>2026-05-25T04:50:21Z</time>
      </trkpt>
      <trkpt lat="43.81549" lon="1.70018">
        <ele>156.35</ele>
        <time>2026-05-25T04:50:36Z</time>
      </trkpt>
      <trkpt lat="43.8155" lon="1.69989">
        <ele>155.87</ele>
        <time>2026-05-25T04:50:52Z</time>
      </trkpt>
      <trkpt lat="43.81555" lon="1.69965">
        <ele>155.39</ele>
        <time>2026-05-25T04:51:07Z</time>
      </trkpt>
      <trkpt lat="43.81557" lon="1.69938">
        <ele>153.95</ele>
        <time>2026-05-25T04:51:24Z</time>
      </trkpt>
      <trkpt lat="43.81562" lon="1.69923">
        <ele>152.99</ele>
        <time>2026-05-25T04:51:41Z</time>
      </trkpt>
      <trkpt lat="43.81561" lon="1.69907">
        <ele>151.06</ele>
        <time>2026-05-25T04:51:58Z</time>
      </trkpt>
      <trkpt lat="43.81561" lon="1.69905">
        <ele>151.06</ele>
        <time>2026-05-25T04:51:59Z</time>
      </trkpt>
      <trkpt lat="43.81561" lon="1.69873">
        <ele>148.18</ele>
        <time>2026-05-25T04:52:18Z</time>
      </trkpt>
      <trkpt lat="43.81569" lon="1.69842">
        <ele>147.7</ele>
        <time>2026-05-25T04:52:34Z</time>
      </trkpt>
      <trkpt lat="43.81568" lon="1.69827">
        <ele>147.7</ele>
        <time>2026-05-25T04:52:50Z</time>
      </trkpt>
      <trkpt lat="43.81554" lon="1.69821">
        <ele>147.7</ele>
        <time>2026-05-25T04:53:37Z</time>
      </trkpt>
      <trkpt lat="43.81547" lon="1.69819">
        <ele>149.14</ele>
        <time>2026-05-25T04:53:45Z</time>
      </trkpt>
      <trkpt lat="43.81542" lon="1.69819">
        <ele>150.58</ele>
        <time>2026-05-25T04:53:52Z</time>
      </trkpt>
      <trkpt lat="43.81539" lon="1.69822">
        <ele>152.03</ele>
        <time>2026-05-25T04:53:56Z</time>
      </trkpt>
      <trkpt lat="43.8153" lon="1.6982">
        <ele>152.51</ele>
        <time>2026-05-25T04:54:04Z</time>
      </trkpt>
      <trkpt lat="43.81514" lon="1.69815">
        <ele>153.47</ele>
        <time>2026-05-25T04:54:19Z</time>
      </trkpt>
      <trkpt lat="43.81499" lon="1.69814">
        <ele>153.95</ele>
        <time>2026-05-25T04:54:31Z</time>
      </trkpt>
      <trkpt lat="43.81497" lon="1.69814">
        <ele>153.95</ele>
        <time>2026-05-25T04:54:34Z</time>
      </trkpt>
      <trkpt lat="43.81496" lon="1.69813">
        <ele>153.95</ele>
        <time>2026-05-25T04:54:35Z</time>
      </trkpt>
      <trkpt lat="43.81478" lon="1.69812">
        <ele>154.43</ele>
        <time>2026-05-25T04:54:49Z</time>
      </trkpt>
      <trkpt lat="43.81463" lon="1.69811">
        <ele>154.91</ele>
        <time>2026-05-25T04:55:02Z</time>
      </trkpt>
      <trkpt lat="43.8146" lon="1.69811">
        <ele>155.87</ele>
        <time>2026-05-25T04:55:06Z</time>
      </trkpt>
      <trkpt lat="43.81459" lon="1.69811">
        <ele>155.87</ele>
        <time>2026-05-25T04:55:07Z</time>
      </trkpt>
      <trkpt lat="43.81458" lon="1.69811">
        <ele>156.35</ele>
        <time>2026-05-25T04:55:08Z</time>
      </trkpt>
      <trkpt lat="43.81457" lon="1.69811">
        <ele>156.35</ele>
        <time>2026-05-25T04:55:09Z</time>
      </trkpt>
      <trkpt lat="43.81455" lon="1.69811">
        <ele>156.35</ele>
        <time>2026-05-25T04:55:10Z</time>
      </trkpt>
      <trkpt lat="43.81439" lon="1.69811">
        <ele>157.31</ele>
        <time>2026-05-25T04:55:23Z</time>
      </trkpt>
      <trkpt lat="43.81436" lon="1.69809">
        <ele>157.79</ele>
        <time>2026-05-25T04:55:27Z</time>
      </trkpt>
      <trkpt lat="43.81434" lon="1.69809">
        <ele>158.27</ele>
        <time>2026-05-25T04:55:28Z</time>
      </trkpt>
      <trkpt lat="43.81432" lon="1.69809">
        <ele>157.79</ele>
        <time>2026-05-25T04:55:30Z</time>
      </trkpt>
      <trkpt lat="43.8143" lon="1.69808">
        <ele>158.75</ele>
        <time>2026-05-25T04:55:32Z</time>
      </trkpt>
      <trkpt lat="43.81428" lon="1.69807">
        <ele>158.27</ele>
        <time>2026-05-25T04:55:33Z</time>
      </trkpt>
      <trkpt lat="43.81425" lon="1.69801">
        <ele>158.75</ele>
        <time>2026-05-25T04:55:41Z</time>
      </trkpt>
      <trkpt lat="43.81423" lon="1.69776">
        <ele>157.79</ele>
        <time>2026-05-25T04:55:58Z</time>
      </trkpt>
      <trkpt lat="43.81423" lon="1.69774">
        <ele>157.79</ele>
        <time>2026-05-25T04:55:59Z</time>
      </trkpt>
      <trkpt lat="43.81422" lon="1.69762">
        <ele>157.79</ele>
        <time>2026-05-25T04:56:06Z</time>
      </trkpt>
      <trkpt lat="43.81422" lon="1.6976">
        <ele>157.31</ele>
        <time>2026-05-25T04:56:07Z</time>
      </trkpt>
      <trkpt lat="43.81412" lon="1.69731">
        <ele>155.39</ele>
        <time>2026-05-25T04:56:25Z</time>
      </trkpt>
      <trkpt lat="43.81404" lon="1.69727">
        <ele>155.39</ele>
        <time>2026-05-25T04:56:33Z</time>
      </trkpt>
      <trkpt lat="43.81384" lon="1.69728">
        <ele>158.27</ele>
        <time>2026-05-25T04:56:53Z</time>
      </trkpt>
      <trkpt lat="43.81371" lon="1.69731">
        <ele>159.24</ele>
        <time>2026-05-25T04:57:02Z</time>
      </trkpt>
      <trkpt lat="43.8136" lon="1.69734">
        <ele>160.2</ele>
        <time>2026-05-25T04:57:10Z</time>
      </trkpt>
      <trkpt lat="43.81359" lon="1.69734">
        <ele>160.2</ele>
        <time>2026-05-25T04:57:11Z</time>
      </trkpt>
      <trkpt lat="43.81353" lon="1.69737">
        <ele>161.64</ele>
        <time>2026-05-25T04:57:17Z</time>
      </trkpt>
      <trkpt lat="43.81352" lon="1.69737">
        <ele>161.64</ele>
        <time>2026-05-25T04:57:18Z</time>
      </trkpt>
      <trkpt lat="43.8135" lon="1.69738">
        <ele>161.64</ele>
        <time>2026-05-25T04:57:19Z</time>
      </trkpt>
      <trkpt lat="43.81343" lon="1.69739">
        <ele>162.12</ele>
        <time>2026-05-25T04:57:25Z</time>
      </trkpt>
      <trkpt lat="43.81333" lon="1.69742">
        <ele>162.6</ele>
        <time>2026-05-25T04:57:35Z</time>
      </trkpt>
      <trkpt lat="43.81332" lon="1.69742">
        <ele>163.08</ele>
        <time>2026-05-25T04:57:36Z</time>
      </trkpt>
      <trkpt lat="43.81319" lon="1.69751">
        <ele>163.56</ele>
        <time>2026-05-25T04:57:48Z</time>
      </trkpt>
      <trkpt lat="43.81308" lon="1.69758">
        <ele>165</ele>
        <time>2026-05-25T04:58:00Z</time>
      </trkpt>
      <trkpt lat="43.81296" lon="1.69766">
        <ele>165.96</ele>
        <time>2026-05-25T04:58:12Z</time>
      </trkpt>
      <trkpt lat="43.81286" lon="1.69775">
        <ele>167.41</ele>
        <time>2026-05-25T04:58:24Z</time>
      </trkpt>
      <trkpt lat="43.81283" lon="1.6978">
        <ele>168.37</ele>
        <time>2026-05-25T04:58:28Z</time>
      </trkpt>
      <trkpt lat="43.81275" lon="1.6979">
        <ele>169.33</ele>
        <time>2026-05-25T04:58:39Z</time>
      </trkpt>
      <trkpt lat="43.81269" lon="1.69799">
        <ele>170.29</ele>
        <time>2026-05-25T04:58:48Z</time>
      </trkpt>
      <trkpt lat="43.81268" lon="1.698">
        <ele>170.77</ele>
        <time>2026-05-25T04:58:49Z</time>
      </trkpt>
      <trkpt lat="43.81258" lon="1.69817">
        <ele>172.69</ele>
        <time>2026-05-25T04:59:02Z</time>
      </trkpt>
      <trkpt lat="43.81251" lon="1.69827">
        <ele>173.66</ele>
        <time>2026-05-25T04:59:14Z</time>
      </trkpt>
      <trkpt lat="43.8125" lon="1.69828">
        <ele>174.14</ele>
        <time>2026-05-25T04:59:15Z</time>
      </trkpt>
      <trkpt lat="43.81245" lon="1.69835">
        <ele>174.62</ele>
        <time>2026-05-25T04:59:23Z</time>
      </trkpt>
      <trkpt lat="43.81244" lon="1.69837">
        <ele>174.62</ele>
        <time>2026-05-25T04:59:24Z</time>
      </trkpt>
      <trkpt lat="43.81243" lon="1.69838">
        <ele>175.1</ele>
        <time>2026-05-25T04:59:25Z</time>
      </trkpt>
      <trkpt lat="43.81239" lon="1.69844">
        <ele>176.06</ele>
        <time>2026-05-25T04:59:31Z</time>
      </trkpt>
      <trkpt lat="43.81238" lon="1.69845">
        <ele>176.06</ele>
        <time>2026-05-25T04:59:32Z</time>
      </trkpt>
      <trkpt lat="43.81237" lon="1.69846">
        <ele>176.06</ele>
        <time>2026-05-25T04:59:33Z</time>
      </trkpt>
      <trkpt lat="43.81234" lon="1.6985">
        <ele>177.02</ele>
        <time>2026-05-25T04:59:37Z</time>
      </trkpt>
      <trkpt lat="43.81234" lon="1.69851">
        <ele>177.02</ele>
        <time>2026-05-25T04:59:38Z</time>
      </trkpt>
      <trkpt lat="43.81233" lon="1.69852">
        <ele>177.5</ele>
        <time>2026-05-25T04:59:39Z</time>
      </trkpt>
      <trkpt lat="43.81232" lon="1.69854">
        <ele>177.5</ele>
        <time>2026-05-25T04:59:40Z</time>
      </trkpt>
      <trkpt lat="43.81231" lon="1.69855">
        <ele>177.98</ele>
        <time>2026-05-25T04:59:41Z</time>
      </trkpt>
      <trkpt lat="43.8122" lon="1.69861">
        <ele>178.46</ele>
        <time>2026-05-25T04:59:53Z</time>
      </trkpt>
      <trkpt lat="43.81219" lon="1.69862">
        <ele>178.94</ele>
        <time>2026-05-25T04:59:54Z</time>
      </trkpt>
      <trkpt lat="43.81218" lon="1.69862">
        <ele>178.94</ele>
        <time>2026-05-25T04:59:55Z</time>
      </trkpt>
      <trkpt lat="43.81211" lon="1.69864">
        <ele>179.42</ele>
        <time>2026-05-25T05:00:02Z</time>
      </trkpt>
      <trkpt lat="43.8121" lon="1.69864">
        <ele>179.42</ele>
        <time>2026-05-25T05:00:03Z</time>
      </trkpt>
      <trkpt lat="43.81195" lon="1.6987">
        <ele>181.35</ele>
        <time>2026-05-25T05:00:16Z</time>
      </trkpt>
      <trkpt lat="43.81192" lon="1.6988">
        <ele>183.27</ele>
        <time>2026-05-25T05:00:26Z</time>
      </trkpt>
      <trkpt lat="43.81204" lon="1.69899">
        <ele>184.71</ele>
        <time>2026-05-25T05:00:39Z</time>
      </trkpt>
      <trkpt lat="43.81213" lon="1.69913">
        <ele>185.19</ele>
        <time>2026-05-25T05:00:51Z</time>
      </trkpt>
      <trkpt lat="43.81224" lon="1.69935">
        <ele>185.67</ele>
        <time>2026-05-25T05:01:06Z</time>
      </trkpt>
      <trkpt lat="43.8123" lon="1.69955">
        <ele>186.63</ele>
        <time>2026-05-25T05:01:20Z</time>
      </trkpt>
      <trkpt lat="43.81225" lon="1.69973">
        <ele>188.08</ele>
        <time>2026-05-25T05:01:34Z</time>
      </trkpt>
      <trkpt lat="43.81214" lon="1.69993">
        <ele>189.52</ele>
        <time>2026-05-25T05:01:49Z</time>
      </trkpt>
      <trkpt lat="43.81206" lon="1.70009">
        <ele>191.44</ele>
        <time>2026-05-25T05:02:03Z</time>
      </trkpt>
      <trkpt lat="43.81201" lon="1.70021">
        <ele>192.4</ele>
        <time>2026-05-25T05:02:13Z</time>
      </trkpt>
      <trkpt lat="43.81201" lon="1.70023">
        <ele>192.88</ele>
        <time>2026-05-25T05:02:14Z</time>
      </trkpt>
      <trkpt lat="43.812" lon="1.70026">
        <ele>192.88</ele>
        <time>2026-05-25T05:02:16Z</time>
      </trkpt>
      <trkpt lat="43.81193" lon="1.70043">
        <ele>195.28</ele>
        <time>2026-05-25T05:02:31Z</time>
      </trkpt>
      <trkpt lat="43.81184" lon="1.70062">
        <ele>196.25</ele>
        <time>2026-05-25T05:02:45Z</time>
      </trkpt>
      <trkpt lat="43.81176" lon="1.70079">
        <ele>198.17</ele>
        <time>2026-05-25T05:02:58Z</time>
      </trkpt>
      <trkpt lat="43.81167" lon="1.70091">
        <ele>199.13</ele>
        <time>2026-05-25T05:03:09Z</time>
      </trkpt>
      <trkpt lat="43.81164" lon="1.7009">
        <ele>199.13</ele>
        <time>2026-05-25T05:03:13Z</time>
      </trkpt>
      <trkpt lat="43.81151" lon="1.70077">
        <ele>197.69</ele>
        <time>2026-05-25T05:03:26Z</time>
      </trkpt>
      <trkpt lat="43.8114" lon="1.70062">
        <ele>195.28</ele>
        <time>2026-05-25T05:03:38Z</time>
      </trkpt>
      <trkpt lat="43.81128" lon="1.70045">
        <ele>192.88</ele>
        <time>2026-05-25T05:03:52Z</time>
      </trkpt>
      <trkpt lat="43.81113" lon="1.70028">
        <ele>190.96</ele>
        <time>2026-05-25T05:04:05Z</time>
      </trkpt>
      <trkpt lat="43.81101" lon="1.70013">
        <ele>189.04</ele>
        <time>2026-05-25T05:04:18Z</time>
      </trkpt>
      <trkpt lat="43.81088" lon="1.69994">
        <ele>188.08</ele>
        <time>2026-05-25T05:04:33Z</time>
      </trkpt>
      <trkpt lat="43.81068" lon="1.6998">
        <ele>187.11</ele>
        <time>2026-05-25T05:04:49Z</time>
      </trkpt>
      <trkpt lat="43.81066" lon="1.69984">
        <ele>187.11</ele>
        <time>2026-05-25T05:04:52Z</time>
      </trkpt>
      <trkpt lat="43.81065" lon="1.69985">
        <ele>187.11</ele>
        <time>2026-05-25T05:04:53Z</time>
      </trkpt>
      <trkpt lat="43.81064" lon="1.69987">
        <ele>187.11</ele>
        <time>2026-05-25T05:04:54Z</time>
      </trkpt>
      <trkpt lat="43.81055" lon="1.70012">
        <ele>187.11</ele>
        <time>2026-05-25T05:05:10Z</time>
      </trkpt>
      <trkpt lat="43.81044" lon="1.70036">
        <ele>187.11</ele>
        <time>2026-05-25T05:05:26Z</time>
      </trkpt>
      <trkpt lat="43.81043" lon="1.70042">
        <ele>187.11</ele>
        <time>2026-05-25T05:05:30Z</time>
      </trkpt>
      <trkpt lat="43.81033" lon="1.70064">
        <ele>188.08</ele>
        <time>2026-05-25T05:05:45Z</time>
      </trkpt>
      <trkpt lat="43.81019" lon="1.70082">
        <ele>187.11</ele>
        <time>2026-05-25T05:05:59Z</time>
      </trkpt>
      <trkpt lat="43.81011" lon="1.7008">
        <ele>185.19</ele>
        <time>2026-05-25T05:06:05Z</time>
      </trkpt>
      <trkpt lat="43.8101" lon="1.70079">
        <ele>185.19</ele>
        <time>2026-05-25T05:06:06Z</time>
      </trkpt>
      <trkpt lat="43.80988" lon="1.7007">
        <ele>183.27</ele>
        <time>2026-05-25T05:06:20Z</time>
      </trkpt>
      <trkpt lat="43.80968" lon="1.70086">
        <ele>181.35</ele>
        <time>2026-05-25T05:06:36Z</time>
      </trkpt>
      <trkpt lat="43.80948" lon="1.70097">
        <ele>179.42</ele>
        <time>2026-05-25T05:06:52Z</time>
      </trkpt>
      <trkpt lat="43.80927" lon="1.70093">
        <ele>177.5</ele>
        <time>2026-05-25T05:07:06Z</time>
      </trkpt>
      <trkpt lat="43.80921" lon="1.70087">
        <ele>176.54</ele>
        <time>2026-05-25T05:07:16Z</time>
      </trkpt>
      <trkpt lat="43.80909" lon="1.70071">
        <ele>174.14</ele>
        <time>2026-05-25T05:07:30Z</time>
      </trkpt>
      <trkpt lat="43.80906" lon="1.70065">
        <ele>173.66</ele>
        <time>2026-05-25T05:07:44Z</time>
      </trkpt>
      <trkpt lat="43.80904" lon="1.70062">
        <ele>173.66</ele>
        <time>2026-05-25T05:08:13Z</time>
      </trkpt>
      <trkpt lat="43.80904" lon="1.7006">
        <ele>173.66</ele>
        <time>2026-05-25T05:08:14Z</time>
      </trkpt>
      <trkpt lat="43.80903" lon="1.70059">
        <ele>173.17</ele>
        <time>2026-05-25T05:08:15Z</time>
      </trkpt>
      <trkpt lat="43.80903" lon="1.70057">
        <ele>173.66</ele>
        <time>2026-05-25T05:08:16Z</time>
      </trkpt>
      <trkpt lat="43.80902" lon="1.70055">
        <ele>173.17</ele>
        <time>2026-05-25T05:08:17Z</time>
      </trkpt>
      <trkpt lat="43.80894" lon="1.70026">
        <ele>171.73</ele>
        <time>2026-05-25T05:08:33Z</time>
      </trkpt>
      <trkpt lat="43.80887" lon="1.69999">
        <ele>170.29</ele>
        <time>2026-05-25T05:08:49Z</time>
      </trkpt>
      <trkpt lat="43.80887" lon="1.69997">
        <ele>170.29</ele>
        <time>2026-05-25T05:08:50Z</time>
      </trkpt>
      <trkpt lat="43.80878" lon="1.69967">
        <ele>168.85</ele>
        <time>2026-05-25T05:09:08Z</time>
      </trkpt>
      <trkpt lat="43.80873" lon="1.69936">
        <ele>167.41</ele>
        <time>2026-05-25T05:09:24Z</time>
      </trkpt>
      <trkpt lat="43.80874" lon="1.69908">
        <ele>166.93</ele>
        <time>2026-05-25T05:09:38Z</time>
      </trkpt>
      <trkpt lat="43.80876" lon="1.69879">
        <ele>166.93</ele>
        <time>2026-05-25T05:09:52Z</time>
      </trkpt>
      <trkpt lat="43.80865" lon="1.69853">
        <ele>165.96</ele>
        <time>2026-05-25T05:10:09Z</time>
      </trkpt>
      <trkpt lat="43.80851" lon="1.69825">
        <ele>165.96</ele>
        <time>2026-05-25T05:10:28Z</time>
      </trkpt>
      <trkpt lat="43.80847" lon="1.69799">
        <ele>165.96</ele>
        <time>2026-05-25T05:10:45Z</time>
      </trkpt>
      <trkpt lat="43.8084" lon="1.69766">
        <ele>166.93</ele>
        <time>2026-05-25T05:11:04Z</time>
      </trkpt>
      <trkpt lat="43.80837" lon="1.69762">
        <ele>167.41</ele>
        <time>2026-05-25T05:11:08Z</time>
      </trkpt>
      <trkpt lat="43.80836" lon="1.6976">
        <ele>167.41</ele>
        <time>2026-05-25T05:11:09Z</time>
      </trkpt>
      <trkpt lat="43.80821" lon="1.69731">
        <ele>168.85</ele>
        <time>2026-05-25T05:11:28Z</time>
      </trkpt>
      <trkpt lat="43.80811" lon="1.69703">
        <ele>169.81</ele>
        <time>2026-05-25T05:11:45Z</time>
      </trkpt>
      <trkpt lat="43.80808" lon="1.6968">
        <ele>171.25</ele>
        <time>2026-05-25T05:12:01Z</time>
      </trkpt>
      <trkpt lat="43.80807" lon="1.69652">
        <ele>173.17</ele>
        <time>2026-05-25T05:12:19Z</time>
      </trkpt>
      <trkpt lat="43.80806" lon="1.69621">
        <ele>174.14</ele>
        <time>2026-05-25T05:12:37Z</time>
      </trkpt>
      <trkpt lat="43.80804" lon="1.6959">
        <ele>176.54</ele>
        <time>2026-05-25T05:12:56Z</time>
      </trkpt>
      <trkpt lat="43.80803" lon="1.69565">
        <ele>178.46</ele>
        <time>2026-05-25T05:13:12Z</time>
      </trkpt>
      <trkpt lat="43.80803" lon="1.69538">
        <ele>179.9</ele>
        <time>2026-05-25T05:13:28Z</time>
      </trkpt>
      <trkpt lat="43.80802" lon="1.6951">
        <ele>180.38</ele>
        <time>2026-05-25T05:13:44Z</time>
      </trkpt>
      <trkpt lat="43.80803" lon="1.69495">
        <ele>181.35</ele>
        <time>2026-05-25T05:13:53Z</time>
      </trkpt>
      <trkpt lat="43.80803" lon="1.69493">
        <ele>181.35</ele>
        <time>2026-05-25T05:13:54Z</time>
      </trkpt>
      <trkpt lat="43.80803" lon="1.69491">
        <ele>181.35</ele>
        <time>2026-05-25T05:13:55Z</time>
      </trkpt>
      <trkpt lat="43.80803" lon="1.69489">
        <ele>181.35</ele>
        <time>2026-05-25T05:13:56Z</time>
      </trkpt>
      <trkpt lat="43.80803" lon="1.69487">
        <ele>181.35</ele>
        <time>2026-05-25T05:13:57Z</time>
      </trkpt>
      <trkpt lat="43.80807" lon="1.69477">
        <ele>181.83</ele>
        <time>2026-05-25T05:14:09Z</time>
      </trkpt>
      <trkpt lat="43.80805" lon="1.69481">
        <ele>182.31</ele>
        <time>2026-05-25T05:14:15Z</time>
      </trkpt>
      <trkpt lat="43.80804" lon="1.69486">
        <ele>182.31</ele>
        <time>2026-05-25T05:14:18Z</time>
      </trkpt>
      <trkpt lat="43.80803" lon="1.69489">
        <ele>182.31</ele>
        <time>2026-05-25T05:14:19Z</time>
      </trkpt>
      <trkpt lat="43.80802" lon="1.69491">
        <ele>182.31</ele>
        <time>2026-05-25T05:14:20Z</time>
      </trkpt>
      <trkpt lat="43.80801" lon="1.69493">
        <ele>182.31</ele>
        <time>2026-05-25T05:14:21Z</time>
      </trkpt>
      <trkpt lat="43.80796" lon="1.69502">
        <ele>180.87</ele>
        <time>2026-05-25T05:14:29Z</time>
      </trkpt>
      <trkpt lat="43.80792" lon="1.69519">
        <ele>182.31</ele>
        <time>2026-05-25T05:14:37Z</time>
      </trkpt>
      <trkpt lat="43.80789" lon="1.69543">
        <ele>182.79</ele>
        <time>2026-05-25T05:14:53Z</time>
      </trkpt>
      <trkpt lat="43.80783" lon="1.69553">
        <ele>183.27</ele>
        <time>2026-05-25T05:15:01Z</time>
      </trkpt>
      <trkpt lat="43.8078" lon="1.69554">
        <ele>183.27</ele>
        <time>2026-05-25T05:15:18Z</time>
      </trkpt>
      <trkpt lat="43.80775" lon="1.69562">
        <ele>183.75</ele>
        <time>2026-05-25T05:15:31Z</time>
      </trkpt>
      <trkpt lat="43.80774" lon="1.69564">
        <ele>183.75</ele>
        <time>2026-05-25T05:15:32Z</time>
      </trkpt>
      <trkpt lat="43.80769" lon="1.69572">
        <ele>183.75</ele>
        <time>2026-05-25T05:15:39Z</time>
      </trkpt>
      <trkpt lat="43.80768" lon="1.69573">
        <ele>183.75</ele>
        <time>2026-05-25T05:15:40Z</time>
      </trkpt>
      <trkpt lat="43.80767" lon="1.69575">
        <ele>183.75</ele>
        <time>2026-05-25T05:15:41Z</time>
      </trkpt>
      <trkpt lat="43.80759" lon="1.69591">
        <ele>184.71</ele>
        <time>2026-05-25T05:15:53Z</time>
      </trkpt>
      <trkpt lat="43.80747" lon="1.69607">
        <ele>186.15</ele>
        <time>2026-05-25T05:16:06Z</time>
      </trkpt>
      <trkpt lat="43.80733" lon="1.69625">
        <ele>188.08</ele>
        <time>2026-05-25T05:16:22Z</time>
      </trkpt>
      <trkpt lat="43.80717" lon="1.69648">
        <ele>190</ele>
        <time>2026-05-25T05:16:40Z</time>
      </trkpt>
      <trkpt lat="43.80704" lon="1.69673">
        <ele>191.44</ele>
        <time>2026-05-25T05:16:57Z</time>
      </trkpt>
      <trkpt lat="43.80693" lon="1.69693">
        <ele>192.4</ele>
        <time>2026-05-25T05:17:13Z</time>
      </trkpt>
      <trkpt lat="43.80682" lon="1.69712">
        <ele>193.36</ele>
        <time>2026-05-25T05:17:28Z</time>
      </trkpt>
      <trkpt lat="43.80668" lon="1.69737">
        <ele>193.84</ele>
        <time>2026-05-25T05:17:44Z</time>
      </trkpt>
      <trkpt lat="43.80655" lon="1.6976">
        <ele>194.32</ele>
        <time>2026-05-25T05:18:00Z</time>
      </trkpt>
      <trkpt lat="43.80644" lon="1.69775">
        <ele>194.8</ele>
        <time>2026-05-25T05:18:14Z</time>
      </trkpt>
      <trkpt lat="43.80628" lon="1.69785">
        <ele>194.8</ele>
        <time>2026-05-25T05:18:27Z</time>
      </trkpt>
      <trkpt lat="43.80626" lon="1.69784">
        <ele>194.8</ele>
        <time>2026-05-25T05:18:29Z</time>
      </trkpt>
      <trkpt lat="43.80625" lon="1.69783">
        <ele>194.8</ele>
        <time>2026-05-25T05:18:30Z</time>
      </trkpt>
      <trkpt lat="43.80624" lon="1.69782">
        <ele>194.8</ele>
        <time>2026-05-25T05:18:31Z</time>
      </trkpt>
      <trkpt lat="43.80623" lon="1.69782">
        <ele>194.8</ele>
        <time>2026-05-25T05:18:32Z</time>
      </trkpt>
      <trkpt lat="43.80621" lon="1.69781">
        <ele>194.8</ele>
        <time>2026-05-25T05:18:33Z</time>
      </trkpt>
      <trkpt lat="43.80615" lon="1.69778">
        <ele>193.84</ele>
        <time>2026-05-25T05:18:39Z</time>
      </trkpt>
      <trkpt lat="43.80612" lon="1.69776">
        <ele>192.4</ele>
        <time>2026-05-25T05:18:59Z</time>
      </trkpt>
      <trkpt lat="43.80597" lon="1.69765">
        <ele>190.96</ele>
        <time>2026-05-25T05:19:13Z</time>
      </trkpt>
      <trkpt lat="43.80586" lon="1.69756">
        <ele>189.04</ele>
        <time>2026-05-25T05:19:25Z</time>
      </trkpt>
      <trkpt lat="43.80582" lon="1.69753">
        <ele>188.08</ele>
        <time>2026-05-25T05:19:40Z</time>
      </trkpt>
      <trkpt lat="43.80573" lon="1.69746">
        <ele>187.11</ele>
        <time>2026-05-25T05:20:09Z</time>
      </trkpt>
      <trkpt lat="43.80555" lon="1.69733">
        <ele>184.71</ele>
        <time>2026-05-25T05:20:23Z</time>
      </trkpt>
      <trkpt lat="43.8054" lon="1.6972">
        <ele>181.83</ele>
        <time>2026-05-25T05:20:37Z</time>
      </trkpt>
      <trkpt lat="43.80523" lon="1.69709">
        <ele>178.94</ele>
        <time>2026-05-25T05:20:51Z</time>
      </trkpt>
      <trkpt lat="43.80508" lon="1.69697">
        <ele>177.02</ele>
        <time>2026-05-25T05:21:04Z</time>
      </trkpt>
      <trkpt lat="43.80491" lon="1.69683">
        <ele>175.1</ele>
        <time>2026-05-25T05:21:17Z</time>
      </trkpt>
      <trkpt lat="43.80474" lon="1.69671">
        <ele>173.17</ele>
        <time>2026-05-25T05:21:30Z</time>
      </trkpt>
      <trkpt lat="43.80459" lon="1.6966">
        <ele>171.73</ele>
        <time>2026-05-25T05:21:42Z</time>
      </trkpt>
      <trkpt lat="43.80444" lon="1.69651">
        <ele>170.77</ele>
        <time>2026-05-25T05:21:54Z</time>
      </trkpt>
      <trkpt lat="43.80424" lon="1.69638">
        <ele>169.33</ele>
        <time>2026-05-25T05:22:10Z</time>
      </trkpt>
      <trkpt lat="43.80405" lon="1.69624">
        <ele>168.85</ele>
        <time>2026-05-25T05:22:25Z</time>
      </trkpt>
      <trkpt lat="43.80392" lon="1.69614">
        <ele>168.37</ele>
        <time>2026-05-25T05:22:38Z</time>
      </trkpt>
      <trkpt lat="43.80373" lon="1.69596">
        <ele>167.89</ele>
        <time>2026-05-25T05:22:51Z</time>
      </trkpt>
      <trkpt lat="43.80359" lon="1.69578">
        <ele>167.89</ele>
        <time>2026-05-25T05:23:07Z</time>
      </trkpt>
      <trkpt lat="43.8035" lon="1.69565">
        <ele>167.89</ele>
        <time>2026-05-25T05:23:21Z</time>
      </trkpt>
      <trkpt lat="43.80342" lon="1.69544">
        <ele>167.89</ele>
        <time>2026-05-25T05:23:34Z</time>
      </trkpt>
      <trkpt lat="43.8034" lon="1.69542">
        <ele>167.89</ele>
        <time>2026-05-25T05:23:37Z</time>
      </trkpt>
      <trkpt lat="43.80333" lon="1.69533">
        <ele>169.33</ele>
        <time>2026-05-25T05:23:46Z</time>
      </trkpt>
      <trkpt lat="43.80332" lon="1.69531">
        <ele>169.33</ele>
        <time>2026-05-25T05:23:47Z</time>
      </trkpt>
      <trkpt lat="43.80331" lon="1.6953">
        <ele>169.33</ele>
        <time>2026-05-25T05:23:48Z</time>
      </trkpt>
      <trkpt lat="43.80319" lon="1.69514">
        <ele>170.77</ele>
        <time>2026-05-25T05:24:02Z</time>
      </trkpt>
      <trkpt lat="43.80314" lon="1.69508">
        <ele>171.25</ele>
        <time>2026-05-25T05:24:09Z</time>
      </trkpt>
      <trkpt lat="43.80312" lon="1.69507">
        <ele>171.25</ele>
        <time>2026-05-25T05:24:10Z</time>
      </trkpt>
      <trkpt lat="43.8031" lon="1.69506">
        <ele>171.25</ele>
        <time>2026-05-25T05:24:11Z</time>
      </trkpt>
      <trkpt lat="43.80309" lon="1.69504">
        <ele>171.25</ele>
        <time>2026-05-25T05:24:12Z</time>
      </trkpt>
      <trkpt lat="43.80307" lon="1.69502">
        <ele>171.25</ele>
        <time>2026-05-25T05:24:13Z</time>
      </trkpt>
      <trkpt lat="43.80306" lon="1.69501">
        <ele>171.25</ele>
        <time>2026-05-25T05:24:14Z</time>
      </trkpt>
      <trkpt lat="43.80304" lon="1.69499">
        <ele>171.25</ele>
        <time>2026-05-25T05:24:15Z</time>
      </trkpt>
      <trkpt lat="43.80303" lon="1.69498">
        <ele>171.25</ele>
        <time>2026-05-25T05:24:16Z</time>
      </trkpt>
      <trkpt lat="43.80302" lon="1.69497">
        <ele>171.25</ele>
        <time>2026-05-25T05:24:17Z</time>
      </trkpt>
      <trkpt lat="43.80296" lon="1.69493">
        <ele>171.73</ele>
        <time>2026-05-25T05:24:24Z</time>
      </trkpt>
      <trkpt lat="43.80276" lon="1.69485">
        <ele>172.21</ele>
        <time>2026-05-25T05:24:38Z</time>
      </trkpt>
      <trkpt lat="43.80255" lon="1.69479">
        <ele>172.21</ele>
        <time>2026-05-25T05:24:53Z</time>
      </trkpt>
      <trkpt lat="43.80238" lon="1.69467">
        <ele>170.29</ele>
        <time>2026-05-25T05:25:06Z</time>
      </trkpt>
      <trkpt lat="43.80222" lon="1.69455">
        <ele>169.33</ele>
        <time>2026-05-25T05:25:19Z</time>
      </trkpt>
      <trkpt lat="43.80211" lon="1.69446">
        <ele>167.89</ele>
        <time>2026-05-25T05:25:30Z</time>
      </trkpt>
      <trkpt lat="43.80195" lon="1.69433">
        <ele>166.93</ele>
        <time>2026-05-25T05:25:44Z</time>
      </trkpt>
      <trkpt lat="43.80176" lon="1.69417">
        <ele>166.45</ele>
        <time>2026-05-25T05:25:58Z</time>
      </trkpt>
      <trkpt lat="43.80167" lon="1.69406">
        <ele>166.45</ele>
        <time>2026-05-25T05:26:12Z</time>
      </trkpt>
      <trkpt lat="43.80149" lon="1.69384">
        <ele>167.89</ele>
        <time>2026-05-25T05:26:26Z</time>
      </trkpt>
      <trkpt lat="43.80141" lon="1.69372">
        <ele>169.81</ele>
        <time>2026-05-25T05:26:38Z</time>
      </trkpt>
      <trkpt lat="43.80129" lon="1.69357">
        <ele>171.25</ele>
        <time>2026-05-25T05:26:51Z</time>
      </trkpt>
      <trkpt lat="43.80119" lon="1.69343">
        <ele>172.21</ele>
        <time>2026-05-25T05:27:03Z</time>
      </trkpt>
      <trkpt lat="43.80113" lon="1.69331">
        <ele>174.14</ele>
        <time>2026-05-25T05:27:16Z</time>
      </trkpt>
      <trkpt lat="43.8011" lon="1.6933">
        <ele>174.14</ele>
        <time>2026-05-25T05:27:23Z</time>
      </trkpt>
      <trkpt lat="43.80101" lon="1.69318">
        <ele>174.14</ele>
        <time>2026-05-25T05:27:35Z</time>
      </trkpt>
      <trkpt lat="43.80098" lon="1.69315">
        <ele>174.62</ele>
        <time>2026-05-25T05:27:38Z</time>
      </trkpt>
      <trkpt lat="43.80097" lon="1.69313">
        <ele>174.62</ele>
        <time>2026-05-25T05:27:39Z</time>
      </trkpt>
      <trkpt lat="43.80091" lon="1.69306">
        <ele>175.58</ele>
        <time>2026-05-25T05:27:48Z</time>
      </trkpt>
      <trkpt lat="43.8009" lon="1.69305">
        <ele>176.54</ele>
        <time>2026-05-25T05:27:49Z</time>
      </trkpt>
      <trkpt lat="43.80089" lon="1.69303">
        <ele>176.54</ele>
        <time>2026-05-25T05:27:50Z</time>
      </trkpt>
      <trkpt lat="43.80076" lon="1.69288">
        <ele>177.98</ele>
        <time>2026-05-25T05:28:03Z</time>
      </trkpt>
      <trkpt lat="43.80065" lon="1.69274">
        <ele>179.42</ele>
        <time>2026-05-25T05:28:16Z</time>
      </trkpt>
      <trkpt lat="43.80055" lon="1.69262">
        <ele>181.35</ele>
        <time>2026-05-25T05:28:28Z</time>
      </trkpt>
      <trkpt lat="43.80045" lon="1.6925">
        <ele>183.27</ele>
        <time>2026-05-25T05:28:41Z</time>
      </trkpt>
      <trkpt lat="43.80039" lon="1.69243">
        <ele>184.23</ele>
        <time>2026-05-25T05:28:50Z</time>
      </trkpt>
      <trkpt lat="43.80039" lon="1.69242">
        <ele>184.23</ele>
        <time>2026-05-25T05:28:51Z</time>
      </trkpt>
      <trkpt lat="43.80038" lon="1.69241">
        <ele>185.19</ele>
        <time>2026-05-25T05:28:52Z</time>
      </trkpt>
      <trkpt lat="43.80036" lon="1.69239">
        <ele>185.19</ele>
        <time>2026-05-25T05:28:53Z</time>
      </trkpt>
      <trkpt lat="43.80035" lon="1.69238">
        <ele>184.71</ele>
        <time>2026-05-25T05:28:54Z</time>
      </trkpt>
      <trkpt lat="43.80023" lon="1.69224">
        <ele>187.11</ele>
        <time>2026-05-25T05:29:08Z</time>
      </trkpt>
      <trkpt lat="43.8001" lon="1.69211">
        <ele>188.56</ele>
        <time>2026-05-25T05:29:22Z</time>
      </trkpt>
      <trkpt lat="43.79995" lon="1.69201">
        <ele>189.04</ele>
        <time>2026-05-25T05:29:34Z</time>
      </trkpt>
      <trkpt lat="43.79987" lon="1.69197">
        <ele>187.59</ele>
        <time>2026-05-25T05:29:43Z</time>
      </trkpt>
      <trkpt lat="43.79977" lon="1.69189">
        <ele>185.67</ele>
        <time>2026-05-25T05:29:56Z</time>
      </trkpt>
      <trkpt lat="43.79974" lon="1.69185">
        <ele>184.23</ele>
        <time>2026-05-25T05:30:00Z</time>
      </trkpt>
      <trkpt lat="43.79973" lon="1.69183">
        <ele>184.71</ele>
        <time>2026-05-25T05:30:01Z</time>
      </trkpt>
      <trkpt lat="43.79961" lon="1.69165">
        <ele>182.31</ele>
        <time>2026-05-25T05:30:14Z</time>
      </trkpt>
      <trkpt lat="43.79949" lon="1.69151">
        <ele>179.42</ele>
        <time>2026-05-25T05:30:28Z</time>
      </trkpt>
      <trkpt lat="43.79937" lon="1.69139">
        <ele>177.5</ele>
        <time>2026-05-25T05:30:40Z</time>
      </trkpt>
      <trkpt lat="43.79922" lon="1.69128">
        <ele>175.1</ele>
        <time>2026-05-25T05:30:53Z</time>
      </trkpt>
      <trkpt lat="43.79914" lon="1.6912">
        <ele>173.17</ele>
        <time>2026-05-25T05:31:01Z</time>
      </trkpt>
      <trkpt lat="43.79913" lon="1.69119">
        <ele>173.66</ele>
        <time>2026-05-25T05:31:02Z</time>
      </trkpt>
      <trkpt lat="43.799" lon="1.69112">
        <ele>171.73</ele>
        <time>2026-05-25T05:31:12Z</time>
      </trkpt>
      <trkpt lat="43.79899" lon="1.69111">
        <ele>171.73</ele>
        <time>2026-05-25T05:31:13Z</time>
      </trkpt>
      <trkpt lat="43.79886" lon="1.69105">
        <ele>170.29</ele>
        <time>2026-05-25T05:31:25Z</time>
      </trkpt>
      <trkpt lat="43.79884" lon="1.69104">
        <ele>170.29</ele>
        <time>2026-05-25T05:31:26Z</time>
      </trkpt>
      <trkpt lat="43.79867" lon="1.69095">
        <ele>167.89</ele>
        <time>2026-05-25T05:31:40Z</time>
      </trkpt>
      <trkpt lat="43.79852" lon="1.69086">
        <ele>166.93</ele>
        <time>2026-05-25T05:31:53Z</time>
      </trkpt>
      <trkpt lat="43.79847" lon="1.69078">
        <ele>166.93</ele>
        <time>2026-05-25T05:32:07Z</time>
      </trkpt>
      <trkpt lat="43.79844" lon="1.69079">
        <ele>166.45</ele>
        <time>2026-05-25T05:32:35Z</time>
      </trkpt>
      <trkpt lat="43.79845" lon="1.6908">
        <ele>166.45</ele>
        <time>2026-05-25T05:32:57Z</time>
      </trkpt>
      <trkpt lat="43.79846" lon="1.69078">
        <ele>167.89</ele>
        <time>2026-05-25T05:33:21Z</time>
      </trkpt>
      <trkpt lat="43.79844" lon="1.69077">
        <ele>167.89</ele>
        <time>2026-05-25T05:33:22Z</time>
      </trkpt>
      <trkpt lat="43.79841" lon="1.69076">
        <ele>166.45</ele>
        <time>2026-05-25T05:33:24Z</time>
      </trkpt>
      <trkpt lat="43.79823" lon="1.69062">
        <ele>165.48</ele>
        <time>2026-05-25T05:33:40Z</time>
      </trkpt>
      <trkpt lat="43.79801" lon="1.69048">
        <ele>163.56</ele>
        <time>2026-05-25T05:33:56Z</time>
      </trkpt>
      <trkpt lat="43.79786" lon="1.69035">
        <ele>163.56</ele>
        <time>2026-05-25T05:34:10Z</time>
      </trkpt>
      <trkpt lat="43.79768" lon="1.69012">
        <ele>162.6</ele>
        <time>2026-05-25T05:34:26Z</time>
      </trkpt>
      <trkpt lat="43.79748" lon="1.68984">
        <ele>162.12</ele>
        <time>2026-05-25T05:34:46Z</time>
      </trkpt>
      <trkpt lat="43.7974" lon="1.68967">
        <ele>161.64</ele>
        <time>2026-05-25T05:34:59Z</time>
      </trkpt>
      <trkpt lat="43.79721" lon="1.68934">
        <ele>161.16</ele>
        <time>2026-05-25T05:35:17Z</time>
      </trkpt>
      <trkpt lat="43.7971" lon="1.68917">
        <ele>160.2</ele>
        <time>2026-05-25T05:35:33Z</time>
      </trkpt>
      <trkpt lat="43.79696" lon="1.68894">
        <ele>160.2</ele>
        <time>2026-05-25T05:35:48Z</time>
      </trkpt>
      <trkpt lat="43.79684" lon="1.68877">
        <ele>161.64</ele>
        <time>2026-05-25T05:36:01Z</time>
      </trkpt>
      <trkpt lat="43.79676" lon="1.68864">
        <ele>161.64</ele>
        <time>2026-05-25T05:36:13Z</time>
      </trkpt>
      <trkpt lat="43.79667" lon="1.68849">
        <ele>163.08</ele>
        <time>2026-05-25T05:36:26Z</time>
      </trkpt>
      <trkpt lat="43.7966" lon="1.68841">
        <ele>164.04</ele>
        <time>2026-05-25T05:36:34Z</time>
      </trkpt>
      <trkpt lat="43.79659" lon="1.6884">
        <ele>164.04</ele>
        <time>2026-05-25T05:36:35Z</time>
      </trkpt>
      <trkpt lat="43.79658" lon="1.68839">
        <ele>164.52</ele>
        <time>2026-05-25T05:36:36Z</time>
      </trkpt>
      <trkpt lat="43.79657" lon="1.68837">
        <ele>164.52</ele>
        <time>2026-05-25T05:36:37Z</time>
      </trkpt>
      <trkpt lat="43.79656" lon="1.68835">
        <ele>164.52</ele>
        <time>2026-05-25T05:36:38Z</time>
      </trkpt>
      <trkpt lat="43.79655" lon="1.68834">
        <ele>165</ele>
        <time>2026-05-25T05:36:39Z</time>
      </trkpt>
      <trkpt lat="43.79654" lon="1.68833">
        <ele>165</ele>
        <time>2026-05-25T05:36:40Z</time>
      </trkpt>
      <trkpt lat="43.79645" lon="1.6882">
        <ele>166.45</ele>
        <time>2026-05-25T05:36:53Z</time>
      </trkpt>
      <trkpt lat="43.79637" lon="1.68808">
        <ele>167.89</ele>
        <time>2026-05-25T05:37:05Z</time>
      </trkpt>
      <trkpt lat="43.79627" lon="1.68793">
        <ele>169.33</ele>
        <time>2026-05-25T05:37:17Z</time>
      </trkpt>
      <trkpt lat="43.79619" lon="1.6878">
        <ele>171.73</ele>
        <time>2026-05-25T05:37:29Z</time>
      </trkpt>
      <trkpt lat="43.79618" lon="1.68777">
        <ele>171.73</ele>
        <time>2026-05-25T05:37:33Z</time>
      </trkpt>
      <trkpt lat="43.79617" lon="1.68776">
        <ele>171.73</ele>
        <time>2026-05-25T05:37:34Z</time>
      </trkpt>
      <trkpt lat="43.79612" lon="1.68768">
        <ele>172.69</ele>
        <time>2026-05-25T05:37:41Z</time>
      </trkpt>
      <trkpt lat="43.79611" lon="1.68767">
        <ele>173.17</ele>
        <time>2026-05-25T05:37:42Z</time>
      </trkpt>
      <trkpt lat="43.79604" lon="1.68754">
        <ele>174.14</ele>
        <time>2026-05-25T05:37:54Z</time>
      </trkpt>
      <trkpt lat="43.79603" lon="1.68753">
        <ele>174.62</ele>
        <time>2026-05-25T05:37:56Z</time>
      </trkpt>
      <trkpt lat="43.79602" lon="1.68752">
        <ele>175.1</ele>
        <time>2026-05-25T05:37:57Z</time>
      </trkpt>
      <trkpt lat="43.79599" lon="1.68747">
        <ele>176.06</ele>
        <time>2026-05-25T05:38:04Z</time>
      </trkpt>
      <trkpt lat="43.79598" lon="1.68743">
        <ele>176.54</ele>
        <time>2026-05-25T05:38:13Z</time>
      </trkpt>
      <trkpt lat="43.79595" lon="1.68743">
        <ele>173.17</ele>
        <time>2026-05-25T05:38:43Z</time>
      </trkpt>
      <trkpt lat="43.79595" lon="1.68743">
        <ele>177.02</ele>
        <time>2026-05-25T05:38:44Z</time>
      </trkpt>
      <trkpt lat="43.79595" lon="1.68742">
        <ele>176.06</ele>
        <time>2026-05-25T05:38:45Z</time>
      </trkpt>
      <trkpt lat="43.79593" lon="1.68737">
        <ele>177.5</ele>
        <time>2026-05-25T05:38:49Z</time>
      </trkpt>
      <trkpt lat="43.79592" lon="1.68736">
        <ele>177.5</ele>
        <time>2026-05-25T05:38:50Z</time>
      </trkpt>
      <trkpt lat="43.79591" lon="1.68735">
        <ele>177.5</ele>
        <time>2026-05-25T05:38:52Z</time>
      </trkpt>
      <trkpt lat="43.79591" lon="1.68733">
        <ele>178.46</ele>
        <time>2026-05-25T05:38:53Z</time>
      </trkpt>
      <trkpt lat="43.79588" lon="1.68721">
        <ele>179.42</ele>
        <time>2026-05-25T05:39:03Z</time>
      </trkpt>
      <trkpt lat="43.79585" lon="1.68711">
        <ele>180.87</ele>
        <time>2026-05-25T05:39:12Z</time>
      </trkpt>
      <trkpt lat="43.79584" lon="1.68708">
        <ele>182.31</ele>
        <time>2026-05-25T05:39:16Z</time>
      </trkpt>
      <trkpt lat="43.79579" lon="1.68695">
        <ele>183.75</ele>
        <time>2026-05-25T05:39:27Z</time>
      </trkpt>
      <trkpt lat="43.79577" lon="1.68691">
        <ele>184.23</ele>
        <time>2026-05-25T05:39:32Z</time>
      </trkpt>
      <trkpt lat="43.79575" lon="1.68686">
        <ele>186.15</ele>
        <time>2026-05-25T05:39:37Z</time>
      </trkpt>
      <trkpt lat="43.79574" lon="1.68684">
        <ele>187.11</ele>
        <time>2026-05-25T05:39:41Z</time>
      </trkpt>
      <trkpt lat="43.79573" lon="1.68682">
        <ele>187.11</ele>
        <time>2026-05-25T05:39:42Z</time>
      </trkpt>
      <trkpt lat="43.79567" lon="1.68675">
        <ele>188.56</ele>
        <time>2026-05-25T05:39:53Z</time>
      </trkpt>
      <trkpt lat="43.79566" lon="1.68674">
        <ele>189.04</ele>
        <time>2026-05-25T05:39:55Z</time>
      </trkpt>
      <trkpt lat="43.79565" lon="1.68672">
        <ele>189.52</ele>
        <time>2026-05-25T05:39:56Z</time>
      </trkpt>
      <trkpt lat="43.79563" lon="1.6867">
        <ele>189.52</ele>
        <time>2026-05-25T05:40:00Z</time>
      </trkpt>
      <trkpt lat="43.79561" lon="1.68669">
        <ele>190</ele>
        <time>2026-05-25T05:40:01Z</time>
      </trkpt>
      <trkpt lat="43.7956" lon="1.68669">
        <ele>190.48</ele>
        <time>2026-05-25T05:40:02Z</time>
      </trkpt>
      <trkpt lat="43.79552" lon="1.68662">
        <ele>192.4</ele>
        <time>2026-05-25T05:40:13Z</time>
      </trkpt>
      <trkpt lat="43.79545" lon="1.68658">
        <ele>194.32</ele>
        <time>2026-05-25T05:40:23Z</time>
      </trkpt>
      <trkpt lat="43.79537" lon="1.68652">
        <ele>195.28</ele>
        <time>2026-05-25T05:40:33Z</time>
      </trkpt>
      <trkpt lat="43.79536" lon="1.6865">
        <ele>196.25</ele>
        <time>2026-05-25T05:40:35Z</time>
      </trkpt>
      <trkpt lat="43.79535" lon="1.68649">
        <ele>196.73</ele>
        <time>2026-05-25T05:40:36Z</time>
      </trkpt>
      <trkpt lat="43.79527" lon="1.6864">
        <ele>197.69</ele>
        <time>2026-05-25T05:40:47Z</time>
      </trkpt>
      <trkpt lat="43.79522" lon="1.68631">
        <ele>197.69</ele>
        <time>2026-05-25T05:40:55Z</time>
      </trkpt>
      <trkpt lat="43.79521" lon="1.68629">
        <ele>198.17</ele>
        <time>2026-05-25T05:40:56Z</time>
      </trkpt>
      <trkpt lat="43.7952" lon="1.68628">
        <ele>198.17</ele>
        <time>2026-05-25T05:40:57Z</time>
      </trkpt>
      <trkpt lat="43.79519" lon="1.68626">
        <ele>198.17</ele>
        <time>2026-05-25T05:40:58Z</time>
      </trkpt>
      <trkpt lat="43.79515" lon="1.68624">
        <ele>198.17</ele>
        <time>2026-05-25T05:41:10Z</time>
      </trkpt>
      <trkpt lat="43.7951" lon="1.68616">
        <ele>198.17</ele>
        <time>2026-05-25T05:41:30Z</time>
      </trkpt>
      <trkpt lat="43.79505" lon="1.68608">
        <ele>198.17</ele>
        <time>2026-05-25T05:41:40Z</time>
      </trkpt>
      <trkpt lat="43.79505" lon="1.68608">
        <ele>196.73</ele>
        <time>2026-05-25T05:41:43Z</time>
      </trkpt>
      <trkpt lat="43.795" lon="1.68605">
        <ele>196.73</ele>
        <time>2026-05-25T05:41:52Z</time>
      </trkpt>
      <trkpt lat="43.79499" lon="1.68603">
        <ele>196.25</ele>
        <time>2026-05-25T05:41:53Z</time>
      </trkpt>
      <trkpt lat="43.79498" lon="1.68602">
        <ele>196.25</ele>
        <time>2026-05-25T05:41:54Z</time>
      </trkpt>
      <trkpt lat="43.79497" lon="1.68601">
        <ele>196.25</ele>
        <time>2026-05-25T05:41:55Z</time>
      </trkpt>
      <trkpt lat="43.79495" lon="1.686">
        <ele>196.25</ele>
        <time>2026-05-25T05:41:56Z</time>
      </trkpt>
      <trkpt lat="43.79493" lon="1.68598">
        <ele>196.25</ele>
        <time>2026-05-25T05:41:57Z</time>
      </trkpt>
      <trkpt lat="43.79491" lon="1.68598">
        <ele>195.77</ele>
        <time>2026-05-25T05:41:58Z</time>
      </trkpt>
      <trkpt lat="43.79475" lon="1.6859">
        <ele>194.8</ele>
        <time>2026-05-25T05:42:11Z</time>
      </trkpt>
      <trkpt lat="43.7946" lon="1.68585">
        <ele>193.84</ele>
        <time>2026-05-25T05:42:23Z</time>
      </trkpt>
      <trkpt lat="43.79443" lon="1.68581">
        <ele>193.36</ele>
        <time>2026-05-25T05:42:36Z</time>
      </trkpt>
      <trkpt lat="43.79425" lon="1.68575">
        <ele>194.32</ele>
        <time>2026-05-25T05:42:50Z</time>
      </trkpt>
      <trkpt lat="43.79421" lon="1.68574">
        <ele>194.8</ele>
        <time>2026-05-25T05:42:55Z</time>
      </trkpt>
      <trkpt lat="43.7942" lon="1.68574">
        <ele>195.28</ele>
        <time>2026-05-25T05:42:56Z</time>
      </trkpt>
      <trkpt lat="43.79405" lon="1.68568">
        <ele>198.17</ele>
        <time>2026-05-25T05:43:11Z</time>
      </trkpt>
      <trkpt lat="43.79401" lon="1.68567">
        <ele>198.17</ele>
        <time>2026-05-25T05:43:16Z</time>
      </trkpt>
      <trkpt lat="43.794" lon="1.68566">
        <ele>198.17</ele>
        <time>2026-05-25T05:43:17Z</time>
      </trkpt>
      <trkpt lat="43.79394" lon="1.68563">
        <ele>199.61</ele>
        <time>2026-05-25T05:43:24Z</time>
      </trkpt>
      <trkpt lat="43.79393" lon="1.68563">
        <ele>200.09</ele>
        <time>2026-05-25T05:43:25Z</time>
      </trkpt>
      <trkpt lat="43.79385" lon="1.6856">
        <ele>200.57</ele>
        <time>2026-05-25T05:43:33Z</time>
      </trkpt>
      <trkpt lat="43.79383" lon="1.68559">
        <ele>201.05</ele>
        <time>2026-05-25T05:43:34Z</time>
      </trkpt>
      <trkpt lat="43.79382" lon="1.68559">
        <ele>201.05</ele>
        <time>2026-05-25T05:43:35Z</time>
      </trkpt>
      <trkpt lat="43.79362" lon="1.68549">
        <ele>201.05</ele>
        <time>2026-05-25T05:43:51Z</time>
      </trkpt>
      <trkpt lat="43.79345" lon="1.68541">
        <ele>201.05</ele>
        <time>2026-05-25T05:44:05Z</time>
      </trkpt>
      <trkpt lat="43.79326" lon="1.68537">
        <ele>202.01</ele>
        <time>2026-05-25T05:44:19Z</time>
      </trkpt>
      <trkpt lat="43.79322" lon="1.68537">
        <ele>200.09</ele>
        <time>2026-05-25T05:44:23Z</time>
      </trkpt>
      <trkpt lat="43.79307" lon="1.68538">
        <ele>196.73</ele>
        <time>2026-05-25T05:44:37Z</time>
      </trkpt>
      <trkpt lat="43.79303" lon="1.68539">
        <ele>196.25</ele>
        <time>2026-05-25T05:44:40Z</time>
      </trkpt>
      <trkpt lat="43.79302" lon="1.68539">
        <ele>196.25</ele>
        <time>2026-05-25T05:44:41Z</time>
      </trkpt>
      <trkpt lat="43.793" lon="1.6854">
        <ele>195.77</ele>
        <time>2026-05-25T05:44:42Z</time>
      </trkpt>
      <trkpt lat="43.79284" lon="1.68542">
        <ele>193.36</ele>
        <time>2026-05-25T05:44:55Z</time>
      </trkpt>
      <trkpt lat="43.79266" lon="1.68545">
        <ele>190.48</ele>
        <time>2026-05-25T05:45:09Z</time>
      </trkpt>
      <trkpt lat="43.79246" lon="1.68547">
        <ele>188.56</ele>
        <time>2026-05-25T05:45:23Z</time>
      </trkpt>
      <trkpt lat="43.79229" lon="1.68554">
        <ele>187.59</ele>
        <time>2026-05-25T05:45:35Z</time>
      </trkpt>
      <trkpt lat="43.79223" lon="1.68554">
        <ele>187.11</ele>
        <time>2026-05-25T05:45:41Z</time>
      </trkpt>
      <trkpt lat="43.79221" lon="1.68554">
        <ele>187.11</ele>
        <time>2026-05-25T05:45:42Z</time>
      </trkpt>
      <trkpt lat="43.79219" lon="1.68554">
        <ele>187.11</ele>
        <time>2026-05-25T05:45:43Z</time>
      </trkpt>
      <trkpt lat="43.79217" lon="1.68553">
        <ele>187.11</ele>
        <time>2026-05-25T05:45:44Z</time>
      </trkpt>
      <trkpt lat="43.79215" lon="1.68553">
        <ele>187.11</ele>
        <time>2026-05-25T05:45:45Z</time>
      </trkpt>
      <trkpt lat="43.792" lon="1.68543">
        <ele>187.11</ele>
        <time>2026-05-25T05:45:58Z</time>
      </trkpt>
      <trkpt lat="43.79185" lon="1.68532">
        <ele>188.56</ele>
        <time>2026-05-25T05:46:13Z</time>
      </trkpt>
      <trkpt lat="43.79171" lon="1.68518">
        <ele>190.48</ele>
        <time>2026-05-25T05:46:30Z</time>
      </trkpt>
      <trkpt lat="43.79158" lon="1.68504">
        <ele>192.4</ele>
        <time>2026-05-25T05:46:45Z</time>
      </trkpt>
      <trkpt lat="43.79145" lon="1.68486">
        <ele>193.84</ele>
        <time>2026-05-25T05:46:59Z</time>
      </trkpt>
      <trkpt lat="43.79133" lon="1.68477">
        <ele>192.4</ele>
        <time>2026-05-25T05:47:10Z</time>
      </trkpt>
      <trkpt lat="43.79119" lon="1.6847">
        <ele>189.04</ele>
        <time>2026-05-25T05:47:22Z</time>
      </trkpt>
      <trkpt lat="43.79107" lon="1.68461">
        <ele>186.63</ele>
        <time>2026-05-25T05:47:33Z</time>
      </trkpt>
      <trkpt lat="43.79095" lon="1.68453">
        <ele>183.27</ele>
        <time>2026-05-25T05:47:44Z</time>
      </trkpt>
      <trkpt lat="43.79089" lon="1.68447">
        <ele>181.35</ele>
        <time>2026-05-25T05:47:50Z</time>
      </trkpt>
      <trkpt lat="43.79077" lon="1.68435">
        <ele>178.94</ele>
        <time>2026-05-25T05:48:02Z</time>
      </trkpt>
      <trkpt lat="43.79064" lon="1.6842">
        <ele>176.06</ele>
        <time>2026-05-25T05:48:15Z</time>
      </trkpt>
      <trkpt lat="43.79055" lon="1.68408">
        <ele>172.69</ele>
        <time>2026-05-25T05:48:25Z</time>
      </trkpt>
      <trkpt lat="43.79052" lon="1.68404">
        <ele>172.21</ele>
        <time>2026-05-25T05:48:29Z</time>
      </trkpt>
      <trkpt lat="43.79052" lon="1.68403">
        <ele>172.21</ele>
        <time>2026-05-25T05:48:30Z</time>
      </trkpt>
      <trkpt lat="43.79042" lon="1.68388">
        <ele>170.29</ele>
        <time>2026-05-25T05:48:41Z</time>
      </trkpt>
      <trkpt lat="43.79041" lon="1.68387">
        <ele>170.29</ele>
        <time>2026-05-25T05:48:42Z</time>
      </trkpt>
      <trkpt lat="43.79039" lon="1.68386">
        <ele>169.81</ele>
        <time>2026-05-25T05:48:43Z</time>
      </trkpt>
      <trkpt lat="43.79038" lon="1.68385">
        <ele>169.81</ele>
        <time>2026-05-25T05:48:44Z</time>
      </trkpt>
      <trkpt lat="43.79037" lon="1.68384">
        <ele>169.33</ele>
        <time>2026-05-25T05:48:45Z</time>
      </trkpt>
      <trkpt lat="43.79036" lon="1.68383">
        <ele>169.33</ele>
        <time>2026-05-25T05:48:46Z</time>
      </trkpt>
      <trkpt lat="43.79034" lon="1.68382">
        <ele>168.85</ele>
        <time>2026-05-25T05:48:47Z</time>
      </trkpt>
      <trkpt lat="43.79032" lon="1.68382">
        <ele>168.85</ele>
        <time>2026-05-25T05:48:48Z</time>
      </trkpt>
      <trkpt lat="43.79016" lon="1.68373">
        <ele>166.45</ele>
        <time>2026-05-25T05:49:01Z</time>
      </trkpt>
      <trkpt lat="43.79" lon="1.68364">
        <ele>164.52</ele>
        <time>2026-05-25T05:49:13Z</time>
      </trkpt>
      <trkpt lat="43.78995" lon="1.68361">
        <ele>163.56</ele>
        <time>2026-05-25T05:49:18Z</time>
      </trkpt>
      <trkpt lat="43.78981" lon="1.68353">
        <ele>162.6</ele>
        <time>2026-05-25T05:49:29Z</time>
      </trkpt>
      <trkpt lat="43.78975" lon="1.68348">
        <ele>162.6</ele>
        <time>2026-05-25T05:49:33Z</time>
      </trkpt>
      <trkpt lat="43.78969" lon="1.68335">
        <ele>161.64</ele>
        <time>2026-05-25T05:49:43Z</time>
      </trkpt>
      <trkpt lat="43.78969" lon="1.68333">
        <ele>161.64</ele>
        <time>2026-05-25T05:49:44Z</time>
      </trkpt>
      <trkpt lat="43.78969" lon="1.68319">
        <ele>163.56</ele>
        <time>2026-05-25T05:49:55Z</time>
      </trkpt>
      <trkpt lat="43.78973" lon="1.68303">
        <ele>164.04</ele>
        <time>2026-05-25T05:50:05Z</time>
      </trkpt>
      <trkpt lat="43.78973" lon="1.68301">
        <ele>164.04</ele>
        <time>2026-05-25T05:50:06Z</time>
      </trkpt>
      <trkpt lat="43.78973" lon="1.68298">
        <ele>164.04</ele>
        <time>2026-05-25T05:50:07Z</time>
      </trkpt>
      <trkpt lat="43.78972" lon="1.68296">
        <ele>164.04</ele>
        <time>2026-05-25T05:50:08Z</time>
      </trkpt>
      <trkpt lat="43.78972" lon="1.68293">
        <ele>164.04</ele>
        <time>2026-05-25T05:50:09Z</time>
      </trkpt>
      <trkpt lat="43.78972" lon="1.68291">
        <ele>164.04</ele>
        <time>2026-05-25T05:50:10Z</time>
      </trkpt>
      <trkpt lat="43.78972" lon="1.68289">
        <ele>164.04</ele>
        <time>2026-05-25T05:50:11Z</time>
      </trkpt>
      <trkpt lat="43.78973" lon="1.6827">
        <ele>164.04</ele>
        <time>2026-05-25T05:50:23Z</time>
      </trkpt>
      <trkpt lat="43.78974" lon="1.68266">
        <ele>164.04</ele>
        <time>2026-05-25T05:50:27Z</time>
      </trkpt>
      <trkpt lat="43.78974" lon="1.68264">
        <ele>164.04</ele>
        <time>2026-05-25T05:50:28Z</time>
      </trkpt>
      <trkpt lat="43.78974" lon="1.68261">
        <ele>164.04</ele>
        <time>2026-05-25T05:50:29Z</time>
      </trkpt>
      <trkpt lat="43.78974" lon="1.68259">
        <ele>164.04</ele>
        <time>2026-05-25T05:50:30Z</time>
      </trkpt>
      <trkpt lat="43.78974" lon="1.68256">
        <ele>164.04</ele>
        <time>2026-05-25T05:50:31Z</time>
      </trkpt>
      <trkpt lat="43.78975" lon="1.68235">
        <ele>165</ele>
        <time>2026-05-25T05:50:44Z</time>
      </trkpt>
      <trkpt lat="43.78974" lon="1.68214">
        <ele>165.48</ele>
        <time>2026-05-25T05:50:57Z</time>
      </trkpt>
      <trkpt lat="43.78974" lon="1.68192">
        <ele>165.96</ele>
        <time>2026-05-25T05:51:09Z</time>
      </trkpt>
      <trkpt lat="43.78975" lon="1.68188">
        <ele>165.96</ele>
        <time>2026-05-25T05:51:11Z</time>
      </trkpt>
      <trkpt lat="43.78972" lon="1.68163">
        <ele>165.96</ele>
        <time>2026-05-25T05:51:26Z</time>
      </trkpt>
      <trkpt lat="43.78968" lon="1.6814">
        <ele>166.45</ele>
        <time>2026-05-25T05:51:41Z</time>
      </trkpt>
      <trkpt lat="43.78967" lon="1.6812">
        <ele>167.41</ele>
        <time>2026-05-25T05:51:54Z</time>
      </trkpt>
      <trkpt lat="43.78965" lon="1.68098">
        <ele>167.41</ele>
        <time>2026-05-25T05:52:07Z</time>
      </trkpt>
      <trkpt lat="43.78963" lon="1.68075">
        <ele>167.89</ele>
        <time>2026-05-25T05:52:21Z</time>
      </trkpt>
      <trkpt lat="43.78961" lon="1.68054">
        <ele>168.85</ele>
        <time>2026-05-25T05:52:35Z</time>
      </trkpt>
      <trkpt lat="43.78958" lon="1.68032">
        <ele>169.33</ele>
        <time>2026-05-25T05:52:49Z</time>
      </trkpt>
      <trkpt lat="43.78956" lon="1.68011">
        <ele>170.29</ele>
        <time>2026-05-25T05:53:02Z</time>
      </trkpt>
      <trkpt lat="43.78955" lon="1.67989">
        <ele>171.25</ele>
        <time>2026-05-25T05:53:15Z</time>
      </trkpt>
      <trkpt lat="43.78954" lon="1.67967">
        <ele>171.25</ele>
        <time>2026-05-25T05:53:28Z</time>
      </trkpt>
      <trkpt lat="43.78954" lon="1.67963">
        <ele>171.25</ele>
        <time>2026-05-25T05:53:30Z</time>
      </trkpt>
      <trkpt lat="43.78953" lon="1.67961">
        <ele>171.25</ele>
        <time>2026-05-25T05:53:31Z</time>
      </trkpt>
      <trkpt lat="43.78953" lon="1.67959">
        <ele>171.25</ele>
        <time>2026-05-25T05:53:32Z</time>
      </trkpt>
      <trkpt lat="43.78952" lon="1.67957">
        <ele>171.25</ele>
        <time>2026-05-25T05:53:33Z</time>
      </trkpt>
      <trkpt lat="43.78952" lon="1.67955">
        <ele>171.25</ele>
        <time>2026-05-25T05:53:34Z</time>
      </trkpt>
      <trkpt lat="43.78952" lon="1.67952">
        <ele>171.25</ele>
        <time>2026-05-25T05:53:35Z</time>
      </trkpt>
      <trkpt lat="43.78949" lon="1.67942">
        <ele>171.25</ele>
        <time>2026-05-25T05:53:44Z</time>
      </trkpt>
      <trkpt lat="43.78949" lon="1.6794">
        <ele>171.25</ele>
        <time>2026-05-25T05:53:45Z</time>
      </trkpt>
      <trkpt lat="43.78948" lon="1.67939">
        <ele>171.25</ele>
        <time>2026-05-25T05:53:46Z</time>
      </trkpt>
      <trkpt lat="43.78947" lon="1.67937">
        <ele>171.25</ele>
        <time>2026-05-25T05:53:47Z</time>
      </trkpt>
      <trkpt lat="43.78947" lon="1.67934">
        <ele>171.25</ele>
        <time>2026-05-25T05:53:48Z</time>
      </trkpt>
      <trkpt lat="43.78947" lon="1.67932">
        <ele>171.25</ele>
        <time>2026-05-25T05:53:49Z</time>
      </trkpt>
      <trkpt lat="43.78946" lon="1.6793">
        <ele>171.25</ele>
        <time>2026-05-25T05:53:50Z</time>
      </trkpt>
      <trkpt lat="43.78944" lon="1.6792">
        <ele>171.25</ele>
        <time>2026-05-25T05:53:57Z</time>
      </trkpt>
      <trkpt lat="43.78943" lon="1.67918">
        <ele>171.25</ele>
        <time>2026-05-25T05:53:58Z</time>
      </trkpt>
      <trkpt lat="43.78934" lon="1.67903">
        <ele>169.81</ele>
        <time>2026-05-25T05:54:09Z</time>
      </trkpt>
      <trkpt lat="43.7893" lon="1.67894">
        <ele>168.37</ele>
        <time>2026-05-25T05:54:15Z</time>
      </trkpt>
      <trkpt lat="43.78929" lon="1.67893">
        <ele>167.89</ele>
        <time>2026-05-25T05:54:16Z</time>
      </trkpt>
      <trkpt lat="43.78925" lon="1.67878">
        <ele>165.48</ele>
        <time>2026-05-25T05:54:28Z</time>
      </trkpt>
      <trkpt lat="43.78919" lon="1.67857">
        <ele>162.12</ele>
        <time>2026-05-25T05:54:40Z</time>
      </trkpt>
      <trkpt lat="43.78916" lon="1.6784">
        <ele>159.24</ele>
        <time>2026-05-25T05:54:51Z</time>
      </trkpt>
      <trkpt lat="43.78911" lon="1.67822">
        <ele>156.35</ele>
        <time>2026-05-25T05:55:02Z</time>
      </trkpt>
      <trkpt lat="43.78906" lon="1.67802">
        <ele>153.95</ele>
        <time>2026-05-25T05:55:14Z</time>
      </trkpt>
      <trkpt lat="43.78902" lon="1.67787">
        <ele>152.99</ele>
        <time>2026-05-25T05:55:23Z</time>
      </trkpt>
      <trkpt lat="43.78901" lon="1.67785">
        <ele>152.99</ele>
        <time>2026-05-25T05:55:24Z</time>
      </trkpt>
      <trkpt lat="43.78901" lon="1.67783">
        <ele>152.99</ele>
        <time>2026-05-25T05:55:25Z</time>
      </trkpt>
      <trkpt lat="43.78895" lon="1.67762">
        <ele>151.54</ele>
        <time>2026-05-25T05:55:37Z</time>
      </trkpt>
      <trkpt lat="43.7889" lon="1.6774">
        <ele>149.14</ele>
        <time>2026-05-25T05:55:50Z</time>
      </trkpt>
      <trkpt lat="43.7889" lon="1.67724">
        <ele>149.14</ele>
        <time>2026-05-25T05:55:59Z</time>
      </trkpt>
      <trkpt lat="43.78892" lon="1.6771">
        <ele>147.7</ele>
        <time>2026-05-25T05:56:09Z</time>
      </trkpt>
      <trkpt lat="43.78892" lon="1.67707">
        <ele>147.7</ele>
        <time>2026-05-25T05:56:10Z</time>
      </trkpt>
      <trkpt lat="43.78892" lon="1.67674">
        <ele>147.22</ele>
        <time>2026-05-25T05:56:28Z</time>
      </trkpt>
      <trkpt lat="43.78894" lon="1.67646">
        <ele>147.7</ele>
        <time>2026-05-25T05:56:44Z</time>
      </trkpt>
      <trkpt lat="43.78898" lon="1.67614">
        <ele>146.74</ele>
        <time>2026-05-25T05:56:59Z</time>
      </trkpt>
      <trkpt lat="43.78897" lon="1.67594">
        <ele>146.74</ele>
        <time>2026-05-25T05:57:11Z</time>
      </trkpt>
      <trkpt lat="43.78889" lon="1.67563">
        <ele>146.74</ele>
        <time>2026-05-25T05:57:29Z</time>
      </trkpt>
      <trkpt lat="43.78889" lon="1.67561">
        <ele>148.18</ele>
        <time>2026-05-25T05:57:31Z</time>
      </trkpt>
      <trkpt lat="43.78882" lon="1.67542">
        <ele>150.1</ele>
        <time>2026-05-25T05:57:46Z</time>
      </trkpt>
      <trkpt lat="43.7888" lon="1.67537">
        <ele>150.58</ele>
        <time>2026-05-25T05:57:51Z</time>
      </trkpt>
      <trkpt lat="43.78877" lon="1.67525">
        <ele>149.14</ele>
        <time>2026-05-25T05:58:00Z</time>
      </trkpt>
      <trkpt lat="43.78876" lon="1.67523">
        <ele>149.14</ele>
        <time>2026-05-25T05:58:01Z</time>
      </trkpt>
      <trkpt lat="43.78874" lon="1.67519">
        <ele>148.66</ele>
        <time>2026-05-25T05:58:03Z</time>
      </trkpt>
      <trkpt lat="43.78873" lon="1.67517">
        <ele>148.66</ele>
        <time>2026-05-25T05:58:04Z</time>
      </trkpt>
      <trkpt lat="43.78869" lon="1.67511">
        <ele>147.22</ele>
        <time>2026-05-25T05:58:09Z</time>
      </trkpt>
      <trkpt lat="43.78857" lon="1.67498">
        <ele>143.85</ele>
        <time>2026-05-25T05:58:21Z</time>
      </trkpt>
      <trkpt lat="43.78848" lon="1.67492">
        <ele>142.41</ele>
        <time>2026-05-25T05:58:30Z</time>
      </trkpt>
      <trkpt lat="43.78836" lon="1.67484">
        <ele>139.05</ele>
        <time>2026-05-25T05:58:41Z</time>
      </trkpt>
      <trkpt lat="43.78835" lon="1.67483">
        <ele>139.05</ele>
        <time>2026-05-25T05:58:42Z</time>
      </trkpt>
      <trkpt lat="43.78819" lon="1.67478">
        <ele>136.64</ele>
        <time>2026-05-25T05:58:55Z</time>
      </trkpt>
      <trkpt lat="43.7881" lon="1.67476">
        <ele>135.2</ele>
        <time>2026-05-25T05:59:03Z</time>
      </trkpt>
      <trkpt lat="43.78809" lon="1.67476">
        <ele>134.24</ele>
        <time>2026-05-25T05:59:04Z</time>
      </trkpt>
      <trkpt lat="43.78792" lon="1.67474">
        <ele>131.36</ele>
        <time>2026-05-25T05:59:18Z</time>
      </trkpt>
      <trkpt lat="43.78777" lon="1.6747">
        <ele>127.99</ele>
        <time>2026-05-25T05:59:30Z</time>
      </trkpt>
      <trkpt lat="43.78775" lon="1.67469">
        <ele>127.99</ele>
        <time>2026-05-25T05:59:31Z</time>
      </trkpt>
      <trkpt lat="43.7877" lon="1.67462">
        <ele>127.03</ele>
        <time>2026-05-25T05:59:38Z</time>
      </trkpt>
      <trkpt lat="43.78766" lon="1.67441">
        <ele>123.67</ele>
        <time>2026-05-25T05:59:50Z</time>
      </trkpt>
      <trkpt lat="43.78761" lon="1.67415">
        <ele>122.22</ele>
        <time>2026-05-25T06:00:04Z</time>
      </trkpt>
      <trkpt lat="43.78751" lon="1.67403">
        <ele>120.3</ele>
        <time>2026-05-25T06:00:15Z</time>
      </trkpt>
      <trkpt lat="43.7875" lon="1.67401">
        <ele>120.3</ele>
        <time>2026-05-25T06:00:16Z</time>
      </trkpt>
      <trkpt lat="43.78749" lon="1.674">
        <ele>119.82</ele>
        <time>2026-05-25T06:00:17Z</time>
      </trkpt>
      <trkpt lat="43.78747" lon="1.67398">
        <ele>119.82</ele>
        <time>2026-05-25T06:00:18Z</time>
      </trkpt>
      <trkpt lat="43.78746" lon="1.67396">
        <ele>119.82</ele>
        <time>2026-05-25T06:00:19Z</time>
      </trkpt>
      <trkpt lat="43.78746" lon="1.67393">
        <ele>119.82</ele>
        <time>2026-05-25T06:00:20Z</time>
      </trkpt>
      <trkpt lat="43.78745" lon="1.6739">
        <ele>119.34</ele>
        <time>2026-05-25T06:00:21Z</time>
      </trkpt>
      <trkpt lat="43.78746" lon="1.67377">
        <ele>118.86</ele>
        <time>2026-05-25T06:00:28Z</time>
      </trkpt>
      <trkpt lat="43.78745" lon="1.67375">
        <ele>118.38</ele>
        <time>2026-05-25T06:00:29Z</time>
      </trkpt>
      <trkpt lat="43.78742" lon="1.67352">
        <ele>115.5</ele>
        <time>2026-05-25T06:00:41Z</time>
      </trkpt>
      <trkpt lat="43.78739" lon="1.67343">
        <ele>115.5</ele>
        <time>2026-05-25T06:00:47Z</time>
      </trkpt>
      <trkpt lat="43.78739" lon="1.67342">
        <ele>115.01</ele>
        <time>2026-05-25T06:00:48Z</time>
      </trkpt>
      <trkpt lat="43.78738" lon="1.6734">
        <ele>115.01</ele>
        <time>2026-05-25T06:00:49Z</time>
      </trkpt>
      <trkpt lat="43.78738" lon="1.67338">
        <ele>115.01</ele>
        <time>2026-05-25T06:00:50Z</time>
      </trkpt>
      <trkpt lat="43.78737" lon="1.67336">
        <ele>115.01</ele>
        <time>2026-05-25T06:00:51Z</time>
      </trkpt>
      <trkpt lat="43.78737" lon="1.67334">
        <ele>115.01</ele>
        <time>2026-05-25T06:00:52Z</time>
      </trkpt>
      <trkpt lat="43.78736" lon="1.67332">
        <ele>114.53</ele>
        <time>2026-05-25T06:00:53Z</time>
      </trkpt>
      <trkpt lat="43.78732" lon="1.67323">
        <ele>113.09</ele>
        <time>2026-05-25T06:01:02Z</time>
      </trkpt>
      <trkpt lat="43.78727" lon="1.67312">
        <ele>111.65</ele>
        <time>2026-05-25T06:01:09Z</time>
      </trkpt>
      <trkpt lat="43.78726" lon="1.67311">
        <ele>111.65</ele>
        <time>2026-05-25T06:01:10Z</time>
      </trkpt>
      <trkpt lat="43.78712" lon="1.673">
        <ele>109.73</ele>
        <time>2026-05-25T06:01:23Z</time>
      </trkpt>
      <trkpt lat="43.78713" lon="1.67297">
        <ele>110.21</ele>
        <time>2026-05-25T06:01:55Z</time>
      </trkpt>
      <trkpt lat="43.78707" lon="1.67297">
        <ele>110.21</ele>
        <time>2026-05-25T06:02:00Z</time>
      </trkpt>
      <trkpt lat="43.78692" lon="1.67298">
        <ele>109.25</ele>
        <time>2026-05-25T06:02:09Z</time>
      </trkpt>
      <trkpt lat="43.7869" lon="1.67298">
        <ele>109.25</ele>
        <time>2026-05-25T06:02:10Z</time>
      </trkpt>
      <trkpt lat="43.78673" lon="1.67306">
        <ele>108.77</ele>
        <time>2026-05-25T06:02:25Z</time>
      </trkpt>
      <trkpt lat="43.78659" lon="1.67317">
        <ele>108.77</ele>
        <time>2026-05-25T06:02:39Z</time>
      </trkpt>
      <trkpt lat="43.78647" lon="1.67331">
        <ele>110.21</ele>
        <time>2026-05-25T06:02:51Z</time>
      </trkpt>
      <trkpt lat="43.78645" lon="1.67333">
        <ele>110.21</ele>
        <time>2026-05-25T06:02:53Z</time>
      </trkpt>
      <trkpt lat="43.78644" lon="1.67334">
        <ele>110.21</ele>
        <time>2026-05-25T06:02:54Z</time>
      </trkpt>
      <trkpt lat="43.7863" lon="1.67349">
        <ele>111.17</ele>
        <time>2026-05-25T06:03:08Z</time>
      </trkpt>
      <trkpt lat="43.78626" lon="1.67352">
        <ele>111.17</ele>
        <time>2026-05-25T06:03:11Z</time>
      </trkpt>
      <trkpt lat="43.78624" lon="1.67355">
        <ele>112.13</ele>
        <time>2026-05-25T06:03:24Z</time>
      </trkpt>
      <trkpt lat="43.78622" lon="1.67364">
        <ele>112.13</ele>
        <time>2026-05-25T06:03:32Z</time>
      </trkpt>
      <trkpt lat="43.78613" lon="1.67379">
        <ele>112.61</ele>
        <time>2026-05-25T06:03:45Z</time>
      </trkpt>
      <trkpt lat="43.78606" lon="1.67401">
        <ele>113.09</ele>
        <time>2026-05-25T06:03:59Z</time>
      </trkpt>
      <trkpt lat="43.78602" lon="1.6743">
        <ele>113.57</ele>
        <time>2026-05-25T06:04:13Z</time>
      </trkpt>
      <trkpt lat="43.78602" lon="1.67453">
        <ele>114.53</ele>
        <time>2026-05-25T06:04:27Z</time>
      </trkpt>
      <trkpt lat="43.78601" lon="1.67474">
        <ele>114.53</ele>
        <time>2026-05-25T06:04:40Z</time>
      </trkpt>
      <trkpt lat="43.78602" lon="1.67506">
        <ele>115.01</ele>
        <time>2026-05-25T06:04:55Z</time>
      </trkpt>
      <trkpt lat="43.78603" lon="1.67533">
        <ele>115.98</ele>
        <time>2026-05-25T06:05:11Z</time>
      </trkpt>
      <trkpt lat="43.78603" lon="1.67558">
        <ele>116.46</ele>
        <time>2026-05-25T06:05:26Z</time>
      </trkpt>
      <trkpt lat="43.786" lon="1.67585">
        <ele>116.46</ele>
        <time>2026-05-25T06:05:41Z</time>
      </trkpt>
      <trkpt lat="43.78598" lon="1.6762">
        <ele>116.46</ele>
        <time>2026-05-25T06:05:57Z</time>
      </trkpt>
      <trkpt lat="43.78597" lon="1.67647">
        <ele>116.46</ele>
        <time>2026-05-25T06:06:13Z</time>
      </trkpt>
      <trkpt lat="43.78596" lon="1.67672">
        <ele>116.46</ele>
        <time>2026-05-25T06:06:28Z</time>
      </trkpt>
      <trkpt lat="43.78594" lon="1.67706">
        <ele>116.46</ele>
        <time>2026-05-25T06:06:44Z</time>
      </trkpt>
      <trkpt lat="43.78594" lon="1.67733">
        <ele>116.46</ele>
        <time>2026-05-25T06:07:00Z</time>
      </trkpt>
      <trkpt lat="43.78596" lon="1.67763">
        <ele>116.46</ele>
        <time>2026-05-25T06:07:17Z</time>
      </trkpt>
      <trkpt lat="43.78598" lon="1.67794">
        <ele>116.46</ele>
        <time>2026-05-25T06:07:34Z</time>
      </trkpt>
      <trkpt lat="43.78597" lon="1.67825">
        <ele>116.46</ele>
        <time>2026-05-25T06:07:50Z</time>
      </trkpt>
      <trkpt lat="43.78583" lon="1.67836">
        <ele>116.94</ele>
        <time>2026-05-25T06:08:05Z</time>
      </trkpt>
      <trkpt lat="43.78561" lon="1.67839">
        <ele>116.94</ele>
        <time>2026-05-25T06:08:20Z</time>
      </trkpt>
      <trkpt lat="43.7854" lon="1.67849">
        <ele>115.5</ele>
        <time>2026-05-25T06:08:36Z</time>
      </trkpt>
      <trkpt lat="43.78519" lon="1.67857">
        <ele>115.01</ele>
        <time>2026-05-25T06:08:54Z</time>
      </trkpt>
      <trkpt lat="43.78502" lon="1.67863">
        <ele>115.5</ele>
        <time>2026-05-25T06:09:08Z</time>
      </trkpt>
      <trkpt lat="43.7848" lon="1.67871">
        <ele>115.5</ele>
        <time>2026-05-25T06:09:25Z</time>
      </trkpt>
      <trkpt lat="43.78455" lon="1.67879">
        <ele>115.5</ele>
        <time>2026-05-25T06:09:43Z</time>
      </trkpt>
      <trkpt lat="43.78436" lon="1.67884">
        <ele>115.5</ele>
        <time>2026-05-25T06:09:59Z</time>
      </trkpt>
      <trkpt lat="43.78416" lon="1.67889">
        <ele>115.5</ele>
        <time>2026-05-25T06:10:14Z</time>
      </trkpt>
      <trkpt lat="43.78396" lon="1.67896">
        <ele>115.5</ele>
        <time>2026-05-25T06:10:31Z</time>
      </trkpt>
      <trkpt lat="43.78379" lon="1.67902">
        <ele>115.5</ele>
        <time>2026-05-25T06:10:45Z</time>
      </trkpt>
      <trkpt lat="43.78359" lon="1.67906">
        <ele>115.5</ele>
        <time>2026-05-25T06:10:59Z</time>
      </trkpt>
      <trkpt lat="43.78343" lon="1.67907">
        <ele>116.46</ele>
        <time>2026-05-25T06:11:11Z</time>
      </trkpt>
      <trkpt lat="43.78326" lon="1.67913">
        <ele>116.46</ele>
        <time>2026-05-25T06:11:26Z</time>
      </trkpt>
      <trkpt lat="43.78309" lon="1.67924">
        <ele>116.46</ele>
        <time>2026-05-25T06:11:40Z</time>
      </trkpt>
      <trkpt lat="43.7829" lon="1.67936">
        <ele>116.46</ele>
        <time>2026-05-25T06:11:55Z</time>
      </trkpt>
      <trkpt lat="43.78272" lon="1.67948">
        <ele>116.46</ele>
        <time>2026-05-25T06:12:09Z</time>
      </trkpt>
      <trkpt lat="43.78267" lon="1.67952">
        <ele>116.46</ele>
        <time>2026-05-25T06:12:15Z</time>
      </trkpt>
      <trkpt lat="43.78266" lon="1.67953">
        <ele>116.46</ele>
        <time>2026-05-25T06:12:16Z</time>
      </trkpt>
      <trkpt lat="43.78249" lon="1.67965">
        <ele>116.46</ele>
        <time>2026-05-25T06:12:30Z</time>
      </trkpt>
      <trkpt lat="43.78229" lon="1.67975">
        <ele>116.46</ele>
        <time>2026-05-25T06:12:45Z</time>
      </trkpt>
      <trkpt lat="43.78212" lon="1.67988">
        <ele>116.46</ele>
        <time>2026-05-25T06:13:00Z</time>
      </trkpt>
      <trkpt lat="43.78195" lon="1.67998">
        <ele>116.46</ele>
        <time>2026-05-25T06:13:14Z</time>
      </trkpt>
      <trkpt lat="43.78188" lon="1.68004">
        <ele>116.46</ele>
        <time>2026-05-25T06:13:21Z</time>
      </trkpt>
      <trkpt lat="43.78166" lon="1.6802">
        <ele>116.94</ele>
        <time>2026-05-25T06:13:39Z</time>
      </trkpt>
      <trkpt lat="43.78147" lon="1.68035">
        <ele>116.94</ele>
        <time>2026-05-25T06:13:55Z</time>
      </trkpt>
      <trkpt lat="43.78135" lon="1.68043">
        <ele>116.94</ele>
        <time>2026-05-25T06:14:09Z</time>
      </trkpt>
      <trkpt lat="43.78135" lon="1.68044">
        <ele>116.94</ele>
        <time>2026-05-25T06:14:10Z</time>
      </trkpt>
      <trkpt lat="43.78134" lon="1.68045">
        <ele>116.94</ele>
        <time>2026-05-25T06:14:11Z</time>
      </trkpt>
      <trkpt lat="43.78117" lon="1.68052">
        <ele>116.94</ele>
        <time>2026-05-25T06:14:24Z</time>
      </trkpt>
      <trkpt lat="43.78101" lon="1.68063">
        <ele>116.94</ele>
        <time>2026-05-25T06:14:38Z</time>
      </trkpt>
      <trkpt lat="43.78085" lon="1.68075">
        <ele>116.94</ele>
        <time>2026-05-25T06:14:53Z</time>
      </trkpt>
      <trkpt lat="43.78068" lon="1.68081">
        <ele>116.94</ele>
        <time>2026-05-25T06:15:08Z</time>
      </trkpt>
      <trkpt lat="43.78048" lon="1.68095">
        <ele>115.98</ele>
        <time>2026-05-25T06:15:24Z</time>
      </trkpt>
      <trkpt lat="43.78026" lon="1.68112">
        <ele>115.98</ele>
        <time>2026-05-25T06:15:40Z</time>
      </trkpt>
      <trkpt lat="43.78009" lon="1.68125">
        <ele>115.98</ele>
        <time>2026-05-25T06:15:55Z</time>
      </trkpt>
      <trkpt lat="43.77994" lon="1.68129">
        <ele>115.98</ele>
        <time>2026-05-25T06:16:10Z</time>
      </trkpt>
      <trkpt lat="43.77983" lon="1.68131">
        <ele>115.98</ele>
        <time>2026-05-25T06:16:30Z</time>
      </trkpt>
      <trkpt lat="43.77966" lon="1.68133">
        <ele>115.98</ele>
        <time>2026-05-25T06:16:44Z</time>
      </trkpt>
      <trkpt lat="43.77958" lon="1.68134">
        <ele>117.42</ele>
        <time>2026-05-25T06:16:51Z</time>
      </trkpt>
      <trkpt lat="43.77938" lon="1.68132">
        <ele>117.42</ele>
        <time>2026-05-25T06:17:07Z</time>
      </trkpt>
      <trkpt lat="43.77918" lon="1.68132">
        <ele>117.42</ele>
        <time>2026-05-25T06:17:22Z</time>
      </trkpt>
      <trkpt lat="43.77894" lon="1.68125">
        <ele>117.42</ele>
        <time>2026-05-25T06:17:36Z</time>
      </trkpt>
      <trkpt lat="43.77879" lon="1.68115">
        <ele>117.42</ele>
        <time>2026-05-25T06:17:51Z</time>
      </trkpt>
      <trkpt lat="43.77856" lon="1.68102">
        <ele>117.42</ele>
        <time>2026-05-25T06:18:07Z</time>
      </trkpt>
      <trkpt lat="43.77844" lon="1.68092">
        <ele>117.42</ele>
        <time>2026-05-25T06:18:20Z</time>
      </trkpt>
      <trkpt lat="43.77821" lon="1.68075">
        <ele>117.42</ele>
        <time>2026-05-25T06:18:37Z</time>
      </trkpt>
      <trkpt lat="43.77804" lon="1.68065">
        <ele>117.42</ele>
        <time>2026-05-25T06:18:53Z</time>
      </trkpt>
      <trkpt lat="43.77785" lon="1.68048">
        <ele>117.42</ele>
        <time>2026-05-25T06:19:07Z</time>
      </trkpt>
      <trkpt lat="43.7777" lon="1.68038">
        <ele>117.42</ele>
        <time>2026-05-25T06:19:22Z</time>
      </trkpt>
      <trkpt lat="43.77748" lon="1.68023">
        <ele>117.42</ele>
        <time>2026-05-25T06:19:38Z</time>
      </trkpt>
      <trkpt lat="43.77728" lon="1.68007">
        <ele>117.42</ele>
        <time>2026-05-25T06:19:55Z</time>
      </trkpt>
      <trkpt lat="43.77716" lon="1.68">
        <ele>117.42</ele>
        <time>2026-05-25T06:20:07Z</time>
      </trkpt>
      <trkpt lat="43.77695" lon="1.67993">
        <ele>115.98</ele>
        <time>2026-05-25T06:20:20Z</time>
      </trkpt>
      <trkpt lat="43.77694" lon="1.67992">
        <ele>115.98</ele>
        <time>2026-05-25T06:20:22Z</time>
      </trkpt>
      <trkpt lat="43.77693" lon="1.67992">
        <ele>115.98</ele>
        <time>2026-05-25T06:20:23Z</time>
      </trkpt>
      <trkpt lat="43.77691" lon="1.67992">
        <ele>115.98</ele>
        <time>2026-05-25T06:20:24Z</time>
      </trkpt>
      <trkpt lat="43.77689" lon="1.67992">
        <ele>115.98</ele>
        <time>2026-05-25T06:20:25Z</time>
      </trkpt>
      <trkpt lat="43.77688" lon="1.67993">
        <ele>115.98</ele>
        <time>2026-05-25T06:20:26Z</time>
      </trkpt>
      <trkpt lat="43.77687" lon="1.67994">
        <ele>115.98</ele>
        <time>2026-05-25T06:20:27Z</time>
      </trkpt>
      <trkpt lat="43.77685" lon="1.67994">
        <ele>115.98</ele>
        <time>2026-05-25T06:20:28Z</time>
      </trkpt>
      <trkpt lat="43.77672" lon="1.68008">
        <ele>115.98</ele>
        <time>2026-05-25T06:20:41Z</time>
      </trkpt>
      <trkpt lat="43.7766" lon="1.68015">
        <ele>115.98</ele>
        <time>2026-05-25T06:20:51Z</time>
      </trkpt>
      <trkpt lat="43.77659" lon="1.68016">
        <ele>115.98</ele>
        <time>2026-05-25T06:20:52Z</time>
      </trkpt>
      <trkpt lat="43.77658" lon="1.68018">
        <ele>115.98</ele>
        <time>2026-05-25T06:20:53Z</time>
      </trkpt>
      <trkpt lat="43.77658" lon="1.6802">
        <ele>115.98</ele>
        <time>2026-05-25T06:20:55Z</time>
      </trkpt>
      <trkpt lat="43.77658" lon="1.68022">
        <ele>115.98</ele>
        <time>2026-05-25T06:20:56Z</time>
      </trkpt>
      <trkpt lat="43.7766" lon="1.68023">
        <ele>115.98</ele>
        <time>2026-05-25T06:20:57Z</time>
      </trkpt>
      <trkpt lat="43.77667" lon="1.68042">
        <ele>115.98</ele>
        <time>2026-05-25T06:21:11Z</time>
      </trkpt>
      <trkpt lat="43.77667" lon="1.68044">
        <ele>115.98</ele>
        <time>2026-05-25T06:21:12Z</time>
      </trkpt>
      <trkpt lat="43.77668" lon="1.68046">
        <ele>115.98</ele>
        <time>2026-05-25T06:21:13Z</time>
      </trkpt>
      <trkpt lat="43.77668" lon="1.6807">
        <ele>115.98</ele>
        <time>2026-05-25T06:21:25Z</time>
      </trkpt>
      <trkpt lat="43.77672" lon="1.68091">
        <ele>115.5</ele>
        <time>2026-05-25T06:21:37Z</time>
      </trkpt>
      <trkpt lat="43.77671" lon="1.68094">
        <ele>115.98</ele>
        <time>2026-05-25T06:21:38Z</time>
      </trkpt>
      <trkpt lat="43.77672" lon="1.68097">
        <ele>115.5</ele>
        <time>2026-05-25T06:21:39Z</time>
      </trkpt>
      <trkpt lat="43.77673" lon="1.68099">
        <ele>115.98</ele>
        <time>2026-05-25T06:21:40Z</time>
      </trkpt>
      <trkpt lat="43.77674" lon="1.68102">
        <ele>115.98</ele>
        <time>2026-05-25T06:21:41Z</time>
      </trkpt>
      <trkpt lat="43.77675" lon="1.68104">
        <ele>115.98</ele>
        <time>2026-05-25T06:21:42Z</time>
      </trkpt>
      <trkpt lat="43.77675" lon="1.68106">
        <ele>115.98</ele>
        <time>2026-05-25T06:21:43Z</time>
      </trkpt>
      <trkpt lat="43.77678" lon="1.68125">
        <ele>115.98</ele>
        <time>2026-05-25T06:21:57Z</time>
      </trkpt>
      <trkpt lat="43.7768" lon="1.68149">
        <ele>115.5</ele>
        <time>2026-05-25T06:22:08Z</time>
      </trkpt>
      <trkpt lat="43.77681" lon="1.68162">
        <ele>116.94</ele>
        <time>2026-05-25T06:22:15Z</time>
      </trkpt>
      <trkpt lat="43.77681" lon="1.68163">
        <ele>116.94</ele>
        <time>2026-05-25T06:22:16Z</time>
      </trkpt>
      <trkpt lat="43.77683" lon="1.68169">
        <ele>116.94</ele>
        <time>2026-05-25T06:22:21Z</time>
      </trkpt>
      <trkpt lat="43.77683" lon="1.68171">
        <ele>116.94</ele>
        <time>2026-05-25T06:22:22Z</time>
      </trkpt>
      <trkpt lat="43.77682" lon="1.68173">
        <ele>116.94</ele>
        <time>2026-05-25T06:22:23Z</time>
      </trkpt>
      <trkpt lat="43.77678" lon="1.68199">
        <ele>116.94</ele>
        <time>2026-05-25T06:22:37Z</time>
      </trkpt>
      <trkpt lat="43.77671" lon="1.68216">
        <ele>116.94</ele>
        <time>2026-05-25T06:22:50Z</time>
      </trkpt>
      <trkpt lat="43.77656" lon="1.68237">
        <ele>116.94</ele>
        <time>2026-05-25T06:23:03Z</time>
      </trkpt>
      <trkpt lat="43.77647" lon="1.68258">
        <ele>116.94</ele>
        <time>2026-05-25T06:23:17Z</time>
      </trkpt>
      <trkpt lat="43.77636" lon="1.68276">
        <ele>116.94</ele>
        <time>2026-05-25T06:23:33Z</time>
      </trkpt>
      <trkpt lat="43.77628" lon="1.68288">
        <ele>116.94</ele>
        <time>2026-05-25T06:23:40Z</time>
      </trkpt>
      <trkpt lat="43.77623" lon="1.68298">
        <ele>116.94</ele>
        <time>2026-05-25T06:23:50Z</time>
      </trkpt>
      <trkpt lat="43.77622" lon="1.683">
        <ele>116.94</ele>
        <time>2026-05-25T06:23:51Z</time>
      </trkpt>
      <trkpt lat="43.77615" lon="1.6832">
        <ele>117.42</ele>
        <time>2026-05-25T06:24:04Z</time>
      </trkpt>
      <trkpt lat="43.77615" lon="1.68348">
        <ele>115.98</ele>
        <time>2026-05-25T06:24:16Z</time>
      </trkpt>
      <trkpt lat="43.77614" lon="1.68351">
        <ele>115.98</ele>
        <time>2026-05-25T06:24:17Z</time>
      </trkpt>
      <trkpt lat="43.77611" lon="1.68353">
        <ele>115.98</ele>
        <time>2026-05-25T06:24:18Z</time>
      </trkpt>
      <trkpt lat="43.77601" lon="1.68368">
        <ele>115.98</ele>
        <time>2026-05-25T06:24:30Z</time>
      </trkpt>
      <trkpt lat="43.7759" lon="1.68383">
        <ele>116.46</ele>
        <time>2026-05-25T06:24:43Z</time>
      </trkpt>
      <trkpt lat="43.77589" lon="1.68384">
        <ele>116.46</ele>
        <time>2026-05-25T06:24:44Z</time>
      </trkpt>
      <trkpt lat="43.7758" lon="1.68398">
        <ele>115.5</ele>
        <time>2026-05-25T06:24:56Z</time>
      </trkpt>
      <trkpt lat="43.77578" lon="1.684">
        <ele>115.5</ele>
        <time>2026-05-25T06:24:58Z</time>
      </trkpt>
      <trkpt lat="43.77574" lon="1.68402">
        <ele>115.5</ele>
        <time>2026-05-25T06:25:07Z</time>
      </trkpt>
      <trkpt lat="43.77564" lon="1.68403">
        <ele>115.5</ele>
        <time>2026-05-25T06:25:22Z</time>
      </trkpt>
      <trkpt lat="43.77546" lon="1.684">
        <ele>115.01</ele>
        <time>2026-05-25T06:25:37Z</time>
      </trkpt>
      <trkpt lat="43.77544" lon="1.68399">
        <ele>115.01</ele>
        <time>2026-05-25T06:25:38Z</time>
      </trkpt>
      <trkpt lat="43.77536" lon="1.68392">
        <ele>115.01</ele>
        <time>2026-05-25T06:25:45Z</time>
      </trkpt>
      <trkpt lat="43.77534" lon="1.68391">
        <ele>115.01</ele>
        <time>2026-05-25T06:25:46Z</time>
      </trkpt>
      <trkpt lat="43.77519" lon="1.68385">
        <ele>115.01</ele>
        <time>2026-05-25T06:25:59Z</time>
      </trkpt>
      <trkpt lat="43.77505" lon="1.68379">
        <ele>115.01</ele>
        <time>2026-05-25T06:26:10Z</time>
      </trkpt>
      <trkpt lat="43.77504" lon="1.68378">
        <ele>115.01</ele>
        <time>2026-05-25T06:26:11Z</time>
      </trkpt>
      <trkpt lat="43.77486" lon="1.6837">
        <ele>115.01</ele>
        <time>2026-05-25T06:26:24Z</time>
      </trkpt>
      <trkpt lat="43.7747" lon="1.68363">
        <ele>114.53</ele>
        <time>2026-05-25T06:26:39Z</time>
      </trkpt>
      <trkpt lat="43.77469" lon="1.68362">
        <ele>114.53</ele>
        <time>2026-05-25T06:26:40Z</time>
      </trkpt>
      <trkpt lat="43.7745" lon="1.68358">
        <ele>114.53</ele>
        <time>2026-05-25T06:26:56Z</time>
      </trkpt>
      <trkpt lat="43.77444" lon="1.68363">
        <ele>114.53</ele>
        <time>2026-05-25T06:27:01Z</time>
      </trkpt>
      <trkpt lat="43.77443" lon="1.68364">
        <ele>114.53</ele>
        <time>2026-05-25T06:27:02Z</time>
      </trkpt>
      <trkpt lat="43.77435" lon="1.68395">
        <ele>114.53</ele>
        <time>2026-05-25T06:27:20Z</time>
      </trkpt>
      <trkpt lat="43.77432" lon="1.68422">
        <ele>114.05</ele>
        <time>2026-05-25T06:27:33Z</time>
      </trkpt>
      <trkpt lat="43.7743" lon="1.68454">
        <ele>114.05</ele>
        <time>2026-05-25T06:27:50Z</time>
      </trkpt>
      <trkpt lat="43.77429" lon="1.68463">
        <ele>115.5</ele>
        <time>2026-05-25T06:27:57Z</time>
      </trkpt>
      <trkpt lat="43.77429" lon="1.68465">
        <ele>115.5</ele>
        <time>2026-05-25T06:27:58Z</time>
      </trkpt>
      <trkpt lat="43.77428" lon="1.68467">
        <ele>115.5</ele>
        <time>2026-05-25T06:27:59Z</time>
      </trkpt>
      <trkpt lat="43.77428" lon="1.68469">
        <ele>115.5</ele>
        <time>2026-05-25T06:28:00Z</time>
      </trkpt>
      <trkpt lat="43.77428" lon="1.68471">
        <ele>115.5</ele>
        <time>2026-05-25T06:28:01Z</time>
      </trkpt>
      <trkpt lat="43.77427" lon="1.68473">
        <ele>115.5</ele>
        <time>2026-05-25T06:28:02Z</time>
      </trkpt>
      <trkpt lat="43.77427" lon="1.68475">
        <ele>115.5</ele>
        <time>2026-05-25T06:28:03Z</time>
      </trkpt>
      <trkpt lat="43.77423" lon="1.68499">
        <ele>115.5</ele>
        <time>2026-05-25T06:28:18Z</time>
      </trkpt>
      <trkpt lat="43.77421" lon="1.68527">
        <ele>116.46</ele>
        <time>2026-05-25T06:28:34Z</time>
      </trkpt>
      <trkpt lat="43.77421" lon="1.6853">
        <ele>116.46</ele>
        <time>2026-05-25T06:28:35Z</time>
      </trkpt>
      <trkpt lat="43.77421" lon="1.68532">
        <ele>116.46</ele>
        <time>2026-05-25T06:28:36Z</time>
      </trkpt>
      <trkpt lat="43.77421" lon="1.68556">
        <ele>116.94</ele>
        <time>2026-05-25T06:28:50Z</time>
      </trkpt>
      <trkpt lat="43.77413" lon="1.6857">
        <ele>117.9</ele>
        <time>2026-05-25T06:29:05Z</time>
      </trkpt>
      <trkpt lat="43.77407" lon="1.68574">
        <ele>117.9</ele>
        <time>2026-05-25T06:29:20Z</time>
      </trkpt>
      <trkpt lat="43.77403" lon="1.68576">
        <ele>117.9</ele>
        <time>2026-05-25T06:29:27Z</time>
      </trkpt>
      <trkpt lat="43.77402" lon="1.68576">
        <ele>116.46</ele>
        <time>2026-05-25T06:29:28Z</time>
      </trkpt>
      <trkpt lat="43.77401" lon="1.68576">
        <ele>118.86</ele>
        <time>2026-05-25T06:29:29Z</time>
      </trkpt>
      <trkpt lat="43.774" lon="1.68575">
        <ele>118.86</ele>
        <time>2026-05-25T06:29:30Z</time>
      </trkpt>
      <trkpt lat="43.77397" lon="1.68574">
        <ele>117.42</ele>
        <time>2026-05-25T06:29:32Z</time>
      </trkpt>
      <trkpt lat="43.77383" lon="1.68566">
        <ele>117.42</ele>
        <time>2026-05-25T06:29:46Z</time>
      </trkpt>
      <trkpt lat="43.77365" lon="1.68551">
        <ele>117.42</ele>
        <time>2026-05-25T06:30:06Z</time>
      </trkpt>
      <trkpt lat="43.77349" lon="1.68548">
        <ele>117.42</ele>
        <time>2026-05-25T06:30:17Z</time>
      </trkpt>
      <trkpt lat="43.77348" lon="1.68548">
        <ele>117.42</ele>
        <time>2026-05-25T06:30:18Z</time>
      </trkpt>
      <trkpt lat="43.77326" lon="1.68545">
        <ele>117.42</ele>
        <time>2026-05-25T06:30:34Z</time>
      </trkpt>
      <trkpt lat="43.77322" lon="1.68537">
        <ele>117.42</ele>
        <time>2026-05-25T06:30:49Z</time>
      </trkpt>
      <trkpt lat="43.77316" lon="1.68548">
        <ele>117.42</ele>
        <time>2026-05-25T06:31:02Z</time>
      </trkpt>
      <trkpt lat="43.77315" lon="1.6854">
        <ele>119.34</ele>
        <time>2026-05-25T06:33:02Z</time>
      </trkpt>
      <trkpt lat="43.77297" lon="1.68548">
        <ele>117.42</ele>
        <time>2026-05-25T06:33:13Z</time>
      </trkpt>
      <trkpt lat="43.7729" lon="1.68534">
        <ele>117.42</ele>
        <time>2026-05-25T06:33:29Z</time>
      </trkpt>
      <trkpt lat="43.77296" lon="1.68521">
        <ele>117.42</ele>
        <time>2026-05-25T06:34:07Z</time>
      </trkpt>
      <trkpt lat="43.77294" lon="1.68522">
        <ele>117.42</ele>
        <time>2026-05-25T06:34:42Z</time>
      </trkpt>
      <trkpt lat="43.77299" lon="1.68518">
        <ele>117.42</ele>
        <time>2026-05-25T06:35:24Z</time>
      </trkpt>
      <trkpt lat="43.77293" lon="1.68521">
        <ele>117.42</ele>
        <time>2026-05-25T06:36:13Z</time>
      </trkpt>
      <trkpt lat="43.77288" lon="1.68516">
        <ele>117.42</ele>
        <time>2026-05-25T06:36:39Z</time>
      </trkpt>
      <trkpt lat="43.7728" lon="1.68503">
        <ele>117.42</ele>
        <time>2026-05-25T06:36:51Z</time>
      </trkpt>
      <trkpt lat="43.77267" lon="1.68491">
        <ele>118.38</ele>
        <time>2026-05-25T06:37:07Z</time>
      </trkpt>
      <trkpt lat="43.77255" lon="1.6848">
        <ele>118.38</ele>
        <time>2026-05-25T06:37:19Z</time>
      </trkpt>
      <trkpt lat="43.77242" lon="1.6847">
        <ele>118.38</ele>
        <time>2026-05-25T06:37:32Z</time>
      </trkpt>
      <trkpt lat="43.77228" lon="1.68456">
        <ele>118.38</ele>
        <time>2026-05-25T06:37:46Z</time>
      </trkpt>
      <trkpt lat="43.7721" lon="1.68447">
        <ele>118.38</ele>
        <time>2026-05-25T06:38:01Z</time>
      </trkpt>
      <trkpt lat="43.77192" lon="1.68438">
        <ele>118.38</ele>
        <time>2026-05-25T06:38:15Z</time>
      </trkpt>
      <trkpt lat="43.77178" lon="1.68423">
        <ele>118.38</ele>
        <time>2026-05-25T06:38:28Z</time>
      </trkpt>
      <trkpt lat="43.77162" lon="1.68412">
        <ele>118.38</ele>
        <time>2026-05-25T06:38:42Z</time>
      </trkpt>
      <trkpt lat="43.77144" lon="1.68399">
        <ele>118.38</ele>
        <time>2026-05-25T06:38:56Z</time>
      </trkpt>
      <trkpt lat="43.77129" lon="1.68385">
        <ele>118.38</ele>
        <time>2026-05-25T06:39:10Z</time>
      </trkpt>
      <trkpt lat="43.77114" lon="1.68375">
        <ele>118.38</ele>
        <time>2026-05-25T06:39:24Z</time>
      </trkpt>
      <trkpt lat="43.77097" lon="1.68366">
        <ele>118.38</ele>
        <time>2026-05-25T06:39:38Z</time>
      </trkpt>
      <trkpt lat="43.77086" lon="1.68351">
        <ele>118.38</ele>
        <time>2026-05-25T06:39:51Z</time>
      </trkpt>
      <trkpt lat="43.77072" lon="1.68337">
        <ele>118.38</ele>
        <time>2026-05-25T06:40:04Z</time>
      </trkpt>
      <trkpt lat="43.77058" lon="1.68323">
        <ele>118.38</ele>
        <time>2026-05-25T06:40:18Z</time>
      </trkpt>
      <trkpt lat="43.77042" lon="1.68308">
        <ele>118.38</ele>
        <time>2026-05-25T06:40:31Z</time>
      </trkpt>
      <trkpt lat="43.77039" lon="1.68303">
        <ele>118.38</ele>
        <time>2026-05-25T06:40:37Z</time>
      </trkpt>
      <trkpt lat="43.77038" lon="1.68302">
        <ele>118.38</ele>
        <time>2026-05-25T06:40:38Z</time>
      </trkpt>
      <trkpt lat="43.77033" lon="1.68294">
        <ele>118.38</ele>
        <time>2026-05-25T06:40:43Z</time>
      </trkpt>
      <trkpt lat="43.77032" lon="1.68293">
        <ele>118.38</ele>
        <time>2026-05-25T06:40:44Z</time>
      </trkpt>
      <trkpt lat="43.77022" lon="1.68275">
        <ele>118.38</ele>
        <time>2026-05-25T06:40:57Z</time>
      </trkpt>
      <trkpt lat="43.77009" lon="1.68255">
        <ele>118.38</ele>
        <time>2026-05-25T06:41:12Z</time>
      </trkpt>
      <trkpt lat="43.77" lon="1.68244">
        <ele>118.38</ele>
        <time>2026-05-25T06:41:21Z</time>
      </trkpt>
      <trkpt lat="43.76984" lon="1.68226">
        <ele>118.38</ele>
        <time>2026-05-25T06:41:36Z</time>
      </trkpt>
      <trkpt lat="43.7697" lon="1.682">
        <ele>118.38</ele>
        <time>2026-05-25T06:41:52Z</time>
      </trkpt>
      <trkpt lat="43.76961" lon="1.68174">
        <ele>118.38</ele>
        <time>2026-05-25T06:42:08Z</time>
      </trkpt>
      <trkpt lat="43.76957" lon="1.68167">
        <ele>116.94</ele>
        <time>2026-05-25T06:42:14Z</time>
      </trkpt>
      <trkpt lat="43.76947" lon="1.68141">
        <ele>117.42</ele>
        <time>2026-05-25T06:42:30Z</time>
      </trkpt>
      <trkpt lat="43.76934" lon="1.68122">
        <ele>117.42</ele>
        <time>2026-05-25T06:42:45Z</time>
      </trkpt>
      <trkpt lat="43.76925" lon="1.68106">
        <ele>117.42</ele>
        <time>2026-05-25T06:42:58Z</time>
      </trkpt>
      <trkpt lat="43.76914" lon="1.68086">
        <ele>117.42</ele>
        <time>2026-05-25T06:43:12Z</time>
      </trkpt>
      <trkpt lat="43.76902" lon="1.68059">
        <ele>117.42</ele>
        <time>2026-05-25T06:43:28Z</time>
      </trkpt>
      <trkpt lat="43.76891" lon="1.68032">
        <ele>117.42</ele>
        <time>2026-05-25T06:43:44Z</time>
      </trkpt>
      <trkpt lat="43.76887" lon="1.68025">
        <ele>117.42</ele>
        <time>2026-05-25T06:43:52Z</time>
      </trkpt>
      <trkpt lat="43.76887" lon="1.68024">
        <ele>117.42</ele>
        <time>2026-05-25T06:43:53Z</time>
      </trkpt>
      <trkpt lat="43.76886" lon="1.68022">
        <ele>117.42</ele>
        <time>2026-05-25T06:43:54Z</time>
      </trkpt>
      <trkpt lat="43.76885" lon="1.68021">
        <ele>117.42</ele>
        <time>2026-05-25T06:43:55Z</time>
      </trkpt>
      <trkpt lat="43.76885" lon="1.68019">
        <ele>117.42</ele>
        <time>2026-05-25T06:43:56Z</time>
      </trkpt>
      <trkpt lat="43.76876" lon="1.67996">
        <ele>117.42</ele>
        <time>2026-05-25T06:44:09Z</time>
      </trkpt>
      <trkpt lat="43.76873" lon="1.67989">
        <ele>117.42</ele>
        <time>2026-05-25T06:44:13Z</time>
      </trkpt>
      <trkpt lat="43.76873" lon="1.67987">
        <ele>117.42</ele>
        <time>2026-05-25T06:44:14Z</time>
      </trkpt>
      <trkpt lat="43.76866" lon="1.67966">
        <ele>117.42</ele>
        <time>2026-05-25T06:44:29Z</time>
      </trkpt>
      <trkpt lat="43.76865" lon="1.67965">
        <ele>117.42</ele>
        <time>2026-05-25T06:44:30Z</time>
      </trkpt>
      <trkpt lat="43.76864" lon="1.67963">
        <ele>117.42</ele>
        <time>2026-05-25T06:44:31Z</time>
      </trkpt>
      <trkpt lat="43.76863" lon="1.67961">
        <ele>117.42</ele>
        <time>2026-05-25T06:44:32Z</time>
      </trkpt>
      <trkpt lat="43.76862" lon="1.67959">
        <ele>117.42</ele>
        <time>2026-05-25T06:44:33Z</time>
      </trkpt>
      <trkpt lat="43.76857" lon="1.67945">
        <ele>117.42</ele>
        <time>2026-05-25T06:44:40Z</time>
      </trkpt>
      <trkpt lat="43.7685" lon="1.67939">
        <ele>117.42</ele>
        <time>2026-05-25T06:44:49Z</time>
      </trkpt>
      <trkpt lat="43.76849" lon="1.67938">
        <ele>117.42</ele>
        <time>2026-05-25T06:44:50Z</time>
      </trkpt>
      <trkpt lat="43.76833" lon="1.67913">
        <ele>117.9</ele>
        <time>2026-05-25T06:45:04Z</time>
      </trkpt>
      <trkpt lat="43.76823" lon="1.67896">
        <ele>117.9</ele>
        <time>2026-05-25T06:45:18Z</time>
      </trkpt>
      <trkpt lat="43.76814" lon="1.67876">
        <ele>117.9</ele>
        <time>2026-05-25T06:45:32Z</time>
      </trkpt>
      <trkpt lat="43.76798" lon="1.67851">
        <ele>117.9</ele>
        <time>2026-05-25T06:45:48Z</time>
      </trkpt>
      <trkpt lat="43.7678" lon="1.67826">
        <ele>117.9</ele>
        <time>2026-05-25T06:46:06Z</time>
      </trkpt>
      <trkpt lat="43.76762" lon="1.67804">
        <ele>117.9</ele>
        <time>2026-05-25T06:46:23Z</time>
      </trkpt>
      <trkpt lat="43.76744" lon="1.67784">
        <ele>117.9</ele>
        <time>2026-05-25T06:46:40Z</time>
      </trkpt>
      <trkpt lat="43.76725" lon="1.67762">
        <ele>117.9</ele>
        <time>2026-05-25T06:46:59Z</time>
      </trkpt>
      <trkpt lat="43.76708" lon="1.67742">
        <ele>117.9</ele>
        <time>2026-05-25T06:47:16Z</time>
      </trkpt>
      <trkpt lat="43.76688" lon="1.67722">
        <ele>117.9</ele>
        <time>2026-05-25T06:47:33Z</time>
      </trkpt>
      <trkpt lat="43.76669" lon="1.67708">
        <ele>117.9</ele>
        <time>2026-05-25T06:47:50Z</time>
      </trkpt>
      <trkpt lat="43.76649" lon="1.67704">
        <ele>119.34</ele>
        <time>2026-05-25T06:48:06Z</time>
      </trkpt>
      <trkpt lat="43.76627" lon="1.67698">
        <ele>119.34</ele>
        <time>2026-05-25T06:48:22Z</time>
      </trkpt>
      <trkpt lat="43.7661" lon="1.67699">
        <ele>119.82</ele>
        <time>2026-05-25T06:48:38Z</time>
      </trkpt>
      <trkpt lat="43.76603" lon="1.67698">
        <ele>119.82</ele>
        <time>2026-05-25T06:48:44Z</time>
      </trkpt>
      <trkpt lat="43.76583" lon="1.67693">
        <ele>119.82</ele>
        <time>2026-05-25T06:48:57Z</time>
      </trkpt>
      <trkpt lat="43.76563" lon="1.67693">
        <ele>120.78</ele>
        <time>2026-05-25T06:49:13Z</time>
      </trkpt>
      <trkpt lat="43.7656" lon="1.67693">
        <ele>121.26</ele>
        <time>2026-05-25T06:49:16Z</time>
      </trkpt>
      <trkpt lat="43.76558" lon="1.67693">
        <ele>121.26</ele>
        <time>2026-05-25T06:49:17Z</time>
      </trkpt>
      <trkpt lat="43.76557" lon="1.67694">
        <ele>121.26</ele>
        <time>2026-05-25T06:49:18Z</time>
      </trkpt>
      <trkpt lat="43.76555" lon="1.67694">
        <ele>121.26</ele>
        <time>2026-05-25T06:49:19Z</time>
      </trkpt>
      <trkpt lat="43.76551" lon="1.67693">
        <ele>121.26</ele>
        <time>2026-05-25T06:49:31Z</time>
      </trkpt>
      <trkpt lat="43.76546" lon="1.67695">
        <ele>121.26</ele>
        <time>2026-05-25T06:49:49Z</time>
      </trkpt>
      <trkpt lat="43.76536" lon="1.67699">
        <ele>121.74</ele>
        <time>2026-05-25T06:50:02Z</time>
      </trkpt>
      <trkpt lat="43.76529" lon="1.67701">
        <ele>121.74</ele>
        <time>2026-05-25T06:50:09Z</time>
      </trkpt>
      <trkpt lat="43.76528" lon="1.67702">
        <ele>121.74</ele>
        <time>2026-05-25T06:50:10Z</time>
      </trkpt>
      <trkpt lat="43.76526" lon="1.67703">
        <ele>121.74</ele>
        <time>2026-05-25T06:50:11Z</time>
      </trkpt>
      <trkpt lat="43.76525" lon="1.67703">
        <ele>121.74</ele>
        <time>2026-05-25T06:50:12Z</time>
      </trkpt>
      <trkpt lat="43.76523" lon="1.67704">
        <ele>122.22</ele>
        <time>2026-05-25T06:50:13Z</time>
      </trkpt>
      <trkpt lat="43.76507" lon="1.67709">
        <ele>122.71</ele>
        <time>2026-05-25T06:50:27Z</time>
      </trkpt>
      <trkpt lat="43.76494" lon="1.6771">
        <ele>123.19</ele>
        <time>2026-05-25T06:50:39Z</time>
      </trkpt>
      <trkpt lat="43.76474" lon="1.67711">
        <ele>123.67</ele>
        <time>2026-05-25T06:50:53Z</time>
      </trkpt>
      <trkpt lat="43.76458" lon="1.67708">
        <ele>124.15</ele>
        <time>2026-05-25T06:51:08Z</time>
      </trkpt>
      <trkpt lat="43.76441" lon="1.67713">
        <ele>123.67</ele>
        <time>2026-05-25T06:51:21Z</time>
      </trkpt>
      <trkpt lat="43.76419" lon="1.67715">
        <ele>124.15</ele>
        <time>2026-05-25T06:51:35Z</time>
      </trkpt>
      <trkpt lat="43.76404" lon="1.67717">
        <ele>124.63</ele>
        <time>2026-05-25T06:51:48Z</time>
      </trkpt>
      <trkpt lat="43.76407" lon="1.67716">
        <ele>124.63</ele>
        <time>2026-05-25T06:52:15Z</time>
      </trkpt>
      <trkpt lat="43.76405" lon="1.67717">
        <ele>124.63</ele>
        <time>2026-05-25T06:52:20Z</time>
      </trkpt>
      <trkpt lat="43.76404" lon="1.67718">
        <ele>124.63</ele>
        <time>2026-05-25T06:52:21Z</time>
      </trkpt>
      <trkpt lat="43.76387" lon="1.67723">
        <ele>124.63</ele>
        <time>2026-05-25T06:52:33Z</time>
      </trkpt>
      <trkpt lat="43.7637" lon="1.67724">
        <ele>124.63</ele>
        <time>2026-05-25T06:52:47Z</time>
      </trkpt>
      <trkpt lat="43.7635" lon="1.67728">
        <ele>124.63</ele>
        <time>2026-05-25T06:53:02Z</time>
      </trkpt>
      <trkpt lat="43.76331" lon="1.67732">
        <ele>124.63</ele>
        <time>2026-05-25T06:53:16Z</time>
      </trkpt>
      <trkpt lat="43.76311" lon="1.67736">
        <ele>124.63</ele>
        <time>2026-05-25T06:53:30Z</time>
      </trkpt>
      <trkpt lat="43.76293" lon="1.67741">
        <ele>124.63</ele>
        <time>2026-05-25T06:53:44Z</time>
      </trkpt>
      <trkpt lat="43.76274" lon="1.67746">
        <ele>124.63</ele>
        <time>2026-05-25T06:53:59Z</time>
      </trkpt>
      <trkpt lat="43.76258" lon="1.67752">
        <ele>125.11</ele>
        <time>2026-05-25T06:54:11Z</time>
      </trkpt>
      <trkpt lat="43.76242" lon="1.67759">
        <ele>125.11</ele>
        <time>2026-05-25T06:54:23Z</time>
      </trkpt>
      <trkpt lat="43.76229" lon="1.67764">
        <ele>124.63</ele>
        <time>2026-05-25T06:54:34Z</time>
      </trkpt>
      <trkpt lat="43.76213" lon="1.6777">
        <ele>124.63</ele>
        <time>2026-05-25T06:54:47Z</time>
      </trkpt>
      <trkpt lat="43.76196" lon="1.67775">
        <ele>124.63</ele>
        <time>2026-05-25T06:55:00Z</time>
      </trkpt>
      <trkpt lat="43.7618" lon="1.67779">
        <ele>124.63</ele>
        <time>2026-05-25T06:55:12Z</time>
      </trkpt>
      <trkpt lat="43.76177" lon="1.67779">
        <ele>125.11</ele>
        <time>2026-05-25T06:55:16Z</time>
      </trkpt>
      <trkpt lat="43.76175" lon="1.67779">
        <ele>125.11</ele>
        <time>2026-05-25T06:55:17Z</time>
      </trkpt>
      <trkpt lat="43.76174" lon="1.6778">
        <ele>125.11</ele>
        <time>2026-05-25T06:55:18Z</time>
      </trkpt>
      <trkpt lat="43.76159" lon="1.67781">
        <ele>125.11</ele>
        <time>2026-05-25T06:55:29Z</time>
      </trkpt>
      <trkpt lat="43.76143" lon="1.67782">
        <ele>125.11</ele>
        <time>2026-05-25T06:55:41Z</time>
      </trkpt>
      <trkpt lat="43.76129" lon="1.67783">
        <ele>125.59</ele>
        <time>2026-05-25T06:55:52Z</time>
      </trkpt>
      <trkpt lat="43.76114" lon="1.67784">
        <ele>125.59</ele>
        <time>2026-05-25T06:56:03Z</time>
      </trkpt>
      <trkpt lat="43.761" lon="1.67787">
        <ele>125.59</ele>
        <time>2026-05-25T06:56:14Z</time>
      </trkpt>
      <trkpt lat="43.76086" lon="1.67794">
        <ele>125.59</ele>
        <time>2026-05-25T06:56:25Z</time>
      </trkpt>
      <trkpt lat="43.76071" lon="1.67798">
        <ele>125.59</ele>
        <time>2026-05-25T06:56:38Z</time>
      </trkpt>
      <trkpt lat="43.76055" lon="1.67803">
        <ele>126.07</ele>
        <time>2026-05-25T06:56:50Z</time>
      </trkpt>
      <trkpt lat="43.76039" lon="1.67807">
        <ele>126.07</ele>
        <time>2026-05-25T06:57:03Z</time>
      </trkpt>
      <trkpt lat="43.76022" lon="1.67808">
        <ele>126.07</ele>
        <time>2026-05-25T06:57:16Z</time>
      </trkpt>
      <trkpt lat="43.76004" lon="1.67809">
        <ele>126.07</ele>
        <time>2026-05-25T06:57:29Z</time>
      </trkpt>
      <trkpt lat="43.7599" lon="1.67807">
        <ele>126.55</ele>
        <time>2026-05-25T06:57:40Z</time>
      </trkpt>
      <trkpt lat="43.75974" lon="1.67805">
        <ele>126.55</ele>
        <time>2026-05-25T06:57:52Z</time>
      </trkpt>
      <trkpt lat="43.75959" lon="1.678">
        <ele>127.03</ele>
        <time>2026-05-25T06:58:04Z</time>
      </trkpt>
      <trkpt lat="43.75941" lon="1.67794">
        <ele>127.51</ele>
        <time>2026-05-25T06:58:17Z</time>
      </trkpt>
      <trkpt lat="43.75926" lon="1.67791">
        <ele>127.99</ele>
        <time>2026-05-25T06:58:29Z</time>
      </trkpt>
      <trkpt lat="43.75912" lon="1.67789">
        <ele>128.47</ele>
        <time>2026-05-25T06:58:42Z</time>
      </trkpt>
      <trkpt lat="43.75897" lon="1.67783">
        <ele>128.95</ele>
        <time>2026-05-25T06:58:55Z</time>
      </trkpt>
      <trkpt lat="43.75887" lon="1.67778">
        <ele>129.43</ele>
        <time>2026-05-25T06:59:06Z</time>
      </trkpt>
      <trkpt lat="43.75876" lon="1.67765">
        <ele>130.4</ele>
        <time>2026-05-25T06:59:19Z</time>
      </trkpt>
      <trkpt lat="43.75865" lon="1.67752">
        <ele>130.4</ele>
        <time>2026-05-25T06:59:30Z</time>
      </trkpt>
      <trkpt lat="43.75852" lon="1.67741">
        <ele>130.88</ele>
        <time>2026-05-25T06:59:43Z</time>
      </trkpt>
      <trkpt lat="43.75838" lon="1.67728">
        <ele>131.36</ele>
        <time>2026-05-25T06:59:56Z</time>
      </trkpt>
      <trkpt lat="43.75821" lon="1.67722">
        <ele>132.32</ele>
        <time>2026-05-25T07:00:09Z</time>
      </trkpt>
      <trkpt lat="43.75802" lon="1.6772">
        <ele>132.32</ele>
        <time>2026-05-25T07:00:23Z</time>
      </trkpt>
      <trkpt lat="43.7578" lon="1.67722">
        <ele>132.8</ele>
        <time>2026-05-25T07:00:39Z</time>
      </trkpt>
      <trkpt lat="43.75761" lon="1.67725">
        <ele>132.8</ele>
        <time>2026-05-25T07:00:53Z</time>
      </trkpt>
      <trkpt lat="43.75756" lon="1.67725">
        <ele>132.8</ele>
        <time>2026-05-25T07:00:58Z</time>
      </trkpt>
      <trkpt lat="43.75754" lon="1.67725">
        <ele>132.8</ele>
        <time>2026-05-25T07:00:59Z</time>
      </trkpt>
      <trkpt lat="43.75732" lon="1.67725">
        <ele>133.28</ele>
        <time>2026-05-25T07:01:15Z</time>
      </trkpt>
      <trkpt lat="43.75715" lon="1.67722">
        <ele>133.28</ele>
        <time>2026-05-25T07:01:28Z</time>
      </trkpt>
      <trkpt lat="43.75714" lon="1.67722">
        <ele>133.28</ele>
        <time>2026-05-25T07:01:29Z</time>
      </trkpt>
      <trkpt lat="43.75712" lon="1.67722">
        <ele>133.28</ele>
        <time>2026-05-25T07:01:30Z</time>
      </trkpt>
      <trkpt lat="43.75711" lon="1.67723">
        <ele>133.28</ele>
        <time>2026-05-25T07:01:31Z</time>
      </trkpt>
      <trkpt lat="43.7571" lon="1.67723">
        <ele>133.28</ele>
        <time>2026-05-25T07:01:32Z</time>
      </trkpt>
      <trkpt lat="43.75708" lon="1.67723">
        <ele>133.28</ele>
        <time>2026-05-25T07:01:33Z</time>
      </trkpt>
      <trkpt lat="43.75687" lon="1.67723">
        <ele>133.76</ele>
        <time>2026-05-25T07:01:50Z</time>
      </trkpt>
      <trkpt lat="43.75667" lon="1.6772">
        <ele>133.76</ele>
        <time>2026-05-25T07:02:06Z</time>
      </trkpt>
      <trkpt lat="43.75644" lon="1.67719">
        <ele>134.24</ele>
        <time>2026-05-25T07:02:23Z</time>
      </trkpt>
      <trkpt lat="43.75623" lon="1.67714">
        <ele>135.2</ele>
        <time>2026-05-25T07:02:40Z</time>
      </trkpt>
      <trkpt lat="43.75601" lon="1.67706">
        <ele>136.16</ele>
        <time>2026-05-25T07:02:57Z</time>
      </trkpt>
      <trkpt lat="43.75593" lon="1.67703">
        <ele>136.64</ele>
        <time>2026-05-25T07:03:04Z</time>
      </trkpt>
      <trkpt lat="43.75592" lon="1.67702">
        <ele>136.64</ele>
        <time>2026-05-25T07:03:05Z</time>
      </trkpt>
      <trkpt lat="43.75574" lon="1.67699">
        <ele>138.09</ele>
        <time>2026-05-25T07:03:19Z</time>
      </trkpt>
      <trkpt lat="43.75558" lon="1.67694">
        <ele>138.57</ele>
        <time>2026-05-25T07:03:32Z</time>
      </trkpt>
      <trkpt lat="43.7554" lon="1.67692">
        <ele>140.01</ele>
        <time>2026-05-25T07:03:47Z</time>
      </trkpt>
      <trkpt lat="43.75519" lon="1.67691">
        <ele>140.97</ele>
        <time>2026-05-25T07:04:02Z</time>
      </trkpt>
      <trkpt lat="43.75504" lon="1.67691">
        <ele>140.97</ele>
        <time>2026-05-25T07:04:14Z</time>
      </trkpt>
      <trkpt lat="43.75497" lon="1.67689">
        <ele>140.97</ele>
        <time>2026-05-25T07:04:23Z</time>
      </trkpt>
      <trkpt lat="43.75496" lon="1.67688">
        <ele>140.97</ele>
        <time>2026-05-25T07:04:24Z</time>
      </trkpt>
      <trkpt lat="43.75494" lon="1.67686">
        <ele>140.97</ele>
        <time>2026-05-25T07:04:36Z</time>
      </trkpt>
      <trkpt lat="43.75494" lon="1.67685">
        <ele>140.97</ele>
        <time>2026-05-25T07:04:57Z</time>
      </trkpt>
      <trkpt lat="43.75491" lon="1.67684">
        <ele>140.97</ele>
        <time>2026-05-25T07:05:14Z</time>
      </trkpt>
      <trkpt lat="43.7549" lon="1.67685">
        <ele>140.97</ele>
        <time>2026-05-25T07:05:15Z</time>
      </trkpt>
      <trkpt lat="43.75473" lon="1.67684">
        <ele>141.45</ele>
        <time>2026-05-25T07:05:29Z</time>
      </trkpt>
      <trkpt lat="43.75475" lon="1.67684">
        <ele>141.45</ele>
        <time>2026-05-25T07:05:39Z</time>
      </trkpt>
      <trkpt lat="43.75473" lon="1.67684">
        <ele>141.45</ele>
        <time>2026-05-25T07:05:40Z</time>
      </trkpt>
      <trkpt lat="43.75468" lon="1.67683">
        <ele>141.45</ele>
        <time>2026-05-25T07:05:52Z</time>
      </trkpt>
      <trkpt lat="43.75451" lon="1.67683">
        <ele>141.45</ele>
        <time>2026-05-25T07:06:05Z</time>
      </trkpt>
      <trkpt lat="43.75426" lon="1.67686">
        <ele>141.45</ele>
        <time>2026-05-25T07:06:21Z</time>
      </trkpt>
      <trkpt lat="43.75405" lon="1.67692">
        <ele>141.45</ele>
        <time>2026-05-25T07:06:36Z</time>
      </trkpt>
      <trkpt lat="43.75385" lon="1.67701">
        <ele>139.05</ele>
        <time>2026-05-25T07:06:52Z</time>
      </trkpt>
      <trkpt lat="43.75365" lon="1.67711">
        <ele>138.57</ele>
        <time>2026-05-25T07:07:08Z</time>
      </trkpt>
      <trkpt lat="43.75364" lon="1.67711">
        <ele>138.57</ele>
        <time>2026-05-25T07:07:09Z</time>
      </trkpt>
      <trkpt lat="43.75362" lon="1.67713">
        <ele>138.57</ele>
        <time>2026-05-25T07:07:10Z</time>
      </trkpt>
      <trkpt lat="43.75342" lon="1.67723">
        <ele>138.09</ele>
        <time>2026-05-25T07:07:26Z</time>
      </trkpt>
      <trkpt lat="43.75319" lon="1.67732">
        <ele>138.09</ele>
        <time>2026-05-25T07:07:43Z</time>
      </trkpt>
      <trkpt lat="43.75299" lon="1.67739">
        <ele>138.09</ele>
        <time>2026-05-25T07:08:01Z</time>
      </trkpt>
      <trkpt lat="43.75296" lon="1.67741">
        <ele>139.05</ele>
        <time>2026-05-25T07:08:04Z</time>
      </trkpt>
      <trkpt lat="43.75276" lon="1.6775">
        <ele>140.49</ele>
        <time>2026-05-25T07:08:21Z</time>
      </trkpt>
      <trkpt lat="43.75267" lon="1.67756">
        <ele>140.97</ele>
        <time>2026-05-25T07:08:30Z</time>
      </trkpt>
      <trkpt lat="43.75266" lon="1.67757">
        <ele>140.97</ele>
        <time>2026-05-25T07:08:31Z</time>
      </trkpt>
      <trkpt lat="43.75256" lon="1.6776">
        <ele>141.93</ele>
        <time>2026-05-25T07:08:39Z</time>
      </trkpt>
      <trkpt lat="43.75255" lon="1.67761">
        <ele>142.41</ele>
        <time>2026-05-25T07:08:40Z</time>
      </trkpt>
      <trkpt lat="43.75253" lon="1.67761">
        <ele>142.41</ele>
        <time>2026-05-25T07:08:41Z</time>
      </trkpt>
      <trkpt lat="43.75235" lon="1.67765">
        <ele>144.82</ele>
        <time>2026-05-25T07:08:58Z</time>
      </trkpt>
      <trkpt lat="43.75222" lon="1.6777">
        <ele>146.26</ele>
        <time>2026-05-25T07:09:12Z</time>
      </trkpt>
      <trkpt lat="43.75205" lon="1.67771">
        <ele>148.18</ele>
        <time>2026-05-25T07:09:26Z</time>
      </trkpt>
      <trkpt lat="43.75188" lon="1.6776">
        <ele>149.14</ele>
        <time>2026-05-25T07:09:40Z</time>
      </trkpt>
      <trkpt lat="43.75184" lon="1.67761">
        <ele>149.14</ele>
        <time>2026-05-25T07:09:44Z</time>
      </trkpt>
      <trkpt lat="43.75182" lon="1.67762">
        <ele>149.14</ele>
        <time>2026-05-25T07:09:45Z</time>
      </trkpt>
      <trkpt lat="43.75181" lon="1.67762">
        <ele>149.14</ele>
        <time>2026-05-25T07:09:46Z</time>
      </trkpt>
      <trkpt lat="43.75179" lon="1.67762">
        <ele>149.14</ele>
        <time>2026-05-25T07:09:47Z</time>
      </trkpt>
      <trkpt lat="43.75177" lon="1.67761">
        <ele>149.62</ele>
        <time>2026-05-25T07:09:48Z</time>
      </trkpt>
      <trkpt lat="43.75176" lon="1.67761">
        <ele>149.62</ele>
        <time>2026-05-25T07:09:49Z</time>
      </trkpt>
      <trkpt lat="43.75161" lon="1.6776">
        <ele>150.58</ele>
        <time>2026-05-25T07:10:01Z</time>
      </trkpt>
      <trkpt lat="43.75145" lon="1.67759">
        <ele>151.06</ele>
        <time>2026-05-25T07:10:13Z</time>
      </trkpt>
      <trkpt lat="43.75129" lon="1.67758">
        <ele>151.54</ele>
        <time>2026-05-25T07:10:26Z</time>
      </trkpt>
      <trkpt lat="43.75117" lon="1.67757">
        <ele>152.03</ele>
        <time>2026-05-25T07:10:36Z</time>
      </trkpt>
      <trkpt lat="43.75116" lon="1.67757">
        <ele>152.03</ele>
        <time>2026-05-25T07:10:37Z</time>
      </trkpt>
      <trkpt lat="43.75115" lon="1.67757">
        <ele>152.03</ele>
        <time>2026-05-25T07:10:38Z</time>
      </trkpt>
      <trkpt lat="43.75113" lon="1.67757">
        <ele>152.03</ele>
        <time>2026-05-25T07:10:39Z</time>
      </trkpt>
      <trkpt lat="43.75111" lon="1.67757">
        <ele>152.03</ele>
        <time>2026-05-25T07:10:40Z</time>
      </trkpt>
      <trkpt lat="43.7511" lon="1.67756">
        <ele>152.03</ele>
        <time>2026-05-25T07:10:41Z</time>
      </trkpt>
      <trkpt lat="43.75108" lon="1.67756">
        <ele>152.03</ele>
        <time>2026-05-25T07:10:42Z</time>
      </trkpt>
      <trkpt lat="43.75101" lon="1.67756">
        <ele>152.03</ele>
        <time>2026-05-25T07:10:48Z</time>
      </trkpt>
      <trkpt lat="43.75099" lon="1.67756">
        <ele>152.03</ele>
        <time>2026-05-25T07:10:50Z</time>
      </trkpt>
      <trkpt lat="43.75097" lon="1.67756">
        <ele>152.51</ele>
        <time>2026-05-25T07:10:51Z</time>
      </trkpt>
      <trkpt lat="43.75096" lon="1.67756">
        <ele>152.51</ele>
        <time>2026-05-25T07:10:52Z</time>
      </trkpt>
      <trkpt lat="43.75079" lon="1.67759">
        <ele>152.51</ele>
        <time>2026-05-25T07:11:05Z</time>
      </trkpt>
      <trkpt lat="43.75062" lon="1.6776">
        <ele>152.99</ele>
        <time>2026-05-25T07:11:17Z</time>
      </trkpt>
      <trkpt lat="43.75055" lon="1.67762">
        <ele>152.99</ele>
        <time>2026-05-25T07:11:23Z</time>
      </trkpt>
      <trkpt lat="43.75039" lon="1.67763">
        <ele>153.47</ele>
        <time>2026-05-25T07:11:35Z</time>
      </trkpt>
      <trkpt lat="43.75022" lon="1.67763">
        <ele>154.43</ele>
        <time>2026-05-25T07:11:48Z</time>
      </trkpt>
      <trkpt lat="43.75002" lon="1.67762">
        <ele>154.91</ele>
        <time>2026-05-25T07:12:03Z</time>
      </trkpt>
      <trkpt lat="43.7498" lon="1.67756">
        <ele>155.39</ele>
        <time>2026-05-25T07:12:19Z</time>
      </trkpt>
      <trkpt lat="43.74973" lon="1.67754">
        <ele>155.87</ele>
        <time>2026-05-25T07:12:26Z</time>
      </trkpt>
      <trkpt lat="43.74956" lon="1.67753">
        <ele>155.87</ele>
        <time>2026-05-25T07:12:39Z</time>
      </trkpt>
      <trkpt lat="43.74955" lon="1.67753">
        <ele>155.87</ele>
        <time>2026-05-25T07:12:40Z</time>
      </trkpt>
      <trkpt lat="43.74953" lon="1.67753">
        <ele>155.87</ele>
        <time>2026-05-25T07:12:41Z</time>
      </trkpt>
      <trkpt lat="43.74933" lon="1.6775">
        <ele>156.83</ele>
        <time>2026-05-25T07:12:56Z</time>
      </trkpt>
      <trkpt lat="43.74911" lon="1.67749">
        <ele>157.31</ele>
        <time>2026-05-25T07:13:11Z</time>
      </trkpt>
      <trkpt lat="43.7489" lon="1.67746">
        <ele>157.79</ele>
        <time>2026-05-25T07:13:27Z</time>
      </trkpt>
      <trkpt lat="43.74874" lon="1.67742">
        <ele>158.27</ele>
        <time>2026-05-25T07:13:42Z</time>
      </trkpt>
      <trkpt lat="43.74854" lon="1.67738">
        <ele>158.27</ele>
        <time>2026-05-25T07:13:57Z</time>
      </trkpt>
      <trkpt lat="43.74853" lon="1.67738">
        <ele>158.27</ele>
        <time>2026-05-25T07:13:58Z</time>
      </trkpt>
      <trkpt lat="43.74851" lon="1.67738">
        <ele>158.27</ele>
        <time>2026-05-25T07:13:59Z</time>
      </trkpt>
      <trkpt lat="43.7485" lon="1.67738">
        <ele>158.27</ele>
        <time>2026-05-25T07:14:00Z</time>
      </trkpt>
      <trkpt lat="43.74849" lon="1.67737">
        <ele>158.27</ele>
        <time>2026-05-25T07:14:01Z</time>
      </trkpt>
      <trkpt lat="43.74839" lon="1.67733">
        <ele>156.83</ele>
        <time>2026-05-25T07:14:10Z</time>
      </trkpt>
      <trkpt lat="43.74828" lon="1.67727">
        <ele>156.35</ele>
        <time>2026-05-25T07:14:20Z</time>
      </trkpt>
      <trkpt lat="43.74816" lon="1.67719">
        <ele>155.87</ele>
        <time>2026-05-25T07:14:39Z</time>
      </trkpt>
      <trkpt lat="43.74815" lon="1.67719">
        <ele>155.87</ele>
        <time>2026-05-25T07:14:40Z</time>
      </trkpt>
      <trkpt lat="43.74813" lon="1.67718">
        <ele>155.87</ele>
        <time>2026-05-25T07:14:41Z</time>
      </trkpt>
      <trkpt lat="43.74811" lon="1.67718">
        <ele>155.87</ele>
        <time>2026-05-25T07:14:42Z</time>
      </trkpt>
      <trkpt lat="43.7481" lon="1.67717">
        <ele>155.39</ele>
        <time>2026-05-25T07:14:43Z</time>
      </trkpt>
      <trkpt lat="43.74798" lon="1.67709">
        <ele>154.91</ele>
        <time>2026-05-25T07:14:56Z</time>
      </trkpt>
      <trkpt lat="43.7479" lon="1.67705">
        <ele>153.95</ele>
        <time>2026-05-25T07:15:09Z</time>
      </trkpt>
      <trkpt lat="43.74787" lon="1.67704">
        <ele>153.47</ele>
        <time>2026-05-25T07:15:27Z</time>
      </trkpt>
      <trkpt lat="43.74778" lon="1.677">
        <ele>152.99</ele>
        <time>2026-05-25T07:15:35Z</time>
      </trkpt>
      <trkpt lat="43.74776" lon="1.677">
        <ele>152.99</ele>
        <time>2026-05-25T07:15:36Z</time>
      </trkpt>
      <trkpt lat="43.74775" lon="1.67699">
        <ele>152.99</ele>
        <time>2026-05-25T07:15:37Z</time>
      </trkpt>
      <trkpt lat="43.74759" lon="1.67696">
        <ele>152.03</ele>
        <time>2026-05-25T07:15:49Z</time>
      </trkpt>
      <trkpt lat="43.74737" lon="1.67696">
        <ele>150.58</ele>
        <time>2026-05-25T07:16:04Z</time>
      </trkpt>
      <trkpt lat="43.74728" lon="1.67697">
        <ele>150.1</ele>
        <time>2026-05-25T07:16:11Z</time>
      </trkpt>
      <trkpt lat="43.74727" lon="1.67697">
        <ele>149.62</ele>
        <time>2026-05-25T07:16:12Z</time>
      </trkpt>
      <trkpt lat="43.74725" lon="1.67697">
        <ele>149.62</ele>
        <time>2026-05-25T07:16:13Z</time>
      </trkpt>
      <trkpt lat="43.74723" lon="1.67697">
        <ele>149.62</ele>
        <time>2026-05-25T07:16:14Z</time>
      </trkpt>
      <trkpt lat="43.74722" lon="1.67697">
        <ele>149.14</ele>
        <time>2026-05-25T07:16:15Z</time>
      </trkpt>
      <trkpt lat="43.7472" lon="1.67697">
        <ele>149.14</ele>
        <time>2026-05-25T07:16:16Z</time>
      </trkpt>
      <trkpt lat="43.74718" lon="1.67697">
        <ele>149.14</ele>
        <time>2026-05-25T07:16:17Z</time>
      </trkpt>
      <trkpt lat="43.74707" lon="1.67697">
        <ele>148.18</ele>
        <time>2026-05-25T07:16:26Z</time>
      </trkpt>
      <trkpt lat="43.74706" lon="1.67698">
        <ele>148.18</ele>
        <time>2026-05-25T07:16:27Z</time>
      </trkpt>
      <trkpt lat="43.74691" lon="1.67698">
        <ele>146.74</ele>
        <time>2026-05-25T07:16:39Z</time>
      </trkpt>
      <trkpt lat="43.7469" lon="1.67698">
        <ele>146.74</ele>
        <time>2026-05-25T07:16:40Z</time>
      </trkpt>
      <trkpt lat="43.74672" lon="1.67693">
        <ele>145.78</ele>
        <time>2026-05-25T07:16:55Z</time>
      </trkpt>
      <trkpt lat="43.7467" lon="1.67692">
        <ele>145.78</ele>
        <time>2026-05-25T07:16:56Z</time>
      </trkpt>
      <trkpt lat="43.74668" lon="1.67691">
        <ele>145.78</ele>
        <time>2026-05-25T07:16:57Z</time>
      </trkpt>
      <trkpt lat="43.74648" lon="1.6768">
        <ele>145.78</ele>
        <time>2026-05-25T07:17:11Z</time>
      </trkpt>
      <trkpt lat="43.74647" lon="1.67679">
        <ele>145.78</ele>
        <time>2026-05-25T07:17:12Z</time>
      </trkpt>
      <trkpt lat="43.74645" lon="1.67678">
        <ele>145.78</ele>
        <time>2026-05-25T07:17:13Z</time>
      </trkpt>
      <trkpt lat="43.74644" lon="1.67677">
        <ele>145.78</ele>
        <time>2026-05-25T07:17:14Z</time>
      </trkpt>
      <trkpt lat="43.74642" lon="1.67676">
        <ele>145.78</ele>
        <time>2026-05-25T07:17:15Z</time>
      </trkpt>
      <trkpt lat="43.74641" lon="1.67675">
        <ele>145.78</ele>
        <time>2026-05-25T07:17:16Z</time>
      </trkpt>
      <trkpt lat="43.74631" lon="1.6767">
        <ele>145.78</ele>
        <time>2026-05-25T07:17:26Z</time>
      </trkpt>
      <trkpt lat="43.74624" lon="1.67659">
        <ele>145.78</ele>
        <time>2026-05-25T07:17:45Z</time>
      </trkpt>
      <trkpt lat="43.74623" lon="1.67659">
        <ele>145.78</ele>
        <time>2026-05-25T07:17:47Z</time>
      </trkpt>
      <trkpt lat="43.74617" lon="1.67656">
        <ele>145.78</ele>
        <time>2026-05-25T07:17:53Z</time>
      </trkpt>
      <trkpt lat="43.74601" lon="1.6765">
        <ele>147.7</ele>
        <time>2026-05-25T07:18:06Z</time>
      </trkpt>
      <trkpt lat="43.74586" lon="1.67644">
        <ele>148.18</ele>
        <time>2026-05-25T07:18:19Z</time>
      </trkpt>
      <trkpt lat="43.74572" lon="1.67641">
        <ele>150.58</ele>
        <time>2026-05-25T07:18:35Z</time>
      </trkpt>
      <trkpt lat="43.74566" lon="1.67638">
        <ele>150.58</ele>
        <time>2026-05-25T07:18:48Z</time>
      </trkpt>
      <trkpt lat="43.74551" lon="1.67634">
        <ele>152.03</ele>
        <time>2026-05-25T07:19:02Z</time>
      </trkpt>
      <trkpt lat="43.74536" lon="1.67631">
        <ele>152.99</ele>
        <time>2026-05-25T07:19:15Z</time>
      </trkpt>
      <trkpt lat="43.74521" lon="1.6763">
        <ele>153.95</ele>
        <time>2026-05-25T07:19:27Z</time>
      </trkpt>
      <trkpt lat="43.74504" lon="1.6763">
        <ele>154.91</ele>
        <time>2026-05-25T07:19:40Z</time>
      </trkpt>
      <trkpt lat="43.74491" lon="1.67629">
        <ele>155.87</ele>
        <time>2026-05-25T07:19:52Z</time>
      </trkpt>
      <trkpt lat="43.74489" lon="1.67631">
        <ele>156.35</ele>
        <time>2026-05-25T07:19:59Z</time>
      </trkpt>
      <trkpt lat="43.74487" lon="1.67615">
        <ele>157.31</ele>
        <time>2026-05-25T07:20:12Z</time>
      </trkpt>
      <trkpt lat="43.74483" lon="1.67593">
        <ele>158.27</ele>
        <time>2026-05-25T07:20:27Z</time>
      </trkpt>
      <trkpt lat="43.74478" lon="1.67569">
        <ele>159.24</ele>
        <time>2026-05-25T07:20:40Z</time>
      </trkpt>
      <trkpt lat="43.74471" lon="1.67547">
        <ele>160.2</ele>
        <time>2026-05-25T07:20:53Z</time>
      </trkpt>
      <trkpt lat="43.74468" lon="1.6754">
        <ele>160.2</ele>
        <time>2026-05-25T07:20:59Z</time>
      </trkpt>
      <trkpt lat="43.74457" lon="1.67515">
        <ele>160.68</ele>
        <time>2026-05-25T07:21:14Z</time>
      </trkpt>
      <trkpt lat="43.74447" lon="1.67493">
        <ele>160.68</ele>
        <time>2026-05-25T07:21:27Z</time>
      </trkpt>
      <trkpt lat="43.74438" lon="1.67476">
        <ele>160.68</ele>
        <time>2026-05-25T07:21:39Z</time>
      </trkpt>
      <trkpt lat="43.74428" lon="1.67457">
        <ele>160.68</ele>
        <time>2026-05-25T07:21:52Z</time>
      </trkpt>
      <trkpt lat="43.74417" lon="1.67436">
        <ele>160.68</ele>
        <time>2026-05-25T07:22:06Z</time>
      </trkpt>
      <trkpt lat="43.74407" lon="1.67413">
        <ele>161.16</ele>
        <time>2026-05-25T07:22:20Z</time>
      </trkpt>
      <trkpt lat="43.74398" lon="1.6739">
        <ele>161.16</ele>
        <time>2026-05-25T07:22:35Z</time>
      </trkpt>
      <trkpt lat="43.74389" lon="1.67373">
        <ele>161.64</ele>
        <time>2026-05-25T07:22:47Z</time>
      </trkpt>
      <trkpt lat="43.74381" lon="1.6735">
        <ele>162.12</ele>
        <time>2026-05-25T07:23:01Z</time>
      </trkpt>
      <trkpt lat="43.74371" lon="1.67323">
        <ele>162.12</ele>
        <time>2026-05-25T07:23:16Z</time>
      </trkpt>
      <trkpt lat="43.74363" lon="1.673">
        <ele>162.6</ele>
        <time>2026-05-25T07:23:31Z</time>
      </trkpt>
      <trkpt lat="43.74358" lon="1.67275">
        <ele>162.6</ele>
        <time>2026-05-25T07:23:45Z</time>
      </trkpt>
      <trkpt lat="43.74349" lon="1.67249">
        <ele>162.6</ele>
        <time>2026-05-25T07:23:59Z</time>
      </trkpt>
      <trkpt lat="43.74348" lon="1.67245">
        <ele>162.6</ele>
        <time>2026-05-25T07:24:02Z</time>
      </trkpt>
      <trkpt lat="43.74338" lon="1.67223">
        <ele>162.6</ele>
        <time>2026-05-25T07:24:14Z</time>
      </trkpt>
      <trkpt lat="43.74335" lon="1.67218">
        <ele>162.6</ele>
        <time>2026-05-25T07:24:19Z</time>
      </trkpt>
      <trkpt lat="43.74335" lon="1.67217">
        <ele>162.6</ele>
        <time>2026-05-25T07:24:20Z</time>
      </trkpt>
      <trkpt lat="43.74334" lon="1.67216">
        <ele>162.6</ele>
        <time>2026-05-25T07:24:21Z</time>
      </trkpt>
      <trkpt lat="43.74333" lon="1.67214">
        <ele>162.6</ele>
        <time>2026-05-25T07:24:22Z</time>
      </trkpt>
      <trkpt lat="43.74332" lon="1.67212">
        <ele>162.6</ele>
        <time>2026-05-25T07:24:23Z</time>
      </trkpt>
      <trkpt lat="43.74326" lon="1.67201">
        <ele>161.64</ele>
        <time>2026-05-25T07:24:29Z</time>
      </trkpt>
      <trkpt lat="43.74325" lon="1.67198">
        <ele>161.64</ele>
        <time>2026-05-25T07:24:31Z</time>
      </trkpt>
      <trkpt lat="43.74324" lon="1.67197">
        <ele>161.64</ele>
        <time>2026-05-25T07:24:32Z</time>
      </trkpt>
      <trkpt lat="43.74314" lon="1.67172">
        <ele>161.16</ele>
        <time>2026-05-25T07:24:50Z</time>
      </trkpt>
      <trkpt lat="43.74307" lon="1.67145">
        <ele>161.16</ele>
        <time>2026-05-25T07:25:04Z</time>
      </trkpt>
      <trkpt lat="43.74309" lon="1.67115">
        <ele>161.16</ele>
        <time>2026-05-25T07:25:20Z</time>
      </trkpt>
      <trkpt lat="43.74323" lon="1.671">
        <ele>161.16</ele>
        <time>2026-05-25T07:25:35Z</time>
      </trkpt>
      <trkpt lat="43.74341" lon="1.67094">
        <ele>161.16</ele>
        <time>2026-05-25T07:25:50Z</time>
      </trkpt>
      <trkpt lat="43.74364" lon="1.67088">
        <ele>161.16</ele>
        <time>2026-05-25T07:26:06Z</time>
      </trkpt>
      <trkpt lat="43.7439" lon="1.67077">
        <ele>161.16</ele>
        <time>2026-05-25T07:26:23Z</time>
      </trkpt>
      <trkpt lat="43.74414" lon="1.67069">
        <ele>161.16</ele>
        <time>2026-05-25T07:26:40Z</time>
      </trkpt>
      <trkpt lat="43.74434" lon="1.67062">
        <ele>160.68</ele>
        <time>2026-05-25T07:26:56Z</time>
      </trkpt>
      <trkpt lat="43.74452" lon="1.67054">
        <ele>160.2</ele>
        <time>2026-05-25T07:27:11Z</time>
      </trkpt>
      <trkpt lat="43.74473" lon="1.67042">
        <ele>160.2</ele>
        <time>2026-05-25T07:27:28Z</time>
      </trkpt>
      <trkpt lat="43.74494" lon="1.67024">
        <ele>159.72</ele>
        <time>2026-05-25T07:27:45Z</time>
      </trkpt>
      <trkpt lat="43.74506" lon="1.67017">
        <ele>159.24</ele>
        <time>2026-05-25T07:27:59Z</time>
      </trkpt>
      <trkpt lat="43.74505" lon="1.67015">
        <ele>159.24</ele>
        <time>2026-05-25T07:28:15Z</time>
      </trkpt>
      <trkpt lat="43.74505" lon="1.67012">
        <ele>159.24</ele>
        <time>2026-05-25T07:28:16Z</time>
      </trkpt>
      <trkpt lat="43.74505" lon="1.6701">
        <ele>159.24</ele>
        <time>2026-05-25T07:28:17Z</time>
      </trkpt>
      <trkpt lat="43.74505" lon="1.67008">
        <ele>159.24</ele>
        <time>2026-05-25T07:28:18Z</time>
      </trkpt>
      <trkpt lat="43.74506" lon="1.67005">
        <ele>159.24</ele>
        <time>2026-05-25T07:28:19Z</time>
      </trkpt>
      <trkpt lat="43.74516" lon="1.66983">
        <ele>159.24</ele>
        <time>2026-05-25T07:28:33Z</time>
      </trkpt>
      <trkpt lat="43.74526" lon="1.66963">
        <ele>159.24</ele>
        <time>2026-05-25T07:28:46Z</time>
      </trkpt>
      <trkpt lat="43.7454" lon="1.66937">
        <ele>159.24</ele>
        <time>2026-05-25T07:29:03Z</time>
      </trkpt>
      <trkpt lat="43.74559" lon="1.66912">
        <ele>159.24</ele>
        <time>2026-05-25T07:29:20Z</time>
      </trkpt>
      <trkpt lat="43.74576" lon="1.66893">
        <ele>158.75</ele>
        <time>2026-05-25T07:29:37Z</time>
      </trkpt>
      <trkpt lat="43.74596" lon="1.66874">
        <ele>158.27</ele>
        <time>2026-05-25T07:29:55Z</time>
      </trkpt>
      <trkpt lat="43.74616" lon="1.66856">
        <ele>158.27</ele>
        <time>2026-05-25T07:30:12Z</time>
      </trkpt>
      <trkpt lat="43.74641" lon="1.66833">
        <ele>158.27</ele>
        <time>2026-05-25T07:30:32Z</time>
      </trkpt>
      <trkpt lat="43.74656" lon="1.66818">
        <ele>157.79</ele>
        <time>2026-05-25T07:30:48Z</time>
      </trkpt>
      <trkpt lat="43.74676" lon="1.66801">
        <ele>157.79</ele>
        <time>2026-05-25T07:31:06Z</time>
      </trkpt>
      <trkpt lat="43.74698" lon="1.66781">
        <ele>157.31</ele>
        <time>2026-05-25T07:31:23Z</time>
      </trkpt>
      <trkpt lat="43.7472" lon="1.66761">
        <ele>157.31</ele>
        <time>2026-05-25T07:31:42Z</time>
      </trkpt>
      <trkpt lat="43.74741" lon="1.66741">
        <ele>157.31</ele>
        <time>2026-05-25T07:32:01Z</time>
      </trkpt>
      <trkpt lat="43.74758" lon="1.66726">
        <ele>156.35</ele>
        <time>2026-05-25T07:32:16Z</time>
      </trkpt>
      <trkpt lat="43.74774" lon="1.66717">
        <ele>155.87</ele>
        <time>2026-05-25T07:32:31Z</time>
      </trkpt>
      <trkpt lat="43.74796" lon="1.6671">
        <ele>155.87</ele>
        <time>2026-05-25T07:32:49Z</time>
      </trkpt>
      <trkpt lat="43.74817" lon="1.66704">
        <ele>155.87</ele>
        <time>2026-05-25T07:33:06Z</time>
      </trkpt>
      <trkpt lat="43.74842" lon="1.66697">
        <ele>155.87</ele>
        <time>2026-05-25T07:33:24Z</time>
      </trkpt>
      <trkpt lat="43.74866" lon="1.66692">
        <ele>155.87</ele>
        <time>2026-05-25T07:33:42Z</time>
      </trkpt>
      <trkpt lat="43.74885" lon="1.66689">
        <ele>155.87</ele>
        <time>2026-05-25T07:33:55Z</time>
      </trkpt>
      <trkpt lat="43.74907" lon="1.66683">
        <ele>155.39</ele>
        <time>2026-05-25T07:34:13Z</time>
      </trkpt>
      <trkpt lat="43.74915" lon="1.6668">
        <ele>155.39</ele>
        <time>2026-05-25T07:34:21Z</time>
      </trkpt>
      <trkpt lat="43.74917" lon="1.66679">
        <ele>155.39</ele>
        <time>2026-05-25T07:34:22Z</time>
      </trkpt>
      <trkpt lat="43.74918" lon="1.66679">
        <ele>155.39</ele>
        <time>2026-05-25T07:34:23Z</time>
      </trkpt>
      <trkpt lat="43.74938" lon="1.6668">
        <ele>154.91</ele>
        <time>2026-05-25T07:34:41Z</time>
      </trkpt>
      <trkpt lat="43.74939" lon="1.66682">
        <ele>154.91</ele>
        <time>2026-05-25T07:35:16Z</time>
      </trkpt>
      <trkpt lat="43.7494" lon="1.66682">
        <ele>154.91</ele>
        <time>2026-05-25T07:35:17Z</time>
      </trkpt>
      <trkpt lat="43.74941" lon="1.66682">
        <ele>154.91</ele>
        <time>2026-05-25T07:35:18Z</time>
      </trkpt>
      <trkpt lat="43.74942" lon="1.66682">
        <ele>154.91</ele>
        <time>2026-05-25T07:35:19Z</time>
      </trkpt>
      <trkpt lat="43.74944" lon="1.66682">
        <ele>154.91</ele>
        <time>2026-05-25T07:35:20Z</time>
      </trkpt>
      <trkpt lat="43.74946" lon="1.66682">
        <ele>154.91</ele>
        <time>2026-05-25T07:35:21Z</time>
      </trkpt>
      <trkpt lat="43.74967" lon="1.66687">
        <ele>154.91</ele>
        <time>2026-05-25T07:35:35Z</time>
      </trkpt>
      <trkpt lat="43.74989" lon="1.6669">
        <ele>154.43</ele>
        <time>2026-05-25T07:35:51Z</time>
      </trkpt>
      <trkpt lat="43.75015" lon="1.66691">
        <ele>153.95</ele>
        <time>2026-05-25T07:36:07Z</time>
      </trkpt>
      <trkpt lat="43.75039" lon="1.66691">
        <ele>153.47</ele>
        <time>2026-05-25T07:36:25Z</time>
      </trkpt>
      <trkpt lat="43.75061" lon="1.6669">
        <ele>152.99</ele>
        <time>2026-05-25T07:36:41Z</time>
      </trkpt>
      <trkpt lat="43.75081" lon="1.66688">
        <ele>152.51</ele>
        <time>2026-05-25T07:36:57Z</time>
      </trkpt>
      <trkpt lat="43.75104" lon="1.66687">
        <ele>152.03</ele>
        <time>2026-05-25T07:37:14Z</time>
      </trkpt>
      <trkpt lat="43.75127" lon="1.66686">
        <ele>152.03</ele>
        <time>2026-05-25T07:37:31Z</time>
      </trkpt>
      <trkpt lat="43.75148" lon="1.66684">
        <ele>151.06</ele>
        <time>2026-05-25T07:37:47Z</time>
      </trkpt>
      <trkpt lat="43.7517" lon="1.66678">
        <ele>150.1</ele>
        <time>2026-05-25T07:38:03Z</time>
      </trkpt>
      <trkpt lat="43.75192" lon="1.66663">
        <ele>148.18</ele>
        <time>2026-05-25T07:38:22Z</time>
      </trkpt>
      <trkpt lat="43.75208" lon="1.66651">
        <ele>145.3</ele>
        <time>2026-05-25T07:38:37Z</time>
      </trkpt>
      <trkpt lat="43.7523" lon="1.66636">
        <ele>141.93</ele>
        <time>2026-05-25T07:38:55Z</time>
      </trkpt>
      <trkpt lat="43.75251" lon="1.66619">
        <ele>139.53</ele>
        <time>2026-05-25T07:39:13Z</time>
      </trkpt>
      <trkpt lat="43.7527" lon="1.66607">
        <ele>137.61</ele>
        <time>2026-05-25T07:39:29Z</time>
      </trkpt>
      <trkpt lat="43.75286" lon="1.66596">
        <ele>135.68</ele>
        <time>2026-05-25T07:39:42Z</time>
      </trkpt>
      <trkpt lat="43.75299" lon="1.66584">
        <ele>134.24</ele>
        <time>2026-05-25T07:39:56Z</time>
      </trkpt>
      <trkpt lat="43.75305" lon="1.66579">
        <ele>133.76</ele>
        <time>2026-05-25T07:40:01Z</time>
      </trkpt>
      <trkpt lat="43.75307" lon="1.66577">
        <ele>133.76</ele>
        <time>2026-05-25T07:40:02Z</time>
      </trkpt>
      <trkpt lat="43.7531" lon="1.66576">
        <ele>133.76</ele>
        <time>2026-05-25T07:40:03Z</time>
      </trkpt>
      <trkpt lat="43.75328" lon="1.66567">
        <ele>132.8</ele>
        <time>2026-05-25T07:40:15Z</time>
      </trkpt>
      <trkpt lat="43.75346" lon="1.66555">
        <ele>131.84</ele>
        <time>2026-05-25T07:40:28Z</time>
      </trkpt>
      <trkpt lat="43.75349" lon="1.66553">
        <ele>131.36</ele>
        <time>2026-05-25T07:40:32Z</time>
      </trkpt>
      <trkpt lat="43.7535" lon="1.66552">
        <ele>131.36</ele>
        <time>2026-05-25T07:40:33Z</time>
      </trkpt>
      <trkpt lat="43.75352" lon="1.66551">
        <ele>131.36</ele>
        <time>2026-05-25T07:40:34Z</time>
      </trkpt>
      <trkpt lat="43.75353" lon="1.6655">
        <ele>131.36</ele>
        <time>2026-05-25T07:40:35Z</time>
      </trkpt>
      <trkpt lat="43.75355" lon="1.66548">
        <ele>131.36</ele>
        <time>2026-05-25T07:40:36Z</time>
      </trkpt>
      <trkpt lat="43.75357" lon="1.66547">
        <ele>131.36</ele>
        <time>2026-05-25T07:40:37Z</time>
      </trkpt>
      <trkpt lat="43.75359" lon="1.66546">
        <ele>131.36</ele>
        <time>2026-05-25T07:40:38Z</time>
      </trkpt>
      <trkpt lat="43.7536" lon="1.66544">
        <ele>130.88</ele>
        <time>2026-05-25T07:40:39Z</time>
      </trkpt>
      <trkpt lat="43.75362" lon="1.6654">
        <ele>130.88</ele>
        <time>2026-05-25T07:40:43Z</time>
      </trkpt>
      <trkpt lat="43.75358" lon="1.66515">
        <ele>130.4</ele>
        <time>2026-05-25T07:40:55Z</time>
      </trkpt>
      <trkpt lat="43.75351" lon="1.6649">
        <ele>130.4</ele>
        <time>2026-05-25T07:41:09Z</time>
      </trkpt>
      <trkpt lat="43.75349" lon="1.66461">
        <ele>130.4</ele>
        <time>2026-05-25T07:41:25Z</time>
      </trkpt>
      <trkpt lat="43.75348" lon="1.66435">
        <ele>130.4</ele>
        <time>2026-05-25T07:41:40Z</time>
      </trkpt>
      <trkpt lat="43.75349" lon="1.66406">
        <ele>129.92</ele>
        <time>2026-05-25T07:41:56Z</time>
      </trkpt>
      <trkpt lat="43.7535" lon="1.66378">
        <ele>129.43</ele>
        <time>2026-05-25T07:42:11Z</time>
      </trkpt>
      <trkpt lat="43.7535" lon="1.66376">
        <ele>129.43</ele>
        <time>2026-05-25T07:42:12Z</time>
      </trkpt>
      <trkpt lat="43.75351" lon="1.66345">
        <ele>129.43</ele>
        <time>2026-05-25T07:42:27Z</time>
      </trkpt>
      <trkpt lat="43.75351" lon="1.66314">
        <ele>129.43</ele>
        <time>2026-05-25T07:42:42Z</time>
      </trkpt>
      <trkpt lat="43.75351" lon="1.6629">
        <ele>128.95</ele>
        <time>2026-05-25T07:42:57Z</time>
      </trkpt>
      <trkpt lat="43.75352" lon="1.66263">
        <ele>128.95</ele>
        <time>2026-05-25T07:43:12Z</time>
      </trkpt>
      <trkpt lat="43.75352" lon="1.66231">
        <ele>128.47</ele>
        <time>2026-05-25T07:43:27Z</time>
      </trkpt>
      <trkpt lat="43.75354" lon="1.66197">
        <ele>128.47</ele>
        <time>2026-05-25T07:43:44Z</time>
      </trkpt>
      <trkpt lat="43.75355" lon="1.6618">
        <ele>128.47</ele>
        <time>2026-05-25T07:43:59Z</time>
      </trkpt>
      <trkpt lat="43.75352" lon="1.66153">
        <ele>128.47</ele>
        <time>2026-05-25T07:44:13Z</time>
      </trkpt>
      <trkpt lat="43.75354" lon="1.66129">
        <ele>128.47</ele>
        <time>2026-05-25T07:44:25Z</time>
      </trkpt>
      <trkpt lat="43.75361" lon="1.66105">
        <ele>128.47</ele>
        <time>2026-05-25T07:44:39Z</time>
      </trkpt>
      <trkpt lat="43.75362" lon="1.66078">
        <ele>128.47</ele>
        <time>2026-05-25T07:44:53Z</time>
      </trkpt>
      <trkpt lat="43.75361" lon="1.66075">
        <ele>128.47</ele>
        <time>2026-05-25T07:44:56Z</time>
      </trkpt>
      <trkpt lat="43.7536" lon="1.66074">
        <ele>128.47</ele>
        <time>2026-05-25T07:44:57Z</time>
      </trkpt>
      <trkpt lat="43.75348" lon="1.66061">
        <ele>128.47</ele>
        <time>2026-05-25T07:45:08Z</time>
      </trkpt>
      <trkpt lat="43.75336" lon="1.66049">
        <ele>129.43</ele>
        <time>2026-05-25T07:45:19Z</time>
      </trkpt>
      <trkpt lat="43.75335" lon="1.66047">
        <ele>129.43</ele>
        <time>2026-05-25T07:45:20Z</time>
      </trkpt>
      <trkpt lat="43.75329" lon="1.66042">
        <ele>130.4</ele>
        <time>2026-05-25T07:45:28Z</time>
      </trkpt>
      <trkpt lat="43.75328" lon="1.66041">
        <ele>130.4</ele>
        <time>2026-05-25T07:45:29Z</time>
      </trkpt>
      <trkpt lat="43.75327" lon="1.66039">
        <ele>130.4</ele>
        <time>2026-05-25T07:45:30Z</time>
      </trkpt>
      <trkpt lat="43.75317" lon="1.6603">
        <ele>130.4</ele>
        <time>2026-05-25T07:45:43Z</time>
      </trkpt>
      <trkpt lat="43.75309" lon="1.66025">
        <ele>130.4</ele>
        <time>2026-05-25T07:45:53Z</time>
      </trkpt>
      <trkpt lat="43.75308" lon="1.66024">
        <ele>130.4</ele>
        <time>2026-05-25T07:45:54Z</time>
      </trkpt>
      <trkpt lat="43.75306" lon="1.66023">
        <ele>130.4</ele>
        <time>2026-05-25T07:45:55Z</time>
      </trkpt>
      <trkpt lat="43.75288" lon="1.66019">
        <ele>131.36</ele>
        <time>2026-05-25T07:46:09Z</time>
      </trkpt>
      <trkpt lat="43.75268" lon="1.66019">
        <ele>132.32</ele>
        <time>2026-05-25T07:46:24Z</time>
      </trkpt>
      <trkpt lat="43.75266" lon="1.66019">
        <ele>132.32</ele>
        <time>2026-05-25T07:46:26Z</time>
      </trkpt>
      <trkpt lat="43.75265" lon="1.66019">
        <ele>132.32</ele>
        <time>2026-05-25T07:46:27Z</time>
      </trkpt>
      <trkpt lat="43.75248" lon="1.66011">
        <ele>132.8</ele>
        <time>2026-05-25T07:46:40Z</time>
      </trkpt>
      <trkpt lat="43.75236" lon="1.65995">
        <ele>133.28</ele>
        <time>2026-05-25T07:46:53Z</time>
      </trkpt>
      <trkpt lat="43.75235" lon="1.6597">
        <ele>134.24</ele>
        <time>2026-05-25T07:47:07Z</time>
      </trkpt>
      <trkpt lat="43.75235" lon="1.65961">
        <ele>134.72</ele>
        <time>2026-05-25T07:47:14Z</time>
      </trkpt>
      <trkpt lat="43.75222" lon="1.65946">
        <ele>135.2</ele>
        <time>2026-05-25T07:47:26Z</time>
      </trkpt>
      <trkpt lat="43.75207" lon="1.6593">
        <ele>135.68</ele>
        <time>2026-05-25T07:47:40Z</time>
      </trkpt>
      <trkpt lat="43.75189" lon="1.65912">
        <ele>135.68</ele>
        <time>2026-05-25T07:47:56Z</time>
      </trkpt>
      <trkpt lat="43.75176" lon="1.65898">
        <ele>136.16</ele>
        <time>2026-05-25T07:48:10Z</time>
      </trkpt>
      <trkpt lat="43.75163" lon="1.65885">
        <ele>136.64</ele>
        <time>2026-05-25T07:48:23Z</time>
      </trkpt>
      <trkpt lat="43.75146" lon="1.65869">
        <ele>137.13</ele>
        <time>2026-05-25T07:48:39Z</time>
      </trkpt>
      <trkpt lat="43.75124" lon="1.6585">
        <ele>137.61</ele>
        <time>2026-05-25T07:48:56Z</time>
      </trkpt>
      <trkpt lat="43.75104" lon="1.65831">
        <ele>138.09</ele>
        <time>2026-05-25T07:49:13Z</time>
      </trkpt>
      <trkpt lat="43.75089" lon="1.65817">
        <ele>138.57</ele>
        <time>2026-05-25T07:49:28Z</time>
      </trkpt>
      <trkpt lat="43.75073" lon="1.65801">
        <ele>139.05</ele>
        <time>2026-05-25T07:49:43Z</time>
      </trkpt>
      <trkpt lat="43.75058" lon="1.65786">
        <ele>139.05</ele>
        <time>2026-05-25T07:49:58Z</time>
      </trkpt>
      <trkpt lat="43.75042" lon="1.65772">
        <ele>140.01</ele>
        <time>2026-05-25T07:50:13Z</time>
      </trkpt>
      <trkpt lat="43.75029" lon="1.65758">
        <ele>140.97</ele>
        <time>2026-05-25T07:50:27Z</time>
      </trkpt>
      <trkpt lat="43.75025" lon="1.65754">
        <ele>140.97</ele>
        <time>2026-05-25T07:50:32Z</time>
      </trkpt>
      <trkpt lat="43.75024" lon="1.65753">
        <ele>140.97</ele>
        <time>2026-05-25T07:50:33Z</time>
      </trkpt>
      <trkpt lat="43.75023" lon="1.65752">
        <ele>140.97</ele>
        <time>2026-05-25T07:50:34Z</time>
      </trkpt>
      <trkpt lat="43.75022" lon="1.6575">
        <ele>140.97</ele>
        <time>2026-05-25T07:50:35Z</time>
      </trkpt>
      <trkpt lat="43.75021" lon="1.65748">
        <ele>140.97</ele>
        <time>2026-05-25T07:50:36Z</time>
      </trkpt>
      <trkpt lat="43.7502" lon="1.65747">
        <ele>140.97</ele>
        <time>2026-05-25T07:50:37Z</time>
      </trkpt>
      <trkpt lat="43.75018" lon="1.65746">
        <ele>140.97</ele>
        <time>2026-05-25T07:50:38Z</time>
      </trkpt>
      <trkpt lat="43.75018" lon="1.65745">
        <ele>140.97</ele>
        <time>2026-05-25T07:50:39Z</time>
      </trkpt>
      <trkpt lat="43.75011" lon="1.65736">
        <ele>141.93</ele>
        <time>2026-05-25T07:50:51Z</time>
      </trkpt>
      <trkpt lat="43.75009" lon="1.65734">
        <ele>141.93</ele>
        <time>2026-05-25T07:50:52Z</time>
      </trkpt>
      <trkpt lat="43.74997" lon="1.65718">
        <ele>142.89</ele>
        <time>2026-05-25T07:51:07Z</time>
      </trkpt>
      <trkpt lat="43.74993" lon="1.65713">
        <ele>143.37</ele>
        <time>2026-05-25T07:51:12Z</time>
      </trkpt>
      <trkpt lat="43.74977" lon="1.65696">
        <ele>144.82</ele>
        <time>2026-05-25T07:51:27Z</time>
      </trkpt>
      <trkpt lat="43.74964" lon="1.65675">
        <ele>145.3</ele>
        <time>2026-05-25T07:51:43Z</time>
      </trkpt>
      <trkpt lat="43.74955" lon="1.65667">
        <ele>145.3</ele>
        <time>2026-05-25T07:51:50Z</time>
      </trkpt>
      <trkpt lat="43.74939" lon="1.65654">
        <ele>146.26</ele>
        <time>2026-05-25T07:52:03Z</time>
      </trkpt>
      <trkpt lat="43.74932" lon="1.65649">
        <ele>146.26</ele>
        <time>2026-05-25T07:52:20Z</time>
      </trkpt>
      <trkpt lat="43.74926" lon="1.65656">
        <ele>146.26</ele>
        <time>2026-05-25T07:52:36Z</time>
      </trkpt>
      <trkpt lat="43.74924" lon="1.65657">
        <ele>146.74</ele>
        <time>2026-05-25T07:52:37Z</time>
      </trkpt>
      <trkpt lat="43.74923" lon="1.65659">
        <ele>146.74</ele>
        <time>2026-05-25T07:52:38Z</time>
      </trkpt>
      <trkpt lat="43.74921" lon="1.6566">
        <ele>146.74</ele>
        <time>2026-05-25T07:52:39Z</time>
      </trkpt>
      <trkpt lat="43.74919" lon="1.65661">
        <ele>146.74</ele>
        <time>2026-05-25T07:52:40Z</time>
      </trkpt>
      <trkpt lat="43.74906" lon="1.65671">
        <ele>146.74</ele>
        <time>2026-05-25T07:52:52Z</time>
      </trkpt>
      <trkpt lat="43.74904" lon="1.65672">
        <ele>146.74</ele>
        <time>2026-05-25T07:52:53Z</time>
      </trkpt>
      <trkpt lat="43.74902" lon="1.65673">
        <ele>146.74</ele>
        <time>2026-05-25T07:52:54Z</time>
      </trkpt>
      <trkpt lat="43.7488" lon="1.65684">
        <ele>147.22</ele>
        <time>2026-05-25T07:53:10Z</time>
      </trkpt>
      <trkpt lat="43.74855" lon="1.65702">
        <ele>148.18</ele>
        <time>2026-05-25T07:53:30Z</time>
      </trkpt>
      <trkpt lat="43.74835" lon="1.65713">
        <ele>148.66</ele>
        <time>2026-05-25T07:53:45Z</time>
      </trkpt>
      <trkpt lat="43.74815" lon="1.65722">
        <ele>149.14</ele>
        <time>2026-05-25T07:53:59Z</time>
      </trkpt>
      <trkpt lat="43.74797" lon="1.65729">
        <ele>149.14</ele>
        <time>2026-05-25T07:54:14Z</time>
      </trkpt>
      <trkpt lat="43.74777" lon="1.65735">
        <ele>149.14</ele>
        <time>2026-05-25T07:54:29Z</time>
      </trkpt>
      <trkpt lat="43.74774" lon="1.65737">
        <ele>147.7</ele>
        <time>2026-05-25T07:54:31Z</time>
      </trkpt>
      <trkpt lat="43.74754" lon="1.65746">
        <ele>147.7</ele>
        <time>2026-05-25T07:54:47Z</time>
      </trkpt>
      <trkpt lat="43.74736" lon="1.65755">
        <ele>147.22</ele>
        <time>2026-05-25T07:55:01Z</time>
      </trkpt>
      <trkpt lat="43.74712" lon="1.65762">
        <ele>146.74</ele>
        <time>2026-05-25T07:55:17Z</time>
      </trkpt>
      <trkpt lat="43.74691" lon="1.65772">
        <ele>146.74</ele>
        <time>2026-05-25T07:55:33Z</time>
      </trkpt>
      <trkpt lat="43.74668" lon="1.65782">
        <ele>146.26</ele>
        <time>2026-05-25T07:55:50Z</time>
      </trkpt>
      <trkpt lat="43.74652" lon="1.65789">
        <ele>146.26</ele>
        <time>2026-05-25T07:56:04Z</time>
      </trkpt>
      <trkpt lat="43.74629" lon="1.65798">
        <ele>146.26</ele>
        <time>2026-05-25T07:56:21Z</time>
      </trkpt>
      <trkpt lat="43.74601" lon="1.65806">
        <ele>146.26</ele>
        <time>2026-05-25T07:56:40Z</time>
      </trkpt>
      <trkpt lat="43.74577" lon="1.6581">
        <ele>145.78</ele>
        <time>2026-05-25T07:56:58Z</time>
      </trkpt>
      <trkpt lat="43.74571" lon="1.65811">
        <ele>145.3</ele>
        <time>2026-05-25T07:57:12Z</time>
      </trkpt>
      <trkpt lat="43.74564" lon="1.65812">
        <ele>145.3</ele>
        <time>2026-05-25T07:57:31Z</time>
      </trkpt>
      <trkpt lat="43.74542" lon="1.65813">
        <ele>144.82</ele>
        <time>2026-05-25T07:57:48Z</time>
      </trkpt>
      <trkpt lat="43.74522" lon="1.65813">
        <ele>143.85</ele>
        <time>2026-05-25T07:58:03Z</time>
      </trkpt>
      <trkpt lat="43.74495" lon="1.6581">
        <ele>142.41</ele>
        <time>2026-05-25T07:58:22Z</time>
      </trkpt>
      <trkpt lat="43.74465" lon="1.65802">
        <ele>141.45</ele>
        <time>2026-05-25T07:58:42Z</time>
      </trkpt>
      <trkpt lat="43.74445" lon="1.658">
        <ele>140.97</ele>
        <time>2026-05-25T07:58:57Z</time>
      </trkpt>
      <trkpt lat="43.74424" lon="1.65798">
        <ele>140.01</ele>
        <time>2026-05-25T07:59:13Z</time>
      </trkpt>
      <trkpt lat="43.74399" lon="1.65799">
        <ele>139.53</ele>
        <time>2026-05-25T07:59:30Z</time>
      </trkpt>
      <trkpt lat="43.74383" lon="1.65798">
        <ele>139.05</ele>
        <time>2026-05-25T07:59:44Z</time>
      </trkpt>
      <trkpt lat="43.74361" lon="1.65799">
        <ele>138.57</ele>
        <time>2026-05-25T08:00:00Z</time>
      </trkpt>
      <trkpt lat="43.74337" lon="1.65799">
        <ele>138.57</ele>
        <time>2026-05-25T08:00:17Z</time>
      </trkpt>
      <trkpt lat="43.7431" lon="1.658">
        <ele>138.09</ele>
        <time>2026-05-25T08:00:35Z</time>
      </trkpt>
      <trkpt lat="43.74299" lon="1.65799">
        <ele>138.09</ele>
        <time>2026-05-25T08:00:45Z</time>
      </trkpt>
      <trkpt lat="43.74298" lon="1.65798">
        <ele>138.09</ele>
        <time>2026-05-25T08:00:46Z</time>
      </trkpt>
      <trkpt lat="43.74296" lon="1.65798">
        <ele>138.09</ele>
        <time>2026-05-25T08:00:47Z</time>
      </trkpt>
      <trkpt lat="43.74295" lon="1.65798">
        <ele>138.09</ele>
        <time>2026-05-25T08:00:48Z</time>
      </trkpt>
      <trkpt lat="43.74294" lon="1.65798">
        <ele>138.09</ele>
        <time>2026-05-25T08:00:49Z</time>
      </trkpt>
      <trkpt lat="43.74292" lon="1.65798">
        <ele>138.09</ele>
        <time>2026-05-25T08:00:50Z</time>
      </trkpt>
      <trkpt lat="43.7429" lon="1.65798">
        <ele>138.09</ele>
        <time>2026-05-25T08:00:51Z</time>
      </trkpt>
      <trkpt lat="43.74288" lon="1.65798">
        <ele>138.09</ele>
        <time>2026-05-25T08:00:52Z</time>
      </trkpt>
      <trkpt lat="43.74264" lon="1.65796">
        <ele>137.61</ele>
        <time>2026-05-25T08:01:11Z</time>
      </trkpt>
      <trkpt lat="43.7424" lon="1.65792">
        <ele>137.61</ele>
        <time>2026-05-25T08:01:29Z</time>
      </trkpt>
      <trkpt lat="43.74213" lon="1.65782">
        <ele>137.13</ele>
        <time>2026-05-25T08:01:46Z</time>
      </trkpt>
      <trkpt lat="43.74207" lon="1.65782">
        <ele>136.64</ele>
        <time>2026-05-25T08:01:52Z</time>
      </trkpt>
      <trkpt lat="43.74206" lon="1.65782">
        <ele>136.64</ele>
        <time>2026-05-25T08:01:53Z</time>
      </trkpt>
      <trkpt lat="43.74183" lon="1.65787">
        <ele>136.16</ele>
        <time>2026-05-25T08:02:10Z</time>
      </trkpt>
      <trkpt lat="43.74159" lon="1.65787">
        <ele>135.68</ele>
        <time>2026-05-25T08:02:26Z</time>
      </trkpt>
      <trkpt lat="43.74142" lon="1.65782">
        <ele>135.68</ele>
        <time>2026-05-25T08:02:42Z</time>
      </trkpt>
      <trkpt lat="43.74143" lon="1.65784">
        <ele>135.68</ele>
        <time>2026-05-25T08:02:49Z</time>
      </trkpt>
      <trkpt lat="43.74144" lon="1.65784">
        <ele>135.68</ele>
        <time>2026-05-25T08:02:50Z</time>
      </trkpt>
      <trkpt lat="43.74146" lon="1.65785">
        <ele>135.68</ele>
        <time>2026-05-25T08:02:51Z</time>
      </trkpt>
      <trkpt lat="43.74147" lon="1.65785">
        <ele>135.68</ele>
        <time>2026-05-25T08:02:52Z</time>
      </trkpt>
      <trkpt lat="43.74149" lon="1.65786">
        <ele>135.68</ele>
        <time>2026-05-25T08:02:53Z</time>
      </trkpt>
      <trkpt lat="43.74158" lon="1.65789">
        <ele>135.68</ele>
        <time>2026-05-25T08:03:01Z</time>
      </trkpt>
      <trkpt lat="43.74159" lon="1.65788">
        <ele>135.68</ele>
        <time>2026-05-25T08:03:02Z</time>
      </trkpt>
      <trkpt lat="43.7416" lon="1.65786">
        <ele>135.68</ele>
        <time>2026-05-25T08:03:03Z</time>
      </trkpt>
      <trkpt lat="43.74161" lon="1.65784">
        <ele>135.68</ele>
        <time>2026-05-25T08:03:04Z</time>
      </trkpt>
      <trkpt lat="43.74163" lon="1.65777">
        <ele>137.13</ele>
        <time>2026-05-25T08:03:10Z</time>
      </trkpt>
      <trkpt lat="43.74163" lon="1.65775">
        <ele>137.13</ele>
        <time>2026-05-25T08:03:11Z</time>
      </trkpt>
      <trkpt lat="43.7416" lon="1.65756">
        <ele>137.13</ele>
        <time>2026-05-25T08:03:22Z</time>
      </trkpt>
      <trkpt lat="43.74159" lon="1.65755">
        <ele>137.13</ele>
        <time>2026-05-25T08:03:23Z</time>
      </trkpt>
      <trkpt lat="43.74158" lon="1.65753">
        <ele>137.13</ele>
        <time>2026-05-25T08:03:24Z</time>
      </trkpt>
      <trkpt lat="43.74147" lon="1.65726">
        <ele>137.13</ele>
        <time>2026-05-25T08:03:41Z</time>
      </trkpt>
      <trkpt lat="43.74146" lon="1.65718">
        <ele>136.64</ele>
        <time>2026-05-25T08:03:46Z</time>
      </trkpt>
      <trkpt lat="43.74146" lon="1.65716">
        <ele>137.13</ele>
        <time>2026-05-25T08:03:47Z</time>
      </trkpt>
      <trkpt lat="43.74144" lon="1.65687">
        <ele>136.64</ele>
        <time>2026-05-25T08:04:05Z</time>
      </trkpt>
      <trkpt lat="43.74143" lon="1.65686">
        <ele>136.64</ele>
        <time>2026-05-25T08:04:06Z</time>
      </trkpt>
      <trkpt lat="43.74143" lon="1.65684">
        <ele>136.64</ele>
        <time>2026-05-25T08:04:07Z</time>
      </trkpt>
      <trkpt lat="43.74136" lon="1.65655">
        <ele>137.13</ele>
        <time>2026-05-25T08:04:23Z</time>
      </trkpt>
      <trkpt lat="43.74137" lon="1.65655">
        <ele>137.13</ele>
        <time>2026-05-25T08:04:40Z</time>
      </trkpt>
      <trkpt lat="43.74137" lon="1.65644">
        <ele>137.13</ele>
        <time>2026-05-25T08:05:10Z</time>
      </trkpt>
      <trkpt lat="43.74137" lon="1.65637">
        <ele>137.13</ele>
        <time>2026-05-25T08:05:35Z</time>
      </trkpt>
      <trkpt lat="43.74127" lon="1.65625">
        <ele>138.09</ele>
        <time>2026-05-25T08:05:48Z</time>
      </trkpt>
      <trkpt lat="43.74125" lon="1.65625">
        <ele>138.09</ele>
        <time>2026-05-25T08:05:49Z</time>
      </trkpt>
      <trkpt lat="43.74113" lon="1.65624">
        <ele>138.57</ele>
        <time>2026-05-25T08:05:56Z</time>
      </trkpt>
      <trkpt lat="43.74111" lon="1.65624">
        <ele>138.57</ele>
        <time>2026-05-25T08:05:57Z</time>
      </trkpt>
      <trkpt lat="43.74096" lon="1.6562">
        <ele>140.49</ele>
        <time>2026-05-25T08:06:12Z</time>
      </trkpt>
      <trkpt lat="43.74081" lon="1.65619">
        <ele>143.85</ele>
        <time>2026-05-25T08:06:29Z</time>
      </trkpt>
      <trkpt lat="43.74064" lon="1.65606">
        <ele>145.3</ele>
        <time>2026-05-25T08:06:46Z</time>
      </trkpt>
      <trkpt lat="43.74044" lon="1.65602">
        <ele>145.78</ele>
        <time>2026-05-25T08:07:01Z</time>
      </trkpt>
      <trkpt lat="43.74042" lon="1.65602">
        <ele>145.78</ele>
        <time>2026-05-25T08:07:02Z</time>
      </trkpt>
      <trkpt lat="43.74034" lon="1.65602">
        <ele>145.78</ele>
        <time>2026-05-25T08:07:09Z</time>
      </trkpt>
      <trkpt lat="43.74032" lon="1.65602">
        <ele>145.78</ele>
        <time>2026-05-25T08:07:10Z</time>
      </trkpt>
      <trkpt lat="43.74009" lon="1.65601">
        <ele>144.82</ele>
        <time>2026-05-25T08:07:26Z</time>
      </trkpt>
      <trkpt lat="43.74008" lon="1.65601">
        <ele>144.82</ele>
        <time>2026-05-25T08:07:27Z</time>
      </trkpt>
      <trkpt lat="43.74006" lon="1.65602">
        <ele>144.82</ele>
        <time>2026-05-25T08:07:28Z</time>
      </trkpt>
      <trkpt lat="43.74004" lon="1.65602">
        <ele>144.82</ele>
        <time>2026-05-25T08:07:29Z</time>
      </trkpt>
      <trkpt lat="43.74003" lon="1.65602">
        <ele>144.82</ele>
        <time>2026-05-25T08:07:30Z</time>
      </trkpt>
      <trkpt lat="43.73986" lon="1.65602">
        <ele>144.82</ele>
        <time>2026-05-25T08:07:42Z</time>
      </trkpt>
      <trkpt lat="43.73972" lon="1.65597">
        <ele>144.82</ele>
        <time>2026-05-25T08:07:56Z</time>
      </trkpt>
      <trkpt lat="43.73971" lon="1.65597">
        <ele>144.82</ele>
        <time>2026-05-25T08:07:57Z</time>
      </trkpt>
      <trkpt lat="43.73969" lon="1.65596">
        <ele>144.34</ele>
        <time>2026-05-25T08:07:58Z</time>
      </trkpt>
      <trkpt lat="43.73954" lon="1.65583">
        <ele>144.34</ele>
        <time>2026-05-25T08:08:14Z</time>
      </trkpt>
      <trkpt lat="43.73949" lon="1.65577">
        <ele>145.78</ele>
        <time>2026-05-25T08:08:36Z</time>
      </trkpt>
      <trkpt lat="43.73938" lon="1.65569">
        <ele>146.74</ele>
        <time>2026-05-25T08:08:57Z</time>
      </trkpt>
      <trkpt lat="43.7392" lon="1.65559">
        <ele>148.18</ele>
        <time>2026-05-25T08:09:14Z</time>
      </trkpt>
      <trkpt lat="43.7391" lon="1.6554">
        <ele>149.14</ele>
        <time>2026-05-25T08:09:28Z</time>
      </trkpt>
      <trkpt lat="43.739" lon="1.6552">
        <ele>150.1</ele>
        <time>2026-05-25T08:09:45Z</time>
      </trkpt>
      <trkpt lat="43.73891" lon="1.65493">
        <ele>152.03</ele>
        <time>2026-05-25T08:10:03Z</time>
      </trkpt>
      <trkpt lat="43.73879" lon="1.65467">
        <ele>153.47</ele>
        <time>2026-05-25T08:10:23Z</time>
      </trkpt>
      <trkpt lat="43.73863" lon="1.65445">
        <ele>155.87</ele>
        <time>2026-05-25T08:10:43Z</time>
      </trkpt>
      <trkpt lat="43.73852" lon="1.65426">
        <ele>158.27</ele>
        <time>2026-05-25T08:11:02Z</time>
      </trkpt>
      <trkpt lat="43.73837" lon="1.65406">
        <ele>160.68</ele>
        <time>2026-05-25T08:11:20Z</time>
      </trkpt>
      <trkpt lat="43.73818" lon="1.65389">
        <ele>162.12</ele>
        <time>2026-05-25T08:11:38Z</time>
      </trkpt>
      <trkpt lat="43.73802" lon="1.65362">
        <ele>164.52</ele>
        <time>2026-05-25T08:11:58Z</time>
      </trkpt>
      <trkpt lat="43.7379" lon="1.65348">
        <ele>166.45</ele>
        <time>2026-05-25T08:12:13Z</time>
      </trkpt>
      <trkpt lat="43.7377" lon="1.6533">
        <ele>168.37</ele>
        <time>2026-05-25T08:12:32Z</time>
      </trkpt>
      <trkpt lat="43.73753" lon="1.65312">
        <ele>169.33</ele>
        <time>2026-05-25T08:12:50Z</time>
      </trkpt>
      <trkpt lat="43.73738" lon="1.65285">
        <ele>171.25</ele>
        <time>2026-05-25T08:13:10Z</time>
      </trkpt>
      <trkpt lat="43.73734" lon="1.65252">
        <ele>172.21</ele>
        <time>2026-05-25T08:13:27Z</time>
      </trkpt>
      <trkpt lat="43.73732" lon="1.65231">
        <ele>174.14</ele>
        <time>2026-05-25T08:13:41Z</time>
      </trkpt>
      <trkpt lat="43.73728" lon="1.65217">
        <ele>175.58</ele>
        <time>2026-05-25T08:13:52Z</time>
      </trkpt>
      <trkpt lat="43.73728" lon="1.65216">
        <ele>175.58</ele>
        <time>2026-05-25T08:13:53Z</time>
      </trkpt>
      <trkpt lat="43.73728" lon="1.65214">
        <ele>175.58</ele>
        <time>2026-05-25T08:13:54Z</time>
      </trkpt>
      <trkpt lat="43.73727" lon="1.65212">
        <ele>175.58</ele>
        <time>2026-05-25T08:13:55Z</time>
      </trkpt>
      <trkpt lat="43.73727" lon="1.65211">
        <ele>175.58</ele>
        <time>2026-05-25T08:13:56Z</time>
      </trkpt>
      <trkpt lat="43.73716" lon="1.6519">
        <ele>177.02</ele>
        <time>2026-05-25T08:14:11Z</time>
      </trkpt>
      <trkpt lat="43.73708" lon="1.65179">
        <ele>177.02</ele>
        <time>2026-05-25T08:14:19Z</time>
      </trkpt>
      <trkpt lat="43.73707" lon="1.65177">
        <ele>177.5</ele>
        <time>2026-05-25T08:14:20Z</time>
      </trkpt>
      <trkpt lat="43.73706" lon="1.65176">
        <ele>177.5</ele>
        <time>2026-05-25T08:14:21Z</time>
      </trkpt>
      <trkpt lat="43.73693" lon="1.65153">
        <ele>177.98</ele>
        <time>2026-05-25T08:14:35Z</time>
      </trkpt>
      <trkpt lat="43.73685" lon="1.6513">
        <ele>178.46</ele>
        <time>2026-05-25T08:14:49Z</time>
      </trkpt>
      <trkpt lat="43.73678" lon="1.65109">
        <ele>178.46</ele>
        <time>2026-05-25T08:15:03Z</time>
      </trkpt>
      <trkpt lat="43.7367" lon="1.65089">
        <ele>177.98</ele>
        <time>2026-05-25T08:15:16Z</time>
      </trkpt>
      <trkpt lat="43.73659" lon="1.65068">
        <ele>177.98</ele>
        <time>2026-05-25T08:15:29Z</time>
      </trkpt>
      <trkpt lat="43.73648" lon="1.65044">
        <ele>178.46</ele>
        <time>2026-05-25T08:15:44Z</time>
      </trkpt>
      <trkpt lat="43.73636" lon="1.65021">
        <ele>178.46</ele>
        <time>2026-05-25T08:15:59Z</time>
      </trkpt>
      <trkpt lat="43.73624" lon="1.65">
        <ele>178.46</ele>
        <time>2026-05-25T08:16:13Z</time>
      </trkpt>
      <trkpt lat="43.73612" lon="1.6498">
        <ele>177.98</ele>
        <time>2026-05-25T08:16:27Z</time>
      </trkpt>
      <trkpt lat="43.73597" lon="1.64958">
        <ele>177.98</ele>
        <time>2026-05-25T08:16:43Z</time>
      </trkpt>
      <trkpt lat="43.7358" lon="1.64936">
        <ele>177.98</ele>
        <time>2026-05-25T08:17:00Z</time>
      </trkpt>
      <trkpt lat="43.73562" lon="1.64914">
        <ele>177.98</ele>
        <time>2026-05-25T08:17:18Z</time>
      </trkpt>
      <trkpt lat="43.73547" lon="1.64896">
        <ele>177.98</ele>
        <time>2026-05-25T08:17:35Z</time>
      </trkpt>
      <trkpt lat="43.7353" lon="1.64874">
        <ele>177.98</ele>
        <time>2026-05-25T08:17:53Z</time>
      </trkpt>
      <trkpt lat="43.73529" lon="1.64873">
        <ele>177.98</ele>
        <time>2026-05-25T08:17:54Z</time>
      </trkpt>
      <trkpt lat="43.73528" lon="1.64872">
        <ele>177.98</ele>
        <time>2026-05-25T08:17:55Z</time>
      </trkpt>
      <trkpt lat="43.73527" lon="1.64871">
        <ele>177.98</ele>
        <time>2026-05-25T08:17:56Z</time>
      </trkpt>
      <trkpt lat="43.73525" lon="1.6487">
        <ele>177.98</ele>
        <time>2026-05-25T08:17:57Z</time>
      </trkpt>
      <trkpt lat="43.73507" lon="1.64864">
        <ele>177.98</ele>
        <time>2026-05-25T08:18:12Z</time>
      </trkpt>
      <trkpt lat="43.73486" lon="1.64859">
        <ele>177.98</ele>
        <time>2026-05-25T08:18:28Z</time>
      </trkpt>
      <trkpt lat="43.73467" lon="1.64855">
        <ele>178.46</ele>
        <time>2026-05-25T08:18:43Z</time>
      </trkpt>
      <trkpt lat="43.73448" lon="1.6485">
        <ele>179.9</ele>
        <time>2026-05-25T08:18:57Z</time>
      </trkpt>
      <trkpt lat="43.73446" lon="1.6485">
        <ele>180.38</ele>
        <time>2026-05-25T08:18:58Z</time>
      </trkpt>
      <trkpt lat="43.73425" lon="1.6484">
        <ele>180.87</ele>
        <time>2026-05-25T08:19:15Z</time>
      </trkpt>
      <trkpt lat="43.73418" lon="1.64835">
        <ele>181.35</ele>
        <time>2026-05-25T08:19:21Z</time>
      </trkpt>
      <trkpt lat="43.73417" lon="1.64834">
        <ele>181.35</ele>
        <time>2026-05-25T08:19:22Z</time>
      </trkpt>
      <trkpt lat="43.73403" lon="1.64818">
        <ele>181.35</ele>
        <time>2026-05-25T08:19:37Z</time>
      </trkpt>
      <trkpt lat="43.73388" lon="1.64796">
        <ele>181.35</ele>
        <time>2026-05-25T08:19:53Z</time>
      </trkpt>
      <trkpt lat="43.73384" lon="1.64792">
        <ele>181.35</ele>
        <time>2026-05-25T08:19:58Z</time>
      </trkpt>
      <trkpt lat="43.73371" lon="1.64772">
        <ele>181.35</ele>
        <time>2026-05-25T08:20:13Z</time>
      </trkpt>
      <trkpt lat="43.73359" lon="1.64755">
        <ele>181.35</ele>
        <time>2026-05-25T08:20:26Z</time>
      </trkpt>
      <trkpt lat="43.73358" lon="1.64751">
        <ele>181.35</ele>
        <time>2026-05-25T08:20:30Z</time>
      </trkpt>
      <trkpt lat="43.73357" lon="1.64749">
        <ele>181.35</ele>
        <time>2026-05-25T08:20:31Z</time>
      </trkpt>
      <trkpt lat="43.73356" lon="1.64748">
        <ele>181.35</ele>
        <time>2026-05-25T08:20:32Z</time>
      </trkpt>
      <trkpt lat="43.73344" lon="1.64722">
        <ele>181.35</ele>
        <time>2026-05-25T08:20:48Z</time>
      </trkpt>
      <trkpt lat="43.73332" lon="1.64693">
        <ele>181.83</ele>
        <time>2026-05-25T08:21:07Z</time>
      </trkpt>
      <trkpt lat="43.73324" lon="1.64665">
        <ele>182.31</ele>
        <time>2026-05-25T08:21:24Z</time>
      </trkpt>
      <trkpt lat="43.73312" lon="1.64637">
        <ele>182.79</ele>
        <time>2026-05-25T08:21:41Z</time>
      </trkpt>
      <trkpt lat="43.73299" lon="1.64615">
        <ele>182.79</ele>
        <time>2026-05-25T08:21:57Z</time>
      </trkpt>
      <trkpt lat="43.73301" lon="1.64617">
        <ele>182.79</ele>
        <time>2026-05-25T08:22:29Z</time>
      </trkpt>
      <trkpt lat="43.733" lon="1.64616">
        <ele>182.31</ele>
        <time>2026-05-25T08:22:32Z</time>
      </trkpt>
      <trkpt lat="43.733" lon="1.64615">
        <ele>182.31</ele>
        <time>2026-05-25T08:22:33Z</time>
      </trkpt>
      <trkpt lat="43.73299" lon="1.64613">
        <ele>182.31</ele>
        <time>2026-05-25T08:22:34Z</time>
      </trkpt>
      <trkpt lat="43.73293" lon="1.64605">
        <ele>182.79</ele>
        <time>2026-05-25T08:22:41Z</time>
      </trkpt>
      <trkpt lat="43.73292" lon="1.64603">
        <ele>182.79</ele>
        <time>2026-05-25T08:22:42Z</time>
      </trkpt>
      <trkpt lat="43.73291" lon="1.64602">
        <ele>182.79</ele>
        <time>2026-05-25T08:22:43Z</time>
      </trkpt>
      <trkpt lat="43.7329" lon="1.646">
        <ele>182.79</ele>
        <time>2026-05-25T08:22:44Z</time>
      </trkpt>
      <trkpt lat="43.73289" lon="1.64598">
        <ele>182.79</ele>
        <time>2026-05-25T08:22:45Z</time>
      </trkpt>
      <trkpt lat="43.73275" lon="1.64578">
        <ele>182.79</ele>
        <time>2026-05-25T08:22:59Z</time>
      </trkpt>
      <trkpt lat="43.73263" lon="1.64557">
        <ele>182.79</ele>
        <time>2026-05-25T08:23:14Z</time>
      </trkpt>
      <trkpt lat="43.73254" lon="1.64534">
        <ele>183.27</ele>
        <time>2026-05-25T08:23:29Z</time>
      </trkpt>
      <trkpt lat="43.73245" lon="1.64508">
        <ele>183.27</ele>
        <time>2026-05-25T08:23:44Z</time>
      </trkpt>
      <trkpt lat="43.73242" lon="1.64494">
        <ele>181.83</ele>
        <time>2026-05-25T08:23:51Z</time>
      </trkpt>
      <trkpt lat="43.73237" lon="1.64469">
        <ele>179.9</ele>
        <time>2026-05-25T08:24:07Z</time>
      </trkpt>
      <trkpt lat="43.73233" lon="1.64435">
        <ele>177.5</ele>
        <time>2026-05-25T08:24:25Z</time>
      </trkpt>
      <trkpt lat="43.73221" lon="1.64414">
        <ele>176.06</ele>
        <time>2026-05-25T08:24:39Z</time>
      </trkpt>
      <trkpt lat="43.73208" lon="1.64391">
        <ele>173.66</ele>
        <time>2026-05-25T08:24:55Z</time>
      </trkpt>
      <trkpt lat="43.73197" lon="1.6437">
        <ele>171.73</ele>
        <time>2026-05-25T08:25:10Z</time>
      </trkpt>
      <trkpt lat="43.73203" lon="1.64352">
        <ele>170.77</ele>
        <time>2026-05-25T08:25:22Z</time>
      </trkpt>
      <trkpt lat="43.73214" lon="1.64333">
        <ele>169.33</ele>
        <time>2026-05-25T08:25:35Z</time>
      </trkpt>
      <trkpt lat="43.73225" lon="1.64315">
        <ele>168.85</ele>
        <time>2026-05-25T08:25:49Z</time>
      </trkpt>
      <trkpt lat="43.7324" lon="1.64289">
        <ele>166.93</ele>
        <time>2026-05-25T08:26:05Z</time>
      </trkpt>
      <trkpt lat="43.73242" lon="1.64281">
        <ele>166.93</ele>
        <time>2026-05-25T08:26:18Z</time>
      </trkpt>
      <trkpt lat="43.73251" lon="1.64265">
        <ele>165.48</ele>
        <time>2026-05-25T08:26:30Z</time>
      </trkpt>
      <trkpt lat="43.73252" lon="1.64263">
        <ele>165.48</ele>
        <time>2026-05-25T08:26:31Z</time>
      </trkpt>
      <trkpt lat="43.73253" lon="1.64261">
        <ele>165.48</ele>
        <time>2026-05-25T08:26:32Z</time>
      </trkpt>
      <trkpt lat="43.73264" lon="1.6424">
        <ele>164.04</ele>
        <time>2026-05-25T08:26:45Z</time>
      </trkpt>
      <trkpt lat="43.73272" lon="1.64215">
        <ele>163.08</ele>
        <time>2026-05-25T08:27:00Z</time>
      </trkpt>
      <trkpt lat="43.73279" lon="1.64186">
        <ele>162.12</ele>
        <time>2026-05-25T08:27:16Z</time>
      </trkpt>
      <trkpt lat="43.73281" lon="1.64176">
        <ele>162.12</ele>
        <time>2026-05-25T08:27:22Z</time>
      </trkpt>
      <trkpt lat="43.73282" lon="1.64175">
        <ele>161.64</ele>
        <time>2026-05-25T08:27:23Z</time>
      </trkpt>
      <trkpt lat="43.73282" lon="1.64173">
        <ele>161.64</ele>
        <time>2026-05-25T08:27:24Z</time>
      </trkpt>
      <trkpt lat="43.73282" lon="1.64171">
        <ele>161.64</ele>
        <time>2026-05-25T08:27:25Z</time>
      </trkpt>
      <trkpt lat="43.73282" lon="1.64169">
        <ele>161.64</ele>
        <time>2026-05-25T08:27:26Z</time>
      </trkpt>
      <trkpt lat="43.73285" lon="1.64145">
        <ele>161.64</ele>
        <time>2026-05-25T08:27:40Z</time>
      </trkpt>
      <trkpt lat="43.7329" lon="1.64125">
        <ele>163.08</ele>
        <time>2026-05-25T08:27:52Z</time>
      </trkpt>
      <trkpt lat="43.73292" lon="1.64119">
        <ele>163.08</ele>
        <time>2026-05-25T08:27:57Z</time>
      </trkpt>
      <trkpt lat="43.73293" lon="1.64117">
        <ele>163.08</ele>
        <time>2026-05-25T08:27:58Z</time>
      </trkpt>
      <trkpt lat="43.73293" lon="1.64116">
        <ele>163.08</ele>
        <time>2026-05-25T08:27:59Z</time>
      </trkpt>
      <trkpt lat="43.73291" lon="1.64099">
        <ele>163.56</ele>
        <time>2026-05-25T08:28:12Z</time>
      </trkpt>
      <trkpt lat="43.73291" lon="1.64096">
        <ele>164.04</ele>
        <time>2026-05-25T08:28:15Z</time>
      </trkpt>
      <trkpt lat="43.73291" lon="1.64095">
        <ele>164.04</ele>
        <time>2026-05-25T08:28:16Z</time>
      </trkpt>
      <trkpt lat="43.73289" lon="1.64083">
        <ele>165.48</ele>
        <time>2026-05-25T08:28:26Z</time>
      </trkpt>
      <trkpt lat="43.73286" lon="1.64079">
        <ele>165.48</ele>
        <time>2026-05-25T08:28:30Z</time>
      </trkpt>
      <trkpt lat="43.73285" lon="1.64078">
        <ele>166.45</ele>
        <time>2026-05-25T08:28:31Z</time>
      </trkpt>
      <trkpt lat="43.73283" lon="1.64077">
        <ele>166.45</ele>
        <time>2026-05-25T08:28:32Z</time>
      </trkpt>
      <trkpt lat="43.73272" lon="1.64064">
        <ele>167.89</ele>
        <time>2026-05-25T08:28:47Z</time>
      </trkpt>
      <trkpt lat="43.73267" lon="1.6406">
        <ele>168.37</ele>
        <time>2026-05-25T08:28:52Z</time>
      </trkpt>
      <trkpt lat="43.73266" lon="1.6406">
        <ele>168.37</ele>
        <time>2026-05-25T08:28:53Z</time>
      </trkpt>
      <trkpt lat="43.73254" lon="1.64059">
        <ele>166.93</ele>
        <time>2026-05-25T08:29:01Z</time>
      </trkpt>
      <trkpt lat="43.73232" lon="1.64052">
        <ele>165</ele>
        <time>2026-05-25T08:29:16Z</time>
      </trkpt>
      <trkpt lat="43.73222" lon="1.64051">
        <ele>163.56</ele>
        <time>2026-05-25T08:29:30Z</time>
      </trkpt>
      <trkpt lat="43.73219" lon="1.64052">
        <ele>163.08</ele>
        <time>2026-05-25T08:29:51Z</time>
      </trkpt>
      <trkpt lat="43.73206" lon="1.64046">
        <ele>161.64</ele>
        <time>2026-05-25T08:30:06Z</time>
      </trkpt>
      <trkpt lat="43.73209" lon="1.64048">
        <ele>161.64</ele>
        <time>2026-05-25T08:30:10Z</time>
      </trkpt>
      <trkpt lat="43.73209" lon="1.64051">
        <ele>163.08</ele>
        <time>2026-05-25T08:30:14Z</time>
      </trkpt>
      <trkpt lat="43.73206" lon="1.64049">
        <ele>162.12</ele>
        <time>2026-05-25T08:30:24Z</time>
      </trkpt>
      <trkpt lat="43.73204" lon="1.64043">
        <ele>162.12</ele>
        <time>2026-05-25T08:30:28Z</time>
      </trkpt>
      <trkpt lat="43.73204" lon="1.64041">
        <ele>162.12</ele>
        <time>2026-05-25T08:30:29Z</time>
      </trkpt>
      <trkpt lat="43.73203" lon="1.64032">
        <ele>162.12</ele>
        <time>2026-05-25T08:30:35Z</time>
      </trkpt>
      <trkpt lat="43.73202" lon="1.64031">
        <ele>162.12</ele>
        <time>2026-05-25T08:30:36Z</time>
      </trkpt>
      <trkpt lat="43.73205" lon="1.64024">
        <ele>163.56</ele>
        <time>2026-05-25T08:30:42Z</time>
      </trkpt>
      <trkpt lat="43.73206" lon="1.64022">
        <ele>163.56</ele>
        <time>2026-05-25T08:30:43Z</time>
      </trkpt>
      <trkpt lat="43.73207" lon="1.6402">
        <ele>163.56</ele>
        <time>2026-05-25T08:30:44Z</time>
      </trkpt>
      <trkpt lat="43.73208" lon="1.64014">
        <ele>164.04</ele>
        <time>2026-05-25T08:30:49Z</time>
      </trkpt>
      <trkpt lat="43.73208" lon="1.64013">
        <ele>164.04</ele>
        <time>2026-05-25T08:30:50Z</time>
      </trkpt>
      <trkpt lat="43.73208" lon="1.64011">
        <ele>164.04</ele>
        <time>2026-05-25T08:30:51Z</time>
      </trkpt>
      <trkpt lat="43.73214" lon="1.63995">
        <ele>165.96</ele>
        <time>2026-05-25T08:31:04Z</time>
      </trkpt>
      <trkpt lat="43.73221" lon="1.63977">
        <ele>166.93</ele>
        <time>2026-05-25T08:31:16Z</time>
      </trkpt>
      <trkpt lat="43.73223" lon="1.63961">
        <ele>168.37</ele>
        <time>2026-05-25T08:31:28Z</time>
      </trkpt>
      <trkpt lat="43.73224" lon="1.6396">
        <ele>168.37</ele>
        <time>2026-05-25T08:31:29Z</time>
      </trkpt>
      <trkpt lat="43.73224" lon="1.63958">
        <ele>168.37</ele>
        <time>2026-05-25T08:31:30Z</time>
      </trkpt>
      <trkpt lat="43.73225" lon="1.63956">
        <ele>168.37</ele>
        <time>2026-05-25T08:31:31Z</time>
      </trkpt>
      <trkpt lat="43.73226" lon="1.63954">
        <ele>169.33</ele>
        <time>2026-05-25T08:31:32Z</time>
      </trkpt>
      <trkpt lat="43.73228" lon="1.63941">
        <ele>170.77</ele>
        <time>2026-05-25T08:31:44Z</time>
      </trkpt>
      <trkpt lat="43.73231" lon="1.63935">
        <ele>171.25</ele>
        <time>2026-05-25T08:31:53Z</time>
      </trkpt>
      <trkpt lat="43.73237" lon="1.63931">
        <ele>172.21</ele>
        <time>2026-05-25T08:32:00Z</time>
      </trkpt>
      <trkpt lat="43.73239" lon="1.63931">
        <ele>173.17</ele>
        <time>2026-05-25T08:32:01Z</time>
      </trkpt>
      <trkpt lat="43.73249" lon="1.6393">
        <ele>174.62</ele>
        <time>2026-05-25T08:32:14Z</time>
      </trkpt>
      <trkpt lat="43.73255" lon="1.63928">
        <ele>176.54</ele>
        <time>2026-05-25T08:32:21Z</time>
      </trkpt>
      <trkpt lat="43.73259" lon="1.63927">
        <ele>177.02</ele>
        <time>2026-05-25T08:32:26Z</time>
      </trkpt>
      <trkpt lat="43.73264" lon="1.63925">
        <ele>177.98</ele>
        <time>2026-05-25T08:32:31Z</time>
      </trkpt>
      <trkpt lat="43.73265" lon="1.63924">
        <ele>177.98</ele>
        <time>2026-05-25T08:32:32Z</time>
      </trkpt>
      <trkpt lat="43.73274" lon="1.6392">
        <ele>179.42</ele>
        <time>2026-05-25T08:32:42Z</time>
      </trkpt>
      <trkpt lat="43.73283" lon="1.63916">
        <ele>180.38</ele>
        <time>2026-05-25T08:32:52Z</time>
      </trkpt>
      <trkpt lat="43.73295" lon="1.63909">
        <ele>182.31</ele>
        <time>2026-05-25T08:33:04Z</time>
      </trkpt>
      <trkpt lat="43.73304" lon="1.63905">
        <ele>183.27</ele>
        <time>2026-05-25T08:33:15Z</time>
      </trkpt>
      <trkpt lat="43.73306" lon="1.63904">
        <ele>183.27</ele>
        <time>2026-05-25T08:33:16Z</time>
      </trkpt>
      <trkpt lat="43.73315" lon="1.63892">
        <ele>185.19</ele>
        <time>2026-05-25T08:33:28Z</time>
      </trkpt>
      <trkpt lat="43.73316" lon="1.63891">
        <ele>185.19</ele>
        <time>2026-05-25T08:33:29Z</time>
      </trkpt>
      <trkpt lat="43.73317" lon="1.63889">
        <ele>185.19</ele>
        <time>2026-05-25T08:33:30Z</time>
      </trkpt>
      <trkpt lat="43.73321" lon="1.63878">
        <ele>185.67</ele>
        <time>2026-05-25T08:33:37Z</time>
      </trkpt>
      <trkpt lat="43.73322" lon="1.63876">
        <ele>185.67</ele>
        <time>2026-05-25T08:33:38Z</time>
      </trkpt>
      <trkpt lat="43.73323" lon="1.63874">
        <ele>185.67</ele>
        <time>2026-05-25T08:33:39Z</time>
      </trkpt>
      <trkpt lat="43.73324" lon="1.63871">
        <ele>187.11</ele>
        <time>2026-05-25T08:33:43Z</time>
      </trkpt>
      <trkpt lat="43.73325" lon="1.63869">
        <ele>187.11</ele>
        <time>2026-05-25T08:33:44Z</time>
      </trkpt>
      <trkpt lat="43.73327" lon="1.6386">
        <ele>187.59</ele>
        <time>2026-05-25T08:33:50Z</time>
      </trkpt>
      <trkpt lat="43.73326" lon="1.63858">
        <ele>187.59</ele>
        <time>2026-05-25T08:33:51Z</time>
      </trkpt>
      <trkpt lat="43.73325" lon="1.63856">
        <ele>187.59</ele>
        <time>2026-05-25T08:33:52Z</time>
      </trkpt>
      <trkpt lat="43.73324" lon="1.63854">
        <ele>187.59</ele>
        <time>2026-05-25T08:33:53Z</time>
      </trkpt>
      <trkpt lat="43.73316" lon="1.6384">
        <ele>187.59</ele>
        <time>2026-05-25T08:34:04Z</time>
      </trkpt>
      <trkpt lat="43.7331" lon="1.6382">
        <ele>188.08</ele>
        <time>2026-05-25T08:34:17Z</time>
      </trkpt>
      <trkpt lat="43.73311" lon="1.63795">
        <ele>188.56</ele>
        <time>2026-05-25T08:34:31Z</time>
      </trkpt>
      <trkpt lat="43.73313" lon="1.63778">
        <ele>189.04</ele>
        <time>2026-05-25T08:34:40Z</time>
      </trkpt>
      <trkpt lat="43.73314" lon="1.63765">
        <ele>189.04</ele>
        <time>2026-05-25T08:34:48Z</time>
      </trkpt>
      <trkpt lat="43.73315" lon="1.63763">
        <ele>189.04</ele>
        <time>2026-05-25T08:34:49Z</time>
      </trkpt>
      <trkpt lat="43.73316" lon="1.63757">
        <ele>189.52</ele>
        <time>2026-05-25T08:34:54Z</time>
      </trkpt>
      <trkpt lat="43.73317" lon="1.63755">
        <ele>189.52</ele>
        <time>2026-05-25T08:34:55Z</time>
      </trkpt>
      <trkpt lat="43.73317" lon="1.63753">
        <ele>189.04</ele>
        <time>2026-05-25T08:34:56Z</time>
      </trkpt>
      <trkpt lat="43.73318" lon="1.63751">
        <ele>189.04</ele>
        <time>2026-05-25T08:34:57Z</time>
      </trkpt>
      <trkpt lat="43.73318" lon="1.63749">
        <ele>189.52</ele>
        <time>2026-05-25T08:34:58Z</time>
      </trkpt>
      <trkpt lat="43.73323" lon="1.63731">
        <ele>190</ele>
        <time>2026-05-25T08:35:10Z</time>
      </trkpt>
      <trkpt lat="43.73328" lon="1.63715">
        <ele>190.48</ele>
        <time>2026-05-25T08:35:21Z</time>
      </trkpt>
      <trkpt lat="43.73334" lon="1.637">
        <ele>191.44</ele>
        <time>2026-05-25T08:35:31Z</time>
      </trkpt>
      <trkpt lat="43.73338" lon="1.63695">
        <ele>192.4</ele>
        <time>2026-05-25T08:35:44Z</time>
      </trkpt>
      <trkpt lat="43.73336" lon="1.6369">
        <ele>192.4</ele>
        <time>2026-05-25T08:35:59Z</time>
      </trkpt>
      <trkpt lat="43.73335" lon="1.63688">
        <ele>192.4</ele>
        <time>2026-05-25T08:36:00Z</time>
      </trkpt>
      <trkpt lat="43.73334" lon="1.63686">
        <ele>192.4</ele>
        <time>2026-05-25T08:36:01Z</time>
      </trkpt>
      <trkpt lat="43.73333" lon="1.63683">
        <ele>192.4</ele>
        <time>2026-05-25T08:36:03Z</time>
      </trkpt>
      <trkpt lat="43.73332" lon="1.63678">
        <ele>192.4</ele>
        <time>2026-05-25T08:36:07Z</time>
      </trkpt>
      <trkpt lat="43.73324" lon="1.63655">
        <ele>192.88</ele>
        <time>2026-05-25T08:36:20Z</time>
      </trkpt>
      <trkpt lat="43.73315" lon="1.63637">
        <ele>192.88</ele>
        <time>2026-05-25T08:36:31Z</time>
      </trkpt>
      <trkpt lat="43.73308" lon="1.6362">
        <ele>193.36</ele>
        <time>2026-05-25T08:36:42Z</time>
      </trkpt>
      <trkpt lat="43.73305" lon="1.63614">
        <ele>193.84</ele>
        <time>2026-05-25T08:36:47Z</time>
      </trkpt>
      <trkpt lat="43.73305" lon="1.63612">
        <ele>193.84</ele>
        <time>2026-05-25T08:36:48Z</time>
      </trkpt>
      <trkpt lat="43.73304" lon="1.63611">
        <ele>193.84</ele>
        <time>2026-05-25T08:36:49Z</time>
      </trkpt>
      <trkpt lat="43.73303" lon="1.63609">
        <ele>193.84</ele>
        <time>2026-05-25T08:36:50Z</time>
      </trkpt>
      <trkpt lat="43.73302" lon="1.63607">
        <ele>193.84</ele>
        <time>2026-05-25T08:36:51Z</time>
      </trkpt>
      <trkpt lat="43.73301" lon="1.63605">
        <ele>193.84</ele>
        <time>2026-05-25T08:36:52Z</time>
      </trkpt>
      <trkpt lat="43.733" lon="1.63602">
        <ele>193.84</ele>
        <time>2026-05-25T08:36:56Z</time>
      </trkpt>
      <trkpt lat="43.73299" lon="1.636">
        <ele>193.84</ele>
        <time>2026-05-25T08:36:57Z</time>
      </trkpt>
      <trkpt lat="43.73298" lon="1.63599">
        <ele>193.84</ele>
        <time>2026-05-25T08:36:58Z</time>
      </trkpt>
      <trkpt lat="43.73297" lon="1.63597">
        <ele>193.84</ele>
        <time>2026-05-25T08:36:59Z</time>
      </trkpt>
      <trkpt lat="43.73296" lon="1.63595">
        <ele>193.84</ele>
        <time>2026-05-25T08:37:00Z</time>
      </trkpt>
      <trkpt lat="43.73292" lon="1.63589">
        <ele>194.32</ele>
        <time>2026-05-25T08:37:05Z</time>
      </trkpt>
      <trkpt lat="43.73291" lon="1.63588">
        <ele>194.32</ele>
        <time>2026-05-25T08:37:06Z</time>
      </trkpt>
      <trkpt lat="43.7329" lon="1.63586">
        <ele>194.32</ele>
        <time>2026-05-25T08:37:07Z</time>
      </trkpt>
      <trkpt lat="43.73289" lon="1.63584">
        <ele>194.32</ele>
        <time>2026-05-25T08:37:08Z</time>
      </trkpt>
      <trkpt lat="43.73287" lon="1.63583">
        <ele>194.32</ele>
        <time>2026-05-25T08:37:09Z</time>
      </trkpt>
      <trkpt lat="43.73276" lon="1.63571">
        <ele>194.8</ele>
        <time>2026-05-25T08:37:20Z</time>
      </trkpt>
      <trkpt lat="43.73266" lon="1.63558">
        <ele>195.77</ele>
        <time>2026-05-25T08:37:32Z</time>
      </trkpt>
      <trkpt lat="43.73254" lon="1.63543">
        <ele>196.73</ele>
        <time>2026-05-25T08:37:46Z</time>
      </trkpt>
      <trkpt lat="43.73243" lon="1.6353">
        <ele>197.21</ele>
        <time>2026-05-25T08:37:57Z</time>
      </trkpt>
      <trkpt lat="43.73234" lon="1.63517">
        <ele>198.17</ele>
        <time>2026-05-25T08:38:08Z</time>
      </trkpt>
      <trkpt lat="43.7323" lon="1.63501">
        <ele>198.65</ele>
        <time>2026-05-25T08:38:20Z</time>
      </trkpt>
      <trkpt lat="43.73225" lon="1.63483">
        <ele>198.65</ele>
        <time>2026-05-25T08:38:32Z</time>
      </trkpt>
      <trkpt lat="43.73219" lon="1.63463">
        <ele>198.65</ele>
        <time>2026-05-25T08:38:43Z</time>
      </trkpt>
      <trkpt lat="43.73211" lon="1.63442">
        <ele>198.65</ele>
        <time>2026-05-25T08:38:55Z</time>
      </trkpt>
      <trkpt lat="43.73205" lon="1.63424">
        <ele>198.65</ele>
        <time>2026-05-25T08:39:06Z</time>
      </trkpt>
      <trkpt lat="43.73202" lon="1.63418">
        <ele>197.69</ele>
        <time>2026-05-25T08:39:11Z</time>
      </trkpt>
      <trkpt lat="43.73191" lon="1.634">
        <ele>197.21</ele>
        <time>2026-05-25T08:39:23Z</time>
      </trkpt>
      <trkpt lat="43.73181" lon="1.63384">
        <ele>196.73</ele>
        <time>2026-05-25T08:39:34Z</time>
      </trkpt>
      <trkpt lat="43.73172" lon="1.63369">
        <ele>196.73</ele>
        <time>2026-05-25T08:39:45Z</time>
      </trkpt>
      <trkpt lat="43.73162" lon="1.63356">
        <ele>196.73</ele>
        <time>2026-05-25T08:39:57Z</time>
      </trkpt>
      <trkpt lat="43.73153" lon="1.63343">
        <ele>196.25</ele>
        <time>2026-05-25T08:40:07Z</time>
      </trkpt>
      <trkpt lat="43.73151" lon="1.63342">
        <ele>196.25</ele>
        <time>2026-05-25T08:40:08Z</time>
      </trkpt>
      <trkpt lat="43.7315" lon="1.6334">
        <ele>196.25</ele>
        <time>2026-05-25T08:40:09Z</time>
      </trkpt>
      <trkpt lat="43.73149" lon="1.63339">
        <ele>196.25</ele>
        <time>2026-05-25T08:40:10Z</time>
      </trkpt>
      <trkpt lat="43.73147" lon="1.63337">
        <ele>196.25</ele>
        <time>2026-05-25T08:40:11Z</time>
      </trkpt>
      <trkpt lat="43.73146" lon="1.63335">
        <ele>196.25</ele>
        <time>2026-05-25T08:40:12Z</time>
      </trkpt>
      <trkpt lat="43.73145" lon="1.63334">
        <ele>196.25</ele>
        <time>2026-05-25T08:40:13Z</time>
      </trkpt>
      <trkpt lat="43.73133" lon="1.6332">
        <ele>195.77</ele>
        <time>2026-05-25T08:40:25Z</time>
      </trkpt>
      <trkpt lat="43.73122" lon="1.63302">
        <ele>194.32</ele>
        <time>2026-05-25T08:40:38Z</time>
      </trkpt>
      <trkpt lat="43.73112" lon="1.63288">
        <ele>194.32</ele>
        <time>2026-05-25T08:40:49Z</time>
      </trkpt>
      <trkpt lat="43.73099" lon="1.63269">
        <ele>193.84</ele>
        <time>2026-05-25T08:41:02Z</time>
      </trkpt>
      <trkpt lat="43.73088" lon="1.63256">
        <ele>193.36</ele>
        <time>2026-05-25T08:41:13Z</time>
      </trkpt>
      <trkpt lat="43.73076" lon="1.63242">
        <ele>193.36</ele>
        <time>2026-05-25T08:41:24Z</time>
      </trkpt>
      <trkpt lat="43.73067" lon="1.6323">
        <ele>192.88</ele>
        <time>2026-05-25T08:41:34Z</time>
      </trkpt>
      <trkpt lat="43.73057" lon="1.63215">
        <ele>192.4</ele>
        <time>2026-05-25T08:41:45Z</time>
      </trkpt>
      <trkpt lat="43.73045" lon="1.63198">
        <ele>192.4</ele>
        <time>2026-05-25T08:41:57Z</time>
      </trkpt>
      <trkpt lat="43.73034" lon="1.63183">
        <ele>191.92</ele>
        <time>2026-05-25T08:42:09Z</time>
      </trkpt>
      <trkpt lat="43.73024" lon="1.6317">
        <ele>191.92</ele>
        <time>2026-05-25T08:42:20Z</time>
      </trkpt>
      <trkpt lat="43.73012" lon="1.63159">
        <ele>190.96</ele>
        <time>2026-05-25T08:42:31Z</time>
      </trkpt>
      <trkpt lat="43.7301" lon="1.63158">
        <ele>191.92</ele>
        <time>2026-05-25T08:42:32Z</time>
      </trkpt>
      <trkpt lat="43.73009" lon="1.63158">
        <ele>191.92</ele>
        <time>2026-05-25T08:42:33Z</time>
      </trkpt>
      <trkpt lat="43.73002" lon="1.63142">
        <ele>190.96</ele>
        <time>2026-05-25T08:42:46Z</time>
      </trkpt>
      <trkpt lat="43.73002" lon="1.63139">
        <ele>190.96</ele>
        <time>2026-05-25T08:42:47Z</time>
      </trkpt>
      <trkpt lat="43.73002" lon="1.63137">
        <ele>190.96</ele>
        <time>2026-05-25T08:42:48Z</time>
      </trkpt>
      <trkpt lat="43.73002" lon="1.63129">
        <ele>190.48</ele>
        <time>2026-05-25T08:42:54Z</time>
      </trkpt>
      <trkpt lat="43.73002" lon="1.63128">
        <ele>190.48</ele>
        <time>2026-05-25T08:42:55Z</time>
      </trkpt>
      <trkpt lat="43.73001" lon="1.63099">
        <ele>190</ele>
        <time>2026-05-25T08:43:12Z</time>
      </trkpt>
      <trkpt lat="43.73" lon="1.63097">
        <ele>190</ele>
        <time>2026-05-25T08:43:13Z</time>
      </trkpt>
      <trkpt lat="43.72994" lon="1.63073">
        <ele>190</ele>
        <time>2026-05-25T08:43:28Z</time>
      </trkpt>
      <trkpt lat="43.72994" lon="1.63071">
        <ele>190</ele>
        <time>2026-05-25T08:43:29Z</time>
      </trkpt>
      <trkpt lat="43.72992" lon="1.63047">
        <ele>190</ele>
        <time>2026-05-25T08:43:42Z</time>
      </trkpt>
      <trkpt lat="43.72988" lon="1.63039">
        <ele>190</ele>
        <time>2026-05-25T08:43:48Z</time>
      </trkpt>
      <trkpt lat="43.72988" lon="1.63037">
        <ele>190</ele>
        <time>2026-05-25T08:43:49Z</time>
      </trkpt>
      <trkpt lat="43.72987" lon="1.63035">
        <ele>190</ele>
        <time>2026-05-25T08:43:50Z</time>
      </trkpt>
      <trkpt lat="43.72986" lon="1.63032">
        <ele>190</ele>
        <time>2026-05-25T08:43:51Z</time>
      </trkpt>
      <trkpt lat="43.72986" lon="1.6303">
        <ele>190</ele>
        <time>2026-05-25T08:43:52Z</time>
      </trkpt>
      <trkpt lat="43.72986" lon="1.63028">
        <ele>190</ele>
        <time>2026-05-25T08:43:53Z</time>
      </trkpt>
      <trkpt lat="43.7298" lon="1.63006">
        <ele>190</ele>
        <time>2026-05-25T08:44:05Z</time>
      </trkpt>
      <trkpt lat="43.72975" lon="1.62986">
        <ele>190</ele>
        <time>2026-05-25T08:44:17Z</time>
      </trkpt>
      <trkpt lat="43.72971" lon="1.62962">
        <ele>190</ele>
        <time>2026-05-25T08:44:31Z</time>
      </trkpt>
      <trkpt lat="43.72965" lon="1.62939">
        <ele>190.96</ele>
        <time>2026-05-25T08:44:45Z</time>
      </trkpt>
      <trkpt lat="43.72963" lon="1.62932">
        <ele>190.96</ele>
        <time>2026-05-25T08:44:59Z</time>
      </trkpt>
      <trkpt lat="43.72962" lon="1.62928">
        <ele>190.96</ele>
        <time>2026-05-25T08:45:36Z</time>
      </trkpt>
      <trkpt lat="43.72962" lon="1.62926">
        <ele>190.96</ele>
        <time>2026-05-25T08:45:37Z</time>
      </trkpt>
      <trkpt lat="43.72962" lon="1.62924">
        <ele>190.96</ele>
        <time>2026-05-25T08:45:38Z</time>
      </trkpt>
      <trkpt lat="43.72962" lon="1.62921">
        <ele>190.96</ele>
        <time>2026-05-25T08:45:39Z</time>
      </trkpt>
      <trkpt lat="43.72962" lon="1.62918">
        <ele>190.96</ele>
        <time>2026-05-25T08:45:40Z</time>
      </trkpt>
      <trkpt lat="43.72962" lon="1.62916">
        <ele>190.96</ele>
        <time>2026-05-25T08:45:41Z</time>
      </trkpt>
      <trkpt lat="43.72961" lon="1.6291">
        <ele>190.96</ele>
        <time>2026-05-25T08:45:46Z</time>
      </trkpt>
      <trkpt lat="43.72961" lon="1.62908">
        <ele>190.96</ele>
        <time>2026-05-25T08:45:47Z</time>
      </trkpt>
      <trkpt lat="43.7296" lon="1.62906">
        <ele>190.96</ele>
        <time>2026-05-25T08:45:48Z</time>
      </trkpt>
      <trkpt lat="43.72957" lon="1.62882">
        <ele>190.96</ele>
        <time>2026-05-25T08:46:02Z</time>
      </trkpt>
      <trkpt lat="43.72955" lon="1.62859">
        <ele>190.96</ele>
        <time>2026-05-25T08:46:15Z</time>
      </trkpt>
      <trkpt lat="43.72951" lon="1.62835">
        <ele>190.96</ele>
        <time>2026-05-25T08:46:28Z</time>
      </trkpt>
      <trkpt lat="43.7295" lon="1.62815">
        <ele>190.96</ele>
        <time>2026-05-25T08:46:39Z</time>
      </trkpt>
      <trkpt lat="43.72947" lon="1.62794">
        <ele>190.96</ele>
        <time>2026-05-25T08:46:52Z</time>
      </trkpt>
      <trkpt lat="43.72945" lon="1.62773">
        <ele>189.52</ele>
        <time>2026-05-25T08:47:04Z</time>
      </trkpt>
      <trkpt lat="43.72941" lon="1.62748">
        <ele>189.52</ele>
        <time>2026-05-25T08:47:18Z</time>
      </trkpt>
      <trkpt lat="43.72938" lon="1.62729">
        <ele>189.04</ele>
        <time>2026-05-25T08:47:30Z</time>
      </trkpt>
      <trkpt lat="43.72939" lon="1.62729">
        <ele>189.04</ele>
        <time>2026-05-25T08:47:55Z</time>
      </trkpt>
      <trkpt lat="43.72936" lon="1.62709">
        <ele>189.04</ele>
        <time>2026-05-25T08:48:19Z</time>
      </trkpt>
      <trkpt lat="43.72933" lon="1.62684">
        <ele>189.04</ele>
        <time>2026-05-25T08:48:34Z</time>
      </trkpt>
      <trkpt lat="43.7293" lon="1.62657">
        <ele>189.04</ele>
        <time>2026-05-25T08:48:49Z</time>
      </trkpt>
      <trkpt lat="43.72926" lon="1.62631">
        <ele>188.56</ele>
        <time>2026-05-25T08:49:04Z</time>
      </trkpt>
      <trkpt lat="43.72924" lon="1.62604">
        <ele>188.56</ele>
        <time>2026-05-25T08:49:19Z</time>
      </trkpt>
      <trkpt lat="43.72921" lon="1.62579">
        <ele>188.08</ele>
        <time>2026-05-25T08:49:33Z</time>
      </trkpt>
      <trkpt lat="43.72919" lon="1.62555">
        <ele>188.08</ele>
        <time>2026-05-25T08:49:47Z</time>
      </trkpt>
      <trkpt lat="43.72917" lon="1.62532">
        <ele>188.08</ele>
        <time>2026-05-25T08:49:59Z</time>
      </trkpt>
      <trkpt lat="43.72914" lon="1.62504">
        <ele>188.08</ele>
        <time>2026-05-25T08:50:14Z</time>
      </trkpt>
      <trkpt lat="43.72911" lon="1.62478">
        <ele>187.11</ele>
        <time>2026-05-25T08:50:29Z</time>
      </trkpt>
      <trkpt lat="43.72904" lon="1.62457">
        <ele>186.63</ele>
        <time>2026-05-25T08:50:42Z</time>
      </trkpt>
      <trkpt lat="43.72894" lon="1.62437">
        <ele>185.19</ele>
        <time>2026-05-25T08:50:56Z</time>
      </trkpt>
      <trkpt lat="43.72887" lon="1.62416">
        <ele>182.79</ele>
        <time>2026-05-25T08:51:09Z</time>
      </trkpt>
      <trkpt lat="43.72883" lon="1.62402">
        <ele>181.83</ele>
        <time>2026-05-25T08:51:17Z</time>
      </trkpt>
      <trkpt lat="43.72882" lon="1.62401">
        <ele>181.83</ele>
        <time>2026-05-25T08:51:18Z</time>
      </trkpt>
      <trkpt lat="43.72875" lon="1.62374">
        <ele>179.42</ele>
        <time>2026-05-25T08:51:33Z</time>
      </trkpt>
      <trkpt lat="43.72872" lon="1.6237">
        <ele>178.94</ele>
        <time>2026-05-25T08:51:37Z</time>
      </trkpt>
      <trkpt lat="43.7287" lon="1.62369">
        <ele>178.94</ele>
        <time>2026-05-25T08:51:38Z</time>
      </trkpt>
      <trkpt lat="43.72869" lon="1.62368">
        <ele>178.94</ele>
        <time>2026-05-25T08:51:39Z</time>
      </trkpt>
      <trkpt lat="43.72852" lon="1.62354">
        <ele>176.06</ele>
        <time>2026-05-25T08:51:53Z</time>
      </trkpt>
      <trkpt lat="43.72837" lon="1.62343">
        <ele>173.17</ele>
        <time>2026-05-25T08:52:07Z</time>
      </trkpt>
      <trkpt lat="43.72822" lon="1.62328">
        <ele>169.81</ele>
        <time>2026-05-25T08:52:22Z</time>
      </trkpt>
      <trkpt lat="43.7282" lon="1.62327">
        <ele>169.33</ele>
        <time>2026-05-25T08:52:25Z</time>
      </trkpt>
      <trkpt lat="43.72819" lon="1.62326">
        <ele>168.85</ele>
        <time>2026-05-25T08:52:26Z</time>
      </trkpt>
      <trkpt lat="43.72818" lon="1.62325">
        <ele>168.85</ele>
        <time>2026-05-25T08:52:27Z</time>
      </trkpt>
      <trkpt lat="43.72805" lon="1.62307">
        <ele>165.96</ele>
        <time>2026-05-25T08:52:40Z</time>
      </trkpt>
      <trkpt lat="43.72793" lon="1.62293">
        <ele>163.56</ele>
        <time>2026-05-25T08:52:53Z</time>
      </trkpt>
      <trkpt lat="43.72792" lon="1.62291">
        <ele>163.08</ele>
        <time>2026-05-25T08:52:55Z</time>
      </trkpt>
      <trkpt lat="43.72791" lon="1.62289">
        <ele>163.08</ele>
        <time>2026-05-25T08:52:56Z</time>
      </trkpt>
      <trkpt lat="43.72778" lon="1.62273">
        <ele>160.68</ele>
        <time>2026-05-25T08:53:09Z</time>
      </trkpt>
      <trkpt lat="43.72764" lon="1.62255">
        <ele>158.27</ele>
        <time>2026-05-25T08:53:24Z</time>
      </trkpt>
      <trkpt lat="43.72752" lon="1.6224">
        <ele>156.83</ele>
        <time>2026-05-25T08:53:37Z</time>
      </trkpt>
      <trkpt lat="43.72746" lon="1.62234">
        <ele>156.35</ele>
        <time>2026-05-25T08:53:43Z</time>
      </trkpt>
      <trkpt lat="43.72745" lon="1.62233">
        <ele>156.35</ele>
        <time>2026-05-25T08:53:44Z</time>
      </trkpt>
      <trkpt lat="43.72744" lon="1.62231">
        <ele>156.35</ele>
        <time>2026-05-25T08:53:45Z</time>
      </trkpt>
      <trkpt lat="43.72736" lon="1.62219">
        <ele>155.87</ele>
        <time>2026-05-25T08:53:54Z</time>
      </trkpt>
      <trkpt lat="43.72735" lon="1.62218">
        <ele>155.87</ele>
        <time>2026-05-25T08:53:55Z</time>
      </trkpt>
      <trkpt lat="43.72734" lon="1.62216">
        <ele>155.87</ele>
        <time>2026-05-25T08:53:56Z</time>
      </trkpt>
      <trkpt lat="43.72727" lon="1.62207">
        <ele>155.39</ele>
        <time>2026-05-25T08:54:04Z</time>
      </trkpt>
      <trkpt lat="43.72726" lon="1.62206">
        <ele>155.39</ele>
        <time>2026-05-25T08:54:05Z</time>
      </trkpt>
      <trkpt lat="43.72724" lon="1.62204">
        <ele>155.39</ele>
        <time>2026-05-25T08:54:06Z</time>
      </trkpt>
      <trkpt lat="43.72716" lon="1.62194">
        <ele>154.91</ele>
        <time>2026-05-25T08:54:15Z</time>
      </trkpt>
      <trkpt lat="43.72715" lon="1.62193">
        <ele>154.91</ele>
        <time>2026-05-25T08:54:16Z</time>
      </trkpt>
      <trkpt lat="43.72711" lon="1.62182">
        <ele>154.91</ele>
        <time>2026-05-25T08:54:24Z</time>
      </trkpt>
      <trkpt lat="43.72712" lon="1.62181">
        <ele>154.91</ele>
        <time>2026-05-25T08:54:25Z</time>
      </trkpt>
      <trkpt lat="43.72712" lon="1.62179">
        <ele>154.91</ele>
        <time>2026-05-25T08:54:26Z</time>
      </trkpt>
      <trkpt lat="43.72713" lon="1.62178">
        <ele>154.91</ele>
        <time>2026-05-25T08:54:27Z</time>
      </trkpt>
      <trkpt lat="43.72714" lon="1.62176">
        <ele>154.91</ele>
        <time>2026-05-25T08:54:28Z</time>
      </trkpt>
      <trkpt lat="43.72716" lon="1.62175">
        <ele>154.91</ele>
        <time>2026-05-25T08:54:29Z</time>
      </trkpt>
      <trkpt lat="43.7273" lon="1.62163">
        <ele>154.91</ele>
        <time>2026-05-25T08:54:44Z</time>
      </trkpt>
      <trkpt lat="43.7274" lon="1.62147">
        <ele>154.43</ele>
        <time>2026-05-25T08:54:56Z</time>
      </trkpt>
      <trkpt lat="43.7273" lon="1.6213">
        <ele>154.43</ele>
        <time>2026-05-25T08:55:08Z</time>
      </trkpt>
      <trkpt lat="43.72717" lon="1.62117">
        <ele>154.43</ele>
        <time>2026-05-25T08:55:20Z</time>
      </trkpt>
      <trkpt lat="43.72705" lon="1.62106">
        <ele>154.43</ele>
        <time>2026-05-25T08:55:32Z</time>
      </trkpt>
      <trkpt lat="43.72699" lon="1.62099">
        <ele>153.95</ele>
        <time>2026-05-25T08:55:40Z</time>
      </trkpt>
      <trkpt lat="43.72685" lon="1.62084">
        <ele>155.39</ele>
        <time>2026-05-25T08:55:54Z</time>
      </trkpt>
      <trkpt lat="43.72674" lon="1.62074">
        <ele>155.87</ele>
        <time>2026-05-25T08:56:06Z</time>
      </trkpt>
      <trkpt lat="43.72663" lon="1.62063">
        <ele>156.35</ele>
        <time>2026-05-25T08:56:17Z</time>
      </trkpt>
      <trkpt lat="43.72653" lon="1.62054">
        <ele>156.83</ele>
        <time>2026-05-25T08:56:28Z</time>
      </trkpt>
      <trkpt lat="43.72641" lon="1.62039">
        <ele>157.79</ele>
        <time>2026-05-25T08:56:41Z</time>
      </trkpt>
      <trkpt lat="43.72629" lon="1.62028">
        <ele>158.27</ele>
        <time>2026-05-25T08:56:54Z</time>
      </trkpt>
      <trkpt lat="43.72625" lon="1.62023">
        <ele>158.27</ele>
        <time>2026-05-25T08:56:59Z</time>
      </trkpt>
      <trkpt lat="43.72612" lon="1.62007">
        <ele>158.75</ele>
        <time>2026-05-25T08:57:13Z</time>
      </trkpt>
      <trkpt lat="43.72609" lon="1.62003">
        <ele>158.75</ele>
        <time>2026-05-25T08:57:17Z</time>
      </trkpt>
      <trkpt lat="43.72595" lon="1.61983">
        <ele>159.72</ele>
        <time>2026-05-25T08:57:33Z</time>
      </trkpt>
      <trkpt lat="43.72594" lon="1.6198">
        <ele>160.2</ele>
        <time>2026-05-25T08:57:36Z</time>
      </trkpt>
      <trkpt lat="43.72586" lon="1.61968">
        <ele>160.2</ele>
        <time>2026-05-25T08:57:46Z</time>
      </trkpt>
      <trkpt lat="43.72583" lon="1.61963">
        <ele>160.68</ele>
        <time>2026-05-25T08:57:50Z</time>
      </trkpt>
      <trkpt lat="43.7257" lon="1.61944">
        <ele>160.68</ele>
        <time>2026-05-25T08:58:06Z</time>
      </trkpt>
      <trkpt lat="43.72561" lon="1.61926">
        <ele>161.64</ele>
        <time>2026-05-25T08:58:19Z</time>
      </trkpt>
      <trkpt lat="43.72553" lon="1.61908">
        <ele>162.12</ele>
        <time>2026-05-25T08:58:32Z</time>
      </trkpt>
      <trkpt lat="43.72544" lon="1.6189">
        <ele>163.08</ele>
        <time>2026-05-25T08:58:46Z</time>
      </trkpt>
      <trkpt lat="43.7254" lon="1.61881">
        <ele>163.08</ele>
        <time>2026-05-25T08:58:53Z</time>
      </trkpt>
      <trkpt lat="43.7253" lon="1.61859">
        <ele>164.04</ele>
        <time>2026-05-25T08:59:08Z</time>
      </trkpt>
      <trkpt lat="43.72521" lon="1.6184">
        <ele>164.04</ele>
        <time>2026-05-25T08:59:21Z</time>
      </trkpt>
      <trkpt lat="43.72512" lon="1.61821">
        <ele>165</ele>
        <time>2026-05-25T08:59:35Z</time>
      </trkpt>
      <trkpt lat="43.72502" lon="1.61804">
        <ele>165.96</ele>
        <time>2026-05-25T08:59:49Z</time>
      </trkpt>
      <trkpt lat="43.72497" lon="1.61795">
        <ele>166.45</ele>
        <time>2026-05-25T08:59:56Z</time>
      </trkpt>
      <trkpt lat="43.72495" lon="1.61793">
        <ele>166.93</ele>
        <time>2026-05-25T09:00:16Z</time>
      </trkpt>
      <trkpt lat="43.72496" lon="1.61791">
        <ele>166.93</ele>
        <time>2026-05-25T09:00:24Z</time>
      </trkpt>
      <trkpt lat="43.72488" lon="1.61776">
        <ele>166.93</ele>
        <time>2026-05-25T09:00:36Z</time>
      </trkpt>
      <trkpt lat="43.72488" lon="1.61775">
        <ele>167.89</ele>
        <time>2026-05-25T09:00:37Z</time>
      </trkpt>
      <trkpt lat="43.72478" lon="1.6176">
        <ele>167.89</ele>
        <time>2026-05-25T09:00:50Z</time>
      </trkpt>
      <trkpt lat="43.72478" lon="1.61759">
        <ele>168.37</ele>
        <time>2026-05-25T09:00:51Z</time>
      </trkpt>
      <trkpt lat="43.72469" lon="1.61741">
        <ele>169.33</ele>
        <time>2026-05-25T09:01:04Z</time>
      </trkpt>
      <trkpt lat="43.7246" lon="1.61727">
        <ele>170.29</ele>
        <time>2026-05-25T09:01:16Z</time>
      </trkpt>
      <trkpt lat="43.72452" lon="1.61714">
        <ele>170.77</ele>
        <time>2026-05-25T09:01:26Z</time>
      </trkpt>
      <trkpt lat="43.72443" lon="1.61696">
        <ele>171.25</ele>
        <time>2026-05-25T09:01:39Z</time>
      </trkpt>
      <trkpt lat="43.72436" lon="1.61681">
        <ele>171.73</ele>
        <time>2026-05-25T09:01:51Z</time>
      </trkpt>
      <trkpt lat="43.72429" lon="1.61666">
        <ele>172.21</ele>
        <time>2026-05-25T09:02:02Z</time>
      </trkpt>
      <trkpt lat="43.72423" lon="1.61655">
        <ele>172.69</ele>
        <time>2026-05-25T09:02:13Z</time>
      </trkpt>
      <trkpt lat="43.72418" lon="1.61643">
        <ele>172.69</ele>
        <time>2026-05-25T09:02:25Z</time>
      </trkpt>
      <trkpt lat="43.72418" lon="1.61642">
        <ele>172.69</ele>
        <time>2026-05-25T09:02:26Z</time>
      </trkpt>
      <trkpt lat="43.72415" lon="1.61636">
        <ele>172.69</ele>
        <time>2026-05-25T09:02:30Z</time>
      </trkpt>
      <trkpt lat="43.72408" lon="1.61619">
        <ele>173.66</ele>
        <time>2026-05-25T09:02:43Z</time>
      </trkpt>
      <trkpt lat="43.72401" lon="1.61603">
        <ele>175.1</ele>
        <time>2026-05-25T09:02:56Z</time>
      </trkpt>
      <trkpt lat="43.72401" lon="1.61601">
        <ele>175.1</ele>
        <time>2026-05-25T09:02:58Z</time>
      </trkpt>
      <trkpt lat="43.72398" lon="1.61595">
        <ele>175.58</ele>
        <time>2026-05-25T09:03:02Z</time>
      </trkpt>
      <trkpt lat="43.7239" lon="1.61587">
        <ele>176.54</ele>
        <time>2026-05-25T09:03:10Z</time>
      </trkpt>
      <trkpt lat="43.72377" lon="1.61572">
        <ele>178.46</ele>
        <time>2026-05-25T09:03:26Z</time>
      </trkpt>
      <trkpt lat="43.72375" lon="1.6156">
        <ele>179.9</ele>
        <time>2026-05-25T09:03:37Z</time>
      </trkpt>
      <trkpt lat="43.72368" lon="1.61542">
        <ele>180.87</ele>
        <time>2026-05-25T09:03:50Z</time>
      </trkpt>
      <trkpt lat="43.72359" lon="1.61527">
        <ele>181.35</ele>
        <time>2026-05-25T09:04:01Z</time>
      </trkpt>
      <trkpt lat="43.72349" lon="1.61513">
        <ele>182.31</ele>
        <time>2026-05-25T09:04:13Z</time>
      </trkpt>
      <trkpt lat="43.72349" lon="1.61512">
        <ele>182.31</ele>
        <time>2026-05-25T09:04:14Z</time>
      </trkpt>
      <trkpt lat="43.72347" lon="1.61508">
        <ele>182.79</ele>
        <time>2026-05-25T09:04:18Z</time>
      </trkpt>
      <trkpt lat="43.72342" lon="1.61501">
        <ele>182.79</ele>
        <time>2026-05-25T09:04:24Z</time>
      </trkpt>
      <trkpt lat="43.72331" lon="1.61487">
        <ele>180.87</ele>
        <time>2026-05-25T09:04:35Z</time>
      </trkpt>
      <trkpt lat="43.72327" lon="1.6148">
        <ele>180.38</ele>
        <time>2026-05-25T09:04:40Z</time>
      </trkpt>
      <trkpt lat="43.72321" lon="1.61473">
        <ele>179.42</ele>
        <time>2026-05-25T09:04:46Z</time>
      </trkpt>
      <trkpt lat="43.72311" lon="1.61458">
        <ele>177.98</ele>
        <time>2026-05-25T09:04:58Z</time>
      </trkpt>
      <trkpt lat="43.72299" lon="1.61443">
        <ele>176.06</ele>
        <time>2026-05-25T09:05:09Z</time>
      </trkpt>
      <trkpt lat="43.72289" lon="1.61428">
        <ele>173.66</ele>
        <time>2026-05-25T09:05:21Z</time>
      </trkpt>
      <trkpt lat="43.72278" lon="1.61411">
        <ele>171.25</ele>
        <time>2026-05-25T09:05:34Z</time>
      </trkpt>
      <trkpt lat="43.72266" lon="1.61394">
        <ele>169.81</ele>
        <time>2026-05-25T09:05:46Z</time>
      </trkpt>
      <trkpt lat="43.72254" lon="1.61377">
        <ele>168.85</ele>
        <time>2026-05-25T09:06:00Z</time>
      </trkpt>
      <trkpt lat="43.72244" lon="1.61361">
        <ele>167.89</ele>
        <time>2026-05-25T09:06:12Z</time>
      </trkpt>
      <trkpt lat="43.72236" lon="1.61342">
        <ele>167.41</ele>
        <time>2026-05-25T09:06:25Z</time>
      </trkpt>
      <trkpt lat="43.72235" lon="1.6134">
        <ele>167.41</ele>
        <time>2026-05-25T09:06:26Z</time>
      </trkpt>
      <trkpt lat="43.7223" lon="1.61324">
        <ele>167.41</ele>
        <time>2026-05-25T09:06:37Z</time>
      </trkpt>
      <trkpt lat="43.72228" lon="1.61321">
        <ele>167.89</ele>
        <time>2026-05-25T09:06:40Z</time>
      </trkpt>
      <trkpt lat="43.72227" lon="1.61319">
        <ele>167.41</ele>
        <time>2026-05-25T09:06:41Z</time>
      </trkpt>
      <trkpt lat="43.72227" lon="1.61317">
        <ele>167.41</ele>
        <time>2026-05-25T09:06:42Z</time>
      </trkpt>
      <trkpt lat="43.72227" lon="1.61315">
        <ele>167.41</ele>
        <time>2026-05-25T09:06:43Z</time>
      </trkpt>
      <trkpt lat="43.72226" lon="1.61313">
        <ele>167.41</ele>
        <time>2026-05-25T09:06:44Z</time>
      </trkpt>
      <trkpt lat="43.72223" lon="1.61305">
        <ele>168.85</ele>
        <time>2026-05-25T09:06:50Z</time>
      </trkpt>
      <trkpt lat="43.72222" lon="1.61303">
        <ele>168.85</ele>
        <time>2026-05-25T09:06:51Z</time>
      </trkpt>
      <trkpt lat="43.72219" lon="1.61294">
        <ele>168.85</ele>
        <time>2026-05-25T09:06:58Z</time>
      </trkpt>
      <trkpt lat="43.72218" lon="1.61291">
        <ele>169.33</ele>
        <time>2026-05-25T09:06:59Z</time>
      </trkpt>
      <trkpt lat="43.72217" lon="1.6129">
        <ele>169.33</ele>
        <time>2026-05-25T09:07:00Z</time>
      </trkpt>
      <trkpt lat="43.7221" lon="1.61276">
        <ele>169.81</ele>
        <time>2026-05-25T09:07:12Z</time>
      </trkpt>
      <trkpt lat="43.72203" lon="1.61258">
        <ele>170.77</ele>
        <time>2026-05-25T09:07:24Z</time>
      </trkpt>
      <trkpt lat="43.722" lon="1.61252">
        <ele>171.25</ele>
        <time>2026-05-25T09:07:29Z</time>
      </trkpt>
      <trkpt lat="43.72199" lon="1.6125">
        <ele>171.25</ele>
        <time>2026-05-25T09:07:31Z</time>
      </trkpt>
      <trkpt lat="43.72199" lon="1.61248">
        <ele>171.25</ele>
        <time>2026-05-25T09:07:32Z</time>
      </trkpt>
      <trkpt lat="43.72198" lon="1.61246">
        <ele>171.25</ele>
        <time>2026-05-25T09:07:33Z</time>
      </trkpt>
      <trkpt lat="43.72196" lon="1.61243">
        <ele>171.73</ele>
        <time>2026-05-25T09:07:37Z</time>
      </trkpt>
      <trkpt lat="43.72195" lon="1.61241">
        <ele>171.73</ele>
        <time>2026-05-25T09:07:38Z</time>
      </trkpt>
      <trkpt lat="43.72194" lon="1.61239">
        <ele>171.73</ele>
        <time>2026-05-25T09:07:39Z</time>
      </trkpt>
      <trkpt lat="43.72194" lon="1.61237">
        <ele>172.21</ele>
        <time>2026-05-25T09:07:40Z</time>
      </trkpt>
      <trkpt lat="43.72193" lon="1.61233">
        <ele>172.21</ele>
        <time>2026-05-25T09:07:45Z</time>
      </trkpt>
      <trkpt lat="43.72193" lon="1.61231">
        <ele>172.21</ele>
        <time>2026-05-25T09:07:46Z</time>
      </trkpt>
      <trkpt lat="43.72192" lon="1.61229">
        <ele>172.69</ele>
        <time>2026-05-25T09:07:47Z</time>
      </trkpt>
      <trkpt lat="43.7219" lon="1.61213">
        <ele>173.66</ele>
        <time>2026-05-25T09:08:01Z</time>
      </trkpt>
      <trkpt lat="43.72185" lon="1.61194">
        <ele>175.58</ele>
        <time>2026-05-25T09:08:17Z</time>
      </trkpt>
      <trkpt lat="43.72177" lon="1.61176">
        <ele>178.46</ele>
        <time>2026-05-25T09:08:34Z</time>
      </trkpt>
      <trkpt lat="43.72177" lon="1.61173">
        <ele>178.94</ele>
        <time>2026-05-25T09:08:37Z</time>
      </trkpt>
      <trkpt lat="43.72173" lon="1.61157">
        <ele>180.87</ele>
        <time>2026-05-25T09:08:52Z</time>
      </trkpt>
      <trkpt lat="43.72164" lon="1.6114">
        <ele>183.75</ele>
        <time>2026-05-25T09:09:08Z</time>
      </trkpt>
      <trkpt lat="43.72163" lon="1.61138">
        <ele>183.75</ele>
        <time>2026-05-25T09:09:09Z</time>
      </trkpt>
      <trkpt lat="43.72154" lon="1.61121">
        <ele>185.67</ele>
        <time>2026-05-25T09:09:22Z</time>
      </trkpt>
      <trkpt lat="43.72144" lon="1.611">
        <ele>188.56</ele>
        <time>2026-05-25T09:09:39Z</time>
      </trkpt>
      <trkpt lat="43.72136" lon="1.61077">
        <ele>190.48</ele>
        <time>2026-05-25T09:09:54Z</time>
      </trkpt>
      <trkpt lat="43.72129" lon="1.61063">
        <ele>191.44</ele>
        <time>2026-05-25T09:10:06Z</time>
      </trkpt>
      <trkpt lat="43.72129" lon="1.61062">
        <ele>191.44</ele>
        <time>2026-05-25T09:10:07Z</time>
      </trkpt>
      <trkpt lat="43.72128" lon="1.61061">
        <ele>192.4</ele>
        <time>2026-05-25T09:10:08Z</time>
      </trkpt>
      <trkpt lat="43.72124" lon="1.61054">
        <ele>193.36</ele>
        <time>2026-05-25T09:10:14Z</time>
      </trkpt>
      <trkpt lat="43.72123" lon="1.61053">
        <ele>193.36</ele>
        <time>2026-05-25T09:10:15Z</time>
      </trkpt>
      <trkpt lat="43.72122" lon="1.61051">
        <ele>193.36</ele>
        <time>2026-05-25T09:10:16Z</time>
      </trkpt>
      <trkpt lat="43.72118" lon="1.61046">
        <ele>193.84</ele>
        <time>2026-05-25T09:10:21Z</time>
      </trkpt>
      <trkpt lat="43.72117" lon="1.61044">
        <ele>193.84</ele>
        <time>2026-05-25T09:10:22Z</time>
      </trkpt>
      <trkpt lat="43.72116" lon="1.61043">
        <ele>194.32</ele>
        <time>2026-05-25T09:10:23Z</time>
      </trkpt>
      <trkpt lat="43.72113" lon="1.61037">
        <ele>194.32</ele>
        <time>2026-05-25T09:10:28Z</time>
      </trkpt>
      <trkpt lat="43.72113" lon="1.61036">
        <ele>194.8</ele>
        <time>2026-05-25T09:10:29Z</time>
      </trkpt>
      <trkpt lat="43.72112" lon="1.61034">
        <ele>194.8</ele>
        <time>2026-05-25T09:10:30Z</time>
      </trkpt>
      <trkpt lat="43.72111" lon="1.61032">
        <ele>194.8</ele>
        <time>2026-05-25T09:10:31Z</time>
      </trkpt>
      <trkpt lat="43.72103" lon="1.61019">
        <ele>195.77</ele>
        <time>2026-05-25T09:10:43Z</time>
      </trkpt>
      <trkpt lat="43.72099" lon="1.61009">
        <ele>196.25</ele>
        <time>2026-05-25T09:10:51Z</time>
      </trkpt>
      <trkpt lat="43.72098" lon="1.61008">
        <ele>196.25</ele>
        <time>2026-05-25T09:10:52Z</time>
      </trkpt>
      <trkpt lat="43.72097" lon="1.61006">
        <ele>196.73</ele>
        <time>2026-05-25T09:10:53Z</time>
      </trkpt>
      <trkpt lat="43.72086" lon="1.60988">
        <ele>197.69</ele>
        <time>2026-05-25T09:11:06Z</time>
      </trkpt>
      <trkpt lat="43.72085" lon="1.60987">
        <ele>197.69</ele>
        <time>2026-05-25T09:11:07Z</time>
      </trkpt>
      <trkpt lat="43.72084" lon="1.60985">
        <ele>197.69</ele>
        <time>2026-05-25T09:11:08Z</time>
      </trkpt>
      <trkpt lat="43.72083" lon="1.60984">
        <ele>197.69</ele>
        <time>2026-05-25T09:11:09Z</time>
      </trkpt>
      <trkpt lat="43.72082" lon="1.60982">
        <ele>197.69</ele>
        <time>2026-05-25T09:11:10Z</time>
      </trkpt>
      <trkpt lat="43.72081" lon="1.6098">
        <ele>197.69</ele>
        <time>2026-05-25T09:11:11Z</time>
      </trkpt>
      <trkpt lat="43.72078" lon="1.60973">
        <ele>198.17</ele>
        <time>2026-05-25T09:11:17Z</time>
      </trkpt>
      <trkpt lat="43.72077" lon="1.60971">
        <ele>198.17</ele>
        <time>2026-05-25T09:11:18Z</time>
      </trkpt>
      <trkpt lat="43.72077" lon="1.60969">
        <ele>198.17</ele>
        <time>2026-05-25T09:11:19Z</time>
      </trkpt>
      <trkpt lat="43.72071" lon="1.60952">
        <ele>198.65</ele>
        <time>2026-05-25T09:11:31Z</time>
      </trkpt>
      <trkpt lat="43.72065" lon="1.60936">
        <ele>199.13</ele>
        <time>2026-05-25T09:11:42Z</time>
      </trkpt>
      <trkpt lat="43.72065" lon="1.60934">
        <ele>199.13</ele>
        <time>2026-05-25T09:11:43Z</time>
      </trkpt>
      <trkpt lat="43.72064" lon="1.60932">
        <ele>199.13</ele>
        <time>2026-05-25T09:11:44Z</time>
      </trkpt>
      <trkpt lat="43.72064" lon="1.6093">
        <ele>199.13</ele>
        <time>2026-05-25T09:11:45Z</time>
      </trkpt>
      <trkpt lat="43.72063" lon="1.60927">
        <ele>199.13</ele>
        <time>2026-05-25T09:11:46Z</time>
      </trkpt>
      <trkpt lat="43.72063" lon="1.60925">
        <ele>199.13</ele>
        <time>2026-05-25T09:11:47Z</time>
      </trkpt>
      <trkpt lat="43.7206" lon="1.60907">
        <ele>199.13</ele>
        <time>2026-05-25T09:11:59Z</time>
      </trkpt>
      <trkpt lat="43.72059" lon="1.60886">
        <ele>199.13</ele>
        <time>2026-05-25T09:12:12Z</time>
      </trkpt>
      <trkpt lat="43.72058" lon="1.60862">
        <ele>199.13</ele>
        <time>2026-05-25T09:12:25Z</time>
      </trkpt>
      <trkpt lat="43.72059" lon="1.60845">
        <ele>199.13</ele>
        <time>2026-05-25T09:12:36Z</time>
      </trkpt>
      <trkpt lat="43.72058" lon="1.60839">
        <ele>199.13</ele>
        <time>2026-05-25T09:12:40Z</time>
      </trkpt>
      <trkpt lat="43.72058" lon="1.60837">
        <ele>199.13</ele>
        <time>2026-05-25T09:12:41Z</time>
      </trkpt>
      <trkpt lat="43.72058" lon="1.60828">
        <ele>199.13</ele>
        <time>2026-05-25T09:12:47Z</time>
      </trkpt>
      <trkpt lat="43.72058" lon="1.60826">
        <ele>199.13</ele>
        <time>2026-05-25T09:12:48Z</time>
      </trkpt>
      <trkpt lat="43.72057" lon="1.60799">
        <ele>199.61</ele>
        <time>2026-05-25T09:13:02Z</time>
      </trkpt>
      <trkpt lat="43.72057" lon="1.60778">
        <ele>198.17</ele>
        <time>2026-05-25T09:13:14Z</time>
      </trkpt>
      <trkpt lat="43.72057" lon="1.60774">
        <ele>197.69</ele>
        <time>2026-05-25T09:13:17Z</time>
      </trkpt>
      <trkpt lat="43.7205" lon="1.60753">
        <ele>197.69</ele>
        <time>2026-05-25T09:13:28Z</time>
      </trkpt>
      <trkpt lat="43.72049" lon="1.60751">
        <ele>197.69</ele>
        <time>2026-05-25T09:13:29Z</time>
      </trkpt>
      <trkpt lat="43.72048" lon="1.60748">
        <ele>197.69</ele>
        <time>2026-05-25T09:13:30Z</time>
      </trkpt>
      <trkpt lat="43.72047" lon="1.60746">
        <ele>197.69</ele>
        <time>2026-05-25T09:13:31Z</time>
      </trkpt>
      <trkpt lat="43.72047" lon="1.60744">
        <ele>197.69</ele>
        <time>2026-05-25T09:13:32Z</time>
      </trkpt>
      <trkpt lat="43.7204" lon="1.60726">
        <ele>198.17</ele>
        <time>2026-05-25T09:13:43Z</time>
      </trkpt>
      <trkpt lat="43.72037" lon="1.60721">
        <ele>198.17</ele>
        <time>2026-05-25T09:13:48Z</time>
      </trkpt>
      <trkpt lat="43.72036" lon="1.60719">
        <ele>198.17</ele>
        <time>2026-05-25T09:13:49Z</time>
      </trkpt>
      <trkpt lat="43.72036" lon="1.60717">
        <ele>198.17</ele>
        <time>2026-05-25T09:13:50Z</time>
      </trkpt>
      <trkpt lat="43.72028" lon="1.60698">
        <ele>198.17</ele>
        <time>2026-05-25T09:14:02Z</time>
      </trkpt>
      <trkpt lat="43.72023" lon="1.60682">
        <ele>198.17</ele>
        <time>2026-05-25T09:14:13Z</time>
      </trkpt>
      <trkpt lat="43.72017" lon="1.60668">
        <ele>199.61</ele>
        <time>2026-05-25T09:14:24Z</time>
      </trkpt>
      <trkpt lat="43.72011" lon="1.60653">
        <ele>201.05</ele>
        <time>2026-05-25T09:14:37Z</time>
      </trkpt>
      <trkpt lat="43.72011" lon="1.60651">
        <ele>201.05</ele>
        <time>2026-05-25T09:14:38Z</time>
      </trkpt>
      <trkpt lat="43.7201" lon="1.6065">
        <ele>201.05</ele>
        <time>2026-05-25T09:14:39Z</time>
      </trkpt>
      <trkpt lat="43.7201" lon="1.60648">
        <ele>201.05</ele>
        <time>2026-05-25T09:14:40Z</time>
      </trkpt>
      <trkpt lat="43.7201" lon="1.60645">
        <ele>201.05</ele>
        <time>2026-05-25T09:14:41Z</time>
      </trkpt>
      <trkpt lat="43.72009" lon="1.60643">
        <ele>201.05</ele>
        <time>2026-05-25T09:14:42Z</time>
      </trkpt>
      <trkpt lat="43.72001" lon="1.60627">
        <ele>202.01</ele>
        <time>2026-05-25T09:14:54Z</time>
      </trkpt>
      <trkpt lat="43.71997" lon="1.60613">
        <ele>203.46</ele>
        <time>2026-05-25T09:15:05Z</time>
      </trkpt>
      <trkpt lat="43.71997" lon="1.60611">
        <ele>203.46</ele>
        <time>2026-05-25T09:15:06Z</time>
      </trkpt>
      <trkpt lat="43.71997" lon="1.60609">
        <ele>203.46</ele>
        <time>2026-05-25T09:15:07Z</time>
      </trkpt>
      <trkpt lat="43.71996" lon="1.60605">
        <ele>203.94</ele>
        <time>2026-05-25T09:15:11Z</time>
      </trkpt>
      <trkpt lat="43.71996" lon="1.60602">
        <ele>203.94</ele>
        <time>2026-05-25T09:15:13Z</time>
      </trkpt>
      <trkpt lat="43.71994" lon="1.60593">
        <ele>204.9</ele>
        <time>2026-05-25T09:15:20Z</time>
      </trkpt>
      <trkpt lat="43.71993" lon="1.60591">
        <ele>204.9</ele>
        <time>2026-05-25T09:15:21Z</time>
      </trkpt>
      <trkpt lat="43.7199" lon="1.60586">
        <ele>204.9</ele>
        <time>2026-05-25T09:15:26Z</time>
      </trkpt>
      <trkpt lat="43.7199" lon="1.60584">
        <ele>205.86</ele>
        <time>2026-05-25T09:15:27Z</time>
      </trkpt>
      <trkpt lat="43.71979" lon="1.60567">
        <ele>206.82</ele>
        <time>2026-05-25T09:15:40Z</time>
      </trkpt>
      <trkpt lat="43.71979" lon="1.60566">
        <ele>206.82</ele>
        <time>2026-05-25T09:15:41Z</time>
      </trkpt>
      <trkpt lat="43.71976" lon="1.60547">
        <ele>208.74</ele>
        <time>2026-05-25T09:15:55Z</time>
      </trkpt>
      <trkpt lat="43.71975" lon="1.60546">
        <ele>208.74</ele>
        <time>2026-05-25T09:15:56Z</time>
      </trkpt>
      <trkpt lat="43.71975" lon="1.60544">
        <ele>208.74</ele>
        <time>2026-05-25T09:15:57Z</time>
      </trkpt>
      <trkpt lat="43.71974" lon="1.60542">
        <ele>208.74</ele>
        <time>2026-05-25T09:15:58Z</time>
      </trkpt>
      <trkpt lat="43.71972" lon="1.60523">
        <ele>210.67</ele>
        <time>2026-05-25T09:16:12Z</time>
      </trkpt>
      <trkpt lat="43.71973" lon="1.60501">
        <ele>211.63</ele>
        <time>2026-05-25T09:16:25Z</time>
      </trkpt>
      <trkpt lat="43.71975" lon="1.60481">
        <ele>213.07</ele>
        <time>2026-05-25T09:16:38Z</time>
      </trkpt>
      <trkpt lat="43.71976" lon="1.60464">
        <ele>213.07</ele>
        <time>2026-05-25T09:16:50Z</time>
      </trkpt>
      <trkpt lat="43.71977" lon="1.60463">
        <ele>213.07</ele>
        <time>2026-05-25T09:16:51Z</time>
      </trkpt>
      <trkpt lat="43.71977" lon="1.60461">
        <ele>214.03</ele>
        <time>2026-05-25T09:16:52Z</time>
      </trkpt>
      <trkpt lat="43.7198" lon="1.60436">
        <ele>214.99</ele>
        <time>2026-05-25T09:17:08Z</time>
      </trkpt>
      <trkpt lat="43.71984" lon="1.60427">
        <ele>215.95</ele>
        <time>2026-05-25T09:17:15Z</time>
      </trkpt>
      <trkpt lat="43.71985" lon="1.60426">
        <ele>215.95</ele>
        <time>2026-05-25T09:17:16Z</time>
      </trkpt>
      <trkpt lat="43.71992" lon="1.60406">
        <ele>216.91</ele>
        <time>2026-05-25T09:17:30Z</time>
      </trkpt>
      <trkpt lat="43.71999" lon="1.60386">
        <ele>218.84</ele>
        <time>2026-05-25T09:17:46Z</time>
      </trkpt>
      <trkpt lat="43.72006" lon="1.6037">
        <ele>219.8</ele>
        <time>2026-05-25T09:17:59Z</time>
      </trkpt>
      <trkpt lat="43.72007" lon="1.60368">
        <ele>219.8</ele>
        <time>2026-05-25T09:18:00Z</time>
      </trkpt>
      <trkpt lat="43.72013" lon="1.60347">
        <ele>221.24</ele>
        <time>2026-05-25T09:18:14Z</time>
      </trkpt>
      <trkpt lat="43.72014" lon="1.60345">
        <ele>221.24</ele>
        <time>2026-05-25T09:18:16Z</time>
      </trkpt>
      <trkpt lat="43.72014" lon="1.60343">
        <ele>221.24</ele>
        <time>2026-05-25T09:18:17Z</time>
      </trkpt>
      <trkpt lat="43.72015" lon="1.60342">
        <ele>221.24</ele>
        <time>2026-05-25T09:18:18Z</time>
      </trkpt>
      <trkpt lat="43.72016" lon="1.60339">
        <ele>221.24</ele>
        <time>2026-05-25T09:18:19Z</time>
      </trkpt>
      <trkpt lat="43.72016" lon="1.60337">
        <ele>221.24</ele>
        <time>2026-05-25T09:18:20Z</time>
      </trkpt>
      <trkpt lat="43.72023" lon="1.60318">
        <ele>222.2</ele>
        <time>2026-05-25T09:18:33Z</time>
      </trkpt>
      <trkpt lat="43.72028" lon="1.60295">
        <ele>223.64</ele>
        <time>2026-05-25T09:18:47Z</time>
      </trkpt>
      <trkpt lat="43.7203" lon="1.6027">
        <ele>225.09</ele>
        <time>2026-05-25T09:19:02Z</time>
      </trkpt>
      <trkpt lat="43.72029" lon="1.60262">
        <ele>225.57</ele>
        <time>2026-05-25T09:19:08Z</time>
      </trkpt>
      <trkpt lat="43.72029" lon="1.6026">
        <ele>225.57</ele>
        <time>2026-05-25T09:19:09Z</time>
      </trkpt>
      <trkpt lat="43.72032" lon="1.60253">
        <ele>226.05</ele>
        <time>2026-05-25T09:19:15Z</time>
      </trkpt>
      <trkpt lat="43.72032" lon="1.60251">
        <ele>226.05</ele>
        <time>2026-05-25T09:19:16Z</time>
      </trkpt>
      <trkpt lat="43.72032" lon="1.60249">
        <ele>226.05</ele>
        <time>2026-05-25T09:19:17Z</time>
      </trkpt>
      <trkpt lat="43.72033" lon="1.60248">
        <ele>226.05</ele>
        <time>2026-05-25T09:19:18Z</time>
      </trkpt>
      <trkpt lat="43.72038" lon="1.60233">
        <ele>226.53</ele>
        <time>2026-05-25T09:19:30Z</time>
      </trkpt>
      <trkpt lat="43.72044" lon="1.60218">
        <ele>227.01</ele>
        <time>2026-05-25T09:19:43Z</time>
      </trkpt>
      <trkpt lat="43.72046" lon="1.60211">
        <ele>227.49</ele>
        <time>2026-05-25T09:19:47Z</time>
      </trkpt>
      <trkpt lat="43.72052" lon="1.60197">
        <ele>227.49</ele>
        <time>2026-05-25T09:19:57Z</time>
      </trkpt>
      <trkpt lat="43.72059" lon="1.60176">
        <ele>227.97</ele>
        <time>2026-05-25T09:20:10Z</time>
      </trkpt>
      <trkpt lat="43.72066" lon="1.60159">
        <ele>227.97</ele>
        <time>2026-05-25T09:20:21Z</time>
      </trkpt>
      <trkpt lat="43.72074" lon="1.60142">
        <ele>227.97</ele>
        <time>2026-05-25T09:20:33Z</time>
      </trkpt>
      <trkpt lat="43.72082" lon="1.60124">
        <ele>226.53</ele>
        <time>2026-05-25T09:20:45Z</time>
      </trkpt>
      <trkpt lat="43.7209" lon="1.60101">
        <ele>225.09</ele>
        <time>2026-05-25T09:20:58Z</time>
      </trkpt>
      <trkpt lat="43.72097" lon="1.60082">
        <ele>224.61</ele>
        <time>2026-05-25T09:21:10Z</time>
      </trkpt>
      <trkpt lat="43.72108" lon="1.60063">
        <ele>222.2</ele>
        <time>2026-05-25T09:21:25Z</time>
      </trkpt>
      <trkpt lat="43.72119" lon="1.60043">
        <ele>220.28</ele>
        <time>2026-05-25T09:21:37Z</time>
      </trkpt>
      <trkpt lat="43.72119" lon="1.60042">
        <ele>220.28</ele>
        <time>2026-05-25T09:21:38Z</time>
      </trkpt>
      <trkpt lat="43.72111" lon="1.60024">
        <ele>219.8</ele>
        <time>2026-05-25T09:21:49Z</time>
      </trkpt>
      <trkpt lat="43.72102" lon="1.60011">
        <ele>219.8</ele>
        <time>2026-05-25T09:22:00Z</time>
      </trkpt>
      <trkpt lat="43.721" lon="1.60008">
        <ele>220.76</ele>
        <time>2026-05-25T09:22:03Z</time>
      </trkpt>
      <trkpt lat="43.72089" lon="1.59998">
        <ele>221.72</ele>
        <time>2026-05-25T09:22:15Z</time>
      </trkpt>
      <trkpt lat="43.72083" lon="1.59994">
        <ele>222.68</ele>
        <time>2026-05-25T09:22:22Z</time>
      </trkpt>
      <trkpt lat="43.72079" lon="1.59994">
        <ele>223.16</ele>
        <time>2026-05-25T09:22:38Z</time>
      </trkpt>
      <trkpt lat="43.72072" lon="1.5999">
        <ele>223.64</ele>
        <time>2026-05-25T09:23:05Z</time>
      </trkpt>
      <trkpt lat="43.72064" lon="1.59989">
        <ele>225.57</ele>
        <time>2026-05-25T09:23:14Z</time>
      </trkpt>
      <trkpt lat="43.72049" lon="1.59984">
        <ele>226.53</ele>
        <time>2026-05-25T09:23:28Z</time>
      </trkpt>
      <trkpt lat="43.72035" lon="1.59978">
        <ele>227.97</ele>
        <time>2026-05-25T09:23:41Z</time>
      </trkpt>
      <trkpt lat="43.72023" lon="1.59972">
        <ele>228.93</ele>
        <time>2026-05-25T09:23:54Z</time>
      </trkpt>
      <trkpt lat="43.7201" lon="1.59965">
        <ele>229.89</ele>
        <time>2026-05-25T09:24:07Z</time>
      </trkpt>
      <trkpt lat="43.72006" lon="1.59963">
        <ele>229.89</ele>
        <time>2026-05-25T09:24:29Z</time>
      </trkpt>
      <trkpt lat="43.72002" lon="1.59965">
        <ele>229.89</ele>
        <time>2026-05-25T09:24:33Z</time>
      </trkpt>
      <trkpt lat="43.71991" lon="1.59987">
        <ele>229.89</ele>
        <time>2026-05-25T09:24:47Z</time>
      </trkpt>
      <trkpt lat="43.71984" lon="1.60007">
        <ele>229.89</ele>
        <time>2026-05-25T09:25:00Z</time>
      </trkpt>
      <trkpt lat="43.71983" lon="1.60008">
        <ele>229.89</ele>
        <time>2026-05-25T09:25:01Z</time>
      </trkpt>
      <trkpt lat="43.71978" lon="1.60006">
        <ele>229.89</ele>
        <time>2026-05-25T09:25:05Z</time>
      </trkpt>
      <trkpt lat="43.7197" lon="1.59991">
        <ele>227.97</ele>
        <time>2026-05-25T09:25:17Z</time>
      </trkpt>
      <trkpt lat="43.71963" lon="1.5998">
        <ele>226.53</ele>
        <time>2026-05-25T09:25:26Z</time>
      </trkpt>
      <trkpt lat="43.71953" lon="1.5996">
        <ele>224.12</ele>
        <time>2026-05-25T09:25:40Z</time>
      </trkpt>
      <trkpt lat="43.71942" lon="1.59943">
        <ele>221.72</ele>
        <time>2026-05-25T09:25:53Z</time>
      </trkpt>
      <trkpt lat="43.71934" lon="1.59924">
        <ele>219.32</ele>
        <time>2026-05-25T09:26:06Z</time>
      </trkpt>
      <trkpt lat="43.71927" lon="1.59905">
        <ele>216.91</ele>
        <time>2026-05-25T09:26:18Z</time>
      </trkpt>
      <trkpt lat="43.71921" lon="1.59887">
        <ele>214.99</ele>
        <time>2026-05-25T09:26:30Z</time>
      </trkpt>
      <trkpt lat="43.71916" lon="1.59867">
        <ele>212.59</ele>
        <time>2026-05-25T09:26:43Z</time>
      </trkpt>
      <trkpt lat="43.71912" lon="1.59847">
        <ele>210.19</ele>
        <time>2026-05-25T09:26:55Z</time>
      </trkpt>
      <trkpt lat="43.71904" lon="1.5984">
        <ele>209.7</ele>
        <time>2026-05-25T09:27:06Z</time>
      </trkpt>
      <trkpt lat="43.71893" lon="1.59843">
        <ele>209.7</ele>
        <time>2026-05-25T09:27:17Z</time>
      </trkpt>
      <trkpt lat="43.71891" lon="1.59842">
        <ele>209.22</ele>
        <time>2026-05-25T09:27:34Z</time>
      </trkpt>
      <trkpt lat="43.71894" lon="1.59845">
        <ele>209.22</ele>
        <time>2026-05-25T09:27:59Z</time>
      </trkpt>
      <trkpt lat="43.71897" lon="1.59848">
        <ele>209.22</ele>
        <time>2026-05-25T09:28:03Z</time>
      </trkpt>
      <trkpt lat="43.71902" lon="1.59845">
        <ele>209.22</ele>
        <time>2026-05-25T09:28:07Z</time>
      </trkpt>
      <trkpt lat="43.71907" lon="1.59837">
        <ele>209.22</ele>
        <time>2026-05-25T09:28:13Z</time>
      </trkpt>
      <trkpt lat="43.71902" lon="1.59815">
        <ele>206.34</ele>
        <time>2026-05-25T09:28:26Z</time>
      </trkpt>
      <trkpt lat="43.71895" lon="1.59792">
        <ele>202.98</ele>
        <time>2026-05-25T09:28:41Z</time>
      </trkpt>
      <trkpt lat="43.7189" lon="1.59779">
        <ele>202.01</ele>
        <time>2026-05-25T09:28:49Z</time>
      </trkpt>
      <trkpt lat="43.7188" lon="1.59758">
        <ele>198.65</ele>
        <time>2026-05-25T09:29:05Z</time>
      </trkpt>
      <trkpt lat="43.71869" lon="1.59737">
        <ele>196.25</ele>
        <time>2026-05-25T09:29:19Z</time>
      </trkpt>
      <trkpt lat="43.71862" lon="1.59729">
        <ele>194.8</ele>
        <time>2026-05-25T09:29:30Z</time>
      </trkpt>
      <trkpt lat="43.71852" lon="1.59718">
        <ele>193.36</ele>
        <time>2026-05-25T09:29:43Z</time>
      </trkpt>
      <trkpt lat="43.7184" lon="1.59702">
        <ele>190.48</ele>
        <time>2026-05-25T09:29:56Z</time>
      </trkpt>
      <trkpt lat="43.71826" lon="1.5969">
        <ele>189.52</ele>
        <time>2026-05-25T09:30:08Z</time>
      </trkpt>
      <trkpt lat="43.71823" lon="1.59688">
        <ele>189.52</ele>
        <time>2026-05-25T09:30:11Z</time>
      </trkpt>
      <trkpt lat="43.71815" lon="1.59673">
        <ele>188.08</ele>
        <time>2026-05-25T09:30:25Z</time>
      </trkpt>
      <trkpt lat="43.71814" lon="1.59673">
        <ele>188.08</ele>
        <time>2026-05-25T09:30:56Z</time>
      </trkpt>
      <trkpt lat="43.71813" lon="1.5967">
        <ele>188.08</ele>
        <time>2026-05-25T09:31:02Z</time>
      </trkpt>
      <trkpt lat="43.71815" lon="1.59664">
        <ele>188.08</ele>
        <time>2026-05-25T09:31:06Z</time>
      </trkpt>
      <trkpt lat="43.71827" lon="1.5964">
        <ele>187.59</ele>
        <time>2026-05-25T09:31:24Z</time>
      </trkpt>
      <trkpt lat="43.71827" lon="1.59632">
        <ele>189.04</ele>
        <time>2026-05-25T09:31:29Z</time>
      </trkpt>
      <trkpt lat="43.71825" lon="1.59611">
        <ele>190.48</ele>
        <time>2026-05-25T09:31:42Z</time>
      </trkpt>
      <trkpt lat="43.71825" lon="1.59607">
        <ele>190.96</ele>
        <time>2026-05-25T09:31:46Z</time>
      </trkpt>
      <trkpt lat="43.71825" lon="1.59593">
        <ele>192.4</ele>
        <time>2026-05-25T09:31:55Z</time>
      </trkpt>
      <trkpt lat="43.71821" lon="1.5958">
        <ele>193.36</ele>
        <time>2026-05-25T09:32:06Z</time>
      </trkpt>
      <trkpt lat="43.7182" lon="1.59577">
        <ele>193.84</ele>
        <time>2026-05-25T09:32:09Z</time>
      </trkpt>
      <trkpt lat="43.71817" lon="1.59573">
        <ele>194.8</ele>
        <time>2026-05-25T09:32:14Z</time>
      </trkpt>
      <trkpt lat="43.71815" lon="1.59558">
        <ele>196.25</ele>
        <time>2026-05-25T09:32:26Z</time>
      </trkpt>
      <trkpt lat="43.71813" lon="1.59545">
        <ele>197.69</ele>
        <time>2026-05-25T09:32:37Z</time>
      </trkpt>
      <trkpt lat="43.71814" lon="1.59532">
        <ele>198.65</ele>
        <time>2026-05-25T09:32:47Z</time>
      </trkpt>
      <trkpt lat="43.71811" lon="1.5952">
        <ele>199.61</ele>
        <time>2026-05-25T09:32:58Z</time>
      </trkpt>
      <trkpt lat="43.71809" lon="1.59506">
        <ele>201.53</ele>
        <time>2026-05-25T09:33:09Z</time>
      </trkpt>
      <trkpt lat="43.71808" lon="1.59502">
        <ele>202.01</ele>
        <time>2026-05-25T09:33:13Z</time>
      </trkpt>
      <trkpt lat="43.71806" lon="1.59497">
        <ele>202.49</ele>
        <time>2026-05-25T09:33:18Z</time>
      </trkpt>
      <trkpt lat="43.71803" lon="1.5949">
        <ele>202.98</ele>
        <time>2026-05-25T09:33:23Z</time>
      </trkpt>
      <trkpt lat="43.71801" lon="1.59483">
        <ele>203.94</ele>
        <time>2026-05-25T09:33:29Z</time>
      </trkpt>
      <trkpt lat="43.718" lon="1.59476">
        <ele>204.9</ele>
        <time>2026-05-25T09:33:34Z</time>
      </trkpt>
      <trkpt lat="43.71798" lon="1.59463">
        <ele>206.82</ele>
        <time>2026-05-25T09:33:45Z</time>
      </trkpt>
      <trkpt lat="43.71798" lon="1.59458">
        <ele>206.34</ele>
        <time>2026-05-25T09:33:49Z</time>
      </trkpt>
      <trkpt lat="43.71793" lon="1.59452">
        <ele>207.3</ele>
        <time>2026-05-25T09:34:03Z</time>
      </trkpt>
      <trkpt lat="43.71791" lon="1.5945">
        <ele>208.26</ele>
        <time>2026-05-25T09:34:32Z</time>
      </trkpt>
      <trkpt lat="43.71791" lon="1.59448">
        <ele>208.26</ele>
        <time>2026-05-25T09:34:58Z</time>
      </trkpt>
      <trkpt lat="43.71791" lon="1.59444">
        <ele>208.26</ele>
        <time>2026-05-25T09:35:02Z</time>
      </trkpt>
      <trkpt lat="43.7179" lon="1.59435">
        <ele>208.74</ele>
        <time>2026-05-25T09:35:11Z</time>
      </trkpt>
      <trkpt lat="43.71789" lon="1.59432">
        <ele>209.7</ele>
        <time>2026-05-25T09:35:14Z</time>
      </trkpt>
      <trkpt lat="43.71786" lon="1.59435">
        <ele>209.7</ele>
        <time>2026-05-25T09:35:26Z</time>
      </trkpt>
      <trkpt lat="43.71786" lon="1.59434">
        <ele>208.26</ele>
        <time>2026-05-25T09:35:50Z</time>
      </trkpt>
      <trkpt lat="43.71784" lon="1.59434">
        <ele>208.26</ele>
        <time>2026-05-25T09:36:01Z</time>
      </trkpt>
      <trkpt lat="43.71788" lon="1.59431">
        <ele>209.7</ele>
        <time>2026-05-25T09:36:10Z</time>
      </trkpt>
      <trkpt lat="43.71789" lon="1.59429">
        <ele>209.7</ele>
        <time>2026-05-25T09:36:13Z</time>
      </trkpt>
      <trkpt lat="43.71787" lon="1.59417">
        <ele>211.15</ele>
        <time>2026-05-25T09:36:23Z</time>
      </trkpt>
      <trkpt lat="43.71785" lon="1.59408">
        <ele>211.63</ele>
        <time>2026-05-25T09:36:29Z</time>
      </trkpt>
      <trkpt lat="43.71784" lon="1.59395">
        <ele>213.55</ele>
        <time>2026-05-25T09:36:39Z</time>
      </trkpt>
      <trkpt lat="43.71781" lon="1.59388">
        <ele>214.51</ele>
        <time>2026-05-25T09:36:45Z</time>
      </trkpt>
      <trkpt lat="43.71781" lon="1.59386">
        <ele>214.99</ele>
        <time>2026-05-25T09:36:47Z</time>
      </trkpt>
      <trkpt lat="43.71778" lon="1.59373">
        <ele>215.95</ele>
        <time>2026-05-25T09:36:58Z</time>
      </trkpt>
      <trkpt lat="43.71778" lon="1.59368">
        <ele>216.91</ele>
        <time>2026-05-25T09:37:02Z</time>
      </trkpt>
      <trkpt lat="43.71777" lon="1.5936">
        <ele>217.4</ele>
        <time>2026-05-25T09:37:08Z</time>
      </trkpt>
      <trkpt lat="43.71776" lon="1.59353">
        <ele>218.36</ele>
        <time>2026-05-25T09:37:14Z</time>
      </trkpt>
      <trkpt lat="43.71775" lon="1.59346">
        <ele>218.84</ele>
        <time>2026-05-25T09:37:19Z</time>
      </trkpt>
      <trkpt lat="43.71774" lon="1.59344">
        <ele>219.32</ele>
        <time>2026-05-25T09:37:21Z</time>
      </trkpt>
      <trkpt lat="43.71773" lon="1.5933">
        <ele>220.76</ele>
        <time>2026-05-25T09:37:32Z</time>
      </trkpt>
      <trkpt lat="43.71772" lon="1.59317">
        <ele>222.2</ele>
        <time>2026-05-25T09:37:42Z</time>
      </trkpt>
      <trkpt lat="43.71771" lon="1.59303">
        <ele>223.64</ele>
        <time>2026-05-25T09:37:53Z</time>
      </trkpt>
      <trkpt lat="43.71767" lon="1.59287">
        <ele>225.57</ele>
        <time>2026-05-25T09:38:06Z</time>
      </trkpt>
      <trkpt lat="43.71763" lon="1.59271">
        <ele>227.49</ele>
        <time>2026-05-25T09:38:18Z</time>
      </trkpt>
      <trkpt lat="43.71761" lon="1.59263">
        <ele>227.97</ele>
        <time>2026-05-25T09:38:24Z</time>
      </trkpt>
      <trkpt lat="43.7176" lon="1.59253">
        <ele>229.41</ele>
        <time>2026-05-25T09:38:31Z</time>
      </trkpt>
      <trkpt lat="43.71756" lon="1.59236">
        <ele>231.33</ele>
        <time>2026-05-25T09:38:44Z</time>
      </trkpt>
      <trkpt lat="43.71755" lon="1.59223">
        <ele>232.78</ele>
        <time>2026-05-25T09:38:54Z</time>
      </trkpt>
      <trkpt lat="43.71754" lon="1.59219">
        <ele>233.26</ele>
        <time>2026-05-25T09:39:09Z</time>
      </trkpt>
      <trkpt lat="43.71754" lon="1.59213">
        <ele>233.26</ele>
        <time>2026-05-25T09:39:26Z</time>
      </trkpt>
      <trkpt lat="43.71752" lon="1.59213">
        <ele>233.26</ele>
        <time>2026-05-25T09:39:34Z</time>
      </trkpt>
      <trkpt lat="43.71746" lon="1.592">
        <ele>233.74</ele>
        <time>2026-05-25T09:39:48Z</time>
      </trkpt>
      <trkpt lat="43.71746" lon="1.59201">
        <ele>234.22</ele>
        <time>2026-05-25T09:39:55Z</time>
      </trkpt>
      <trkpt lat="43.71749" lon="1.59208">
        <ele>233.26</ele>
        <time>2026-05-25T09:40:00Z</time>
      </trkpt>
      <trkpt lat="43.71753" lon="1.59214">
        <ele>232.78</ele>
        <time>2026-05-25T09:40:08Z</time>
      </trkpt>
      <trkpt lat="43.7177" lon="1.592">
        <ele>232.78</ele>
        <time>2026-05-25T09:40:24Z</time>
      </trkpt>
      <trkpt lat="43.71772" lon="1.59198">
        <ele>232.78</ele>
        <time>2026-05-25T09:40:27Z</time>
      </trkpt>
      <trkpt lat="43.71777" lon="1.59194">
        <ele>232.78</ele>
        <time>2026-05-25T09:40:31Z</time>
      </trkpt>
      <trkpt lat="43.71781" lon="1.59187">
        <ele>233.74</ele>
        <time>2026-05-25T09:40:37Z</time>
      </trkpt>
      <trkpt lat="43.71783" lon="1.59174">
        <ele>233.74</ele>
        <time>2026-05-25T09:40:44Z</time>
      </trkpt>
      <trkpt lat="43.71783" lon="1.5916">
        <ele>233.74</ele>
        <time>2026-05-25T09:40:52Z</time>
      </trkpt>
      <trkpt lat="43.7178" lon="1.59152">
        <ele>233.74</ele>
        <time>2026-05-25T09:40:56Z</time>
      </trkpt>
      <trkpt lat="43.71779" lon="1.5915">
        <ele>233.74</ele>
        <time>2026-05-25T09:40:57Z</time>
      </trkpt>
      <trkpt lat="43.71778" lon="1.59146">
        <ele>234.22</ele>
        <time>2026-05-25T09:41:01Z</time>
      </trkpt>
      <trkpt lat="43.71777" lon="1.59139">
        <ele>234.22</ele>
        <time>2026-05-25T09:41:14Z</time>
      </trkpt>
      <trkpt lat="43.71775" lon="1.59135">
        <ele>234.22</ele>
        <time>2026-05-25T09:41:30Z</time>
      </trkpt>
      <trkpt lat="43.71774" lon="1.59133">
        <ele>234.22</ele>
        <time>2026-05-25T09:41:31Z</time>
      </trkpt>
      <trkpt lat="43.71773" lon="1.59131">
        <ele>234.22</ele>
        <time>2026-05-25T09:41:32Z</time>
      </trkpt>
      <trkpt lat="43.71773" lon="1.59129">
        <ele>234.22</ele>
        <time>2026-05-25T09:41:33Z</time>
      </trkpt>
      <trkpt lat="43.71773" lon="1.59127">
        <ele>234.22</ele>
        <time>2026-05-25T09:41:34Z</time>
      </trkpt>
      <trkpt lat="43.7177" lon="1.59118">
        <ele>234.7</ele>
        <time>2026-05-25T09:41:39Z</time>
      </trkpt>
      <trkpt lat="43.7177" lon="1.59117">
        <ele>234.7</ele>
        <time>2026-05-25T09:41:40Z</time>
      </trkpt>
      <trkpt lat="43.71767" lon="1.59102">
        <ele>234.7</ele>
        <time>2026-05-25T09:41:53Z</time>
      </trkpt>
      <trkpt lat="43.71762" lon="1.59097">
        <ele>234.7</ele>
        <time>2026-05-25T09:42:06Z</time>
      </trkpt>
      <trkpt lat="43.7176" lon="1.59099">
        <ele>234.7</ele>
        <time>2026-05-25T09:42:11Z</time>
      </trkpt>
      <trkpt lat="43.71734" lon="1.59115">
        <ele>234.7</ele>
        <time>2026-05-25T09:42:29Z</time>
      </trkpt>
      <trkpt lat="43.71723" lon="1.59113">
        <ele>234.7</ele>
        <time>2026-05-25T09:42:43Z</time>
      </trkpt>
      <trkpt lat="43.7172" lon="1.5911">
        <ele>234.7</ele>
        <time>2026-05-25T09:42:58Z</time>
      </trkpt>
      <trkpt lat="43.71721" lon="1.5911">
        <ele>234.7</ele>
        <time>2026-05-25T09:43:23Z</time>
      </trkpt>
      <trkpt lat="43.71718" lon="1.59112">
        <ele>235.18</ele>
        <time>2026-05-25T09:43:41Z</time>
      </trkpt>
      <trkpt lat="43.71716" lon="1.59118">
        <ele>235.18</ele>
        <time>2026-05-25T09:44:14Z</time>
      </trkpt>
      <trkpt lat="43.71719" lon="1.59111">
        <ele>235.18</ele>
        <time>2026-05-25T09:44:44Z</time>
      </trkpt>
      <trkpt lat="43.71717" lon="1.59109">
        <ele>235.18</ele>
        <time>2026-05-25T09:45:13Z</time>
      </trkpt>
      <trkpt lat="43.71717" lon="1.59111">
        <ele>235.18</ele>
        <time>2026-05-25T09:45:45Z</time>
      </trkpt>
      <trkpt lat="43.71718" lon="1.59111">
        <ele>235.18</ele>
        <time>2026-05-25T09:46:18Z</time>
      </trkpt>
      <trkpt lat="43.71719" lon="1.59111">
        <ele>233.74</ele>
        <time>2026-05-25T09:46:31Z</time>
      </trkpt>
      <trkpt lat="43.71721" lon="1.59107">
        <ele>233.74</ele>
        <time>2026-05-25T09:47:13Z</time>
      </trkpt>
      <trkpt lat="43.71719" lon="1.59113">
        <ele>233.74</ele>
        <time>2026-05-25T09:47:46Z</time>
      </trkpt>
      <trkpt lat="43.7172" lon="1.5911">
        <ele>233.26</ele>
        <time>2026-05-25T09:48:25Z</time>
      </trkpt>
      <trkpt lat="43.7172" lon="1.59107">
        <ele>234.7</ele>
        <time>2026-05-25T09:49:00Z</time>
      </trkpt>
      <trkpt lat="43.71718" lon="1.59118">
        <ele>234.7</ele>
        <time>2026-05-25T09:49:28Z</time>
      </trkpt>
      <trkpt lat="43.71718" lon="1.59115">
        <ele>234.7</ele>
        <time>2026-05-25T09:49:54Z</time>
      </trkpt>
      <trkpt lat="43.71718" lon="1.59115">
        <ele>234.7</ele>
        <time>2026-05-25T09:50:16Z</time>
      </trkpt>
      <trkpt lat="43.71718" lon="1.59112">
        <ele>234.7</ele>
        <time>2026-05-25T09:50:43Z</time>
      </trkpt>
      <trkpt lat="43.71717" lon="1.59115">
        <ele>233.74</ele>
        <time>2026-05-25T09:51:19Z</time>
      </trkpt>
      <trkpt lat="43.71719" lon="1.59113">
        <ele>233.74</ele>
        <time>2026-05-25T09:51:46Z</time>
      </trkpt>
      <trkpt lat="43.71719" lon="1.59109">
        <ele>233.74</ele>
        <time>2026-05-25T09:52:13Z</time>
      </trkpt>
      <trkpt lat="43.71725" lon="1.59112">
        <ele>233.74</ele>
        <time>2026-05-25T09:52:39Z</time>
      </trkpt>
      <trkpt lat="43.71725" lon="1.59112">
        <ele>233.74</ele>
        <time>2026-05-25T09:53:06Z</time>
      </trkpt>
      <trkpt lat="43.71723" lon="1.5911">
        <ele>233.74</ele>
        <time>2026-05-25T09:53:29Z</time>
      </trkpt>
      <trkpt lat="43.71721" lon="1.59111">
        <ele>233.74</ele>
        <time>2026-05-25T09:53:51Z</time>
      </trkpt>
      <trkpt lat="43.71722" lon="1.59114">
        <ele>233.74</ele>
        <time>2026-05-25T09:54:23Z</time>
      </trkpt>
      <trkpt lat="43.71719" lon="1.59111">
        <ele>233.74</ele>
        <time>2026-05-25T09:55:00Z</time>
      </trkpt>
      <trkpt lat="43.71717" lon="1.59111">
        <ele>233.74</ele>
        <time>2026-05-25T09:55:35Z</time>
      </trkpt>
      <trkpt lat="43.71719" lon="1.59109">
        <ele>233.74</ele>
        <time>2026-05-25T09:56:15Z</time>
      </trkpt>
      <trkpt lat="43.71717" lon="1.59112">
        <ele>233.74</ele>
        <time>2026-05-25T09:56:51Z</time>
      </trkpt>
      <trkpt lat="43.71722" lon="1.59111">
        <ele>234.7</ele>
        <time>2026-05-25T09:57:14Z</time>
      </trkpt>
      <trkpt lat="43.71725" lon="1.59112">
        <ele>235.66</ele>
        <time>2026-05-25T09:57:30Z</time>
      </trkpt>
      <trkpt lat="43.71732" lon="1.59119">
        <ele>235.66</ele>
        <time>2026-05-25T09:57:50Z</time>
      </trkpt>
      <trkpt lat="43.71726" lon="1.5911">
        <ele>234.7</ele>
        <time>2026-05-25T09:59:25Z</time>
      </trkpt>
      <trkpt lat="43.71722" lon="1.59108">
        <ele>234.7</ele>
        <time>2026-05-25T09:59:48Z</time>
      </trkpt>
      <trkpt lat="43.71719" lon="1.59115">
        <ele>235.18</ele>
        <time>2026-05-25T09:59:55Z</time>
      </trkpt>
      <trkpt lat="43.71706" lon="1.59132">
        <ele>235.18</ele>
        <time>2026-05-25T10:00:09Z</time>
      </trkpt>
      <trkpt lat="43.71699" lon="1.59146">
        <ele>235.66</ele>
        <time>2026-05-25T10:00:22Z</time>
      </trkpt>
      <trkpt lat="43.71697" lon="1.59154">
        <ele>235.66</ele>
        <time>2026-05-25T10:00:42Z</time>
      </trkpt>
      <trkpt lat="43.71694" lon="1.59161">
        <ele>236.14</ele>
        <time>2026-05-25T10:01:02Z</time>
      </trkpt>
      <trkpt lat="43.71667" lon="1.59181">
        <ele>236.62</ele>
        <time>2026-05-25T10:01:16Z</time>
      </trkpt>
      <trkpt lat="43.71662" lon="1.59191">
        <ele>235.66</ele>
        <time>2026-05-25T10:01:22Z</time>
      </trkpt>
      <trkpt lat="43.71649" lon="1.5921">
        <ele>235.66</ele>
        <time>2026-05-25T10:01:38Z</time>
      </trkpt>
      <trkpt lat="43.71643" lon="1.59222">
        <ele>234.22</ele>
        <time>2026-05-25T10:01:52Z</time>
      </trkpt>
      <trkpt lat="43.71644" lon="1.59221">
        <ele>234.22</ele>
        <time>2026-05-25T10:02:00Z</time>
      </trkpt>
      <trkpt lat="43.71658" lon="1.592">
        <ele>235.18</ele>
        <time>2026-05-25T10:02:18Z</time>
      </trkpt>
      <trkpt lat="43.71663" lon="1.59189">
        <ele>236.14</ele>
        <time>2026-05-25T10:02:26Z</time>
      </trkpt>
      <trkpt lat="43.71654" lon="1.59168">
        <ele>235.18</ele>
        <time>2026-05-25T10:02:42Z</time>
      </trkpt>
      <trkpt lat="43.71638" lon="1.59148">
        <ele>233.26</ele>
        <time>2026-05-25T10:02:59Z</time>
      </trkpt>
      <trkpt lat="43.7163" lon="1.59117">
        <ele>231.33</ele>
        <time>2026-05-25T10:03:17Z</time>
      </trkpt>
      <trkpt lat="43.7163" lon="1.59089">
        <ele>230.85</ele>
        <time>2026-05-25T10:03:32Z</time>
      </trkpt>
      <trkpt lat="43.71632" lon="1.59062">
        <ele>229.89</ele>
        <time>2026-05-25T10:03:47Z</time>
      </trkpt>
      <trkpt lat="43.71637" lon="1.59054">
        <ele>229.89</ele>
        <time>2026-05-25T10:03:51Z</time>
      </trkpt>
      <trkpt lat="43.71657" lon="1.59034">
        <ele>231.33</ele>
        <time>2026-05-25T10:04:10Z</time>
      </trkpt>
      <trkpt lat="43.71664" lon="1.59016">
        <ele>232.3</ele>
        <time>2026-05-25T10:04:23Z</time>
      </trkpt>
      <trkpt lat="43.71666" lon="1.59003">
        <ele>232.3</ele>
        <time>2026-05-25T10:04:30Z</time>
      </trkpt>
      <trkpt lat="43.71665" lon="1.58997">
        <ele>232.3</ele>
        <time>2026-05-25T10:04:35Z</time>
      </trkpt>
      <trkpt lat="43.71663" lon="1.58997">
        <ele>232.3</ele>
        <time>2026-05-25T10:04:37Z</time>
      </trkpt>
      <trkpt lat="43.71655" lon="1.5898">
        <ele>232.3</ele>
        <time>2026-05-25T10:04:50Z</time>
      </trkpt>
      <trkpt lat="43.71657" lon="1.58956">
        <ele>232.3</ele>
        <time>2026-05-25T10:05:04Z</time>
      </trkpt>
      <trkpt lat="43.71658" lon="1.58943">
        <ele>232.3</ele>
        <time>2026-05-25T10:05:13Z</time>
      </trkpt>
      <trkpt lat="43.71645" lon="1.58925">
        <ele>230.85</ele>
        <time>2026-05-25T10:05:25Z</time>
      </trkpt>
      <trkpt lat="43.71646" lon="1.58917">
        <ele>230.37</ele>
        <time>2026-05-25T10:05:29Z</time>
      </trkpt>
      <trkpt lat="43.71656" lon="1.58891">
        <ele>229.41</ele>
        <time>2026-05-25T10:05:45Z</time>
      </trkpt>
      <trkpt lat="43.7166" lon="1.58884">
        <ele>228.45</ele>
        <time>2026-05-25T10:05:50Z</time>
      </trkpt>
      <trkpt lat="43.71662" lon="1.58874">
        <ele>228.45</ele>
        <time>2026-05-25T10:05:55Z</time>
      </trkpt>
      <trkpt lat="43.71669" lon="1.58861">
        <ele>227.97</ele>
        <time>2026-05-25T10:06:04Z</time>
      </trkpt>
      <trkpt lat="43.71677" lon="1.5884">
        <ele>226.05</ele>
        <time>2026-05-25T10:06:17Z</time>
      </trkpt>
      <trkpt lat="43.71677" lon="1.58832">
        <ele>226.05</ele>
        <time>2026-05-25T10:06:21Z</time>
      </trkpt>
      <trkpt lat="43.71668" lon="1.58823">
        <ele>225.57</ele>
        <time>2026-05-25T10:06:33Z</time>
      </trkpt>
      <trkpt lat="43.71663" lon="1.58822">
        <ele>225.57</ele>
        <time>2026-05-25T10:06:36Z</time>
      </trkpt>
      <trkpt lat="43.71662" lon="1.5882">
        <ele>225.57</ele>
        <time>2026-05-25T10:06:37Z</time>
      </trkpt>
      <trkpt lat="43.71641" lon="1.58818">
        <ele>224.12</ele>
        <time>2026-05-25T10:06:53Z</time>
      </trkpt>
      <trkpt lat="43.71636" lon="1.5882">
        <ele>224.12</ele>
        <time>2026-05-25T10:06:58Z</time>
      </trkpt>
      <trkpt lat="43.71611" lon="1.58836">
        <ele>222.2</ele>
        <time>2026-05-25T10:07:14Z</time>
      </trkpt>
      <trkpt lat="43.71596" lon="1.58858">
        <ele>221.72</ele>
        <time>2026-05-25T10:07:29Z</time>
      </trkpt>
      <trkpt lat="43.71595" lon="1.58861">
        <ele>221.24</ele>
        <time>2026-05-25T10:07:32Z</time>
      </trkpt>
      <trkpt lat="43.71594" lon="1.58863">
        <ele>221.24</ele>
        <time>2026-05-25T10:07:33Z</time>
      </trkpt>
      <trkpt lat="43.71593" lon="1.58864">
        <ele>221.24</ele>
        <time>2026-05-25T10:07:34Z</time>
      </trkpt>
      <trkpt lat="43.71586" lon="1.58876">
        <ele>220.28</ele>
        <time>2026-05-25T10:07:42Z</time>
      </trkpt>
      <trkpt lat="43.71585" lon="1.58878">
        <ele>220.28</ele>
        <time>2026-05-25T10:07:43Z</time>
      </trkpt>
      <trkpt lat="43.71577" lon="1.58901">
        <ele>219.32</ele>
        <time>2026-05-25T10:07:56Z</time>
      </trkpt>
      <trkpt lat="43.71572" lon="1.58923">
        <ele>218.36</ele>
        <time>2026-05-25T10:08:09Z</time>
      </trkpt>
      <trkpt lat="43.71569" lon="1.58948">
        <ele>217.4</ele>
        <time>2026-05-25T10:08:22Z</time>
      </trkpt>
      <trkpt lat="43.71568" lon="1.58954">
        <ele>217.4</ele>
        <time>2026-05-25T10:08:25Z</time>
      </trkpt>
      <trkpt lat="43.71567" lon="1.58957">
        <ele>216.91</ele>
        <time>2026-05-25T10:08:26Z</time>
      </trkpt>
      <trkpt lat="43.71566" lon="1.58964">
        <ele>216.91</ele>
        <time>2026-05-25T10:08:31Z</time>
      </trkpt>
      <trkpt lat="43.71566" lon="1.58966">
        <ele>216.91</ele>
        <time>2026-05-25T10:08:32Z</time>
      </trkpt>
      <trkpt lat="43.71566" lon="1.58968">
        <ele>216.91</ele>
        <time>2026-05-25T10:08:33Z</time>
      </trkpt>
      <trkpt lat="43.71565" lon="1.58969">
        <ele>216.91</ele>
        <time>2026-05-25T10:08:34Z</time>
      </trkpt>
      <trkpt lat="43.71561" lon="1.58986">
        <ele>215.95</ele>
        <time>2026-05-25T10:08:46Z</time>
      </trkpt>
      <trkpt lat="43.71557" lon="1.59009">
        <ele>214.99</ele>
        <time>2026-05-25T10:08:59Z</time>
      </trkpt>
      <trkpt lat="43.71553" lon="1.59044">
        <ele>214.51</ele>
        <time>2026-05-25T10:09:16Z</time>
      </trkpt>
      <trkpt lat="43.71549" lon="1.59068">
        <ele>213.07</ele>
        <time>2026-05-25T10:09:28Z</time>
      </trkpt>
      <trkpt lat="43.71544" lon="1.59087">
        <ele>212.11</ele>
        <time>2026-05-25T10:09:42Z</time>
      </trkpt>
      <trkpt lat="43.71543" lon="1.59088">
        <ele>212.11</ele>
        <time>2026-05-25T10:09:43Z</time>
      </trkpt>
      <trkpt lat="43.71541" lon="1.5909">
        <ele>212.11</ele>
        <time>2026-05-25T10:09:50Z</time>
      </trkpt>
      <trkpt lat="43.71534" lon="1.59088">
        <ele>212.11</ele>
        <time>2026-05-25T10:09:56Z</time>
      </trkpt>
      <trkpt lat="43.71534" lon="1.59087">
        <ele>212.11</ele>
        <time>2026-05-25T10:09:57Z</time>
      </trkpt>
      <trkpt lat="43.71534" lon="1.59097">
        <ele>210.67</ele>
        <time>2026-05-25T10:10:15Z</time>
      </trkpt>
      <trkpt lat="43.71531" lon="1.59097">
        <ele>210.67</ele>
        <time>2026-05-25T10:10:38Z</time>
      </trkpt>
      <trkpt lat="43.71529" lon="1.59097">
        <ele>210.67</ele>
        <time>2026-05-25T10:10:39Z</time>
      </trkpt>
      <trkpt lat="43.71508" lon="1.59094">
        <ele>207.78</ele>
        <time>2026-05-25T10:10:55Z</time>
      </trkpt>
      <trkpt lat="43.71504" lon="1.59094">
        <ele>207.78</ele>
        <time>2026-05-25T10:10:59Z</time>
      </trkpt>
      <trkpt lat="43.71503" lon="1.59094">
        <ele>207.3</ele>
        <time>2026-05-25T10:11:00Z</time>
      </trkpt>
      <trkpt lat="43.71483" lon="1.59089">
        <ele>204.9</ele>
        <time>2026-05-25T10:11:15Z</time>
      </trkpt>
      <trkpt lat="43.71467" lon="1.59085">
        <ele>202.49</ele>
        <time>2026-05-25T10:11:29Z</time>
      </trkpt>
      <trkpt lat="43.71461" lon="1.59082">
        <ele>201.05</ele>
        <time>2026-05-25T10:11:36Z</time>
      </trkpt>
      <trkpt lat="43.71442" lon="1.59075">
        <ele>198.65</ele>
        <time>2026-05-25T10:11:51Z</time>
      </trkpt>
      <trkpt lat="43.71426" lon="1.59068">
        <ele>194.8</ele>
        <time>2026-05-25T10:12:06Z</time>
      </trkpt>
      <trkpt lat="43.7141" lon="1.59059">
        <ele>191.44</ele>
        <time>2026-05-25T10:12:20Z</time>
      </trkpt>
      <trkpt lat="43.71401" lon="1.59052">
        <ele>190</ele>
        <time>2026-05-25T10:12:29Z</time>
      </trkpt>
      <trkpt lat="43.71399" lon="1.59051">
        <ele>190</ele>
        <time>2026-05-25T10:12:30Z</time>
      </trkpt>
      <trkpt lat="43.71379" lon="1.59044">
        <ele>188.08</ele>
        <time>2026-05-25T10:12:45Z</time>
      </trkpt>
      <trkpt lat="43.71363" lon="1.59024">
        <ele>186.15</ele>
        <time>2026-05-25T10:13:01Z</time>
      </trkpt>
      <trkpt lat="43.7136" lon="1.59019">
        <ele>185.67</ele>
        <time>2026-05-25T10:13:04Z</time>
      </trkpt>
      <trkpt lat="43.7136" lon="1.59017">
        <ele>184.71</ele>
        <time>2026-05-25T10:13:05Z</time>
      </trkpt>
      <trkpt lat="43.71359" lon="1.59016">
        <ele>184.71</ele>
        <time>2026-05-25T10:13:06Z</time>
      </trkpt>
      <trkpt lat="43.71352" lon="1.58996">
        <ele>183.27</ele>
        <time>2026-05-25T10:13:20Z</time>
      </trkpt>
      <trkpt lat="43.71345" lon="1.58969">
        <ele>180.87</ele>
        <time>2026-05-25T10:13:34Z</time>
      </trkpt>
      <trkpt lat="43.71343" lon="1.58956">
        <ele>179.42</ele>
        <time>2026-05-25T10:13:43Z</time>
      </trkpt>
      <trkpt lat="43.71343" lon="1.58954">
        <ele>179.42</ele>
        <time>2026-05-25T10:13:44Z</time>
      </trkpt>
      <trkpt lat="43.71339" lon="1.58939">
        <ele>178.46</ele>
        <time>2026-05-25T10:13:52Z</time>
      </trkpt>
      <trkpt lat="43.71339" lon="1.58936">
        <ele>178.46</ele>
        <time>2026-05-25T10:13:53Z</time>
      </trkpt>
      <trkpt lat="43.71339" lon="1.58935">
        <ele>177.98</ele>
        <time>2026-05-25T10:13:54Z</time>
      </trkpt>
      <trkpt lat="43.71338" lon="1.58932">
        <ele>177.98</ele>
        <time>2026-05-25T10:13:55Z</time>
      </trkpt>
      <trkpt lat="43.71338" lon="1.5893">
        <ele>177.98</ele>
        <time>2026-05-25T10:13:56Z</time>
      </trkpt>
      <trkpt lat="43.71338" lon="1.58928">
        <ele>177.5</ele>
        <time>2026-05-25T10:13:57Z</time>
      </trkpt>
      <trkpt lat="43.71339" lon="1.58927">
        <ele>177.02</ele>
        <time>2026-05-25T10:13:58Z</time>
      </trkpt>
      <trkpt lat="43.71332" lon="1.58911">
        <ele>175.1</ele>
        <time>2026-05-25T10:14:11Z</time>
      </trkpt>
      <trkpt lat="43.71323" lon="1.58894">
        <ele>172.21</ele>
        <time>2026-05-25T10:14:22Z</time>
      </trkpt>
      <trkpt lat="43.71313" lon="1.58874">
        <ele>170.77</ele>
        <time>2026-05-25T10:14:35Z</time>
      </trkpt>
      <trkpt lat="43.71301" lon="1.58853">
        <ele>169.81</ele>
        <time>2026-05-25T10:14:49Z</time>
      </trkpt>
      <trkpt lat="43.71292" lon="1.58836">
        <ele>168.85</ele>
        <time>2026-05-25T10:15:02Z</time>
      </trkpt>
      <trkpt lat="43.71291" lon="1.58835">
        <ele>168.85</ele>
        <time>2026-05-25T10:15:03Z</time>
      </trkpt>
      <trkpt lat="43.71282" lon="1.58825">
        <ele>168.37</ele>
        <time>2026-05-25T10:15:14Z</time>
      </trkpt>
      <trkpt lat="43.71272" lon="1.58821">
        <ele>168.37</ele>
        <time>2026-05-25T10:15:22Z</time>
      </trkpt>
      <trkpt lat="43.7127" lon="1.58821">
        <ele>168.37</ele>
        <time>2026-05-25T10:15:23Z</time>
      </trkpt>
      <trkpt lat="43.71268" lon="1.58821">
        <ele>168.37</ele>
        <time>2026-05-25T10:15:24Z</time>
      </trkpt>
      <trkpt lat="43.71256" lon="1.58821">
        <ele>169.81</ele>
        <time>2026-05-25T10:15:34Z</time>
      </trkpt>
      <trkpt lat="43.71244" lon="1.58821">
        <ele>170.77</ele>
        <time>2026-05-25T10:15:47Z</time>
      </trkpt>
      <trkpt lat="43.71244" lon="1.5882">
        <ele>171.25</ele>
        <time>2026-05-25T10:15:48Z</time>
      </trkpt>
      <trkpt lat="43.71231" lon="1.58818">
        <ele>172.69</ele>
        <time>2026-05-25T10:16:02Z</time>
      </trkpt>
      <trkpt lat="43.71214" lon="1.58821">
        <ele>173.17</ele>
        <time>2026-05-25T10:16:17Z</time>
      </trkpt>
      <trkpt lat="43.71203" lon="1.58811">
        <ele>175.1</ele>
        <time>2026-05-25T10:16:32Z</time>
      </trkpt>
      <trkpt lat="43.71197" lon="1.58808">
        <ele>176.54</ele>
        <time>2026-05-25T10:16:44Z</time>
      </trkpt>
      <trkpt lat="43.71185" lon="1.58808">
        <ele>178.46</ele>
        <time>2026-05-25T10:16:57Z</time>
      </trkpt>
      <trkpt lat="43.71182" lon="1.58808">
        <ele>178.94</ele>
        <time>2026-05-25T10:17:00Z</time>
      </trkpt>
      <trkpt lat="43.71177" lon="1.58806">
        <ele>179.42</ele>
        <time>2026-05-25T10:17:05Z</time>
      </trkpt>
      <trkpt lat="43.71164" lon="1.58804">
        <ele>181.35</ele>
        <time>2026-05-25T10:17:17Z</time>
      </trkpt>
      <trkpt lat="43.71156" lon="1.58802">
        <ele>181.83</ele>
        <time>2026-05-25T10:17:24Z</time>
      </trkpt>
      <trkpt lat="43.71155" lon="1.58801">
        <ele>182.79</ele>
        <time>2026-05-25T10:17:25Z</time>
      </trkpt>
      <trkpt lat="43.71146" lon="1.58799">
        <ele>182.79</ele>
        <time>2026-05-25T10:17:35Z</time>
      </trkpt>
      <trkpt lat="43.71135" lon="1.58797">
        <ele>184.71</ele>
        <time>2026-05-25T10:17:46Z</time>
      </trkpt>
      <trkpt lat="43.71134" lon="1.58797">
        <ele>184.71</ele>
        <time>2026-05-25T10:17:48Z</time>
      </trkpt>
      <trkpt lat="43.71133" lon="1.58796">
        <ele>185.19</ele>
        <time>2026-05-25T10:17:49Z</time>
      </trkpt>
      <trkpt lat="43.71123" lon="1.58792">
        <ele>185.67</ele>
        <time>2026-05-25T10:17:59Z</time>
      </trkpt>
      <trkpt lat="43.71111" lon="1.5879">
        <ele>186.63</ele>
        <time>2026-05-25T10:18:10Z</time>
      </trkpt>
      <trkpt lat="43.71109" lon="1.5879">
        <ele>186.63</ele>
        <time>2026-05-25T10:18:11Z</time>
      </trkpt>
      <trkpt lat="43.71108" lon="1.58789">
        <ele>186.63</ele>
        <time>2026-05-25T10:18:12Z</time>
      </trkpt>
      <trkpt lat="43.71105" lon="1.58789">
        <ele>187.11</ele>
        <time>2026-05-25T10:18:16Z</time>
      </trkpt>
      <trkpt lat="43.71103" lon="1.58788">
        <ele>187.59</ele>
        <time>2026-05-25T10:18:17Z</time>
      </trkpt>
      <trkpt lat="43.71102" lon="1.58788">
        <ele>187.59</ele>
        <time>2026-05-25T10:18:18Z</time>
      </trkpt>
      <trkpt lat="43.71098" lon="1.58787">
        <ele>188.08</ele>
        <time>2026-05-25T10:18:22Z</time>
      </trkpt>
      <trkpt lat="43.71097" lon="1.58787">
        <ele>188.08</ele>
        <time>2026-05-25T10:18:23Z</time>
      </trkpt>
      <trkpt lat="43.71092" lon="1.58786">
        <ele>189.04</ele>
        <time>2026-05-25T10:18:27Z</time>
      </trkpt>
      <trkpt lat="43.71091" lon="1.58786">
        <ele>189.04</ele>
        <time>2026-05-25T10:18:28Z</time>
      </trkpt>
      <trkpt lat="43.7109" lon="1.58785">
        <ele>189.52</ele>
        <time>2026-05-25T10:18:29Z</time>
      </trkpt>
      <trkpt lat="43.71088" lon="1.58785">
        <ele>189.52</ele>
        <time>2026-05-25T10:18:30Z</time>
      </trkpt>
      <trkpt lat="43.71078" lon="1.58782">
        <ele>190.48</ele>
        <time>2026-05-25T10:18:41Z</time>
      </trkpt>
      <trkpt lat="43.71076" lon="1.58782">
        <ele>190.96</ele>
        <time>2026-05-25T10:18:44Z</time>
      </trkpt>
      <trkpt lat="43.71074" lon="1.58782">
        <ele>191.44</ele>
        <time>2026-05-25T10:18:45Z</time>
      </trkpt>
      <trkpt lat="43.71073" lon="1.58781">
        <ele>191.44</ele>
        <time>2026-05-25T10:18:46Z</time>
      </trkpt>
      <trkpt lat="43.7107" lon="1.58781">
        <ele>191.44</ele>
        <time>2026-05-25T10:18:49Z</time>
      </trkpt>
      <trkpt lat="43.71069" lon="1.5878">
        <ele>191.44</ele>
        <time>2026-05-25T10:18:50Z</time>
      </trkpt>
      <trkpt lat="43.71068" lon="1.5878">
        <ele>191.44</ele>
        <time>2026-05-25T10:18:51Z</time>
      </trkpt>
      <trkpt lat="43.71066" lon="1.58779">
        <ele>191.44</ele>
        <time>2026-05-25T10:18:52Z</time>
      </trkpt>
      <trkpt lat="43.71058" lon="1.58776">
        <ele>192.88</ele>
        <time>2026-05-25T10:19:01Z</time>
      </trkpt>
      <trkpt lat="43.71057" lon="1.58776">
        <ele>192.88</ele>
        <time>2026-05-25T10:19:02Z</time>
      </trkpt>
      <trkpt lat="43.71056" lon="1.58775">
        <ele>192.88</ele>
        <time>2026-05-25T10:19:03Z</time>
      </trkpt>
      <trkpt lat="43.71052" lon="1.58774">
        <ele>192.88</ele>
        <time>2026-05-25T10:19:07Z</time>
      </trkpt>
      <trkpt lat="43.71051" lon="1.58774">
        <ele>192.88</ele>
        <time>2026-05-25T10:19:08Z</time>
      </trkpt>
      <trkpt lat="43.7105" lon="1.58773">
        <ele>193.84</ele>
        <time>2026-05-25T10:19:10Z</time>
      </trkpt>
      <trkpt lat="43.71046" lon="1.58772">
        <ele>193.84</ele>
        <time>2026-05-25T10:19:14Z</time>
      </trkpt>
      <trkpt lat="43.71045" lon="1.58771">
        <ele>193.84</ele>
        <time>2026-05-25T10:19:15Z</time>
      </trkpt>
      <trkpt lat="43.71043" lon="1.58771">
        <ele>194.32</ele>
        <time>2026-05-25T10:19:16Z</time>
      </trkpt>
      <trkpt lat="43.71028" lon="1.58766">
        <ele>194.8</ele>
        <time>2026-05-25T10:19:28Z</time>
      </trkpt>
      <trkpt lat="43.71025" lon="1.58765">
        <ele>195.28</ele>
        <time>2026-05-25T10:19:32Z</time>
      </trkpt>
      <trkpt lat="43.71023" lon="1.58765">
        <ele>195.28</ele>
        <time>2026-05-25T10:19:33Z</time>
      </trkpt>
      <trkpt lat="43.71022" lon="1.58764">
        <ele>195.28</ele>
        <time>2026-05-25T10:19:34Z</time>
      </trkpt>
      <trkpt lat="43.71021" lon="1.58763">
        <ele>195.28</ele>
        <time>2026-05-25T10:19:35Z</time>
      </trkpt>
      <trkpt lat="43.71019" lon="1.58763">
        <ele>195.77</ele>
        <time>2026-05-25T10:19:38Z</time>
      </trkpt>
      <trkpt lat="43.71018" lon="1.58762">
        <ele>196.25</ele>
        <time>2026-05-25T10:19:39Z</time>
      </trkpt>
      <trkpt lat="43.71017" lon="1.58762">
        <ele>196.25</ele>
        <time>2026-05-25T10:19:40Z</time>
      </trkpt>
      <trkpt lat="43.71016" lon="1.58761">
        <ele>196.25</ele>
        <time>2026-05-25T10:19:41Z</time>
      </trkpt>
      <trkpt lat="43.71005" lon="1.58761">
        <ele>197.69</ele>
        <time>2026-05-25T10:19:51Z</time>
      </trkpt>
      <trkpt lat="43.71003" lon="1.58761">
        <ele>197.69</ele>
        <time>2026-05-25T10:19:52Z</time>
      </trkpt>
      <trkpt lat="43.71002" lon="1.58761">
        <ele>197.69</ele>
        <time>2026-05-25T10:19:53Z</time>
      </trkpt>
      <trkpt lat="43.70993" lon="1.58763">
        <ele>198.65</ele>
        <time>2026-05-25T10:20:02Z</time>
      </trkpt>
      <trkpt lat="43.70992" lon="1.58763">
        <ele>199.13</ele>
        <time>2026-05-25T10:20:03Z</time>
      </trkpt>
      <trkpt lat="43.70987" lon="1.58763">
        <ele>198.65</ele>
        <time>2026-05-25T10:20:08Z</time>
      </trkpt>
      <trkpt lat="43.70985" lon="1.58764">
        <ele>199.13</ele>
        <time>2026-05-25T10:20:09Z</time>
      </trkpt>
      <trkpt lat="43.70973" lon="1.58759">
        <ele>199.61</ele>
        <time>2026-05-25T10:20:21Z</time>
      </trkpt>
      <trkpt lat="43.70967" lon="1.58757">
        <ele>200.09</ele>
        <time>2026-05-25T10:20:26Z</time>
      </trkpt>
      <trkpt lat="43.70964" lon="1.58757">
        <ele>200.57</ele>
        <time>2026-05-25T10:20:29Z</time>
      </trkpt>
      <trkpt lat="43.70962" lon="1.58757">
        <ele>200.57</ele>
        <time>2026-05-25T10:20:30Z</time>
      </trkpt>
      <trkpt lat="43.70961" lon="1.58757">
        <ele>200.57</ele>
        <time>2026-05-25T10:20:31Z</time>
      </trkpt>
      <trkpt lat="43.70953" lon="1.58755">
        <ele>201.05</ele>
        <time>2026-05-25T10:20:38Z</time>
      </trkpt>
      <trkpt lat="43.70952" lon="1.58755">
        <ele>201.05</ele>
        <time>2026-05-25T10:20:39Z</time>
      </trkpt>
      <trkpt lat="43.70943" lon="1.58754">
        <ele>201.53</ele>
        <time>2026-05-25T10:20:46Z</time>
      </trkpt>
      <trkpt lat="43.70942" lon="1.58754">
        <ele>202.49</ele>
        <time>2026-05-25T10:20:47Z</time>
      </trkpt>
      <trkpt lat="43.7094" lon="1.58753">
        <ele>202.49</ele>
        <time>2026-05-25T10:20:48Z</time>
      </trkpt>
      <trkpt lat="43.70939" lon="1.58753">
        <ele>202.49</ele>
        <time>2026-05-25T10:20:49Z</time>
      </trkpt>
      <trkpt lat="43.70937" lon="1.58753">
        <ele>202.49</ele>
        <time>2026-05-25T10:20:50Z</time>
      </trkpt>
      <trkpt lat="43.70933" lon="1.5875">
        <ele>202.98</ele>
        <time>2026-05-25T10:20:56Z</time>
      </trkpt>
      <trkpt lat="43.70931" lon="1.5875">
        <ele>202.98</ele>
        <time>2026-05-25T10:20:57Z</time>
      </trkpt>
      <trkpt lat="43.70929" lon="1.58751">
        <ele>202.98</ele>
        <time>2026-05-25T10:20:58Z</time>
      </trkpt>
      <trkpt lat="43.70915" lon="1.58752">
        <ele>203.94</ele>
        <time>2026-05-25T10:21:10Z</time>
      </trkpt>
      <trkpt lat="43.70896" lon="1.58757">
        <ele>204.9</ele>
        <time>2026-05-25T10:21:23Z</time>
      </trkpt>
      <trkpt lat="43.70882" lon="1.58764">
        <ele>205.38</ele>
        <time>2026-05-25T10:21:35Z</time>
      </trkpt>
      <trkpt lat="43.70868" lon="1.58774">
        <ele>205.86</ele>
        <time>2026-05-25T10:21:47Z</time>
      </trkpt>
      <trkpt lat="43.70855" lon="1.58786">
        <ele>206.34</ele>
        <time>2026-05-25T10:21:59Z</time>
      </trkpt>
      <trkpt lat="43.70843" lon="1.58796">
        <ele>206.82</ele>
        <time>2026-05-25T10:22:11Z</time>
      </trkpt>
      <trkpt lat="43.70831" lon="1.58808">
        <ele>207.78</ele>
        <time>2026-05-25T10:22:23Z</time>
      </trkpt>
      <trkpt lat="43.70818" lon="1.58819">
        <ele>207.78</ele>
        <time>2026-05-25T10:22:35Z</time>
      </trkpt>
      <trkpt lat="43.70805" lon="1.58828">
        <ele>208.74</ele>
        <time>2026-05-25T10:22:47Z</time>
      </trkpt>
      <trkpt lat="43.70792" lon="1.58834">
        <ele>209.22</ele>
        <time>2026-05-25T10:22:58Z</time>
      </trkpt>
      <trkpt lat="43.70776" lon="1.58838">
        <ele>210.19</ele>
        <time>2026-05-25T10:23:10Z</time>
      </trkpt>
      <trkpt lat="43.70762" lon="1.58841">
        <ele>210.67</ele>
        <time>2026-05-25T10:23:22Z</time>
      </trkpt>
      <trkpt lat="43.70749" lon="1.58845">
        <ele>211.15</ele>
        <time>2026-05-25T10:23:33Z</time>
      </trkpt>
      <trkpt lat="43.70735" lon="1.5885">
        <ele>211.63</ele>
        <time>2026-05-25T10:23:44Z</time>
      </trkpt>
      <trkpt lat="43.70721" lon="1.58853">
        <ele>212.11</ele>
        <time>2026-05-25T10:23:55Z</time>
      </trkpt>
      <trkpt lat="43.70707" lon="1.58854">
        <ele>213.07</ele>
        <time>2026-05-25T10:24:06Z</time>
      </trkpt>
      <trkpt lat="43.7069" lon="1.58852">
        <ele>213.55</ele>
        <time>2026-05-25T10:24:19Z</time>
      </trkpt>
      <trkpt lat="43.70676" lon="1.58848">
        <ele>214.03</ele>
        <time>2026-05-25T10:24:32Z</time>
      </trkpt>
      <trkpt lat="43.7066" lon="1.58841">
        <ele>215.47</ele>
        <time>2026-05-25T10:24:45Z</time>
      </trkpt>
      <trkpt lat="43.70648" lon="1.58834">
        <ele>216.43</ele>
        <time>2026-05-25T10:24:56Z</time>
      </trkpt>
      <trkpt lat="43.70643" lon="1.58829">
        <ele>216.91</ele>
        <time>2026-05-25T10:25:02Z</time>
      </trkpt>
      <trkpt lat="43.70642" lon="1.58828">
        <ele>216.91</ele>
        <time>2026-05-25T10:25:03Z</time>
      </trkpt>
      <trkpt lat="43.70641" lon="1.58827">
        <ele>216.91</ele>
        <time>2026-05-25T10:25:04Z</time>
      </trkpt>
      <trkpt lat="43.7064" lon="1.58826">
        <ele>216.91</ele>
        <time>2026-05-25T10:25:05Z</time>
      </trkpt>
      <trkpt lat="43.70638" lon="1.58825">
        <ele>217.4</ele>
        <time>2026-05-25T10:25:06Z</time>
      </trkpt>
      <trkpt lat="43.70633" lon="1.58821">
        <ele>217.88</ele>
        <time>2026-05-25T10:25:12Z</time>
      </trkpt>
      <trkpt lat="43.70632" lon="1.58819">
        <ele>217.88</ele>
        <time>2026-05-25T10:25:13Z</time>
      </trkpt>
      <trkpt lat="43.70631" lon="1.58818">
        <ele>217.88</ele>
        <time>2026-05-25T10:25:14Z</time>
      </trkpt>
      <trkpt lat="43.70629" lon="1.58817">
        <ele>217.88</ele>
        <time>2026-05-25T10:25:15Z</time>
      </trkpt>
      <trkpt lat="43.70628" lon="1.58816">
        <ele>217.88</ele>
        <time>2026-05-25T10:25:16Z</time>
      </trkpt>
      <trkpt lat="43.70627" lon="1.58815">
        <ele>217.88</ele>
        <time>2026-05-25T10:25:17Z</time>
      </trkpt>
      <trkpt lat="43.70616" lon="1.58804">
        <ele>218.84</ele>
        <time>2026-05-25T10:25:28Z</time>
      </trkpt>
      <trkpt lat="43.7061" lon="1.58796">
        <ele>220.28</ele>
        <time>2026-05-25T10:25:39Z</time>
      </trkpt>
      <trkpt lat="43.70608" lon="1.58795">
        <ele>220.28</ele>
        <time>2026-05-25T10:25:40Z</time>
      </trkpt>
      <trkpt lat="43.70607" lon="1.58794">
        <ele>220.28</ele>
        <time>2026-05-25T10:25:41Z</time>
      </trkpt>
      <trkpt lat="43.70606" lon="1.58794">
        <ele>220.28</ele>
        <time>2026-05-25T10:25:42Z</time>
      </trkpt>
      <trkpt lat="43.70604" lon="1.58793">
        <ele>220.76</ele>
        <time>2026-05-25T10:25:43Z</time>
      </trkpt>
      <trkpt lat="43.706" lon="1.58792">
        <ele>220.76</ele>
        <time>2026-05-25T10:25:48Z</time>
      </trkpt>
      <trkpt lat="43.7059" lon="1.58789">
        <ele>221.72</ele>
        <time>2026-05-25T10:25:56Z</time>
      </trkpt>
      <trkpt lat="43.70589" lon="1.5879">
        <ele>221.72</ele>
        <time>2026-05-25T10:25:57Z</time>
      </trkpt>
      <trkpt lat="43.70578" lon="1.58798">
        <ele>222.68</ele>
        <time>2026-05-25T10:26:06Z</time>
      </trkpt>
      <trkpt lat="43.70563" lon="1.58815">
        <ele>223.16</ele>
        <time>2026-05-25T10:26:19Z</time>
      </trkpt>
      <trkpt lat="43.70552" lon="1.58829">
        <ele>224.12</ele>
        <time>2026-05-25T10:26:31Z</time>
      </trkpt>
      <trkpt lat="43.70541" lon="1.58843">
        <ele>224.61</ele>
        <time>2026-05-25T10:26:44Z</time>
      </trkpt>
      <trkpt lat="43.70531" lon="1.5886">
        <ele>224.61</ele>
        <time>2026-05-25T10:26:57Z</time>
      </trkpt>
      <trkpt lat="43.70522" lon="1.58878">
        <ele>225.57</ele>
        <time>2026-05-25T10:27:10Z</time>
      </trkpt>
      <trkpt lat="43.70512" lon="1.58896">
        <ele>226.05</ele>
        <time>2026-05-25T10:27:23Z</time>
      </trkpt>
      <trkpt lat="43.70508" lon="1.58906">
        <ele>226.05</ele>
        <time>2026-05-25T10:27:30Z</time>
      </trkpt>
      <trkpt lat="43.70507" lon="1.58907">
        <ele>226.05</ele>
        <time>2026-05-25T10:27:31Z</time>
      </trkpt>
      <trkpt lat="43.70506" lon="1.58909">
        <ele>226.05</ele>
        <time>2026-05-25T10:27:32Z</time>
      </trkpt>
      <trkpt lat="43.705" lon="1.58923">
        <ele>226.53</ele>
        <time>2026-05-25T10:27:43Z</time>
      </trkpt>
      <trkpt lat="43.7049" lon="1.58943">
        <ele>226.05</ele>
        <time>2026-05-25T10:27:57Z</time>
      </trkpt>
      <trkpt lat="43.7048" lon="1.58961">
        <ele>226.53</ele>
        <time>2026-05-25T10:28:10Z</time>
      </trkpt>
      <trkpt lat="43.70469" lon="1.58982">
        <ele>226.53</ele>
        <time>2026-05-25T10:28:24Z</time>
      </trkpt>
      <trkpt lat="43.70463" lon="1.5899">
        <ele>226.53</ele>
        <time>2026-05-25T10:28:32Z</time>
      </trkpt>
      <trkpt lat="43.70462" lon="1.58991">
        <ele>226.53</ele>
        <time>2026-05-25T10:28:33Z</time>
      </trkpt>
      <trkpt lat="43.70452" lon="1.59002">
        <ele>226.53</ele>
        <time>2026-05-25T10:28:43Z</time>
      </trkpt>
      <trkpt lat="43.70451" lon="1.59004">
        <ele>227.01</ele>
        <time>2026-05-25T10:28:44Z</time>
      </trkpt>
      <trkpt lat="43.70438" lon="1.59021">
        <ele>227.97</ele>
        <time>2026-05-25T10:28:57Z</time>
      </trkpt>
      <trkpt lat="43.70428" lon="1.59041">
        <ele>228.45</ele>
        <time>2026-05-25T10:29:10Z</time>
      </trkpt>
      <trkpt lat="43.7042" lon="1.59059">
        <ele>228.93</ele>
        <time>2026-05-25T10:29:22Z</time>
      </trkpt>
      <trkpt lat="43.70416" lon="1.59071">
        <ele>228.93</ele>
        <time>2026-05-25T10:29:30Z</time>
      </trkpt>
      <trkpt lat="43.70415" lon="1.59073">
        <ele>229.41</ele>
        <time>2026-05-25T10:29:31Z</time>
      </trkpt>
      <trkpt lat="43.70415" lon="1.59074">
        <ele>229.41</ele>
        <time>2026-05-25T10:29:32Z</time>
      </trkpt>
      <trkpt lat="43.70407" lon="1.59091">
        <ele>229.89</ele>
        <time>2026-05-25T10:29:45Z</time>
      </trkpt>
      <trkpt lat="43.704" lon="1.59111">
        <ele>230.85</ele>
        <time>2026-05-25T10:29:58Z</time>
      </trkpt>
      <trkpt lat="43.70393" lon="1.59132">
        <ele>231.33</ele>
        <time>2026-05-25T10:30:11Z</time>
      </trkpt>
      <trkpt lat="43.70387" lon="1.59149">
        <ele>231.81</ele>
        <time>2026-05-25T10:30:23Z</time>
      </trkpt>
      <trkpt lat="43.70384" lon="1.59154">
        <ele>232.3</ele>
        <time>2026-05-25T10:30:28Z</time>
      </trkpt>
      <trkpt lat="43.70373" lon="1.59175">
        <ele>232.3</ele>
        <time>2026-05-25T10:30:42Z</time>
      </trkpt>
      <trkpt lat="43.70361" lon="1.59192">
        <ele>232.78</ele>
        <time>2026-05-25T10:30:55Z</time>
      </trkpt>
      <trkpt lat="43.70348" lon="1.59199">
        <ele>233.74</ele>
        <time>2026-05-25T10:31:07Z</time>
      </trkpt>
      <trkpt lat="43.70346" lon="1.59199">
        <ele>233.74</ele>
        <time>2026-05-25T10:31:10Z</time>
      </trkpt>
      <trkpt lat="43.70345" lon="1.592">
        <ele>234.7</ele>
        <time>2026-05-25T10:31:11Z</time>
      </trkpt>
      <trkpt lat="43.70344" lon="1.592">
        <ele>234.7</ele>
        <time>2026-05-25T10:31:12Z</time>
      </trkpt>
      <trkpt lat="43.70343" lon="1.59199">
        <ele>234.7</ele>
        <time>2026-05-25T10:31:13Z</time>
      </trkpt>
      <trkpt lat="43.70341" lon="1.59199">
        <ele>234.7</ele>
        <time>2026-05-25T10:31:14Z</time>
      </trkpt>
      <trkpt lat="43.7034" lon="1.59199">
        <ele>234.7</ele>
        <time>2026-05-25T10:31:15Z</time>
      </trkpt>
      <trkpt lat="43.70339" lon="1.59198">
        <ele>234.7</ele>
        <time>2026-05-25T10:31:16Z</time>
      </trkpt>
      <trkpt lat="43.70338" lon="1.59198">
        <ele>234.7</ele>
        <time>2026-05-25T10:31:17Z</time>
      </trkpt>
      <trkpt lat="43.70334" lon="1.59196">
        <ele>235.18</ele>
        <time>2026-05-25T10:31:23Z</time>
      </trkpt>
      <trkpt lat="43.70333" lon="1.59195">
        <ele>235.18</ele>
        <time>2026-05-25T10:31:24Z</time>
      </trkpt>
      <trkpt lat="43.70332" lon="1.59194">
        <ele>235.18</ele>
        <time>2026-05-25T10:31:25Z</time>
      </trkpt>
      <trkpt lat="43.7033" lon="1.59192">
        <ele>235.18</ele>
        <time>2026-05-25T10:31:27Z</time>
      </trkpt>
      <trkpt lat="43.70325" lon="1.59187">
        <ele>235.66</ele>
        <time>2026-05-25T10:31:39Z</time>
      </trkpt>
      <trkpt lat="43.70326" lon="1.59184">
        <ele>236.14</ele>
        <time>2026-05-25T10:32:00Z</time>
      </trkpt>
      <trkpt lat="43.70325" lon="1.59183">
        <ele>236.14</ele>
        <time>2026-05-25T10:32:09Z</time>
      </trkpt>
      <trkpt lat="43.70324" lon="1.59182">
        <ele>236.14</ele>
        <time>2026-05-25T10:32:10Z</time>
      </trkpt>
      <trkpt lat="43.70323" lon="1.59181">
        <ele>236.14</ele>
        <time>2026-05-25T10:32:11Z</time>
      </trkpt>
      <trkpt lat="43.70319" lon="1.59179">
        <ele>237.1</ele>
        <time>2026-05-25T10:32:24Z</time>
      </trkpt>
      <trkpt lat="43.70318" lon="1.59178">
        <ele>237.1</ele>
        <time>2026-05-25T10:32:29Z</time>
      </trkpt>
      <trkpt lat="43.70317" lon="1.59176">
        <ele>237.1</ele>
        <time>2026-05-25T10:32:30Z</time>
      </trkpt>
      <trkpt lat="43.70313" lon="1.59173">
        <ele>237.1</ele>
        <time>2026-05-25T10:32:35Z</time>
      </trkpt>
      <trkpt lat="43.70312" lon="1.59172">
        <ele>237.1</ele>
        <time>2026-05-25T10:32:36Z</time>
      </trkpt>
      <trkpt lat="43.7031" lon="1.59171">
        <ele>237.1</ele>
        <time>2026-05-25T10:32:37Z</time>
      </trkpt>
      <trkpt lat="43.70309" lon="1.5917">
        <ele>237.1</ele>
        <time>2026-05-25T10:32:38Z</time>
      </trkpt>
      <trkpt lat="43.70308" lon="1.59168">
        <ele>237.1</ele>
        <time>2026-05-25T10:32:39Z</time>
      </trkpt>
      <trkpt lat="43.70306" lon="1.59168">
        <ele>237.1</ele>
        <time>2026-05-25T10:32:40Z</time>
      </trkpt>
      <trkpt lat="43.70305" lon="1.59167">
        <ele>237.1</ele>
        <time>2026-05-25T10:32:41Z</time>
      </trkpt>
      <trkpt lat="43.70286" lon="1.59169">
        <ele>237.1</ele>
        <time>2026-05-25T10:32:52Z</time>
      </trkpt>
      <trkpt lat="43.70281" lon="1.59169">
        <ele>237.1</ele>
        <time>2026-05-25T10:32:56Z</time>
      </trkpt>
      <trkpt lat="43.70279" lon="1.5917">
        <ele>237.1</ele>
        <time>2026-05-25T10:32:57Z</time>
      </trkpt>
      <trkpt lat="43.70277" lon="1.5917">
        <ele>237.1</ele>
        <time>2026-05-25T10:32:58Z</time>
      </trkpt>
      <trkpt lat="43.70275" lon="1.59171">
        <ele>237.1</ele>
        <time>2026-05-25T10:32:59Z</time>
      </trkpt>
      <trkpt lat="43.70273" lon="1.59171">
        <ele>237.1</ele>
        <time>2026-05-25T10:33:00Z</time>
      </trkpt>
      <trkpt lat="43.70272" lon="1.59174">
        <ele>237.1</ele>
        <time>2026-05-25T10:33:01Z</time>
      </trkpt>
      <trkpt lat="43.70272" lon="1.59175">
        <ele>236.14</ele>
        <time>2026-05-25T10:33:02Z</time>
      </trkpt>
      <trkpt lat="43.7027" lon="1.59177">
        <ele>236.14</ele>
        <time>2026-05-25T10:33:03Z</time>
      </trkpt>
      <trkpt lat="43.7027" lon="1.59178">
        <ele>236.14</ele>
        <time>2026-05-25T10:33:04Z</time>
      </trkpt>
      <trkpt lat="43.7025" lon="1.59193">
        <ele>236.62</ele>
        <time>2026-05-25T10:33:21Z</time>
      </trkpt>
      <trkpt lat="43.70236" lon="1.59211">
        <ele>236.62</ele>
        <time>2026-05-25T10:33:34Z</time>
      </trkpt>
      <trkpt lat="43.70222" lon="1.59228">
        <ele>236.62</ele>
        <time>2026-05-25T10:33:48Z</time>
      </trkpt>
      <trkpt lat="43.70208" lon="1.59243">
        <ele>235.18</ele>
        <time>2026-05-25T10:34:00Z</time>
      </trkpt>
      <trkpt lat="43.70193" lon="1.59254">
        <ele>234.7</ele>
        <time>2026-05-25T10:34:13Z</time>
      </trkpt>
      <trkpt lat="43.70179" lon="1.59264">
        <ele>234.7</ele>
        <time>2026-05-25T10:34:25Z</time>
      </trkpt>
      <trkpt lat="43.70163" lon="1.59274">
        <ele>234.22</ele>
        <time>2026-05-25T10:34:37Z</time>
      </trkpt>
      <trkpt lat="43.70149" lon="1.59288">
        <ele>234.22</ele>
        <time>2026-05-25T10:34:51Z</time>
      </trkpt>
      <trkpt lat="43.70134" lon="1.59304">
        <ele>233.74</ele>
        <time>2026-05-25T10:35:05Z</time>
      </trkpt>
      <trkpt lat="43.70121" lon="1.59317">
        <ele>233.74</ele>
        <time>2026-05-25T10:35:18Z</time>
      </trkpt>
      <trkpt lat="43.7011" lon="1.59333">
        <ele>233.26</ele>
        <time>2026-05-25T10:35:33Z</time>
      </trkpt>
      <trkpt lat="43.70091" lon="1.59352">
        <ele>232.78</ele>
        <time>2026-05-25T10:35:50Z</time>
      </trkpt>
      <trkpt lat="43.70072" lon="1.59371">
        <ele>232.3</ele>
        <time>2026-05-25T10:36:07Z</time>
      </trkpt>
      <trkpt lat="43.70069" lon="1.59371">
        <ele>231.81</ele>
        <time>2026-05-25T10:36:17Z</time>
      </trkpt>
      <trkpt lat="43.70068" lon="1.59371">
        <ele>231.81</ele>
        <time>2026-05-25T10:36:18Z</time>
      </trkpt>
      <trkpt lat="43.70067" lon="1.59369">
        <ele>231.33</ele>
        <time>2026-05-25T10:36:19Z</time>
      </trkpt>
      <trkpt lat="43.70067" lon="1.59368">
        <ele>231.33</ele>
        <time>2026-05-25T10:36:20Z</time>
      </trkpt>
      <trkpt lat="43.70066" lon="1.59367">
        <ele>231.33</ele>
        <time>2026-05-25T10:36:21Z</time>
      </trkpt>
      <trkpt lat="43.70065" lon="1.59365">
        <ele>231.33</ele>
        <time>2026-05-25T10:36:22Z</time>
      </trkpt>
      <trkpt lat="43.70053" lon="1.59344">
        <ele>230.37</ele>
        <time>2026-05-25T10:36:38Z</time>
      </trkpt>
      <trkpt lat="43.70041" lon="1.59328">
        <ele>229.41</ele>
        <time>2026-05-25T10:36:50Z</time>
      </trkpt>
      <trkpt lat="43.70028" lon="1.59312">
        <ele>228.45</ele>
        <time>2026-05-25T10:37:03Z</time>
      </trkpt>
      <trkpt lat="43.70015" lon="1.59295">
        <ele>226.53</ele>
        <time>2026-05-25T10:37:17Z</time>
      </trkpt>
      <trkpt lat="43.70001" lon="1.59279">
        <ele>225.57</ele>
        <time>2026-05-25T10:37:29Z</time>
      </trkpt>
      <trkpt lat="43.69995" lon="1.59272">
        <ele>224.12</ele>
        <time>2026-05-25T10:37:41Z</time>
      </trkpt>
      <trkpt lat="43.69986" lon="1.59262">
        <ele>223.64</ele>
        <time>2026-05-25T10:37:51Z</time>
      </trkpt>
      <trkpt lat="43.69985" lon="1.59261">
        <ele>223.64</ele>
        <time>2026-05-25T10:37:52Z</time>
      </trkpt>
      <trkpt lat="43.69962" lon="1.59235">
        <ele>222.68</ele>
        <time>2026-05-25T10:38:14Z</time>
      </trkpt>
      <trkpt lat="43.6994" lon="1.59216">
        <ele>220.76</ele>
        <time>2026-05-25T10:38:32Z</time>
      </trkpt>
      <trkpt lat="43.69914" lon="1.59206">
        <ele>218.84</ele>
        <time>2026-05-25T10:38:50Z</time>
      </trkpt>
      <trkpt lat="43.69892" lon="1.59206">
        <ele>216.91</ele>
        <time>2026-05-25T10:39:06Z</time>
      </trkpt>
      <trkpt lat="43.6987" lon="1.59209">
        <ele>215.95</ele>
        <time>2026-05-25T10:39:21Z</time>
      </trkpt>
      <trkpt lat="43.69848" lon="1.59212">
        <ele>214.51</ele>
        <time>2026-05-25T10:39:36Z</time>
      </trkpt>
      <trkpt lat="43.69823" lon="1.59214">
        <ele>212.11</ele>
        <time>2026-05-25T10:39:56Z</time>
      </trkpt>
      <trkpt lat="43.69798" lon="1.59217">
        <ele>210.67</ele>
        <time>2026-05-25T10:40:14Z</time>
      </trkpt>
      <trkpt lat="43.69774" lon="1.59226">
        <ele>208.74</ele>
        <time>2026-05-25T10:40:31Z</time>
      </trkpt>
      <trkpt lat="43.69755" lon="1.59228">
        <ele>207.78</ele>
        <time>2026-05-25T10:40:45Z</time>
      </trkpt>
      <trkpt lat="43.69743" lon="1.59232">
        <ele>205.86</ele>
        <time>2026-05-25T10:40:57Z</time>
      </trkpt>
      <trkpt lat="43.69723" lon="1.59236">
        <ele>204.9</ele>
        <time>2026-05-25T10:41:13Z</time>
      </trkpt>
      <trkpt lat="43.69719" lon="1.59237">
        <ele>204.9</ele>
        <time>2026-05-25T10:41:16Z</time>
      </trkpt>
      <trkpt lat="43.69718" lon="1.59238">
        <ele>204.42</ele>
        <time>2026-05-25T10:41:17Z</time>
      </trkpt>
      <trkpt lat="43.69716" lon="1.59238">
        <ele>204.42</ele>
        <time>2026-05-25T10:41:18Z</time>
      </trkpt>
      <trkpt lat="43.69714" lon="1.59238">
        <ele>204.42</ele>
        <time>2026-05-25T10:41:19Z</time>
      </trkpt>
      <trkpt lat="43.69712" lon="1.59239">
        <ele>204.42</ele>
        <time>2026-05-25T10:41:20Z</time>
      </trkpt>
      <trkpt lat="43.69711" lon="1.59239">
        <ele>204.42</ele>
        <time>2026-05-25T10:41:21Z</time>
      </trkpt>
      <trkpt lat="43.69709" lon="1.59239">
        <ele>203.94</ele>
        <time>2026-05-25T10:41:22Z</time>
      </trkpt>
      <trkpt lat="43.69686" lon="1.59246">
        <ele>202.49</ele>
        <time>2026-05-25T10:41:36Z</time>
      </trkpt>
      <trkpt lat="43.69667" lon="1.59252">
        <ele>201.53</ele>
        <time>2026-05-25T10:41:49Z</time>
      </trkpt>
      <trkpt lat="43.69656" lon="1.59254">
        <ele>201.05</ele>
        <time>2026-05-25T10:42:02Z</time>
      </trkpt>
      <trkpt lat="43.69641" lon="1.59259">
        <ele>200.09</ele>
        <time>2026-05-25T10:42:14Z</time>
      </trkpt>
      <trkpt lat="43.69628" lon="1.59262">
        <ele>199.61</ele>
        <time>2026-05-25T10:42:25Z</time>
      </trkpt>
      <trkpt lat="43.69619" lon="1.59264">
        <ele>198.65</ele>
        <time>2026-05-25T10:42:33Z</time>
      </trkpt>
      <trkpt lat="43.69617" lon="1.59265">
        <ele>198.65</ele>
        <time>2026-05-25T10:42:34Z</time>
      </trkpt>
      <trkpt lat="43.69616" lon="1.59266">
        <ele>198.65</ele>
        <time>2026-05-25T10:42:35Z</time>
      </trkpt>
      <trkpt lat="43.69595" lon="1.59275">
        <ele>198.17</ele>
        <time>2026-05-25T10:42:50Z</time>
      </trkpt>
      <trkpt lat="43.69572" lon="1.59286">
        <ele>196.73</ele>
        <time>2026-05-25T10:43:06Z</time>
      </trkpt>
      <trkpt lat="43.69553" lon="1.59293">
        <ele>196.25</ele>
        <time>2026-05-25T10:43:20Z</time>
      </trkpt>
      <trkpt lat="43.69535" lon="1.5929">
        <ele>195.77</ele>
        <time>2026-05-25T10:43:34Z</time>
      </trkpt>
      <trkpt lat="43.69519" lon="1.59281">
        <ele>195.28</ele>
        <time>2026-05-25T10:43:47Z</time>
      </trkpt>
      <trkpt lat="43.69509" lon="1.59273">
        <ele>194.8</ele>
        <time>2026-05-25T10:43:54Z</time>
      </trkpt>
      <trkpt lat="43.69508" lon="1.59272">
        <ele>194.8</ele>
        <time>2026-05-25T10:43:55Z</time>
      </trkpt>
      <trkpt lat="43.69505" lon="1.59271">
        <ele>194.8</ele>
        <time>2026-05-25T10:43:56Z</time>
      </trkpt>
      <trkpt lat="43.69489" lon="1.5926">
        <ele>194.32</ele>
        <time>2026-05-25T10:44:09Z</time>
      </trkpt>
      <trkpt lat="43.6947" lon="1.59247">
        <ele>194.32</ele>
        <time>2026-05-25T10:44:23Z</time>
      </trkpt>
      <trkpt lat="43.69454" lon="1.59234">
        <ele>194.32</ele>
        <time>2026-05-25T10:44:36Z</time>
      </trkpt>
      <trkpt lat="43.69443" lon="1.59224">
        <ele>193.84</ele>
        <time>2026-05-25T10:44:48Z</time>
      </trkpt>
      <trkpt lat="43.69425" lon="1.59212">
        <ele>193.84</ele>
        <time>2026-05-25T10:45:00Z</time>
      </trkpt>
      <trkpt lat="43.69409" lon="1.592">
        <ele>193.36</ele>
        <time>2026-05-25T10:45:15Z</time>
      </trkpt>
      <trkpt lat="43.69398" lon="1.59189">
        <ele>192.88</ele>
        <time>2026-05-25T10:45:27Z</time>
      </trkpt>
      <trkpt lat="43.69381" lon="1.59174">
        <ele>192.4</ele>
        <time>2026-05-25T10:45:40Z</time>
      </trkpt>
      <trkpt lat="43.69369" lon="1.59165">
        <ele>191.92</ele>
        <time>2026-05-25T10:45:53Z</time>
      </trkpt>
      <trkpt lat="43.69351" lon="1.59148">
        <ele>191.44</ele>
        <time>2026-05-25T10:46:06Z</time>
      </trkpt>
      <trkpt lat="43.69332" lon="1.59132">
        <ele>191.44</ele>
        <time>2026-05-25T10:46:20Z</time>
      </trkpt>
      <trkpt lat="43.69319" lon="1.59123">
        <ele>190</ele>
        <time>2026-05-25T10:46:33Z</time>
      </trkpt>
      <trkpt lat="43.69304" lon="1.59111">
        <ele>188.56</ele>
        <time>2026-05-25T10:46:46Z</time>
      </trkpt>
      <trkpt lat="43.69303" lon="1.59111">
        <ele>188.56</ele>
        <time>2026-05-25T10:46:47Z</time>
      </trkpt>
      <trkpt lat="43.69279" lon="1.59094">
        <ele>186.63</ele>
        <time>2026-05-25T10:47:07Z</time>
      </trkpt>
      <trkpt lat="43.69264" lon="1.59075">
        <ele>184.71</ele>
        <time>2026-05-25T10:47:23Z</time>
      </trkpt>
      <trkpt lat="43.69252" lon="1.59058">
        <ele>183.27</ele>
        <time>2026-05-25T10:47:38Z</time>
      </trkpt>
      <trkpt lat="43.69245" lon="1.59046">
        <ele>181.83</ele>
        <time>2026-05-25T10:47:47Z</time>
      </trkpt>
      <trkpt lat="43.69244" lon="1.59045">
        <ele>181.83</ele>
        <time>2026-05-25T10:47:48Z</time>
      </trkpt>
      <trkpt lat="43.69243" lon="1.59043">
        <ele>181.83</ele>
        <time>2026-05-25T10:47:49Z</time>
      </trkpt>
      <trkpt lat="43.6923" lon="1.59022">
        <ele>180.38</ele>
        <time>2026-05-25T10:48:03Z</time>
      </trkpt>
      <trkpt lat="43.6922" lon="1.59006">
        <ele>178.94</ele>
        <time>2026-05-25T10:48:15Z</time>
      </trkpt>
      <trkpt lat="43.69205" lon="1.58985">
        <ele>177.02</ele>
        <time>2026-05-25T10:48:29Z</time>
      </trkpt>
      <trkpt lat="43.69192" lon="1.58967">
        <ele>175.58</ele>
        <time>2026-05-25T10:48:42Z</time>
      </trkpt>
      <trkpt lat="43.69176" lon="1.58949">
        <ele>174.14</ele>
        <time>2026-05-25T10:48:55Z</time>
      </trkpt>
      <trkpt lat="43.69161" lon="1.58928">
        <ele>172.21</ele>
        <time>2026-05-25T10:49:10Z</time>
      </trkpt>
      <trkpt lat="43.69147" lon="1.58908">
        <ele>170.29</ele>
        <time>2026-05-25T10:49:24Z</time>
      </trkpt>
      <trkpt lat="43.69134" lon="1.5889">
        <ele>168.85</ele>
        <time>2026-05-25T10:49:37Z</time>
      </trkpt>
      <trkpt lat="43.69124" lon="1.58876">
        <ele>167.41</ele>
        <time>2026-05-25T10:49:49Z</time>
      </trkpt>
      <trkpt lat="43.69113" lon="1.5886">
        <ele>165.96</ele>
        <time>2026-05-25T10:50:01Z</time>
      </trkpt>
      <trkpt lat="43.69096" lon="1.58843">
        <ele>164.04</ele>
        <time>2026-05-25T10:50:16Z</time>
      </trkpt>
      <trkpt lat="43.69078" lon="1.58825">
        <ele>162.6</ele>
        <time>2026-05-25T10:50:31Z</time>
      </trkpt>
      <trkpt lat="43.69061" lon="1.58807">
        <ele>161.64</ele>
        <time>2026-05-25T10:50:45Z</time>
      </trkpt>
      <trkpt lat="43.69045" lon="1.58789">
        <ele>159.24</ele>
        <time>2026-05-25T10:51:00Z</time>
      </trkpt>
      <trkpt lat="43.69044" lon="1.58788">
        <ele>159.24</ele>
        <time>2026-05-25T10:51:01Z</time>
      </trkpt>
      <trkpt lat="43.69043" lon="1.58787">
        <ele>158.75</ele>
        <time>2026-05-25T10:51:02Z</time>
      </trkpt>
      <trkpt lat="43.69029" lon="1.58775">
        <ele>157.31</ele>
        <time>2026-05-25T10:51:14Z</time>
      </trkpt>
      <trkpt lat="43.69012" lon="1.58756">
        <ele>156.35</ele>
        <time>2026-05-25T10:51:29Z</time>
      </trkpt>
      <trkpt lat="43.68998" lon="1.58736">
        <ele>154.91</ele>
        <time>2026-05-25T10:51:43Z</time>
      </trkpt>
      <trkpt lat="43.68995" lon="1.58729">
        <ele>154.43</ele>
        <time>2026-05-25T10:51:51Z</time>
      </trkpt>
      <trkpt lat="43.68994" lon="1.58728">
        <ele>153.95</ele>
        <time>2026-05-25T10:51:52Z</time>
      </trkpt>
      <trkpt lat="43.68992" lon="1.58727">
        <ele>153.95</ele>
        <time>2026-05-25T10:51:53Z</time>
      </trkpt>
      <trkpt lat="43.68981" lon="1.58722">
        <ele>153.47</ele>
        <time>2026-05-25T10:52:00Z</time>
      </trkpt>
      <trkpt lat="43.6898" lon="1.58721">
        <ele>152.99</ele>
        <time>2026-05-25T10:52:01Z</time>
      </trkpt>
      <trkpt lat="43.68975" lon="1.58721">
        <ele>152.51</ele>
        <time>2026-05-25T10:52:08Z</time>
      </trkpt>
      <trkpt lat="43.6897" lon="1.58731">
        <ele>152.51</ele>
        <time>2026-05-25T10:52:15Z</time>
      </trkpt>
      <trkpt lat="43.68956" lon="1.58748">
        <ele>152.03</ele>
        <time>2026-05-25T10:52:29Z</time>
      </trkpt>
      <trkpt lat="43.6894" lon="1.58766">
        <ele>152.03</ele>
        <time>2026-05-25T10:52:44Z</time>
      </trkpt>
      <trkpt lat="43.68926" lon="1.58775">
        <ele>151.54</ele>
        <time>2026-05-25T10:52:57Z</time>
      </trkpt>
      <trkpt lat="43.6891" lon="1.58785">
        <ele>149.14</ele>
        <time>2026-05-25T10:53:11Z</time>
      </trkpt>
      <trkpt lat="43.68887" lon="1.5879">
        <ele>148.66</ele>
        <time>2026-05-25T10:53:28Z</time>
      </trkpt>
      <trkpt lat="43.6887" lon="1.58785">
        <ele>147.7</ele>
        <time>2026-05-25T10:53:43Z</time>
      </trkpt>
      <trkpt lat="43.68849" lon="1.58767">
        <ele>147.7</ele>
        <time>2026-05-25T10:54:00Z</time>
      </trkpt>
      <trkpt lat="43.68844" lon="1.5875">
        <ele>147.22</ele>
        <time>2026-05-25T10:54:11Z</time>
      </trkpt>
      <trkpt lat="43.68831" lon="1.58718">
        <ele>147.22</ele>
        <time>2026-05-25T10:54:28Z</time>
      </trkpt>
      <trkpt lat="43.68821" lon="1.58699">
        <ele>146.26</ele>
        <time>2026-05-25T10:54:43Z</time>
      </trkpt>
      <trkpt lat="43.68806" lon="1.5867">
        <ele>145.78</ele>
        <time>2026-05-25T10:54:58Z</time>
      </trkpt>
      <trkpt lat="43.68794" lon="1.58649">
        <ele>145.3</ele>
        <time>2026-05-25T10:55:14Z</time>
      </trkpt>
      <trkpt lat="43.68785" lon="1.58633">
        <ele>145.3</ele>
        <time>2026-05-25T10:55:22Z</time>
      </trkpt>
      <trkpt lat="43.68776" lon="1.58617">
        <ele>145.3</ele>
        <time>2026-05-25T10:55:36Z</time>
      </trkpt>
      <trkpt lat="43.68762" lon="1.58595">
        <ele>145.3</ele>
        <time>2026-05-25T10:55:50Z</time>
      </trkpt>
      <trkpt lat="43.68752" lon="1.58573">
        <ele>145.3</ele>
        <time>2026-05-25T10:56:07Z</time>
      </trkpt>
      <trkpt lat="43.68738" lon="1.58559">
        <ele>146.26</ele>
        <time>2026-05-25T10:56:20Z</time>
      </trkpt>
      <trkpt lat="43.68737" lon="1.58555">
        <ele>146.26</ele>
        <time>2026-05-25T10:56:23Z</time>
      </trkpt>
      <trkpt lat="43.68735" lon="1.58548">
        <ele>146.26</ele>
        <time>2026-05-25T10:56:28Z</time>
      </trkpt>
      <trkpt lat="43.68723" lon="1.58526">
        <ele>146.26</ele>
        <time>2026-05-25T10:56:43Z</time>
      </trkpt>
      <trkpt lat="43.68712" lon="1.58511">
        <ele>147.22</ele>
        <time>2026-05-25T10:56:56Z</time>
      </trkpt>
      <trkpt lat="43.68711" lon="1.58509">
        <ele>147.22</ele>
        <time>2026-05-25T10:56:57Z</time>
      </trkpt>
      <trkpt lat="43.6871" lon="1.58508">
        <ele>147.22</ele>
        <time>2026-05-25T10:56:58Z</time>
      </trkpt>
      <trkpt lat="43.68709" lon="1.58506">
        <ele>147.22</ele>
        <time>2026-05-25T10:56:59Z</time>
      </trkpt>
      <trkpt lat="43.68707" lon="1.58505">
        <ele>147.22</ele>
        <time>2026-05-25T10:57:00Z</time>
      </trkpt>
      <trkpt lat="43.68706" lon="1.58503">
        <ele>147.22</ele>
        <time>2026-05-25T10:57:01Z</time>
      </trkpt>
      <trkpt lat="43.68705" lon="1.58501">
        <ele>147.22</ele>
        <time>2026-05-25T10:57:02Z</time>
      </trkpt>
      <trkpt lat="43.68695" lon="1.58484">
        <ele>147.22</ele>
        <time>2026-05-25T10:57:15Z</time>
      </trkpt>
      <trkpt lat="43.68695" lon="1.58482">
        <ele>147.22</ele>
        <time>2026-05-25T10:57:16Z</time>
      </trkpt>
      <trkpt lat="43.68682" lon="1.58458">
        <ele>147.22</ele>
        <time>2026-05-25T10:57:30Z</time>
      </trkpt>
      <trkpt lat="43.68667" lon="1.58438">
        <ele>145.78</ele>
        <time>2026-05-25T10:57:44Z</time>
      </trkpt>
      <trkpt lat="43.6866" lon="1.5843">
        <ele>144.82</ele>
        <time>2026-05-25T10:57:58Z</time>
      </trkpt>
      <trkpt lat="43.68666" lon="1.58446">
        <ele>144.82</ele>
        <time>2026-05-25T10:58:28Z</time>
      </trkpt>
      <trkpt lat="43.68658" lon="1.58441">
        <ele>144.82</ele>
        <time>2026-05-25T10:58:32Z</time>
      </trkpt>
      <trkpt lat="43.68656" lon="1.58439">
        <ele>144.82</ele>
        <time>2026-05-25T10:58:33Z</time>
      </trkpt>
      <trkpt lat="43.68647" lon="1.5841">
        <ele>145.78</ele>
        <time>2026-05-25T10:58:44Z</time>
      </trkpt>
      <trkpt lat="43.68635" lon="1.58386">
        <ele>145.78</ele>
        <time>2026-05-25T10:58:57Z</time>
      </trkpt>
      <trkpt lat="43.68623" lon="1.58378">
        <ele>144.82</ele>
        <time>2026-05-25T10:59:09Z</time>
      </trkpt>
      <trkpt lat="43.68619" lon="1.58373">
        <ele>144.82</ele>
        <time>2026-05-25T10:59:12Z</time>
      </trkpt>
      <trkpt lat="43.68618" lon="1.58373">
        <ele>144.82</ele>
        <time>2026-05-25T10:59:13Z</time>
      </trkpt>
      <trkpt lat="43.68616" lon="1.58373">
        <ele>144.82</ele>
        <time>2026-05-25T10:59:14Z</time>
      </trkpt>
      <trkpt lat="43.68615" lon="1.58373">
        <ele>144.82</ele>
        <time>2026-05-25T10:59:15Z</time>
      </trkpt>
      <trkpt lat="43.68613" lon="1.58373">
        <ele>144.82</ele>
        <time>2026-05-25T10:59:16Z</time>
      </trkpt>
      <trkpt lat="43.68612" lon="1.58373">
        <ele>144.82</ele>
        <time>2026-05-25T10:59:17Z</time>
      </trkpt>
      <trkpt lat="43.68603" lon="1.58369">
        <ele>144.34</ele>
        <time>2026-05-25T10:59:25Z</time>
      </trkpt>
      <trkpt lat="43.68595" lon="1.58347">
        <ele>143.85</ele>
        <time>2026-05-25T10:59:40Z</time>
      </trkpt>
      <trkpt lat="43.68579" lon="1.58321">
        <ele>143.85</ele>
        <time>2026-05-25T10:59:58Z</time>
      </trkpt>
      <trkpt lat="43.68565" lon="1.58299">
        <ele>143.85</ele>
        <time>2026-05-25T11:00:15Z</time>
      </trkpt>
      <trkpt lat="43.68555" lon="1.58284">
        <ele>145.3</ele>
        <time>2026-05-25T11:00:23Z</time>
      </trkpt>
      <trkpt lat="43.68543" lon="1.5827">
        <ele>146.26</ele>
        <time>2026-05-25T11:00:35Z</time>
      </trkpt>
      <trkpt lat="43.68536" lon="1.58259">
        <ele>144.34</ele>
        <time>2026-05-25T11:00:45Z</time>
      </trkpt>
      <trkpt lat="43.6852" lon="1.58239">
        <ele>144.34</ele>
        <time>2026-05-25T11:01:02Z</time>
      </trkpt>
      <trkpt lat="43.68518" lon="1.58237">
        <ele>144.34</ele>
        <time>2026-05-25T11:01:04Z</time>
      </trkpt>
      <trkpt lat="43.68517" lon="1.58228">
        <ele>144.34</ele>
        <time>2026-05-25T11:01:19Z</time>
      </trkpt>
      <trkpt lat="43.68518" lon="1.58226">
        <ele>145.78</ele>
        <time>2026-05-25T11:01:21Z</time>
      </trkpt>
      <trkpt lat="43.68517" lon="1.58221">
        <ele>145.78</ele>
        <time>2026-05-25T11:01:24Z</time>
      </trkpt>
      <trkpt lat="43.68501" lon="1.58203">
        <ele>146.74</ele>
        <time>2026-05-25T11:01:39Z</time>
      </trkpt>
      <trkpt lat="43.68489" lon="1.58187">
        <ele>147.7</ele>
        <time>2026-05-25T11:01:53Z</time>
      </trkpt>
      <trkpt lat="43.68479" lon="1.5817">
        <ele>145.78</ele>
        <time>2026-05-25T11:02:07Z</time>
      </trkpt>
      <trkpt lat="43.68464" lon="1.58151">
        <ele>145.78</ele>
        <time>2026-05-25T11:02:22Z</time>
      </trkpt>
      <trkpt lat="43.68449" lon="1.58134">
        <ele>145.78</ele>
        <time>2026-05-25T11:02:35Z</time>
      </trkpt>
      <trkpt lat="43.68433" lon="1.58117">
        <ele>147.22</ele>
        <time>2026-05-25T11:02:50Z</time>
      </trkpt>
      <trkpt lat="43.68421" lon="1.58106">
        <ele>147.22</ele>
        <time>2026-05-25T11:03:03Z</time>
      </trkpt>
      <trkpt lat="43.68407" lon="1.58094">
        <ele>145.78</ele>
        <time>2026-05-25T11:03:16Z</time>
      </trkpt>
      <trkpt lat="43.68404" lon="1.58092">
        <ele>145.3</ele>
        <time>2026-05-25T11:03:18Z</time>
      </trkpt>
      <trkpt lat="43.68398" lon="1.58088">
        <ele>146.74</ele>
        <time>2026-05-25T11:03:23Z</time>
      </trkpt>
      <trkpt lat="43.68394" lon="1.58086">
        <ele>146.74</ele>
        <time>2026-05-25T11:03:26Z</time>
      </trkpt>
      <trkpt lat="43.68393" lon="1.58086">
        <ele>146.74</ele>
        <time>2026-05-25T11:03:27Z</time>
      </trkpt>
      <trkpt lat="43.68392" lon="1.58086">
        <ele>146.74</ele>
        <time>2026-05-25T11:03:28Z</time>
      </trkpt>
      <trkpt lat="43.6839" lon="1.58086">
        <ele>146.74</ele>
        <time>2026-05-25T11:03:29Z</time>
      </trkpt>
      <trkpt lat="43.68389" lon="1.58087">
        <ele>146.74</ele>
        <time>2026-05-25T11:03:30Z</time>
      </trkpt>
      <trkpt lat="43.68387" lon="1.58087">
        <ele>146.74</ele>
        <time>2026-05-25T11:03:31Z</time>
      </trkpt>
      <trkpt lat="43.68385" lon="1.58086">
        <ele>146.74</ele>
        <time>2026-05-25T11:03:32Z</time>
      </trkpt>
      <trkpt lat="43.68384" lon="1.58086">
        <ele>146.74</ele>
        <time>2026-05-25T11:03:33Z</time>
      </trkpt>
      <trkpt lat="43.68383" lon="1.58085">
        <ele>146.74</ele>
        <time>2026-05-25T11:03:34Z</time>
      </trkpt>
      <trkpt lat="43.68381" lon="1.58085">
        <ele>146.74</ele>
        <time>2026-05-25T11:03:35Z</time>
      </trkpt>
      <trkpt lat="43.6838" lon="1.58084">
        <ele>145.78</ele>
        <time>2026-05-25T11:03:36Z</time>
      </trkpt>
      <trkpt lat="43.68379" lon="1.58084">
        <ele>145.78</ele>
        <time>2026-05-25T11:03:37Z</time>
      </trkpt>
      <trkpt lat="43.68367" lon="1.58079">
        <ele>148.18</ele>
        <time>2026-05-25T11:03:47Z</time>
      </trkpt>
      <trkpt lat="43.68364" lon="1.58075">
        <ele>147.7</ele>
        <time>2026-05-25T11:03:51Z</time>
      </trkpt>
      <trkpt lat="43.68363" lon="1.58074">
        <ele>147.7</ele>
        <time>2026-05-25T11:03:52Z</time>
      </trkpt>
      <trkpt lat="43.68362" lon="1.58072">
        <ele>147.7</ele>
        <time>2026-05-25T11:03:54Z</time>
      </trkpt>
      <trkpt lat="43.6836" lon="1.58071">
        <ele>147.7</ele>
        <time>2026-05-25T11:03:56Z</time>
      </trkpt>
      <trkpt lat="43.68359" lon="1.58071">
        <ele>147.7</ele>
        <time>2026-05-25T11:03:57Z</time>
      </trkpt>
      <trkpt lat="43.68342" lon="1.58076">
        <ele>147.7</ele>
        <time>2026-05-25T11:04:12Z</time>
      </trkpt>
      <trkpt lat="43.6834" lon="1.58076">
        <ele>147.7</ele>
        <time>2026-05-25T11:04:14Z</time>
      </trkpt>
      <trkpt lat="43.68338" lon="1.58074">
        <ele>147.7</ele>
        <time>2026-05-25T11:04:17Z</time>
      </trkpt>
      <trkpt lat="43.68337" lon="1.58074">
        <ele>147.7</ele>
        <time>2026-05-25T11:04:18Z</time>
      </trkpt>
      <trkpt lat="43.68327" lon="1.58056">
        <ele>147.7</ele>
        <time>2026-05-25T11:04:33Z</time>
      </trkpt>
      <trkpt lat="43.68317" lon="1.5803">
        <ele>148.18</ele>
        <time>2026-05-25T11:04:49Z</time>
      </trkpt>
      <trkpt lat="43.68308" lon="1.58014">
        <ele>147.22</ele>
        <time>2026-05-25T11:05:02Z</time>
      </trkpt>
      <trkpt lat="43.68306" lon="1.5801">
        <ele>147.22</ele>
        <time>2026-05-25T11:05:21Z</time>
      </trkpt>
      <trkpt lat="43.68306" lon="1.5801">
        <ele>147.22</ele>
        <time>2026-05-25T11:05:22Z</time>
      </trkpt>
      <trkpt lat="43.68306" lon="1.58009">
        <ele>147.22</ele>
        <time>2026-05-25T11:05:48Z</time>
      </trkpt>
      <trkpt lat="43.68306" lon="1.58009">
        <ele>148.18</ele>
        <time>2026-05-25T11:05:50Z</time>
      </trkpt>
      <trkpt lat="43.68306" lon="1.58009">
        <ele>146.74</ele>
        <time>2026-05-25T11:05:53Z</time>
      </trkpt>
      <trkpt lat="43.68307" lon="1.58009">
        <ele>148.18</ele>
        <time>2026-05-25T11:05:55Z</time>
      </trkpt>
      <trkpt lat="43.68307" lon="1.5801">
        <ele>148.18</ele>
        <time>2026-05-25T11:06:29Z</time>
      </trkpt>
      <trkpt lat="43.68307" lon="1.5801">
        <ele>148.66</ele>
        <time>2026-05-25T11:06:44Z</time>
      </trkpt>
      <trkpt lat="43.68307" lon="1.58011">
        <ele>147.22</ele>
        <time>2026-05-25T11:06:46Z</time>
      </trkpt>
      <trkpt lat="43.68303" lon="1.58003">
        <ele>147.22</ele>
        <time>2026-05-25T11:07:03Z</time>
      </trkpt>
      <trkpt lat="43.68295" lon="1.57993">
        <ele>148.66</ele>
        <time>2026-05-25T11:07:12Z</time>
      </trkpt>
      <trkpt lat="43.68283" lon="1.57974">
        <ele>148.66</ele>
        <time>2026-05-25T11:07:26Z</time>
      </trkpt>
      <trkpt lat="43.68272" lon="1.57953">
        <ele>149.14</ele>
        <time>2026-05-25T11:07:41Z</time>
      </trkpt>
      <trkpt lat="43.68264" lon="1.57935">
        <ele>149.14</ele>
        <time>2026-05-25T11:07:55Z</time>
      </trkpt>
      <trkpt lat="43.68253" lon="1.57919">
        <ele>149.14</ele>
        <time>2026-05-25T11:08:09Z</time>
      </trkpt>
      <trkpt lat="43.68241" lon="1.57902">
        <ele>149.62</ele>
        <time>2026-05-25T11:08:22Z</time>
      </trkpt>
      <trkpt lat="43.6824" lon="1.579">
        <ele>149.62</ele>
        <time>2026-05-25T11:08:24Z</time>
      </trkpt>
      <trkpt lat="43.68226" lon="1.57883">
        <ele>149.62</ele>
        <time>2026-05-25T11:08:36Z</time>
      </trkpt>
      <trkpt lat="43.6822" lon="1.57876">
        <ele>150.1</ele>
        <time>2026-05-25T11:08:43Z</time>
      </trkpt>
      <trkpt lat="43.68206" lon="1.57855">
        <ele>150.58</ele>
        <time>2026-05-25T11:08:59Z</time>
      </trkpt>
      <trkpt lat="43.68203" lon="1.57853">
        <ele>150.58</ele>
        <time>2026-05-25T11:09:02Z</time>
      </trkpt>
      <trkpt lat="43.68197" lon="1.57845">
        <ele>150.58</ele>
        <time>2026-05-25T11:09:08Z</time>
      </trkpt>
      <trkpt lat="43.68184" lon="1.57827">
        <ele>151.06</ele>
        <time>2026-05-25T11:09:22Z</time>
      </trkpt>
      <trkpt lat="43.6818" lon="1.57824">
        <ele>151.06</ele>
        <time>2026-05-25T11:09:26Z</time>
      </trkpt>
      <trkpt lat="43.68166" lon="1.57808">
        <ele>152.03</ele>
        <time>2026-05-25T11:09:40Z</time>
      </trkpt>
      <trkpt lat="43.68144" lon="1.57788">
        <ele>153.47</ele>
        <time>2026-05-25T11:09:57Z</time>
      </trkpt>
      <trkpt lat="43.6813" lon="1.57777">
        <ele>153.47</ele>
        <time>2026-05-25T11:10:11Z</time>
      </trkpt>
      <trkpt lat="43.68116" lon="1.57763">
        <ele>153.95</ele>
        <time>2026-05-25T11:10:25Z</time>
      </trkpt>
      <trkpt lat="43.68099" lon="1.57748">
        <ele>154.43</ele>
        <time>2026-05-25T11:10:40Z</time>
      </trkpt>
      <trkpt lat="43.68081" lon="1.57733">
        <ele>154.91</ele>
        <time>2026-05-25T11:10:55Z</time>
      </trkpt>
      <trkpt lat="43.68073" lon="1.57726">
        <ele>154.91</ele>
        <time>2026-05-25T11:11:05Z</time>
      </trkpt>
      <trkpt lat="43.68055" lon="1.5771">
        <ele>155.39</ele>
        <time>2026-05-25T11:11:20Z</time>
      </trkpt>
      <trkpt lat="43.68041" lon="1.57696">
        <ele>155.39</ele>
        <time>2026-05-25T11:11:34Z</time>
      </trkpt>
      <trkpt lat="43.68023" lon="1.57685">
        <ele>156.83</ele>
        <time>2026-05-25T11:11:49Z</time>
      </trkpt>
      <trkpt lat="43.68017" lon="1.57675">
        <ele>155.39</ele>
        <time>2026-05-25T11:11:58Z</time>
      </trkpt>
      <trkpt lat="43.68012" lon="1.5767">
        <ele>156.83</ele>
        <time>2026-05-25T11:12:02Z</time>
      </trkpt>
      <trkpt lat="43.67996" lon="1.57656">
        <ele>156.83</ele>
        <time>2026-05-25T11:12:15Z</time>
      </trkpt>
      <trkpt lat="43.67978" lon="1.57638">
        <ele>157.31</ele>
        <time>2026-05-25T11:12:31Z</time>
      </trkpt>
      <trkpt lat="43.67966" lon="1.57628">
        <ele>157.79</ele>
        <time>2026-05-25T11:12:45Z</time>
      </trkpt>
      <trkpt lat="43.67954" lon="1.57618">
        <ele>157.31</ele>
        <time>2026-05-25T11:12:56Z</time>
      </trkpt>
      <trkpt lat="43.67938" lon="1.57604">
        <ele>158.75</ele>
        <time>2026-05-25T11:13:11Z</time>
      </trkpt>
      <trkpt lat="43.67927" lon="1.57594">
        <ele>159.24</ele>
        <time>2026-05-25T11:13:23Z</time>
      </trkpt>
      <trkpt lat="43.67914" lon="1.57581">
        <ele>159.72</ele>
        <time>2026-05-25T11:13:36Z</time>
      </trkpt>
      <trkpt lat="43.679" lon="1.57566">
        <ele>159.72</ele>
        <time>2026-05-25T11:13:50Z</time>
      </trkpt>
      <trkpt lat="43.67888" lon="1.57554">
        <ele>160.68</ele>
        <time>2026-05-25T11:14:02Z</time>
      </trkpt>
      <trkpt lat="43.67875" lon="1.57541">
        <ele>160.68</ele>
        <time>2026-05-25T11:14:16Z</time>
      </trkpt>
      <trkpt lat="43.67872" lon="1.57537">
        <ele>161.64</ele>
        <time>2026-05-25T11:14:20Z</time>
      </trkpt>
      <trkpt lat="43.67871" lon="1.57536">
        <ele>161.64</ele>
        <time>2026-05-25T11:14:21Z</time>
      </trkpt>
      <trkpt lat="43.67853" lon="1.57529">
        <ele>162.12</ele>
        <time>2026-05-25T11:14:39Z</time>
      </trkpt>
      <trkpt lat="43.67836" lon="1.57526">
        <ele>163.08</ele>
        <time>2026-05-25T11:14:54Z</time>
      </trkpt>
      <trkpt lat="43.67816" lon="1.57524">
        <ele>164.04</ele>
        <time>2026-05-25T11:15:11Z</time>
      </trkpt>
      <trkpt lat="43.67804" lon="1.57521">
        <ele>164.52</ele>
        <time>2026-05-25T11:15:28Z</time>
      </trkpt>
      <trkpt lat="43.67791" lon="1.57516">
        <ele>165.48</ele>
        <time>2026-05-25T11:15:52Z</time>
      </trkpt>
      <trkpt lat="43.67776" lon="1.57513">
        <ele>167.41</ele>
        <time>2026-05-25T11:16:08Z</time>
      </trkpt>
      <trkpt lat="43.67762" lon="1.5751">
        <ele>168.85</ele>
        <time>2026-05-25T11:16:26Z</time>
      </trkpt>
      <trkpt lat="43.67758" lon="1.57509">
        <ele>170.29</ele>
        <time>2026-05-25T11:16:30Z</time>
      </trkpt>
      <trkpt lat="43.67741" lon="1.57504">
        <ele>172.21</ele>
        <time>2026-05-25T11:16:47Z</time>
      </trkpt>
      <trkpt lat="43.6772" lon="1.57492">
        <ele>175.1</ele>
        <time>2026-05-25T11:17:06Z</time>
      </trkpt>
      <trkpt lat="43.67719" lon="1.57491">
        <ele>176.06</ele>
        <time>2026-05-25T11:17:07Z</time>
      </trkpt>
      <trkpt lat="43.67718" lon="1.5749">
        <ele>176.06</ele>
        <time>2026-05-25T11:17:08Z</time>
      </trkpt>
      <trkpt lat="43.67716" lon="1.57489">
        <ele>176.06</ele>
        <time>2026-05-25T11:17:09Z</time>
      </trkpt>
      <trkpt lat="43.67702" lon="1.57485">
        <ele>177.5</ele>
        <time>2026-05-25T11:17:25Z</time>
      </trkpt>
      <trkpt lat="43.67689" lon="1.57478">
        <ele>179.9</ele>
        <time>2026-05-25T11:17:41Z</time>
      </trkpt>
      <trkpt lat="43.67678" lon="1.57473">
        <ele>181.35</ele>
        <time>2026-05-25T11:17:56Z</time>
      </trkpt>
      <trkpt lat="43.67658" lon="1.57463">
        <ele>182.31</ele>
        <time>2026-05-25T11:18:11Z</time>
      </trkpt>
      <trkpt lat="43.67643" lon="1.5745">
        <ele>182.79</ele>
        <time>2026-05-25T11:18:25Z</time>
      </trkpt>
      <trkpt lat="43.6763" lon="1.57437">
        <ele>183.27</ele>
        <time>2026-05-25T11:18:38Z</time>
      </trkpt>
      <trkpt lat="43.67613" lon="1.57425">
        <ele>183.75</ele>
        <time>2026-05-25T11:18:50Z</time>
      </trkpt>
      <trkpt lat="43.67612" lon="1.57423">
        <ele>183.75</ele>
        <time>2026-05-25T11:18:51Z</time>
      </trkpt>
      <trkpt lat="43.67601" lon="1.57414">
        <ele>183.75</ele>
        <time>2026-05-25T11:19:01Z</time>
      </trkpt>
      <trkpt lat="43.676" lon="1.57413">
        <ele>183.75</ele>
        <time>2026-05-25T11:19:02Z</time>
      </trkpt>
      <trkpt lat="43.67593" lon="1.57409">
        <ele>183.75</ele>
        <time>2026-05-25T11:19:09Z</time>
      </trkpt>
      <trkpt lat="43.67592" lon="1.57408">
        <ele>183.75</ele>
        <time>2026-05-25T11:19:10Z</time>
      </trkpt>
      <trkpt lat="43.6759" lon="1.57407">
        <ele>183.75</ele>
        <time>2026-05-25T11:19:11Z</time>
      </trkpt>
      <trkpt lat="43.67589" lon="1.57407">
        <ele>183.75</ele>
        <time>2026-05-25T11:19:12Z</time>
      </trkpt>
      <trkpt lat="43.67587" lon="1.57406">
        <ele>183.75</ele>
        <time>2026-05-25T11:19:13Z</time>
      </trkpt>
      <trkpt lat="43.67586" lon="1.57405">
        <ele>183.75</ele>
        <time>2026-05-25T11:19:14Z</time>
      </trkpt>
      <trkpt lat="43.67585" lon="1.57405">
        <ele>183.75</ele>
        <time>2026-05-25T11:19:15Z</time>
      </trkpt>
      <trkpt lat="43.67583" lon="1.57404">
        <ele>183.75</ele>
        <time>2026-05-25T11:19:16Z</time>
      </trkpt>
      <trkpt lat="43.67583" lon="1.57403">
        <ele>183.75</ele>
        <time>2026-05-25T11:19:17Z</time>
      </trkpt>
      <trkpt lat="43.67582" lon="1.57401">
        <ele>183.75</ele>
        <time>2026-05-25T11:19:18Z</time>
      </trkpt>
      <trkpt lat="43.6757" lon="1.57375">
        <ele>183.75</ele>
        <time>2026-05-25T11:19:35Z</time>
      </trkpt>
      <trkpt lat="43.67562" lon="1.57356">
        <ele>183.75</ele>
        <time>2026-05-25T11:19:48Z</time>
      </trkpt>
      <trkpt lat="43.67553" lon="1.57339">
        <ele>183.75</ele>
        <time>2026-05-25T11:20:00Z</time>
      </trkpt>
      <trkpt lat="43.67548" lon="1.57323">
        <ele>183.75</ele>
        <time>2026-05-25T11:20:11Z</time>
      </trkpt>
      <trkpt lat="43.67547" lon="1.57321">
        <ele>183.75</ele>
        <time>2026-05-25T11:20:12Z</time>
      </trkpt>
      <trkpt lat="43.67546" lon="1.5732">
        <ele>183.75</ele>
        <time>2026-05-25T11:20:13Z</time>
      </trkpt>
      <trkpt lat="43.67545" lon="1.57318">
        <ele>183.75</ele>
        <time>2026-05-25T11:20:14Z</time>
      </trkpt>
      <trkpt lat="43.6754" lon="1.57294">
        <ele>184.71</ele>
        <time>2026-05-25T11:20:29Z</time>
      </trkpt>
      <trkpt lat="43.67535" lon="1.57268">
        <ele>184.71</ele>
        <time>2026-05-25T11:20:43Z</time>
      </trkpt>
      <trkpt lat="43.67533" lon="1.57241">
        <ele>184.71</ele>
        <time>2026-05-25T11:20:57Z</time>
      </trkpt>
      <trkpt lat="43.67536" lon="1.57213">
        <ele>185.19</ele>
        <time>2026-05-25T11:21:13Z</time>
      </trkpt>
      <trkpt lat="43.67538" lon="1.57186">
        <ele>186.15</ele>
        <time>2026-05-25T11:21:28Z</time>
      </trkpt>
      <trkpt lat="43.67544" lon="1.57167">
        <ele>186.63</ele>
        <time>2026-05-25T11:21:42Z</time>
      </trkpt>
      <trkpt lat="43.67552" lon="1.57146">
        <ele>187.59</ele>
        <time>2026-05-25T11:21:56Z</time>
      </trkpt>
      <trkpt lat="43.67562" lon="1.57121">
        <ele>188.08</ele>
        <time>2026-05-25T11:22:12Z</time>
      </trkpt>
      <trkpt lat="43.67575" lon="1.57094">
        <ele>188.56</ele>
        <time>2026-05-25T11:22:28Z</time>
      </trkpt>
      <trkpt lat="43.67583" lon="1.57071">
        <ele>189.04</ele>
        <time>2026-05-25T11:22:42Z</time>
      </trkpt>
      <trkpt lat="43.67586" lon="1.57053">
        <ele>189.04</ele>
        <time>2026-05-25T11:22:54Z</time>
      </trkpt>
      <trkpt lat="43.67587" lon="1.57045">
        <ele>187.59</ele>
        <time>2026-05-25T11:22:59Z</time>
      </trkpt>
      <trkpt lat="43.67588" lon="1.57025">
        <ele>186.63</ele>
        <time>2026-05-25T11:23:10Z</time>
      </trkpt>
      <trkpt lat="43.67588" lon="1.57005">
        <ele>185.67</ele>
        <time>2026-05-25T11:23:21Z</time>
      </trkpt>
      <trkpt lat="43.67588" lon="1.56979">
        <ele>184.23</ele>
        <time>2026-05-25T11:23:34Z</time>
      </trkpt>
      <trkpt lat="43.6759" lon="1.56956">
        <ele>182.31</ele>
        <time>2026-05-25T11:23:46Z</time>
      </trkpt>
      <trkpt lat="43.67593" lon="1.56934">
        <ele>181.83</ele>
        <time>2026-05-25T11:23:58Z</time>
      </trkpt>
      <trkpt lat="43.67594" lon="1.56928">
        <ele>180.87</ele>
        <time>2026-05-25T11:24:03Z</time>
      </trkpt>
      <trkpt lat="43.67594" lon="1.56926">
        <ele>180.87</ele>
        <time>2026-05-25T11:24:04Z</time>
      </trkpt>
      <trkpt lat="43.67594" lon="1.56924">
        <ele>180.87</ele>
        <time>2026-05-25T11:24:05Z</time>
      </trkpt>
      <trkpt lat="43.67599" lon="1.56896">
        <ele>178.94</ele>
        <time>2026-05-25T11:24:19Z</time>
      </trkpt>
      <trkpt lat="43.67604" lon="1.56873">
        <ele>177.98</ele>
        <time>2026-05-25T11:24:32Z</time>
      </trkpt>
      <trkpt lat="43.67611" lon="1.5685">
        <ele>176.54</ele>
        <time>2026-05-25T11:24:46Z</time>
      </trkpt>
      <trkpt lat="43.67612" lon="1.56845">
        <ele>176.54</ele>
        <time>2026-05-25T11:24:50Z</time>
      </trkpt>
      <trkpt lat="43.67613" lon="1.56843">
        <ele>176.54</ele>
        <time>2026-05-25T11:24:51Z</time>
      </trkpt>
      <trkpt lat="43.67613" lon="1.56841">
        <ele>176.06</ele>
        <time>2026-05-25T11:24:52Z</time>
      </trkpt>
      <trkpt lat="43.67613" lon="1.56838">
        <ele>176.06</ele>
        <time>2026-05-25T11:24:53Z</time>
      </trkpt>
      <trkpt lat="43.67614" lon="1.56836">
        <ele>176.06</ele>
        <time>2026-05-25T11:24:54Z</time>
      </trkpt>
      <trkpt lat="43.67614" lon="1.56834">
        <ele>176.06</ele>
        <time>2026-05-25T11:24:55Z</time>
      </trkpt>
      <trkpt lat="43.67621" lon="1.56809">
        <ele>174.62</ele>
        <time>2026-05-25T11:25:09Z</time>
      </trkpt>
      <trkpt lat="43.67627" lon="1.56784">
        <ele>173.17</ele>
        <time>2026-05-25T11:25:24Z</time>
      </trkpt>
      <trkpt lat="43.67636" lon="1.56762">
        <ele>172.21</ele>
        <time>2026-05-25T11:25:37Z</time>
      </trkpt>
      <trkpt lat="43.67637" lon="1.56761">
        <ele>172.21</ele>
        <time>2026-05-25T11:25:38Z</time>
      </trkpt>
      <trkpt lat="43.67637" lon="1.56759">
        <ele>171.25</ele>
        <time>2026-05-25T11:25:39Z</time>
      </trkpt>
      <trkpt lat="43.67638" lon="1.56757">
        <ele>171.25</ele>
        <time>2026-05-25T11:25:40Z</time>
      </trkpt>
      <trkpt lat="43.67639" lon="1.56755">
        <ele>171.25</ele>
        <time>2026-05-25T11:25:41Z</time>
      </trkpt>
      <trkpt lat="43.67641" lon="1.56751">
        <ele>170.77</ele>
        <time>2026-05-25T11:25:43Z</time>
      </trkpt>
      <trkpt lat="43.67642" lon="1.56749">
        <ele>170.77</ele>
        <time>2026-05-25T11:25:44Z</time>
      </trkpt>
      <trkpt lat="43.67644" lon="1.56747">
        <ele>170.77</ele>
        <time>2026-05-25T11:25:45Z</time>
      </trkpt>
      <trkpt lat="43.67645" lon="1.56746">
        <ele>170.29</ele>
        <time>2026-05-25T11:25:46Z</time>
      </trkpt>
      <trkpt lat="43.67646" lon="1.56745">
        <ele>170.29</ele>
        <time>2026-05-25T11:25:47Z</time>
      </trkpt>
      <trkpt lat="43.67656" lon="1.56723">
        <ele>168.85</ele>
        <time>2026-05-25T11:26:01Z</time>
      </trkpt>
      <trkpt lat="43.67657" lon="1.5672">
        <ele>168.37</ele>
        <time>2026-05-25T11:26:04Z</time>
      </trkpt>
      <trkpt lat="43.67656" lon="1.56717">
        <ele>168.37</ele>
        <time>2026-05-25T11:26:05Z</time>
      </trkpt>
      <trkpt lat="43.67655" lon="1.56693">
        <ele>166.45</ele>
        <time>2026-05-25T11:26:18Z</time>
      </trkpt>
      <trkpt lat="43.67651" lon="1.5668">
        <ele>166.45</ele>
        <time>2026-05-25T11:26:24Z</time>
      </trkpt>
      <trkpt lat="43.6765" lon="1.56679">
        <ele>166.45</ele>
        <time>2026-05-25T11:26:25Z</time>
      </trkpt>
      <trkpt lat="43.67646" lon="1.56669">
        <ele>166.45</ele>
        <time>2026-05-25T11:26:33Z</time>
      </trkpt>
      <trkpt lat="43.67631" lon="1.56653">
        <ele>166.45</ele>
        <time>2026-05-25T11:26:47Z</time>
      </trkpt>
      <trkpt lat="43.67621" lon="1.56651">
        <ele>166.45</ele>
        <time>2026-05-25T11:26:56Z</time>
      </trkpt>
      <trkpt lat="43.67596" lon="1.56657">
        <ele>166.45</ele>
        <time>2026-05-25T11:27:12Z</time>
      </trkpt>
      <trkpt lat="43.67577" lon="1.56664">
        <ele>166.45</ele>
        <time>2026-05-25T11:27:25Z</time>
      </trkpt>
      <trkpt lat="43.6756" lon="1.56662">
        <ele>166.45</ele>
        <time>2026-05-25T11:27:41Z</time>
      </trkpt>
      <trkpt lat="43.67553" lon="1.56648">
        <ele>166.45</ele>
        <time>2026-05-25T11:27:55Z</time>
      </trkpt>
      <trkpt lat="43.67554" lon="1.56635">
        <ele>167.89</ele>
        <time>2026-05-25T11:28:02Z</time>
      </trkpt>
      <trkpt lat="43.67554" lon="1.56633">
        <ele>167.89</ele>
        <time>2026-05-25T11:28:03Z</time>
      </trkpt>
      <trkpt lat="43.67554" lon="1.56632">
        <ele>167.89</ele>
        <time>2026-05-25T11:28:04Z</time>
      </trkpt>
      <trkpt lat="43.67561" lon="1.56623">
        <ele>169.33</ele>
        <time>2026-05-25T11:28:17Z</time>
      </trkpt>
      <trkpt lat="43.67568" lon="1.56619">
        <ele>170.77</ele>
        <time>2026-05-25T11:28:29Z</time>
      </trkpt>
      <trkpt lat="43.67569" lon="1.56619">
        <ele>171.73</ele>
        <time>2026-05-25T11:28:40Z</time>
      </trkpt>
      <trkpt lat="43.67576" lon="1.5661">
        <ele>172.21</ele>
        <time>2026-05-25T11:28:55Z</time>
      </trkpt>
      <trkpt lat="43.67594" lon="1.56604">
        <ele>173.17</ele>
        <time>2026-05-25T11:29:12Z</time>
      </trkpt>
      <trkpt lat="43.67605" lon="1.56601">
        <ele>173.66</ele>
        <time>2026-05-25T11:29:22Z</time>
      </trkpt>
      <trkpt lat="43.67606" lon="1.56599">
        <ele>174.14</ele>
        <time>2026-05-25T11:29:23Z</time>
      </trkpt>
      <trkpt lat="43.67616" lon="1.56581">
        <ele>176.06</ele>
        <time>2026-05-25T11:29:37Z</time>
      </trkpt>
      <trkpt lat="43.67621" lon="1.56564">
        <ele>177.02</ele>
        <time>2026-05-25T11:29:50Z</time>
      </trkpt>
      <trkpt lat="43.67621" lon="1.56563">
        <ele>177.02</ele>
        <time>2026-05-25T11:29:51Z</time>
      </trkpt>
      <trkpt lat="43.67622" lon="1.56561">
        <ele>177.02</ele>
        <time>2026-05-25T11:29:52Z</time>
      </trkpt>
      <trkpt lat="43.67628" lon="1.56543">
        <ele>177.5</ele>
        <time>2026-05-25T11:30:03Z</time>
      </trkpt>
      <trkpt lat="43.67629" lon="1.56541">
        <ele>177.5</ele>
        <time>2026-05-25T11:30:04Z</time>
      </trkpt>
      <trkpt lat="43.67635" lon="1.56515">
        <ele>178.94</ele>
        <time>2026-05-25T11:30:20Z</time>
      </trkpt>
      <trkpt lat="43.67632" lon="1.56491">
        <ele>181.83</ele>
        <time>2026-05-25T11:30:35Z</time>
      </trkpt>
      <trkpt lat="43.67631" lon="1.56489">
        <ele>181.83</ele>
        <time>2026-05-25T11:30:36Z</time>
      </trkpt>
      <trkpt lat="43.6761" lon="1.56478">
        <ele>183.27</ele>
        <time>2026-05-25T11:30:55Z</time>
      </trkpt>
      <trkpt lat="43.67584" lon="1.56475">
        <ele>185.19</ele>
        <time>2026-05-25T11:31:16Z</time>
      </trkpt>
      <trkpt lat="43.67577" lon="1.56472">
        <ele>185.67</ele>
        <time>2026-05-25T11:31:22Z</time>
      </trkpt>
      <trkpt lat="43.67575" lon="1.56472">
        <ele>186.15</ele>
        <time>2026-05-25T11:31:23Z</time>
      </trkpt>
      <trkpt lat="43.67553" lon="1.56461">
        <ele>187.11</ele>
        <time>2026-05-25T11:31:41Z</time>
      </trkpt>
      <trkpt lat="43.67538" lon="1.56443">
        <ele>189.04</ele>
        <time>2026-05-25T11:31:59Z</time>
      </trkpt>
      <trkpt lat="43.67521" lon="1.5642">
        <ele>190.96</ele>
        <time>2026-05-25T11:32:17Z</time>
      </trkpt>
      <trkpt lat="43.67508" lon="1.564">
        <ele>191.92</ele>
        <time>2026-05-25T11:32:33Z</time>
      </trkpt>
      <trkpt lat="43.67494" lon="1.56378">
        <ele>192.88</ele>
        <time>2026-05-25T11:32:50Z</time>
      </trkpt>
      <trkpt lat="43.67481" lon="1.56361">
        <ele>193.36</ele>
        <time>2026-05-25T11:33:04Z</time>
      </trkpt>
      <trkpt lat="43.67464" lon="1.56342">
        <ele>193.84</ele>
        <time>2026-05-25T11:33:20Z</time>
      </trkpt>
      <trkpt lat="43.67448" lon="1.56325">
        <ele>194.32</ele>
        <time>2026-05-25T11:33:36Z</time>
      </trkpt>
      <trkpt lat="43.67431" lon="1.56308">
        <ele>194.32</ele>
        <time>2026-05-25T11:33:52Z</time>
      </trkpt>
      <trkpt lat="43.6743" lon="1.56306">
        <ele>194.32</ele>
        <time>2026-05-25T11:33:53Z</time>
      </trkpt>
      <trkpt lat="43.6743" lon="1.56304">
        <ele>194.32</ele>
        <time>2026-05-25T11:33:54Z</time>
      </trkpt>
      <trkpt lat="43.67428" lon="1.56303">
        <ele>194.32</ele>
        <time>2026-05-25T11:33:55Z</time>
      </trkpt>
      <trkpt lat="43.67427" lon="1.56302">
        <ele>194.32</ele>
        <time>2026-05-25T11:33:56Z</time>
      </trkpt>
      <trkpt lat="43.67426" lon="1.56302">
        <ele>194.8</ele>
        <time>2026-05-25T11:33:57Z</time>
      </trkpt>
      <trkpt lat="43.67424" lon="1.56301">
        <ele>194.8</ele>
        <time>2026-05-25T11:33:58Z</time>
      </trkpt>
      <trkpt lat="43.67407" lon="1.56286">
        <ele>194.8</ele>
        <time>2026-05-25T11:34:14Z</time>
      </trkpt>
      <trkpt lat="43.6739" lon="1.56269">
        <ele>195.28</ele>
        <time>2026-05-25T11:34:31Z</time>
      </trkpt>
      <trkpt lat="43.67368" lon="1.5625">
        <ele>195.28</ele>
        <time>2026-05-25T11:34:49Z</time>
      </trkpt>
      <trkpt lat="43.6735" lon="1.56233">
        <ele>195.77</ele>
        <time>2026-05-25T11:35:07Z</time>
      </trkpt>
      <trkpt lat="43.6733" lon="1.56219">
        <ele>195.77</ele>
        <time>2026-05-25T11:35:23Z</time>
      </trkpt>
      <trkpt lat="43.67329" lon="1.56219">
        <ele>195.77</ele>
        <time>2026-05-25T11:35:24Z</time>
      </trkpt>
      <trkpt lat="43.67328" lon="1.56218">
        <ele>195.77</ele>
        <time>2026-05-25T11:35:25Z</time>
      </trkpt>
      <trkpt lat="43.67309" lon="1.56205">
        <ele>197.21</ele>
        <time>2026-05-25T11:35:41Z</time>
      </trkpt>
      <trkpt lat="43.67287" lon="1.56192">
        <ele>197.21</ele>
        <time>2026-05-25T11:35:58Z</time>
      </trkpt>
      <trkpt lat="43.67265" lon="1.56176">
        <ele>197.69</ele>
        <time>2026-05-25T11:36:17Z</time>
      </trkpt>
      <trkpt lat="43.67248" lon="1.5616">
        <ele>198.17</ele>
        <time>2026-05-25T11:36:34Z</time>
      </trkpt>
      <trkpt lat="43.67231" lon="1.56141">
        <ele>199.13</ele>
        <time>2026-05-25T11:36:53Z</time>
      </trkpt>
      <trkpt lat="43.67218" lon="1.56127">
        <ele>199.13</ele>
        <time>2026-05-25T11:37:05Z</time>
      </trkpt>
      <trkpt lat="43.67217" lon="1.56127">
        <ele>199.61</ele>
        <time>2026-05-25T11:37:06Z</time>
      </trkpt>
      <trkpt lat="43.67214" lon="1.56124">
        <ele>199.61</ele>
        <time>2026-05-25T11:37:17Z</time>
      </trkpt>
      <trkpt lat="43.67212" lon="1.56121">
        <ele>200.09</ele>
        <time>2026-05-25T11:37:28Z</time>
      </trkpt>
      <trkpt lat="43.67198" lon="1.56101">
        <ele>199.13</ele>
        <time>2026-05-25T11:37:45Z</time>
      </trkpt>
      <trkpt lat="43.67197" lon="1.561">
        <ele>199.13</ele>
        <time>2026-05-25T11:37:46Z</time>
      </trkpt>
      <trkpt lat="43.67196" lon="1.56099">
        <ele>199.13</ele>
        <time>2026-05-25T11:37:47Z</time>
      </trkpt>
      <trkpt lat="43.67196" lon="1.56097">
        <ele>199.13</ele>
        <time>2026-05-25T11:37:48Z</time>
      </trkpt>
      <trkpt lat="43.67195" lon="1.56096">
        <ele>199.13</ele>
        <time>2026-05-25T11:37:49Z</time>
      </trkpt>
      <trkpt lat="43.67194" lon="1.56095">
        <ele>199.13</ele>
        <time>2026-05-25T11:37:50Z</time>
      </trkpt>
      <trkpt lat="43.67193" lon="1.56094">
        <ele>199.13</ele>
        <time>2026-05-25T11:37:51Z</time>
      </trkpt>
      <trkpt lat="43.67192" lon="1.56092">
        <ele>199.13</ele>
        <time>2026-05-25T11:37:52Z</time>
      </trkpt>
      <trkpt lat="43.67191" lon="1.56091">
        <ele>199.13</ele>
        <time>2026-05-25T11:37:53Z</time>
      </trkpt>
      <trkpt lat="43.6719" lon="1.56089">
        <ele>199.13</ele>
        <time>2026-05-25T11:37:54Z</time>
      </trkpt>
      <trkpt lat="43.67174" lon="1.56068">
        <ele>199.13</ele>
        <time>2026-05-25T11:38:09Z</time>
      </trkpt>
      <trkpt lat="43.67172" lon="1.56065">
        <ele>199.13</ele>
        <time>2026-05-25T11:38:14Z</time>
      </trkpt>
      <trkpt lat="43.6717" lon="1.56064">
        <ele>199.13</ele>
        <time>2026-05-25T11:38:15Z</time>
      </trkpt>
      <trkpt lat="43.67168" lon="1.56061">
        <ele>200.57</ele>
        <time>2026-05-25T11:38:17Z</time>
      </trkpt>
      <trkpt lat="43.67154" lon="1.56046">
        <ele>200.57</ele>
        <time>2026-05-25T11:38:30Z</time>
      </trkpt>
      <trkpt lat="43.67139" lon="1.56031">
        <ele>200.09</ele>
        <time>2026-05-25T11:38:44Z</time>
      </trkpt>
      <trkpt lat="43.67121" lon="1.56017">
        <ele>200.57</ele>
        <time>2026-05-25T11:38:58Z</time>
      </trkpt>
      <trkpt lat="43.67102" lon="1.56002">
        <ele>201.05</ele>
        <time>2026-05-25T11:39:14Z</time>
      </trkpt>
      <trkpt lat="43.67086" lon="1.55993">
        <ele>201.53</ele>
        <time>2026-05-25T11:39:29Z</time>
      </trkpt>
      <trkpt lat="43.67068" lon="1.55984">
        <ele>201.53</ele>
        <time>2026-05-25T11:39:44Z</time>
      </trkpt>
      <trkpt lat="43.67051" lon="1.55976">
        <ele>202.01</ele>
        <time>2026-05-25T11:39:58Z</time>
      </trkpt>
      <trkpt lat="43.67035" lon="1.55969">
        <ele>202.49</ele>
        <time>2026-05-25T11:40:11Z</time>
      </trkpt>
      <trkpt lat="43.67016" lon="1.55961">
        <ele>202.49</ele>
        <time>2026-05-25T11:40:26Z</time>
      </trkpt>
      <trkpt lat="43.67001" lon="1.55955">
        <ele>203.46</ele>
        <time>2026-05-25T11:40:38Z</time>
      </trkpt>
      <trkpt lat="43.66986" lon="1.55949">
        <ele>203.94</ele>
        <time>2026-05-25T11:40:51Z</time>
      </trkpt>
      <trkpt lat="43.66971" lon="1.55943">
        <ele>204.42</ele>
        <time>2026-05-25T11:41:04Z</time>
      </trkpt>
      <trkpt lat="43.66972" lon="1.55944">
        <ele>204.42</ele>
        <time>2026-05-25T11:41:20Z</time>
      </trkpt>
      <trkpt lat="43.66963" lon="1.55937">
        <ele>204.9</ele>
        <time>2026-05-25T11:41:30Z</time>
      </trkpt>
      <trkpt lat="43.66951" lon="1.55929">
        <ele>205.38</ele>
        <time>2026-05-25T11:41:42Z</time>
      </trkpt>
      <trkpt lat="43.66936" lon="1.55914">
        <ele>206.34</ele>
        <time>2026-05-25T11:41:56Z</time>
      </trkpt>
      <trkpt lat="43.66926" lon="1.55901">
        <ele>207.3</ele>
        <time>2026-05-25T11:42:07Z</time>
      </trkpt>
      <trkpt lat="43.66916" lon="1.55887">
        <ele>208.26</ele>
        <time>2026-05-25T11:42:19Z</time>
      </trkpt>
      <trkpt lat="43.66904" lon="1.55873">
        <ele>209.7</ele>
        <time>2026-05-25T11:42:31Z</time>
      </trkpt>
      <trkpt lat="43.66893" lon="1.55857">
        <ele>210.67</ele>
        <time>2026-05-25T11:42:45Z</time>
      </trkpt>
      <trkpt lat="43.66884" lon="1.55843">
        <ele>211.15</ele>
        <time>2026-05-25T11:42:58Z</time>
      </trkpt>
      <trkpt lat="43.66874" lon="1.55829">
        <ele>212.11</ele>
        <time>2026-05-25T11:43:11Z</time>
      </trkpt>
      <trkpt lat="43.66864" lon="1.55813">
        <ele>213.07</ele>
        <time>2026-05-25T11:43:23Z</time>
      </trkpt>
      <trkpt lat="43.66857" lon="1.55802">
        <ele>213.07</ele>
        <time>2026-05-25T11:43:34Z</time>
      </trkpt>
      <trkpt lat="43.66853" lon="1.55799">
        <ele>213.55</ele>
        <time>2026-05-25T11:43:47Z</time>
      </trkpt>
      <trkpt lat="43.66852" lon="1.55799">
        <ele>213.55</ele>
        <time>2026-05-25T11:44:09Z</time>
      </trkpt>
      <trkpt lat="43.66848" lon="1.55793">
        <ele>213.55</ele>
        <time>2026-05-25T11:44:17Z</time>
      </trkpt>
      <trkpt lat="43.66847" lon="1.55792">
        <ele>213.55</ele>
        <time>2026-05-25T11:44:18Z</time>
      </trkpt>
      <trkpt lat="43.66838" lon="1.55779">
        <ele>214.03</ele>
        <time>2026-05-25T11:44:29Z</time>
      </trkpt>
      <trkpt lat="43.66825" lon="1.55767">
        <ele>214.99</ele>
        <time>2026-05-25T11:44:41Z</time>
      </trkpt>
      <trkpt lat="43.66822" lon="1.55765">
        <ele>214.99</ele>
        <time>2026-05-25T11:44:45Z</time>
      </trkpt>
      <trkpt lat="43.66821" lon="1.55764">
        <ele>214.99</ele>
        <time>2026-05-25T11:44:46Z</time>
      </trkpt>
      <trkpt lat="43.6682" lon="1.55763">
        <ele>214.99</ele>
        <time>2026-05-25T11:44:47Z</time>
      </trkpt>
      <trkpt lat="43.66808" lon="1.5575">
        <ele>215.47</ele>
        <time>2026-05-25T11:44:59Z</time>
      </trkpt>
      <trkpt lat="43.66794" lon="1.55735">
        <ele>216.43</ele>
        <time>2026-05-25T11:45:15Z</time>
      </trkpt>
      <trkpt lat="43.6678" lon="1.55719">
        <ele>216.91</ele>
        <time>2026-05-25T11:45:29Z</time>
      </trkpt>
      <trkpt lat="43.66767" lon="1.55706">
        <ele>217.88</ele>
        <time>2026-05-25T11:45:42Z</time>
      </trkpt>
      <trkpt lat="43.66755" lon="1.55691">
        <ele>219.32</ele>
        <time>2026-05-25T11:45:55Z</time>
      </trkpt>
      <trkpt lat="43.6674" lon="1.55673">
        <ele>220.28</ele>
        <time>2026-05-25T11:46:10Z</time>
      </trkpt>
      <trkpt lat="43.66725" lon="1.55654">
        <ele>221.72</ele>
        <time>2026-05-25T11:46:24Z</time>
      </trkpt>
      <trkpt lat="43.66712" lon="1.55636">
        <ele>222.68</ele>
        <time>2026-05-25T11:46:39Z</time>
      </trkpt>
      <trkpt lat="43.66703" lon="1.55621">
        <ele>223.16</ele>
        <time>2026-05-25T11:46:54Z</time>
      </trkpt>
      <trkpt lat="43.66702" lon="1.5562">
        <ele>223.16</ele>
        <time>2026-05-25T11:46:55Z</time>
      </trkpt>
      <trkpt lat="43.667" lon="1.55619">
        <ele>223.16</ele>
        <time>2026-05-25T11:47:07Z</time>
      </trkpt>
      <trkpt lat="43.667" lon="1.55618">
        <ele>223.16</ele>
        <time>2026-05-25T11:47:41Z</time>
      </trkpt>
      <trkpt lat="43.66692" lon="1.55609">
        <ele>223.64</ele>
        <time>2026-05-25T11:47:52Z</time>
      </trkpt>
      <trkpt lat="43.66691" lon="1.55609">
        <ele>223.64</ele>
        <time>2026-05-25T11:47:53Z</time>
      </trkpt>
      <trkpt lat="43.6669" lon="1.55608">
        <ele>223.16</ele>
        <time>2026-05-25T11:47:54Z</time>
      </trkpt>
      <trkpt lat="43.66682" lon="1.55592">
        <ele>225.09</ele>
        <time>2026-05-25T11:48:10Z</time>
      </trkpt>
      <trkpt lat="43.66683" lon="1.55588">
        <ele>223.64</ele>
        <time>2026-05-25T11:48:12Z</time>
      </trkpt>
      <trkpt lat="43.66683" lon="1.55587">
        <ele>223.64</ele>
        <time>2026-05-25T11:48:13Z</time>
      </trkpt>
      <trkpt lat="43.66691" lon="1.55558">
        <ele>223.64</ele>
        <time>2026-05-25T11:48:31Z</time>
      </trkpt>
      <trkpt lat="43.66692" lon="1.55554">
        <ele>223.64</ele>
        <time>2026-05-25T11:48:33Z</time>
      </trkpt>
      <trkpt lat="43.66689" lon="1.55553">
        <ele>223.64</ele>
        <time>2026-05-25T11:48:38Z</time>
      </trkpt>
      <trkpt lat="43.66687" lon="1.55549">
        <ele>223.64</ele>
        <time>2026-05-25T11:48:50Z</time>
      </trkpt>
      <trkpt lat="43.66688" lon="1.55547">
        <ele>225.09</ele>
        <time>2026-05-25T11:48:54Z</time>
      </trkpt>
      <trkpt lat="43.66688" lon="1.55547">
        <ele>224.12</ele>
        <time>2026-05-25T11:49:13Z</time>
      </trkpt>
      <trkpt lat="43.66688" lon="1.55545">
        <ele>224.12</ele>
        <time>2026-05-25T11:49:14Z</time>
      </trkpt>
      <trkpt lat="43.66695" lon="1.55523">
        <ele>224.12</ele>
        <time>2026-05-25T11:49:28Z</time>
      </trkpt>
      <trkpt lat="43.66701" lon="1.555">
        <ele>224.12</ele>
        <time>2026-05-25T11:49:42Z</time>
      </trkpt>
      <trkpt lat="43.66703" lon="1.55489">
        <ele>224.12</ele>
        <time>2026-05-25T11:49:50Z</time>
      </trkpt>
      <trkpt lat="43.66702" lon="1.55474">
        <ele>225.57</ele>
        <time>2026-05-25T11:49:57Z</time>
      </trkpt>
      <trkpt lat="43.667" lon="1.55457">
        <ele>224.61</ele>
        <time>2026-05-25T11:50:07Z</time>
      </trkpt>
      <trkpt lat="43.66696" lon="1.55423">
        <ele>225.09</ele>
        <time>2026-05-25T11:50:27Z</time>
      </trkpt>
      <trkpt lat="43.66695" lon="1.55421">
        <ele>225.09</ele>
        <time>2026-05-25T11:50:28Z</time>
      </trkpt>
      <trkpt lat="43.66705" lon="1.55397">
        <ele>225.09</ele>
        <time>2026-05-25T11:50:45Z</time>
      </trkpt>
      <trkpt lat="43.66713" lon="1.55394">
        <ele>226.05</ele>
        <time>2026-05-25T11:50:53Z</time>
      </trkpt>
      <trkpt lat="43.66715" lon="1.55394">
        <ele>226.05</ele>
        <time>2026-05-25T11:50:54Z</time>
      </trkpt>
      <trkpt lat="43.66716" lon="1.55394">
        <ele>226.05</ele>
        <time>2026-05-25T11:50:55Z</time>
      </trkpt>
      <trkpt lat="43.66717" lon="1.55394">
        <ele>226.05</ele>
        <time>2026-05-25T11:50:56Z</time>
      </trkpt>
      <trkpt lat="43.66718" lon="1.55395">
        <ele>226.05</ele>
        <time>2026-05-25T11:50:57Z</time>
      </trkpt>
      <trkpt lat="43.66745" lon="1.55407">
        <ele>226.05</ele>
        <time>2026-05-25T11:51:19Z</time>
      </trkpt>
      <trkpt lat="43.66749" lon="1.55409">
        <ele>226.05</ele>
        <time>2026-05-25T11:51:22Z</time>
      </trkpt>
      <trkpt lat="43.66751" lon="1.55409">
        <ele>225.09</ele>
        <time>2026-05-25T11:51:23Z</time>
      </trkpt>
      <trkpt lat="43.66768" lon="1.55414">
        <ele>224.61</ele>
        <time>2026-05-25T11:51:37Z</time>
      </trkpt>
      <trkpt lat="43.66782" lon="1.55398">
        <ele>223.64</ele>
        <time>2026-05-25T11:51:51Z</time>
      </trkpt>
      <trkpt lat="43.66795" lon="1.55383">
        <ele>223.64</ele>
        <time>2026-05-25T11:52:05Z</time>
      </trkpt>
      <trkpt lat="43.66801" lon="1.55374">
        <ele>223.16</ele>
        <time>2026-05-25T11:52:25Z</time>
      </trkpt>
      <trkpt lat="43.66814" lon="1.55355">
        <ele>222.68</ele>
        <time>2026-05-25T11:52:39Z</time>
      </trkpt>
      <trkpt lat="43.66826" lon="1.55339">
        <ele>221.72</ele>
        <time>2026-05-25T11:52:51Z</time>
      </trkpt>
      <trkpt lat="43.66843" lon="1.55318">
        <ele>220.76</ele>
        <time>2026-05-25T11:53:07Z</time>
      </trkpt>
      <trkpt lat="43.66857" lon="1.55301">
        <ele>219.8</ele>
        <time>2026-05-25T11:53:24Z</time>
      </trkpt>
      <trkpt lat="43.66878" lon="1.55283">
        <ele>218.84</ele>
        <time>2026-05-25T11:53:42Z</time>
      </trkpt>
      <trkpt lat="43.66903" lon="1.55263">
        <ele>217.88</ele>
        <time>2026-05-25T11:54:02Z</time>
      </trkpt>
      <trkpt lat="43.66918" lon="1.55253">
        <ele>217.4</ele>
        <time>2026-05-25T11:54:16Z</time>
      </trkpt>
      <trkpt lat="43.66939" lon="1.55239">
        <ele>216.91</ele>
        <time>2026-05-25T11:54:33Z</time>
      </trkpt>
      <trkpt lat="43.66953" lon="1.55231">
        <ele>216.43</ele>
        <time>2026-05-25T11:54:44Z</time>
      </trkpt>
      <trkpt lat="43.66954" lon="1.5523">
        <ele>216.43</ele>
        <time>2026-05-25T11:54:45Z</time>
      </trkpt>
      <trkpt lat="43.66979" lon="1.55216">
        <ele>215.95</ele>
        <time>2026-05-25T11:55:03Z</time>
      </trkpt>
      <trkpt lat="43.66994" lon="1.55205">
        <ele>215.95</ele>
        <time>2026-05-25T11:55:17Z</time>
      </trkpt>
      <trkpt lat="43.67013" lon="1.55197">
        <ele>215.47</ele>
        <time>2026-05-25T11:55:33Z</time>
      </trkpt>
      <trkpt lat="43.67038" lon="1.55181">
        <ele>214.99</ele>
        <time>2026-05-25T11:55:50Z</time>
      </trkpt>
      <trkpt lat="43.67044" lon="1.55177">
        <ele>214.99</ele>
        <time>2026-05-25T11:56:03Z</time>
      </trkpt>
      <trkpt lat="43.67044" lon="1.55177">
        <ele>214.99</ele>
        <time>2026-05-25T11:56:08Z</time>
      </trkpt>
      <trkpt lat="43.67045" lon="1.55176">
        <ele>214.99</ele>
        <time>2026-05-25T11:56:09Z</time>
      </trkpt>
      <trkpt lat="43.67046" lon="1.55174">
        <ele>214.99</ele>
        <time>2026-05-25T11:56:10Z</time>
      </trkpt>
      <trkpt lat="43.67065" lon="1.5515">
        <ele>214.99</ele>
        <time>2026-05-25T11:56:28Z</time>
      </trkpt>
      <trkpt lat="43.6708" lon="1.55131">
        <ele>214.99</ele>
        <time>2026-05-25T11:56:44Z</time>
      </trkpt>
      <trkpt lat="43.67087" lon="1.55121">
        <ele>214.99</ele>
        <time>2026-05-25T11:56:53Z</time>
      </trkpt>
      <trkpt lat="43.67087" lon="1.5512">
        <ele>214.51</ele>
        <time>2026-05-25T11:56:54Z</time>
      </trkpt>
      <trkpt lat="43.67088" lon="1.55119">
        <ele>214.51</ele>
        <time>2026-05-25T11:56:55Z</time>
      </trkpt>
      <trkpt lat="43.67103" lon="1.55096">
        <ele>214.51</ele>
        <time>2026-05-25T11:57:11Z</time>
      </trkpt>
      <trkpt lat="43.67116" lon="1.55076">
        <ele>214.03</ele>
        <time>2026-05-25T11:57:26Z</time>
      </trkpt>
      <trkpt lat="43.67132" lon="1.55055">
        <ele>213.55</ele>
        <time>2026-05-25T11:57:43Z</time>
      </trkpt>
      <trkpt lat="43.67146" lon="1.55029">
        <ele>213.55</ele>
        <time>2026-05-25T11:58:00Z</time>
      </trkpt>
      <trkpt lat="43.6716" lon="1.55001">
        <ele>213.55</ele>
        <time>2026-05-25T11:58:18Z</time>
      </trkpt>
      <trkpt lat="43.67172" lon="1.54967">
        <ele>213.07</ele>
        <time>2026-05-25T11:58:37Z</time>
      </trkpt>
      <trkpt lat="43.67173" lon="1.54969">
        <ele>213.07</ele>
        <time>2026-05-25T11:58:57Z</time>
      </trkpt>
      <trkpt lat="43.67173" lon="1.54967">
        <ele>213.07</ele>
        <time>2026-05-25T11:59:02Z</time>
      </trkpt>
      <trkpt lat="43.67174" lon="1.54964">
        <ele>213.07</ele>
        <time>2026-05-25T11:59:05Z</time>
      </trkpt>
      <trkpt lat="43.67175" lon="1.54962">
        <ele>213.07</ele>
        <time>2026-05-25T11:59:06Z</time>
      </trkpt>
      <trkpt lat="43.67184" lon="1.54938">
        <ele>213.07</ele>
        <time>2026-05-25T11:59:22Z</time>
      </trkpt>
      <trkpt lat="43.67194" lon="1.54913">
        <ele>213.07</ele>
        <time>2026-05-25T11:59:37Z</time>
      </trkpt>
      <trkpt lat="43.67214" lon="1.54888">
        <ele>213.07</ele>
        <time>2026-05-25T11:59:55Z</time>
      </trkpt>
      <trkpt lat="43.67225" lon="1.54875">
        <ele>212.59</ele>
        <time>2026-05-25T12:00:09Z</time>
      </trkpt>
      <trkpt lat="43.67237" lon="1.54851">
        <ele>212.59</ele>
        <time>2026-05-25T12:00:26Z</time>
      </trkpt>
      <trkpt lat="43.67245" lon="1.54824">
        <ele>212.59</ele>
        <time>2026-05-25T12:00:39Z</time>
      </trkpt>
      <trkpt lat="43.67254" lon="1.54794">
        <ele>212.59</ele>
        <time>2026-05-25T12:00:58Z</time>
      </trkpt>
      <trkpt lat="43.67261" lon="1.54754">
        <ele>212.59</ele>
        <time>2026-05-25T12:01:17Z</time>
      </trkpt>
      <trkpt lat="43.67265" lon="1.5472">
        <ele>212.59</ele>
        <time>2026-05-25T12:01:37Z</time>
      </trkpt>
      <trkpt lat="43.67268" lon="1.54693">
        <ele>212.11</ele>
        <time>2026-05-25T12:01:53Z</time>
      </trkpt>
      <trkpt lat="43.67273" lon="1.54657">
        <ele>212.11</ele>
        <time>2026-05-25T12:02:10Z</time>
      </trkpt>
      <trkpt lat="43.67278" lon="1.54635">
        <ele>213.55</ele>
        <time>2026-05-25T12:02:25Z</time>
      </trkpt>
      <trkpt lat="43.67287" lon="1.54598">
        <ele>213.55</ele>
        <time>2026-05-25T12:02:42Z</time>
      </trkpt>
      <trkpt lat="43.67296" lon="1.54572">
        <ele>213.07</ele>
        <time>2026-05-25T12:02:59Z</time>
      </trkpt>
      <trkpt lat="43.67307" lon="1.54547">
        <ele>213.07</ele>
        <time>2026-05-25T12:03:15Z</time>
      </trkpt>
      <trkpt lat="43.6732" lon="1.54517">
        <ele>212.11</ele>
        <time>2026-05-25T12:03:34Z</time>
      </trkpt>
      <trkpt lat="43.67338" lon="1.54487">
        <ele>212.11</ele>
        <time>2026-05-25T12:03:55Z</time>
      </trkpt>
      <trkpt lat="43.67359" lon="1.54457">
        <ele>212.11</ele>
        <time>2026-05-25T12:04:15Z</time>
      </trkpt>
      <trkpt lat="43.67372" lon="1.54437">
        <ele>212.11</ele>
        <time>2026-05-25T12:04:31Z</time>
      </trkpt>
      <trkpt lat="43.67373" lon="1.54436">
        <ele>212.11</ele>
        <time>2026-05-25T12:04:32Z</time>
      </trkpt>
      <trkpt lat="43.67374" lon="1.54434">
        <ele>212.11</ele>
        <time>2026-05-25T12:04:33Z</time>
      </trkpt>
      <trkpt lat="43.67389" lon="1.54407">
        <ele>212.11</ele>
        <time>2026-05-25T12:04:50Z</time>
      </trkpt>
      <trkpt lat="43.67409" lon="1.54382">
        <ele>212.11</ele>
        <time>2026-05-25T12:05:09Z</time>
      </trkpt>
      <trkpt lat="43.67426" lon="1.5436">
        <ele>212.11</ele>
        <time>2026-05-25T12:05:28Z</time>
      </trkpt>
      <trkpt lat="43.67445" lon="1.54341">
        <ele>211.15</ele>
        <time>2026-05-25T12:05:43Z</time>
      </trkpt>
      <trkpt lat="43.67448" lon="1.54334">
        <ele>212.59</ele>
        <time>2026-05-25T12:05:46Z</time>
      </trkpt>
      <trkpt lat="43.67458" lon="1.54323">
        <ele>213.07</ele>
        <time>2026-05-25T12:06:00Z</time>
      </trkpt>
      <trkpt lat="43.67481" lon="1.5432">
        <ele>214.99</ele>
        <time>2026-05-25T12:06:19Z</time>
      </trkpt>
      <trkpt lat="43.67504" lon="1.54318">
        <ele>216.91</ele>
        <time>2026-05-25T12:06:38Z</time>
      </trkpt>
      <trkpt lat="43.67514" lon="1.54316">
        <ele>217.88</ele>
        <time>2026-05-25T12:06:48Z</time>
      </trkpt>
      <trkpt lat="43.67516" lon="1.54315">
        <ele>217.88</ele>
        <time>2026-05-25T12:06:49Z</time>
      </trkpt>
      <trkpt lat="43.67517" lon="1.54315">
        <ele>217.88</ele>
        <time>2026-05-25T12:06:50Z</time>
      </trkpt>
      <trkpt lat="43.67519" lon="1.54315">
        <ele>217.88</ele>
        <time>2026-05-25T12:06:51Z</time>
      </trkpt>
      <trkpt lat="43.67521" lon="1.54315">
        <ele>217.88</ele>
        <time>2026-05-25T12:06:52Z</time>
      </trkpt>
      <trkpt lat="43.67522" lon="1.54315">
        <ele>217.88</ele>
        <time>2026-05-25T12:06:53Z</time>
      </trkpt>
      <trkpt lat="43.67523" lon="1.54313">
        <ele>217.88</ele>
        <time>2026-05-25T12:06:54Z</time>
      </trkpt>
      <trkpt lat="43.67525" lon="1.54311">
        <ele>217.88</ele>
        <time>2026-05-25T12:06:56Z</time>
      </trkpt>
      <trkpt lat="43.67527" lon="1.54308">
        <ele>217.88</ele>
        <time>2026-05-25T12:06:57Z</time>
      </trkpt>
      <trkpt lat="43.67528" lon="1.54307">
        <ele>217.88</ele>
        <time>2026-05-25T12:06:58Z</time>
      </trkpt>
      <trkpt lat="43.67541" lon="1.54275">
        <ele>218.36</ele>
        <time>2026-05-25T12:07:15Z</time>
      </trkpt>
      <trkpt lat="43.67549" lon="1.54253">
        <ele>218.36</ele>
        <time>2026-05-25T12:07:30Z</time>
      </trkpt>
      <trkpt lat="43.67559" lon="1.54228">
        <ele>218.36</ele>
        <time>2026-05-25T12:07:46Z</time>
      </trkpt>
      <trkpt lat="43.67572" lon="1.54198">
        <ele>218.36</ele>
        <time>2026-05-25T12:08:01Z</time>
      </trkpt>
      <trkpt lat="43.67574" lon="1.54193">
        <ele>218.36</ele>
        <time>2026-05-25T12:08:06Z</time>
      </trkpt>
      <trkpt lat="43.67576" lon="1.54189">
        <ele>218.36</ele>
        <time>2026-05-25T12:08:09Z</time>
      </trkpt>
      <trkpt lat="43.67583" lon="1.54174">
        <ele>216.91</ele>
        <time>2026-05-25T12:08:17Z</time>
      </trkpt>
      <trkpt lat="43.67595" lon="1.54149">
        <ele>216.43</ele>
        <time>2026-05-25T12:08:34Z</time>
      </trkpt>
      <trkpt lat="43.67606" lon="1.54118">
        <ele>216.43</ele>
        <time>2026-05-25T12:08:51Z</time>
      </trkpt>
      <trkpt lat="43.67617" lon="1.54093">
        <ele>216.43</ele>
        <time>2026-05-25T12:09:06Z</time>
      </trkpt>
      <trkpt lat="43.67621" lon="1.54074">
        <ele>216.43</ele>
        <time>2026-05-25T12:09:18Z</time>
      </trkpt>
      <trkpt lat="43.67622" lon="1.54072">
        <ele>216.43</ele>
        <time>2026-05-25T12:09:19Z</time>
      </trkpt>
      <trkpt lat="43.6763" lon="1.54041">
        <ele>216.43</ele>
        <time>2026-05-25T12:09:35Z</time>
      </trkpt>
      <trkpt lat="43.67632" lon="1.54035">
        <ele>217.4</ele>
        <time>2026-05-25T12:09:41Z</time>
      </trkpt>
      <trkpt lat="43.67632" lon="1.54033">
        <ele>217.4</ele>
        <time>2026-05-25T12:09:42Z</time>
      </trkpt>
      <trkpt lat="43.67633" lon="1.54032">
        <ele>217.4</ele>
        <time>2026-05-25T12:09:43Z</time>
      </trkpt>
      <trkpt lat="43.67643" lon="1.54004">
        <ele>217.88</ele>
        <time>2026-05-25T12:09:59Z</time>
      </trkpt>
      <trkpt lat="43.67651" lon="1.53975">
        <ele>218.36</ele>
        <time>2026-05-25T12:10:16Z</time>
      </trkpt>
      <trkpt lat="43.67663" lon="1.53952">
        <ele>219.32</ele>
        <time>2026-05-25T12:10:32Z</time>
      </trkpt>
      <trkpt lat="43.67668" lon="1.53941">
        <ele>219.8</ele>
        <time>2026-05-25T12:10:42Z</time>
      </trkpt>
      <trkpt lat="43.67669" lon="1.53939">
        <ele>219.8</ele>
        <time>2026-05-25T12:10:43Z</time>
      </trkpt>
      <trkpt lat="43.6767" lon="1.53937">
        <ele>219.8</ele>
        <time>2026-05-25T12:10:44Z</time>
      </trkpt>
      <trkpt lat="43.67678" lon="1.53918">
        <ele>220.28</ele>
        <time>2026-05-25T12:10:57Z</time>
      </trkpt>
      <trkpt lat="43.67679" lon="1.53917">
        <ele>220.28</ele>
        <time>2026-05-25T12:10:58Z</time>
      </trkpt>
      <trkpt lat="43.67695" lon="1.539">
        <ele>220.28</ele>
        <time>2026-05-25T12:11:14Z</time>
      </trkpt>
      <trkpt lat="43.6772" lon="1.53887">
        <ele>220.28</ele>
        <time>2026-05-25T12:11:33Z</time>
      </trkpt>
      <trkpt lat="43.67737" lon="1.53869">
        <ele>220.28</ele>
        <time>2026-05-25T12:11:48Z</time>
      </trkpt>
      <trkpt lat="43.67746" lon="1.53844">
        <ele>219.32</ele>
        <time>2026-05-25T12:12:04Z</time>
      </trkpt>
      <trkpt lat="43.67758" lon="1.53816">
        <ele>219.32</ele>
        <time>2026-05-25T12:12:19Z</time>
      </trkpt>
      <trkpt lat="43.67765" lon="1.53801">
        <ele>219.32</ele>
        <time>2026-05-25T12:12:32Z</time>
      </trkpt>
      <trkpt lat="43.67766" lon="1.538">
        <ele>219.32</ele>
        <time>2026-05-25T12:12:33Z</time>
      </trkpt>
      <trkpt lat="43.67767" lon="1.53798">
        <ele>219.32</ele>
        <time>2026-05-25T12:12:34Z</time>
      </trkpt>
      <trkpt lat="43.67777" lon="1.53764">
        <ele>220.76</ele>
        <time>2026-05-25T12:12:52Z</time>
      </trkpt>
      <trkpt lat="43.67779" lon="1.53737">
        <ele>220.76</ele>
        <time>2026-05-25T12:13:07Z</time>
      </trkpt>
      <trkpt lat="43.67786" lon="1.53711">
        <ele>219.8</ele>
        <time>2026-05-25T12:13:23Z</time>
      </trkpt>
      <trkpt lat="43.67799" lon="1.53685">
        <ele>219.32</ele>
        <time>2026-05-25T12:13:39Z</time>
      </trkpt>
      <trkpt lat="43.67811" lon="1.53654">
        <ele>218.84</ele>
        <time>2026-05-25T12:13:57Z</time>
      </trkpt>
      <trkpt lat="43.6782" lon="1.53632">
        <ele>218.36</ele>
        <time>2026-05-25T12:14:12Z</time>
      </trkpt>
      <trkpt lat="43.6783" lon="1.53606">
        <ele>218.36</ele>
        <time>2026-05-25T12:14:27Z</time>
      </trkpt>
      <trkpt lat="43.67831" lon="1.5359">
        <ele>218.36</ele>
        <time>2026-05-25T12:14:38Z</time>
      </trkpt>
      <trkpt lat="43.6783" lon="1.53588">
        <ele>218.36</ele>
        <time>2026-05-25T12:14:39Z</time>
      </trkpt>
      <trkpt lat="43.67826" lon="1.53583">
        <ele>219.8</ele>
        <time>2026-05-25T12:14:44Z</time>
      </trkpt>
      <trkpt lat="43.67814" lon="1.5356">
        <ele>219.8</ele>
        <time>2026-05-25T12:14:57Z</time>
      </trkpt>
      <trkpt lat="43.67812" lon="1.53556">
        <ele>220.76</ele>
        <time>2026-05-25T12:15:00Z</time>
      </trkpt>
      <trkpt lat="43.67811" lon="1.5355">
        <ele>220.76</ele>
        <time>2026-05-25T12:15:04Z</time>
      </trkpt>
      <trkpt lat="43.678" lon="1.53522">
        <ele>221.24</ele>
        <time>2026-05-25T12:15:19Z</time>
      </trkpt>
      <trkpt lat="43.67794" lon="1.5351">
        <ele>222.2</ele>
        <time>2026-05-25T12:15:29Z</time>
      </trkpt>
      <trkpt lat="43.67792" lon="1.53506">
        <ele>222.2</ele>
        <time>2026-05-25T12:15:31Z</time>
      </trkpt>
      <trkpt lat="43.67783" lon="1.53483">
        <ele>223.16</ele>
        <time>2026-05-25T12:15:47Z</time>
      </trkpt>
      <trkpt lat="43.67781" lon="1.53454">
        <ele>223.64</ele>
        <time>2026-05-25T12:16:04Z</time>
      </trkpt>
      <trkpt lat="43.67781" lon="1.53431">
        <ele>223.64</ele>
        <time>2026-05-25T12:16:18Z</time>
      </trkpt>
      <trkpt lat="43.67772" lon="1.53403">
        <ele>224.12</ele>
        <time>2026-05-25T12:16:34Z</time>
      </trkpt>
      <trkpt lat="43.67768" lon="1.53396">
        <ele>224.12</ele>
        <time>2026-05-25T12:16:44Z</time>
      </trkpt>
      <trkpt lat="43.67767" lon="1.53394">
        <ele>224.12</ele>
        <time>2026-05-25T12:16:45Z</time>
      </trkpt>
      <trkpt lat="43.67762" lon="1.53375">
        <ele>224.61</ele>
        <time>2026-05-25T12:16:57Z</time>
      </trkpt>
      <trkpt lat="43.67761" lon="1.53371">
        <ele>224.61</ele>
        <time>2026-05-25T12:17:00Z</time>
      </trkpt>
      <trkpt lat="43.67761" lon="1.53369">
        <ele>224.61</ele>
        <time>2026-05-25T12:17:01Z</time>
      </trkpt>
      <trkpt lat="43.6776" lon="1.53367">
        <ele>224.61</ele>
        <time>2026-05-25T12:17:02Z</time>
      </trkpt>
      <trkpt lat="43.6776" lon="1.53365">
        <ele>224.61</ele>
        <time>2026-05-25T12:17:03Z</time>
      </trkpt>
      <trkpt lat="43.6776" lon="1.53363">
        <ele>224.61</ele>
        <time>2026-05-25T12:17:04Z</time>
      </trkpt>
      <trkpt lat="43.6776" lon="1.53361">
        <ele>225.09</ele>
        <time>2026-05-25T12:17:05Z</time>
      </trkpt>
      <trkpt lat="43.6776" lon="1.53359">
        <ele>225.09</ele>
        <time>2026-05-25T12:17:06Z</time>
      </trkpt>
      <trkpt lat="43.67756" lon="1.53337">
        <ele>225.57</ele>
        <time>2026-05-25T12:17:21Z</time>
      </trkpt>
      <trkpt lat="43.67756" lon="1.5332">
        <ele>226.05</ele>
        <time>2026-05-25T12:17:30Z</time>
      </trkpt>
      <trkpt lat="43.67755" lon="1.53318">
        <ele>226.05</ele>
        <time>2026-05-25T12:17:31Z</time>
      </trkpt>
      <trkpt lat="43.67754" lon="1.53316">
        <ele>226.05</ele>
        <time>2026-05-25T12:17:32Z</time>
      </trkpt>
      <trkpt lat="43.67751" lon="1.53309">
        <ele>226.05</ele>
        <time>2026-05-25T12:17:39Z</time>
      </trkpt>
      <trkpt lat="43.6775" lon="1.53307">
        <ele>226.53</ele>
        <time>2026-05-25T12:17:40Z</time>
      </trkpt>
      <trkpt lat="43.6775" lon="1.53305">
        <ele>226.53</ele>
        <time>2026-05-25T12:17:41Z</time>
      </trkpt>
      <trkpt lat="43.67749" lon="1.53303">
        <ele>226.53</ele>
        <time>2026-05-25T12:17:42Z</time>
      </trkpt>
      <trkpt lat="43.6775" lon="1.53301">
        <ele>226.53</ele>
        <time>2026-05-25T12:17:43Z</time>
      </trkpt>
      <trkpt lat="43.67747" lon="1.53277">
        <ele>227.01</ele>
        <time>2026-05-25T12:17:57Z</time>
      </trkpt>
      <trkpt lat="43.67747" lon="1.53275">
        <ele>227.01</ele>
        <time>2026-05-25T12:17:58Z</time>
      </trkpt>
      <trkpt lat="43.67746" lon="1.53272">
        <ele>227.01</ele>
        <time>2026-05-25T12:17:59Z</time>
      </trkpt>
      <trkpt lat="43.67745" lon="1.53271">
        <ele>227.01</ele>
        <time>2026-05-25T12:18:00Z</time>
      </trkpt>
      <trkpt lat="43.67745" lon="1.53269">
        <ele>227.97</ele>
        <time>2026-05-25T12:18:01Z</time>
      </trkpt>
      <trkpt lat="43.67751" lon="1.53259">
        <ele>227.97</ele>
        <time>2026-05-25T12:18:14Z</time>
      </trkpt>
      <trkpt lat="43.67752" lon="1.53259">
        <ele>227.97</ele>
        <time>2026-05-25T12:18:15Z</time>
      </trkpt>
      <trkpt lat="43.67774" lon="1.53245">
        <ele>226.53</ele>
        <time>2026-05-25T12:18:33Z</time>
      </trkpt>
      <trkpt lat="43.67793" lon="1.53232">
        <ele>225.57</ele>
        <time>2026-05-25T12:18:51Z</time>
      </trkpt>
      <trkpt lat="43.67808" lon="1.53219">
        <ele>225.09</ele>
        <time>2026-05-25T12:19:09Z</time>
      </trkpt>
    </trkseg>
  </trk>
</gpx>